<?xml version="1.0" encoding="UTF-8" standalone="no" ?>
<gpx xmlns="http://www.topografix.com/GPX/1/1" xmlns:xsi="http://www.w3.org/2001/XMLSchema-instance" xsi:schemaLocation="http://www.topografix.com/GPX/1/1 http://www.topografix.com/GPX/1/1/gpx.xsd" version="1.1" creator="VisuGPX - https://www.visugpx.com">
  <metadata>
    <name>J2 Bisinao-Porto Pollo</name>
  </metadata>
  <trk>
    <name><![CDATA[26-AVR-22 06:36:19 PM]]></name>
    <extensions>
      <line xmlns="http://www.topografix.com/GPX/gpx_style/0/2">
        <color>0000FF</color>
        <width>4</width>
      </line>
    </extensions>
    <trkseg>
      <trkpt lat="41.84" lon="8.86882">
        <ele>624.99</ele>
        <time>2022-04-26T06:03:15Z</time>
      </trkpt>
      <trkpt lat="41.83998" lon="8.86882">
        <ele>625.47</ele>
        <time>2022-04-26T06:03:33Z</time>
      </trkpt>
      <trkpt lat="41.83992" lon="8.86882">
        <ele>625.47</ele>
        <time>2022-04-26T06:03:58Z</time>
      </trkpt>
      <trkpt lat="41.83994" lon="8.86885">
        <ele>625.47</ele>
        <time>2022-04-26T06:04:26Z</time>
      </trkpt>
      <trkpt lat="41.83997" lon="8.86886">
        <ele>626.92</ele>
        <time>2022-04-26T06:04:53Z</time>
      </trkpt>
      <trkpt lat="41.83999" lon="8.86889">
        <ele>627.4</ele>
        <time>2022-04-26T06:05:08Z</time>
      </trkpt>
      <trkpt lat="41.84002" lon="8.86887">
        <ele>628.36</ele>
        <time>2022-04-26T06:05:20Z</time>
      </trkpt>
      <trkpt lat="41.84" lon="8.86887">
        <ele>627.88</ele>
        <time>2022-04-26T06:05:32Z</time>
      </trkpt>
      <trkpt lat="41.83999" lon="8.86889">
        <ele>628.84</ele>
        <time>2022-04-26T06:05:44Z</time>
      </trkpt>
      <trkpt lat="41.83997" lon="8.86886">
        <ele>629.32</ele>
        <time>2022-04-26T06:06:05Z</time>
      </trkpt>
      <trkpt lat="41.84003" lon="8.86892">
        <ele>629.32</ele>
        <time>2022-04-26T06:06:25Z</time>
      </trkpt>
      <trkpt lat="41.83999" lon="8.86887">
        <ele>629.8</ele>
        <time>2022-04-26T06:06:36Z</time>
      </trkpt>
      <trkpt lat="41.84007" lon="8.86897">
        <ele>630.28</ele>
        <time>2022-04-26T06:06:50Z</time>
      </trkpt>
      <trkpt lat="41.84004" lon="8.86901">
        <ele>629.8</ele>
        <time>2022-04-26T06:07:04Z</time>
      </trkpt>
      <trkpt lat="41.83991" lon="8.86898">
        <ele>626.44</ele>
        <time>2022-04-26T06:07:20Z</time>
      </trkpt>
      <trkpt lat="41.83986" lon="8.86897">
        <ele>626.44</ele>
        <time>2022-04-26T06:07:37Z</time>
      </trkpt>
      <trkpt lat="41.83984" lon="8.86903">
        <ele>626.44</ele>
        <time>2022-04-26T06:07:52Z</time>
      </trkpt>
      <trkpt lat="41.83989" lon="8.86899">
        <ele>626.44</ele>
        <time>2022-04-26T06:08:09Z</time>
      </trkpt>
      <trkpt lat="41.83986" lon="8.869">
        <ele>627.88</ele>
        <time>2022-04-26T06:08:27Z</time>
      </trkpt>
      <trkpt lat="41.83985" lon="8.86897">
        <ele>627.88</ele>
        <time>2022-04-26T06:08:48Z</time>
      </trkpt>
      <trkpt lat="41.83985" lon="8.86898">
        <ele>628.36</ele>
        <time>2022-04-26T06:09:02Z</time>
      </trkpt>
      <trkpt lat="41.83978" lon="8.86886">
        <ele>627.4</ele>
        <time>2022-04-26T06:09:20Z</time>
      </trkpt>
      <trkpt lat="41.83973" lon="8.8689">
        <ele>625.96</ele>
        <time>2022-04-26T06:09:36Z</time>
      </trkpt>
      <trkpt lat="41.83981" lon="8.86904">
        <ele>625.47</ele>
        <time>2022-04-26T06:09:51Z</time>
      </trkpt>
      <trkpt lat="41.83982" lon="8.86913">
        <ele>624.99</ele>
        <time>2022-04-26T06:10:06Z</time>
      </trkpt>
      <trkpt lat="41.83985" lon="8.86913">
        <ele>625.96</ele>
        <time>2022-04-26T06:10:25Z</time>
      </trkpt>
      <trkpt lat="41.83995" lon="8.86927">
        <ele>624.03</ele>
        <time>2022-04-26T06:10:42Z</time>
      </trkpt>
      <trkpt lat="41.83987" lon="8.86935">
        <ele>622.11</ele>
        <time>2022-04-26T06:10:57Z</time>
      </trkpt>
      <trkpt lat="41.83984" lon="8.86934">
        <ele>620.67</ele>
        <time>2022-04-26T06:11:00Z</time>
      </trkpt>
      <trkpt lat="41.83967" lon="8.86926">
        <ele>617.78</ele>
        <time>2022-04-26T06:11:20Z</time>
      </trkpt>
      <trkpt lat="41.83964" lon="8.86928">
        <ele>617.3</ele>
        <time>2022-04-26T06:11:24Z</time>
      </trkpt>
      <trkpt lat="41.83968" lon="8.8694">
        <ele>615.38</ele>
        <time>2022-04-26T06:11:39Z</time>
      </trkpt>
      <trkpt lat="41.83968" lon="8.86947">
        <ele>616.82</ele>
        <time>2022-04-26T06:11:54Z</time>
      </trkpt>
      <trkpt lat="41.83967" lon="8.86949">
        <ele>614.9</ele>
        <time>2022-04-26T06:12:00Z</time>
      </trkpt>
      <trkpt lat="41.83962" lon="8.86947">
        <ele>616.34</ele>
        <time>2022-04-26T06:12:19Z</time>
      </trkpt>
      <trkpt lat="41.83966" lon="8.8695">
        <ele>616.82</ele>
        <time>2022-04-26T06:12:54Z</time>
      </trkpt>
      <trkpt lat="41.83965" lon="8.86948">
        <ele>617.78</ele>
        <time>2022-04-26T06:13:36Z</time>
      </trkpt>
      <trkpt lat="41.83966" lon="8.86946">
        <ele>618.26</ele>
        <time>2022-04-26T06:14:19Z</time>
      </trkpt>
      <trkpt lat="41.83969" lon="8.86949">
        <ele>618.26</ele>
        <time>2022-04-26T06:14:53Z</time>
      </trkpt>
      <trkpt lat="41.83969" lon="8.86936">
        <ele>618.26</ele>
        <time>2022-04-26T06:15:16Z</time>
      </trkpt>
      <trkpt lat="41.83965" lon="8.86952">
        <ele>616.34</ele>
        <time>2022-04-26T06:15:29Z</time>
      </trkpt>
      <trkpt lat="41.83967" lon="8.86952">
        <ele>616.82</ele>
        <time>2022-04-26T06:15:49Z</time>
      </trkpt>
      <trkpt lat="41.83975" lon="8.86961">
        <ele>615.38</ele>
        <time>2022-04-26T06:16:07Z</time>
      </trkpt>
      <trkpt lat="41.83979" lon="8.86967">
        <ele>613.94</ele>
        <time>2022-04-26T06:16:12Z</time>
      </trkpt>
      <trkpt lat="41.8398" lon="8.86978">
        <ele>612.98</ele>
        <time>2022-04-26T06:16:18Z</time>
      </trkpt>
      <trkpt lat="41.83994" lon="8.86984">
        <ele>613.94</ele>
        <time>2022-04-26T06:16:35Z</time>
      </trkpt>
      <trkpt lat="41.84023" lon="8.86994">
        <ele>614.42</ele>
        <time>2022-04-26T06:16:56Z</time>
      </trkpt>
      <trkpt lat="41.84049" lon="8.86996">
        <ele>615.38</ele>
        <time>2022-04-26T06:17:13Z</time>
      </trkpt>
      <trkpt lat="41.84056" lon="8.87002">
        <ele>615.38</ele>
        <time>2022-04-26T06:17:34Z</time>
      </trkpt>
      <trkpt lat="41.84062" lon="8.87001">
        <ele>615.86</ele>
        <time>2022-04-26T06:18:05Z</time>
      </trkpt>
      <trkpt lat="41.84071" lon="8.87012">
        <ele>616.34</ele>
        <time>2022-04-26T06:18:17Z</time>
      </trkpt>
      <trkpt lat="41.84086" lon="8.87021">
        <ele>617.3</ele>
        <time>2022-04-26T06:18:35Z</time>
      </trkpt>
      <trkpt lat="41.84103" lon="8.87022">
        <ele>617.3</ele>
        <time>2022-04-26T06:18:53Z</time>
      </trkpt>
      <trkpt lat="41.84121" lon="8.87027">
        <ele>617.3</ele>
        <time>2022-04-26T06:19:06Z</time>
      </trkpt>
      <trkpt lat="41.84137" lon="8.87025">
        <ele>616.82</ele>
        <time>2022-04-26T06:19:25Z</time>
      </trkpt>
      <trkpt lat="41.84149" lon="8.87034">
        <ele>616.82</ele>
        <time>2022-04-26T06:19:42Z</time>
      </trkpt>
      <trkpt lat="41.84165" lon="8.87045">
        <ele>616.34</ele>
        <time>2022-04-26T06:19:54Z</time>
      </trkpt>
      <trkpt lat="41.84185" lon="8.87071">
        <ele>616.82</ele>
        <time>2022-04-26T06:20:13Z</time>
      </trkpt>
      <trkpt lat="41.84199" lon="8.87082">
        <ele>616.82</ele>
        <time>2022-04-26T06:20:30Z</time>
      </trkpt>
      <trkpt lat="41.8421" lon="8.87098">
        <ele>616.82</ele>
        <time>2022-04-26T06:20:48Z</time>
      </trkpt>
      <trkpt lat="41.84214" lon="8.87099">
        <ele>617.3</ele>
        <time>2022-04-26T06:21:03Z</time>
      </trkpt>
      <trkpt lat="41.84205" lon="8.87109">
        <ele>617.3</ele>
        <time>2022-04-26T06:21:21Z</time>
      </trkpt>
      <trkpt lat="41.84209" lon="8.87109">
        <ele>617.3</ele>
        <time>2022-04-26T06:21:43Z</time>
      </trkpt>
      <trkpt lat="41.84209" lon="8.87098">
        <ele>617.3</ele>
        <time>2022-04-26T06:22:05Z</time>
      </trkpt>
      <trkpt lat="41.84201" lon="8.87088">
        <ele>617.78</ele>
        <time>2022-04-26T06:22:22Z</time>
      </trkpt>
      <trkpt lat="41.84203" lon="8.87092">
        <ele>617.78</ele>
        <time>2022-04-26T06:22:39Z</time>
      </trkpt>
      <trkpt lat="41.84202" lon="8.87094">
        <ele>618.26</ele>
        <time>2022-04-26T06:23:01Z</time>
      </trkpt>
      <trkpt lat="41.84203" lon="8.87102">
        <ele>618.75</ele>
        <time>2022-04-26T06:23:22Z</time>
      </trkpt>
      <trkpt lat="41.84209" lon="8.8711">
        <ele>618.26</ele>
        <time>2022-04-26T06:23:41Z</time>
      </trkpt>
      <trkpt lat="41.84213" lon="8.87138">
        <ele>618.75</ele>
        <time>2022-04-26T06:23:58Z</time>
      </trkpt>
      <trkpt lat="41.84213" lon="8.87156">
        <ele>618.75</ele>
        <time>2022-04-26T06:24:10Z</time>
      </trkpt>
      <trkpt lat="41.84214" lon="8.87175">
        <ele>619.23</ele>
        <time>2022-04-26T06:24:21Z</time>
      </trkpt>
      <trkpt lat="41.84214" lon="8.87181">
        <ele>619.23</ele>
        <time>2022-04-26T06:24:24Z</time>
      </trkpt>
      <trkpt lat="41.84211" lon="8.87216">
        <ele>619.71</ele>
        <time>2022-04-26T06:24:44Z</time>
      </trkpt>
      <trkpt lat="41.84209" lon="8.8723">
        <ele>623.07</ele>
        <time>2022-04-26T06:24:52Z</time>
      </trkpt>
      <trkpt lat="41.84209" lon="8.87232">
        <ele>623.07</ele>
        <time>2022-04-26T06:24:53Z</time>
      </trkpt>
      <trkpt lat="41.84209" lon="8.87233">
        <ele>619.23</ele>
        <time>2022-04-26T06:24:54Z</time>
      </trkpt>
      <trkpt lat="41.84209" lon="8.87235">
        <ele>619.23</ele>
        <time>2022-04-26T06:24:55Z</time>
      </trkpt>
      <trkpt lat="41.84205" lon="8.87265">
        <ele>620.19</ele>
        <time>2022-04-26T06:25:13Z</time>
      </trkpt>
      <trkpt lat="41.84199" lon="8.87289">
        <ele>619.71</ele>
        <time>2022-04-26T06:25:27Z</time>
      </trkpt>
      <trkpt lat="41.84203" lon="8.87316">
        <ele>618.26</ele>
        <time>2022-04-26T06:25:43Z</time>
      </trkpt>
      <trkpt lat="41.84212" lon="8.87337">
        <ele>617.78</ele>
        <time>2022-04-26T06:25:59Z</time>
      </trkpt>
      <trkpt lat="41.84205" lon="8.87369">
        <ele>618.26</ele>
        <time>2022-04-26T06:26:18Z</time>
      </trkpt>
      <trkpt lat="41.84199" lon="8.874">
        <ele>618.75</ele>
        <time>2022-04-26T06:26:36Z</time>
      </trkpt>
      <trkpt lat="41.84201" lon="8.87423">
        <ele>619.71</ele>
        <time>2022-04-26T06:26:50Z</time>
      </trkpt>
      <trkpt lat="41.84212" lon="8.87433">
        <ele>618.75</ele>
        <time>2022-04-26T06:27:01Z</time>
      </trkpt>
      <trkpt lat="41.84217" lon="8.87463">
        <ele>619.23</ele>
        <time>2022-04-26T06:27:19Z</time>
      </trkpt>
      <trkpt lat="41.84218" lon="8.87468">
        <ele>619.71</ele>
        <time>2022-04-26T06:27:22Z</time>
      </trkpt>
      <trkpt lat="41.8422" lon="8.87484">
        <ele>619.71</ele>
        <time>2022-04-26T06:27:31Z</time>
      </trkpt>
      <trkpt lat="41.84219" lon="8.87491">
        <ele>619.71</ele>
        <time>2022-04-26T06:27:35Z</time>
      </trkpt>
      <trkpt lat="41.84217" lon="8.87496">
        <ele>620.19</ele>
        <time>2022-04-26T06:27:38Z</time>
      </trkpt>
      <trkpt lat="41.84199" lon="8.87513">
        <ele>620.67</ele>
        <time>2022-04-26T06:27:53Z</time>
      </trkpt>
      <trkpt lat="41.8418" lon="8.87527">
        <ele>620.19</ele>
        <time>2022-04-26T06:28:10Z</time>
      </trkpt>
      <trkpt lat="41.84168" lon="8.87535">
        <ele>621.15</ele>
        <time>2022-04-26T06:28:23Z</time>
      </trkpt>
      <trkpt lat="41.8416" lon="8.8755">
        <ele>621.15</ele>
        <time>2022-04-26T06:28:34Z</time>
      </trkpt>
      <trkpt lat="41.84154" lon="8.87558">
        <ele>619.71</ele>
        <time>2022-04-26T06:28:44Z</time>
      </trkpt>
      <trkpt lat="41.84142" lon="8.87554">
        <ele>618.75</ele>
        <time>2022-04-26T06:29:01Z</time>
      </trkpt>
      <trkpt lat="41.84131" lon="8.87553">
        <ele>617.3</ele>
        <time>2022-04-26T06:29:18Z</time>
      </trkpt>
      <trkpt lat="41.84124" lon="8.87554">
        <ele>615.38</ele>
        <time>2022-04-26T06:29:23Z</time>
      </trkpt>
      <trkpt lat="41.84104" lon="8.87557">
        <ele>613.46</ele>
        <time>2022-04-26T06:29:38Z</time>
      </trkpt>
      <trkpt lat="41.8408" lon="8.87562">
        <ele>612.98</ele>
        <time>2022-04-26T06:29:57Z</time>
      </trkpt>
      <trkpt lat="41.84076" lon="8.87563">
        <ele>612.98</ele>
        <time>2022-04-26T06:30:00Z</time>
      </trkpt>
      <trkpt lat="41.84068" lon="8.87568">
        <ele>611.54</ele>
        <time>2022-04-26T06:30:06Z</time>
      </trkpt>
      <trkpt lat="41.84049" lon="8.87577">
        <ele>611.54</ele>
        <time>2022-04-26T06:30:23Z</time>
      </trkpt>
      <trkpt lat="41.84036" lon="8.87587">
        <ele>608.65</ele>
        <time>2022-04-26T06:30:36Z</time>
      </trkpt>
      <trkpt lat="41.84035" lon="8.87588">
        <ele>608.65</ele>
        <time>2022-04-26T06:30:37Z</time>
      </trkpt>
      <trkpt lat="41.8403" lon="8.8759">
        <ele>607.21</ele>
        <time>2022-04-26T06:30:42Z</time>
      </trkpt>
      <trkpt lat="41.84028" lon="8.87591">
        <ele>605.77</ele>
        <time>2022-04-26T06:30:45Z</time>
      </trkpt>
      <trkpt lat="41.84027" lon="8.87592">
        <ele>606.73</ele>
        <time>2022-04-26T06:30:47Z</time>
      </trkpt>
      <trkpt lat="41.84023" lon="8.87594">
        <ele>605.77</ele>
        <time>2022-04-26T06:31:05Z</time>
      </trkpt>
      <trkpt lat="41.84011" lon="8.87602">
        <ele>603.36</ele>
        <time>2022-04-26T06:31:21Z</time>
      </trkpt>
      <trkpt lat="41.83995" lon="8.87613">
        <ele>601.92</ele>
        <time>2022-04-26T06:31:38Z</time>
      </trkpt>
      <trkpt lat="41.83996" lon="8.87613">
        <ele>602.4</ele>
        <time>2022-04-26T06:31:59Z</time>
      </trkpt>
      <trkpt lat="41.83979" lon="8.87621">
        <ele>600</ele>
        <time>2022-04-26T06:32:14Z</time>
      </trkpt>
      <trkpt lat="41.83968" lon="8.87632">
        <ele>597.12</ele>
        <time>2022-04-26T06:32:24Z</time>
      </trkpt>
      <trkpt lat="41.83959" lon="8.87648">
        <ele>594.71</ele>
        <time>2022-04-26T06:32:43Z</time>
      </trkpt>
      <trkpt lat="41.83948" lon="8.87658">
        <ele>592.79</ele>
        <time>2022-04-26T06:32:59Z</time>
      </trkpt>
      <trkpt lat="41.83937" lon="8.87675">
        <ele>589.91</ele>
        <time>2022-04-26T06:33:14Z</time>
      </trkpt>
      <trkpt lat="41.83933" lon="8.8768">
        <ele>588.46</ele>
        <time>2022-04-26T06:33:18Z</time>
      </trkpt>
      <trkpt lat="41.83922" lon="8.8769">
        <ele>585.1</ele>
        <time>2022-04-26T06:33:31Z</time>
      </trkpt>
      <trkpt lat="41.83907" lon="8.87698">
        <ele>585.58</ele>
        <time>2022-04-26T06:33:46Z</time>
      </trkpt>
      <trkpt lat="41.8389" lon="8.87699">
        <ele>583.18</ele>
        <time>2022-04-26T06:34:06Z</time>
      </trkpt>
      <trkpt lat="41.83875" lon="8.87692">
        <ele>584.14</ele>
        <time>2022-04-26T06:34:20Z</time>
      </trkpt>
      <trkpt lat="41.83863" lon="8.87684">
        <ele>584.14</ele>
        <time>2022-04-26T06:34:34Z</time>
      </trkpt>
      <trkpt lat="41.83859" lon="8.8768">
        <ele>584.14</ele>
        <time>2022-04-26T06:34:38Z</time>
      </trkpt>
      <trkpt lat="41.83841" lon="8.87673">
        <ele>585.58</ele>
        <time>2022-04-26T06:34:54Z</time>
      </trkpt>
      <trkpt lat="41.83829" lon="8.87667">
        <ele>583.66</ele>
        <time>2022-04-26T06:35:10Z</time>
      </trkpt>
      <trkpt lat="41.83808" lon="8.87649">
        <ele>583.18</ele>
        <time>2022-04-26T06:35:28Z</time>
      </trkpt>
      <trkpt lat="41.83783" lon="8.87641">
        <ele>581.25</ele>
        <time>2022-04-26T06:35:47Z</time>
      </trkpt>
      <trkpt lat="41.83761" lon="8.87636">
        <ele>581.25</ele>
        <time>2022-04-26T06:36:04Z</time>
      </trkpt>
      <trkpt lat="41.83734" lon="8.87645">
        <ele>582.22</ele>
        <time>2022-04-26T06:36:24Z</time>
      </trkpt>
      <trkpt lat="41.83713" lon="8.8764">
        <ele>583.18</ele>
        <time>2022-04-26T06:36:43Z</time>
      </trkpt>
      <trkpt lat="41.8369" lon="8.87626">
        <ele>583.66</ele>
        <time>2022-04-26T06:37:02Z</time>
      </trkpt>
      <trkpt lat="41.83671" lon="8.87612">
        <ele>585.1</ele>
        <time>2022-04-26T06:37:20Z</time>
      </trkpt>
      <trkpt lat="41.83653" lon="8.87598">
        <ele>585.58</ele>
        <time>2022-04-26T06:37:36Z</time>
      </trkpt>
      <trkpt lat="41.83637" lon="8.87591">
        <ele>587.5</ele>
        <time>2022-04-26T06:37:52Z</time>
      </trkpt>
      <trkpt lat="41.83621" lon="8.8759">
        <ele>588.95</ele>
        <time>2022-04-26T06:38:08Z</time>
      </trkpt>
      <trkpt lat="41.83617" lon="8.87588">
        <ele>588.95</ele>
        <time>2022-04-26T06:38:11Z</time>
      </trkpt>
      <trkpt lat="41.83596" lon="8.8757">
        <ele>588.46</ele>
        <time>2022-04-26T06:38:31Z</time>
      </trkpt>
      <trkpt lat="41.83587" lon="8.87557">
        <ele>588.95</ele>
        <time>2022-04-26T06:38:45Z</time>
      </trkpt>
      <trkpt lat="41.83582" lon="8.87553">
        <ele>587.98</ele>
        <time>2022-04-26T06:39:05Z</time>
      </trkpt>
      <trkpt lat="41.83576" lon="8.87533">
        <ele>586.54</ele>
        <time>2022-04-26T06:39:21Z</time>
      </trkpt>
      <trkpt lat="41.83574" lon="8.87525">
        <ele>586.06</ele>
        <time>2022-04-26T06:39:27Z</time>
      </trkpt>
      <trkpt lat="41.83568" lon="8.87513">
        <ele>585.1</ele>
        <time>2022-04-26T06:39:38Z</time>
      </trkpt>
      <trkpt lat="41.83563" lon="8.875">
        <ele>582.7</ele>
        <time>2022-04-26T06:39:52Z</time>
      </trkpt>
      <trkpt lat="41.83565" lon="8.87493">
        <ele>578.85</ele>
        <time>2022-04-26T06:40:05Z</time>
      </trkpt>
      <trkpt lat="41.83568" lon="8.87482">
        <ele>576.93</ele>
        <time>2022-04-26T06:40:17Z</time>
      </trkpt>
      <trkpt lat="41.83568" lon="8.87461">
        <ele>575.01</ele>
        <time>2022-04-26T06:40:32Z</time>
      </trkpt>
      <trkpt lat="41.8357" lon="8.87444">
        <ele>572.6</ele>
        <time>2022-04-26T06:40:45Z</time>
      </trkpt>
      <trkpt lat="41.83573" lon="8.87417">
        <ele>571.16</ele>
        <time>2022-04-26T06:41:05Z</time>
      </trkpt>
      <trkpt lat="41.83571" lon="8.87398">
        <ele>569.72</ele>
        <time>2022-04-26T06:41:28Z</time>
      </trkpt>
      <trkpt lat="41.83575" lon="8.87379">
        <ele>568.28</ele>
        <time>2022-04-26T06:41:49Z</time>
      </trkpt>
      <trkpt lat="41.83577" lon="8.87352">
        <ele>566.83</ele>
        <time>2022-04-26T06:42:08Z</time>
      </trkpt>
      <trkpt lat="41.83573" lon="8.87327">
        <ele>564.91</ele>
        <time>2022-04-26T06:42:27Z</time>
      </trkpt>
      <trkpt lat="41.83561" lon="8.87319">
        <ele>562.51</ele>
        <time>2022-04-26T06:42:44Z</time>
      </trkpt>
      <trkpt lat="41.83557" lon="8.87313">
        <ele>562.51</ele>
        <time>2022-04-26T06:43:01Z</time>
      </trkpt>
      <trkpt lat="41.83552" lon="8.8731">
        <ele>562.03</ele>
        <time>2022-04-26T06:43:17Z</time>
      </trkpt>
      <trkpt lat="41.83539" lon="8.87301">
        <ele>560.11</ele>
        <time>2022-04-26T06:43:35Z</time>
      </trkpt>
      <trkpt lat="41.83528" lon="8.87292">
        <ele>556.74</ele>
        <time>2022-04-26T06:43:47Z</time>
      </trkpt>
      <trkpt lat="41.83507" lon="8.87275">
        <ele>554.34</ele>
        <time>2022-04-26T06:44:07Z</time>
      </trkpt>
      <trkpt lat="41.83489" lon="8.87258">
        <ele>551.93</ele>
        <time>2022-04-26T06:44:27Z</time>
      </trkpt>
      <trkpt lat="41.83472" lon="8.87245">
        <ele>549.53</ele>
        <time>2022-04-26T06:44:47Z</time>
      </trkpt>
      <trkpt lat="41.83458" lon="8.87225">
        <ele>547.61</ele>
        <time>2022-04-26T06:45:06Z</time>
      </trkpt>
      <trkpt lat="41.83443" lon="8.87206">
        <ele>545.69</ele>
        <time>2022-04-26T06:45:27Z</time>
      </trkpt>
      <trkpt lat="41.83424" lon="8.87198">
        <ele>544.72</ele>
        <time>2022-04-26T06:45:48Z</time>
      </trkpt>
      <trkpt lat="41.83407" lon="8.87189">
        <ele>544.24</ele>
        <time>2022-04-26T06:46:11Z</time>
      </trkpt>
      <trkpt lat="41.8339" lon="8.87171">
        <ele>543.76</ele>
        <time>2022-04-26T06:46:31Z</time>
      </trkpt>
      <trkpt lat="41.83379" lon="8.87163">
        <ele>543.28</ele>
        <time>2022-04-26T06:46:49Z</time>
      </trkpt>
      <trkpt lat="41.83361" lon="8.87142">
        <ele>542.32</ele>
        <time>2022-04-26T06:47:10Z</time>
      </trkpt>
      <trkpt lat="41.83341" lon="8.87122">
        <ele>540.88</ele>
        <time>2022-04-26T06:47:33Z</time>
      </trkpt>
      <trkpt lat="41.8333" lon="8.87103">
        <ele>540.4</ele>
        <time>2022-04-26T06:47:56Z</time>
      </trkpt>
      <trkpt lat="41.83315" lon="8.87082">
        <ele>537.99</ele>
        <time>2022-04-26T06:48:17Z</time>
      </trkpt>
      <trkpt lat="41.83303" lon="8.87056">
        <ele>536.55</ele>
        <time>2022-04-26T06:48:35Z</time>
      </trkpt>
      <trkpt lat="41.833" lon="8.87037">
        <ele>536.55</ele>
        <time>2022-04-26T06:48:52Z</time>
      </trkpt>
      <trkpt lat="41.833" lon="8.87019">
        <ele>537.03</ele>
        <time>2022-04-26T06:49:08Z</time>
      </trkpt>
      <trkpt lat="41.83283" lon="8.86992">
        <ele>538.48</ele>
        <time>2022-04-26T06:49:27Z</time>
      </trkpt>
      <trkpt lat="41.83269" lon="8.86965">
        <ele>538.48</ele>
        <time>2022-04-26T06:49:48Z</time>
      </trkpt>
      <trkpt lat="41.83265" lon="8.86954">
        <ele>538.96</ele>
        <time>2022-04-26T06:49:55Z</time>
      </trkpt>
      <trkpt lat="41.83255" lon="8.86926">
        <ele>539.44</ele>
        <time>2022-04-26T06:50:13Z</time>
      </trkpt>
      <trkpt lat="41.83245" lon="8.86898">
        <ele>539.44</ele>
        <time>2022-04-26T06:50:31Z</time>
      </trkpt>
      <trkpt lat="41.83229" lon="8.86878">
        <ele>538.48</ele>
        <time>2022-04-26T06:50:49Z</time>
      </trkpt>
      <trkpt lat="41.8322" lon="8.86857">
        <ele>537.99</ele>
        <time>2022-04-26T06:51:06Z</time>
      </trkpt>
      <trkpt lat="41.83206" lon="8.86834">
        <ele>537.03</ele>
        <time>2022-04-26T06:51:26Z</time>
      </trkpt>
      <trkpt lat="41.83192" lon="8.86818">
        <ele>536.55</ele>
        <time>2022-04-26T06:51:40Z</time>
      </trkpt>
      <trkpt lat="41.83172" lon="8.86795">
        <ele>534.63</ele>
        <time>2022-04-26T06:51:59Z</time>
      </trkpt>
      <trkpt lat="41.8315" lon="8.86772">
        <ele>535.11</ele>
        <time>2022-04-26T06:52:20Z</time>
      </trkpt>
      <trkpt lat="41.83133" lon="8.86743">
        <ele>535.11</ele>
        <time>2022-04-26T06:52:42Z</time>
      </trkpt>
      <trkpt lat="41.83135" lon="8.86712">
        <ele>534.63</ele>
        <time>2022-04-26T06:53:03Z</time>
      </trkpt>
      <trkpt lat="41.83145" lon="8.86684">
        <ele>535.11</ele>
        <time>2022-04-26T06:53:22Z</time>
      </trkpt>
      <trkpt lat="41.83149" lon="8.86678">
        <ele>534.63</ele>
        <time>2022-04-26T06:53:27Z</time>
      </trkpt>
      <trkpt lat="41.83161" lon="8.86652">
        <ele>532.23</ele>
        <time>2022-04-26T06:53:44Z</time>
      </trkpt>
      <trkpt lat="41.83162" lon="8.86645">
        <ele>530.79</ele>
        <time>2022-04-26T06:53:49Z</time>
      </trkpt>
      <trkpt lat="41.83163" lon="8.86629">
        <ele>527.42</ele>
        <time>2022-04-26T06:54:02Z</time>
      </trkpt>
      <trkpt lat="41.83164" lon="8.86607">
        <ele>524.54</ele>
        <time>2022-04-26T06:54:21Z</time>
      </trkpt>
      <trkpt lat="41.83166" lon="8.86593">
        <ele>525.5</ele>
        <time>2022-04-26T06:54:40Z</time>
      </trkpt>
      <trkpt lat="41.83166" lon="8.86567">
        <ele>525.98</ele>
        <time>2022-04-26T06:54:57Z</time>
      </trkpt>
      <trkpt lat="41.83171" lon="8.86553">
        <ele>525.98</ele>
        <time>2022-04-26T06:55:18Z</time>
      </trkpt>
      <trkpt lat="41.83175" lon="8.86538">
        <ele>526.94</ele>
        <time>2022-04-26T06:55:41Z</time>
      </trkpt>
      <trkpt lat="41.83185" lon="8.86504">
        <ele>524.06</ele>
        <time>2022-04-26T06:56:03Z</time>
      </trkpt>
      <trkpt lat="41.83197" lon="8.86477">
        <ele>522.13</ele>
        <time>2022-04-26T06:56:22Z</time>
      </trkpt>
      <trkpt lat="41.83196" lon="8.86452">
        <ele>519.73</ele>
        <time>2022-04-26T06:56:38Z</time>
      </trkpt>
      <trkpt lat="41.83194" lon="8.86431">
        <ele>516.37</ele>
        <time>2022-04-26T06:56:52Z</time>
      </trkpt>
      <trkpt lat="41.83194" lon="8.86408">
        <ele>516.85</ele>
        <time>2022-04-26T06:57:08Z</time>
      </trkpt>
      <trkpt lat="41.83194" lon="8.86377">
        <ele>519.73</ele>
        <time>2022-04-26T06:57:26Z</time>
      </trkpt>
      <trkpt lat="41.83197" lon="8.86352">
        <ele>520.21</ele>
        <time>2022-04-26T06:57:42Z</time>
      </trkpt>
      <trkpt lat="41.83202" lon="8.86319">
        <ele>518.29</ele>
        <time>2022-04-26T06:58:02Z</time>
      </trkpt>
      <trkpt lat="41.83214" lon="8.86282">
        <ele>514.92</ele>
        <time>2022-04-26T06:58:24Z</time>
      </trkpt>
      <trkpt lat="41.83233" lon="8.8625">
        <ele>511.56</ele>
        <time>2022-04-26T06:58:47Z</time>
      </trkpt>
      <trkpt lat="41.83255" lon="8.86233">
        <ele>511.08</ele>
        <time>2022-04-26T06:59:07Z</time>
      </trkpt>
      <trkpt lat="41.83261" lon="8.86232">
        <ele>512.04</ele>
        <time>2022-04-26T06:59:13Z</time>
      </trkpt>
      <trkpt lat="41.83264" lon="8.86232">
        <ele>510.6</ele>
        <time>2022-04-26T06:59:15Z</time>
      </trkpt>
      <trkpt lat="41.83276" lon="8.8623">
        <ele>510.12</ele>
        <time>2022-04-26T06:59:26Z</time>
      </trkpt>
      <trkpt lat="41.8328" lon="8.86231">
        <ele>510.12</ele>
        <time>2022-04-26T06:59:30Z</time>
      </trkpt>
      <trkpt lat="41.83288" lon="8.86232">
        <ele>510.12</ele>
        <time>2022-04-26T06:59:36Z</time>
      </trkpt>
      <trkpt lat="41.83297" lon="8.86238">
        <ele>508.67</ele>
        <time>2022-04-26T06:59:43Z</time>
      </trkpt>
      <trkpt lat="41.833" lon="8.86241">
        <ele>508.19</ele>
        <time>2022-04-26T06:59:45Z</time>
      </trkpt>
      <trkpt lat="41.83301" lon="8.86242">
        <ele>508.67</ele>
        <time>2022-04-26T06:59:46Z</time>
      </trkpt>
      <trkpt lat="41.83311" lon="8.86249">
        <ele>509.16</ele>
        <time>2022-04-26T06:59:58Z</time>
      </trkpt>
      <trkpt lat="41.83321" lon="8.86248">
        <ele>511.56</ele>
        <time>2022-04-26T07:00:13Z</time>
      </trkpt>
      <trkpt lat="41.83334" lon="8.86242">
        <ele>514.92</ele>
        <time>2022-04-26T07:00:27Z</time>
      </trkpt>
      <trkpt lat="41.83341" lon="8.86238">
        <ele>515.4</ele>
        <time>2022-04-26T07:00:34Z</time>
      </trkpt>
      <trkpt lat="41.83346" lon="8.86224">
        <ele>518.29</ele>
        <time>2022-04-26T07:00:49Z</time>
      </trkpt>
      <trkpt lat="41.83351" lon="8.86216">
        <ele>521.65</ele>
        <time>2022-04-26T07:01:05Z</time>
      </trkpt>
      <trkpt lat="41.83352" lon="8.86205">
        <ele>524.54</ele>
        <time>2022-04-26T07:01:20Z</time>
      </trkpt>
      <trkpt lat="41.83348" lon="8.86199">
        <ele>527.42</ele>
        <time>2022-04-26T07:01:37Z</time>
      </trkpt>
      <trkpt lat="41.83344" lon="8.86193">
        <ele>529.82</ele>
        <time>2022-04-26T07:01:55Z</time>
      </trkpt>
      <trkpt lat="41.83342" lon="8.86186">
        <ele>532.71</ele>
        <time>2022-04-26T07:02:10Z</time>
      </trkpt>
      <trkpt lat="41.83339" lon="8.86175">
        <ele>536.07</ele>
        <time>2022-04-26T07:02:26Z</time>
      </trkpt>
      <trkpt lat="41.83336" lon="8.86163">
        <ele>536.07</ele>
        <time>2022-04-26T07:02:41Z</time>
      </trkpt>
      <trkpt lat="41.8333" lon="8.86154">
        <ele>537.99</ele>
        <time>2022-04-26T07:02:55Z</time>
      </trkpt>
      <trkpt lat="41.8333" lon="8.86155">
        <ele>537.51</ele>
        <time>2022-04-26T07:03:21Z</time>
      </trkpt>
      <trkpt lat="41.8333" lon="8.86154">
        <ele>538.48</ele>
        <time>2022-04-26T07:03:52Z</time>
      </trkpt>
      <trkpt lat="41.83329" lon="8.86153">
        <ele>538.96</ele>
        <time>2022-04-26T07:04:06Z</time>
      </trkpt>
      <trkpt lat="41.8333" lon="8.8615">
        <ele>539.44</ele>
        <time>2022-04-26T07:04:23Z</time>
      </trkpt>
      <trkpt lat="41.83331" lon="8.86152">
        <ele>539.92</ele>
        <time>2022-04-26T07:04:44Z</time>
      </trkpt>
      <trkpt lat="41.83332" lon="8.86151">
        <ele>539.44</ele>
        <time>2022-04-26T07:05:04Z</time>
      </trkpt>
      <trkpt lat="41.8333" lon="8.86154">
        <ele>539.44</ele>
        <time>2022-04-26T07:05:31Z</time>
      </trkpt>
      <trkpt lat="41.83322" lon="8.86144">
        <ele>539.92</ele>
        <time>2022-04-26T07:05:46Z</time>
      </trkpt>
      <trkpt lat="41.8332" lon="8.86136">
        <ele>540.4</ele>
        <time>2022-04-26T07:05:53Z</time>
      </trkpt>
      <trkpt lat="41.83319" lon="8.86117">
        <ele>542.32</ele>
        <time>2022-04-26T07:06:07Z</time>
      </trkpt>
      <trkpt lat="41.83321" lon="8.86097">
        <ele>545.2</ele>
        <time>2022-04-26T07:06:24Z</time>
      </trkpt>
      <trkpt lat="41.83318" lon="8.86081">
        <ele>546.65</ele>
        <time>2022-04-26T07:06:39Z</time>
      </trkpt>
      <trkpt lat="41.83308" lon="8.86053">
        <ele>544.24</ele>
        <time>2022-04-26T07:06:58Z</time>
      </trkpt>
      <trkpt lat="41.8331" lon="8.86022">
        <ele>543.28</ele>
        <time>2022-04-26T07:07:17Z</time>
      </trkpt>
      <trkpt lat="41.83312" lon="8.86016">
        <ele>542.8</ele>
        <time>2022-04-26T07:07:20Z</time>
      </trkpt>
      <trkpt lat="41.83313" lon="8.86014">
        <ele>543.28</ele>
        <time>2022-04-26T07:07:21Z</time>
      </trkpt>
      <trkpt lat="41.83314" lon="8.86012">
        <ele>542.32</ele>
        <time>2022-04-26T07:07:22Z</time>
      </trkpt>
      <trkpt lat="41.83314" lon="8.8601">
        <ele>542.32</ele>
        <time>2022-04-26T07:07:23Z</time>
      </trkpt>
      <trkpt lat="41.83315" lon="8.86008">
        <ele>542.32</ele>
        <time>2022-04-26T07:07:24Z</time>
      </trkpt>
      <trkpt lat="41.83315" lon="8.86006">
        <ele>541.84</ele>
        <time>2022-04-26T07:07:25Z</time>
      </trkpt>
      <trkpt lat="41.83314" lon="8.86004">
        <ele>541.84</ele>
        <time>2022-04-26T07:07:26Z</time>
      </trkpt>
      <trkpt lat="41.83314" lon="8.86002">
        <ele>541.84</ele>
        <time>2022-04-26T07:07:27Z</time>
      </trkpt>
      <trkpt lat="41.83314" lon="8.86">
        <ele>541.36</ele>
        <time>2022-04-26T07:07:28Z</time>
      </trkpt>
      <trkpt lat="41.83315" lon="8.85998">
        <ele>541.36</ele>
        <time>2022-04-26T07:07:29Z</time>
      </trkpt>
      <trkpt lat="41.83316" lon="8.85996">
        <ele>540.88</ele>
        <time>2022-04-26T07:07:30Z</time>
      </trkpt>
      <trkpt lat="41.83318" lon="8.85993">
        <ele>540.88</ele>
        <time>2022-04-26T07:07:31Z</time>
      </trkpt>
      <trkpt lat="41.83319" lon="8.85992">
        <ele>541.36</ele>
        <time>2022-04-26T07:07:32Z</time>
      </trkpt>
      <trkpt lat="41.8332" lon="8.85989">
        <ele>540.4</ele>
        <time>2022-04-26T07:07:33Z</time>
      </trkpt>
      <trkpt lat="41.83323" lon="8.85979">
        <ele>538.96</ele>
        <time>2022-04-26T07:07:45Z</time>
      </trkpt>
      <trkpt lat="41.83326" lon="8.85968">
        <ele>538.48</ele>
        <time>2022-04-26T07:07:50Z</time>
      </trkpt>
      <trkpt lat="41.83326" lon="8.85965">
        <ele>537.99</ele>
        <time>2022-04-26T07:07:51Z</time>
      </trkpt>
      <trkpt lat="41.83327" lon="8.85962">
        <ele>537.99</ele>
        <time>2022-04-26T07:07:52Z</time>
      </trkpt>
      <trkpt lat="41.83335" lon="8.85934">
        <ele>537.99</ele>
        <time>2022-04-26T07:08:09Z</time>
      </trkpt>
      <trkpt lat="41.83342" lon="8.85912">
        <ele>537.51</ele>
        <time>2022-04-26T07:08:25Z</time>
      </trkpt>
      <trkpt lat="41.83355" lon="8.85899">
        <ele>537.51</ele>
        <time>2022-04-26T07:08:40Z</time>
      </trkpt>
      <trkpt lat="41.8336" lon="8.85896">
        <ele>537.51</ele>
        <time>2022-04-26T07:08:44Z</time>
      </trkpt>
      <trkpt lat="41.83361" lon="8.85896">
        <ele>537.03</ele>
        <time>2022-04-26T07:08:45Z</time>
      </trkpt>
      <trkpt lat="41.83363" lon="8.85895">
        <ele>537.51</ele>
        <time>2022-04-26T07:08:46Z</time>
      </trkpt>
      <trkpt lat="41.83365" lon="8.85895">
        <ele>537.03</ele>
        <time>2022-04-26T07:08:47Z</time>
      </trkpt>
      <trkpt lat="41.83387" lon="8.85886">
        <ele>536.55</ele>
        <time>2022-04-26T07:09:06Z</time>
      </trkpt>
      <trkpt lat="41.83409" lon="8.85884">
        <ele>534.15</ele>
        <time>2022-04-26T07:09:23Z</time>
      </trkpt>
      <trkpt lat="41.83424" lon="8.85882">
        <ele>533.19</ele>
        <time>2022-04-26T07:09:39Z</time>
      </trkpt>
      <trkpt lat="41.83432" lon="8.85879">
        <ele>532.71</ele>
        <time>2022-04-26T07:09:56Z</time>
      </trkpt>
      <trkpt lat="41.83439" lon="8.85871">
        <ele>531.75</ele>
        <time>2022-04-26T07:10:10Z</time>
      </trkpt>
      <trkpt lat="41.83441" lon="8.85869">
        <ele>531.75</ele>
        <time>2022-04-26T07:10:31Z</time>
      </trkpt>
      <trkpt lat="41.83446" lon="8.85863">
        <ele>531.27</ele>
        <time>2022-04-26T07:10:46Z</time>
      </trkpt>
      <trkpt lat="41.83447" lon="8.85862">
        <ele>530.79</ele>
        <time>2022-04-26T07:10:56Z</time>
      </trkpt>
      <trkpt lat="41.83447" lon="8.8586">
        <ele>530.3</ele>
        <time>2022-04-26T07:10:57Z</time>
      </trkpt>
      <trkpt lat="41.83448" lon="8.85859">
        <ele>529.82</ele>
        <time>2022-04-26T07:10:58Z</time>
      </trkpt>
      <trkpt lat="41.83448" lon="8.85858">
        <ele>530.3</ele>
        <time>2022-04-26T07:10:59Z</time>
      </trkpt>
      <trkpt lat="41.83449" lon="8.85856">
        <ele>529.82</ele>
        <time>2022-04-26T07:11:00Z</time>
      </trkpt>
      <trkpt lat="41.8345" lon="8.85855">
        <ele>528.38</ele>
        <time>2022-04-26T07:11:01Z</time>
      </trkpt>
      <trkpt lat="41.83451" lon="8.85854">
        <ele>529.82</ele>
        <time>2022-04-26T07:11:02Z</time>
      </trkpt>
      <trkpt lat="41.83452" lon="8.85853">
        <ele>529.34</ele>
        <time>2022-04-26T07:11:03Z</time>
      </trkpt>
      <trkpt lat="41.8346" lon="8.8583">
        <ele>525.98</ele>
        <time>2022-04-26T07:11:18Z</time>
      </trkpt>
      <trkpt lat="41.83464" lon="8.85817">
        <ele>524.54</ele>
        <time>2022-04-26T07:11:27Z</time>
      </trkpt>
      <trkpt lat="41.83464" lon="8.85816">
        <ele>524.06</ele>
        <time>2022-04-26T07:11:28Z</time>
      </trkpt>
      <trkpt lat="41.83469" lon="8.85795">
        <ele>520.69</ele>
        <time>2022-04-26T07:11:44Z</time>
      </trkpt>
      <trkpt lat="41.83473" lon="8.85779">
        <ele>517.81</ele>
        <time>2022-04-26T07:11:56Z</time>
      </trkpt>
      <trkpt lat="41.83474" lon="8.85777">
        <ele>517.33</ele>
        <time>2022-04-26T07:11:57Z</time>
      </trkpt>
      <trkpt lat="41.83477" lon="8.85762">
        <ele>516.37</ele>
        <time>2022-04-26T07:12:06Z</time>
      </trkpt>
      <trkpt lat="41.83479" lon="8.85738">
        <ele>513</ele>
        <time>2022-04-26T07:12:20Z</time>
      </trkpt>
      <trkpt lat="41.83484" lon="8.85721">
        <ele>510.12</ele>
        <time>2022-04-26T07:12:30Z</time>
      </trkpt>
      <trkpt lat="41.83484" lon="8.8572">
        <ele>509.64</ele>
        <time>2022-04-26T07:12:31Z</time>
      </trkpt>
      <trkpt lat="41.83485" lon="8.85713">
        <ele>509.16</ele>
        <time>2022-04-26T07:12:35Z</time>
      </trkpt>
      <trkpt lat="41.83485" lon="8.85711">
        <ele>508.67</ele>
        <time>2022-04-26T07:12:36Z</time>
      </trkpt>
      <trkpt lat="41.83485" lon="8.85709">
        <ele>508.19</ele>
        <time>2022-04-26T07:12:37Z</time>
      </trkpt>
      <trkpt lat="41.83478" lon="8.85684">
        <ele>506.27</ele>
        <time>2022-04-26T07:12:54Z</time>
      </trkpt>
      <trkpt lat="41.83488" lon="8.85654">
        <ele>505.31</ele>
        <time>2022-04-26T07:13:13Z</time>
      </trkpt>
      <trkpt lat="41.8349" lon="8.85648">
        <ele>504.83</ele>
        <time>2022-04-26T07:13:17Z</time>
      </trkpt>
      <trkpt lat="41.83505" lon="8.85617">
        <ele>501.46</ele>
        <time>2022-04-26T07:13:36Z</time>
      </trkpt>
      <trkpt lat="41.83522" lon="8.85591">
        <ele>499.54</ele>
        <time>2022-04-26T07:13:53Z</time>
      </trkpt>
      <trkpt lat="41.83535" lon="8.8557">
        <ele>498.1</ele>
        <time>2022-04-26T07:14:08Z</time>
      </trkpt>
      <trkpt lat="41.83551" lon="8.85545">
        <ele>496.18</ele>
        <time>2022-04-26T07:14:23Z</time>
      </trkpt>
      <trkpt lat="41.83566" lon="8.85523">
        <ele>494.74</ele>
        <time>2022-04-26T07:14:41Z</time>
      </trkpt>
      <trkpt lat="41.83567" lon="8.85518">
        <ele>494.74</ele>
        <time>2022-04-26T07:14:44Z</time>
      </trkpt>
      <trkpt lat="41.83567" lon="8.85517">
        <ele>494.26</ele>
        <time>2022-04-26T07:14:45Z</time>
      </trkpt>
      <trkpt lat="41.83569" lon="8.8549">
        <ele>492.81</ele>
        <time>2022-04-26T07:15:03Z</time>
      </trkpt>
      <trkpt lat="41.83576" lon="8.85466">
        <ele>490.41</ele>
        <time>2022-04-26T07:15:18Z</time>
      </trkpt>
      <trkpt lat="41.83578" lon="8.85442">
        <ele>487.05</ele>
        <time>2022-04-26T07:15:35Z</time>
      </trkpt>
      <trkpt lat="41.83583" lon="8.85433">
        <ele>486.08</ele>
        <time>2022-04-26T07:15:49Z</time>
      </trkpt>
      <trkpt lat="41.83583" lon="8.85421">
        <ele>486.56</ele>
        <time>2022-04-26T07:16:28Z</time>
      </trkpt>
      <trkpt lat="41.83581" lon="8.85412">
        <ele>485.6</ele>
        <time>2022-04-26T07:16:42Z</time>
      </trkpt>
      <trkpt lat="41.83579" lon="8.85401">
        <ele>482.72</ele>
        <time>2022-04-26T07:16:51Z</time>
      </trkpt>
      <trkpt lat="41.83573" lon="8.85386">
        <ele>479.84</ele>
        <time>2022-04-26T07:17:03Z</time>
      </trkpt>
      <trkpt lat="41.83565" lon="8.85367">
        <ele>476.95</ele>
        <time>2022-04-26T07:17:16Z</time>
      </trkpt>
      <trkpt lat="41.83563" lon="8.85362">
        <ele>475.51</ele>
        <time>2022-04-26T07:17:19Z</time>
      </trkpt>
      <trkpt lat="41.83557" lon="8.85348">
        <ele>472.14</ele>
        <time>2022-04-26T07:17:30Z</time>
      </trkpt>
      <trkpt lat="41.83554" lon="8.8534">
        <ele>472.14</ele>
        <time>2022-04-26T07:17:48Z</time>
      </trkpt>
      <trkpt lat="41.83551" lon="8.85325">
        <ele>470.7</ele>
        <time>2022-04-26T07:18:03Z</time>
      </trkpt>
      <trkpt lat="41.83539" lon="8.85306">
        <ele>467.82</ele>
        <time>2022-04-26T07:18:16Z</time>
      </trkpt>
      <trkpt lat="41.83525" lon="8.85294">
        <ele>463.97</ele>
        <time>2022-04-26T07:18:31Z</time>
      </trkpt>
      <trkpt lat="41.83509" lon="8.85277">
        <ele>461.57</ele>
        <time>2022-04-26T07:18:50Z</time>
      </trkpt>
      <trkpt lat="41.83501" lon="8.85261">
        <ele>459.65</ele>
        <time>2022-04-26T07:19:08Z</time>
      </trkpt>
      <trkpt lat="41.83495" lon="8.85249">
        <ele>459.17</ele>
        <time>2022-04-26T07:19:38Z</time>
      </trkpt>
      <trkpt lat="41.83486" lon="8.85228">
        <ele>455.8</ele>
        <time>2022-04-26T07:19:54Z</time>
      </trkpt>
      <trkpt lat="41.83477" lon="8.85214">
        <ele>452.92</ele>
        <time>2022-04-26T07:20:06Z</time>
      </trkpt>
      <trkpt lat="41.83471" lon="8.852">
        <ele>451.96</ele>
        <time>2022-04-26T07:20:15Z</time>
      </trkpt>
      <trkpt lat="41.83459" lon="8.85183">
        <ele>448.59</ele>
        <time>2022-04-26T07:20:30Z</time>
      </trkpt>
      <trkpt lat="41.83457" lon="8.85176">
        <ele>448.11</ele>
        <time>2022-04-26T07:20:34Z</time>
      </trkpt>
      <trkpt lat="41.83449" lon="8.85158">
        <ele>444.75</ele>
        <time>2022-04-26T07:20:46Z</time>
      </trkpt>
      <trkpt lat="41.83439" lon="8.85141">
        <ele>441.38</ele>
        <time>2022-04-26T07:20:59Z</time>
      </trkpt>
      <trkpt lat="41.8343" lon="8.85128">
        <ele>438.98</ele>
        <time>2022-04-26T07:21:09Z</time>
      </trkpt>
      <trkpt lat="41.83421" lon="8.85117">
        <ele>437.06</ele>
        <time>2022-04-26T07:21:18Z</time>
      </trkpt>
      <trkpt lat="41.83419" lon="8.85115">
        <ele>436.58</ele>
        <time>2022-04-26T07:21:19Z</time>
      </trkpt>
      <trkpt lat="41.83409" lon="8.85101">
        <ele>434.65</ele>
        <time>2022-04-26T07:21:30Z</time>
      </trkpt>
      <trkpt lat="41.83399" lon="8.85091">
        <ele>431.29</ele>
        <time>2022-04-26T07:21:41Z</time>
      </trkpt>
      <trkpt lat="41.83394" lon="8.85082">
        <ele>432.25</ele>
        <time>2022-04-26T07:21:56Z</time>
      </trkpt>
      <trkpt lat="41.83387" lon="8.85079">
        <ele>429.85</ele>
        <time>2022-04-26T07:22:09Z</time>
      </trkpt>
      <trkpt lat="41.83373" lon="8.85069">
        <ele>426.96</ele>
        <time>2022-04-26T07:22:26Z</time>
      </trkpt>
      <trkpt lat="41.8336" lon="8.85056">
        <ele>425.52</ele>
        <time>2022-04-26T07:22:44Z</time>
      </trkpt>
      <trkpt lat="41.83354" lon="8.8505">
        <ele>426</ele>
        <time>2022-04-26T07:23:02Z</time>
      </trkpt>
      <trkpt lat="41.83362" lon="8.85047">
        <ele>425.52</ele>
        <time>2022-04-26T07:23:31Z</time>
      </trkpt>
      <trkpt lat="41.83348" lon="8.8504">
        <ele>425.04</ele>
        <time>2022-04-26T07:23:52Z</time>
      </trkpt>
      <trkpt lat="41.83337" lon="8.85024">
        <ele>422.64</ele>
        <time>2022-04-26T07:24:08Z</time>
      </trkpt>
      <trkpt lat="41.83323" lon="8.85009">
        <ele>419.27</ele>
        <time>2022-04-26T07:24:25Z</time>
      </trkpt>
      <trkpt lat="41.83305" lon="8.84991">
        <ele>415.91</ele>
        <time>2022-04-26T07:24:45Z</time>
      </trkpt>
      <trkpt lat="41.83289" lon="8.84977">
        <ele>413.5</ele>
        <time>2022-04-26T07:25:03Z</time>
      </trkpt>
      <trkpt lat="41.8328" lon="8.84966">
        <ele>410.62</ele>
        <time>2022-04-26T07:25:18Z</time>
      </trkpt>
      <trkpt lat="41.83277" lon="8.84954">
        <ele>407.74</ele>
        <time>2022-04-26T07:25:34Z</time>
      </trkpt>
      <trkpt lat="41.83279" lon="8.84944">
        <ele>404.37</ele>
        <time>2022-04-26T07:25:55Z</time>
      </trkpt>
      <trkpt lat="41.83276" lon="8.84937">
        <ele>403.89</ele>
        <time>2022-04-26T07:26:20Z</time>
      </trkpt>
      <trkpt lat="41.83276" lon="8.84951">
        <ele>404.85</ele>
        <time>2022-04-26T07:26:45Z</time>
      </trkpt>
      <trkpt lat="41.8327" lon="8.84949">
        <ele>404.85</ele>
        <time>2022-04-26T07:27:13Z</time>
      </trkpt>
      <trkpt lat="41.83278" lon="8.84941">
        <ele>405.33</ele>
        <time>2022-04-26T07:27:39Z</time>
      </trkpt>
      <trkpt lat="41.83289" lon="8.84928">
        <ele>407.26</ele>
        <time>2022-04-26T07:27:59Z</time>
      </trkpt>
      <trkpt lat="41.83306" lon="8.84912">
        <ele>410.62</ele>
        <time>2022-04-26T07:28:17Z</time>
      </trkpt>
      <trkpt lat="41.83316" lon="8.84899">
        <ele>412.54</ele>
        <time>2022-04-26T07:28:36Z</time>
      </trkpt>
      <trkpt lat="41.83334" lon="8.84892">
        <ele>415.43</ele>
        <time>2022-04-26T07:28:54Z</time>
      </trkpt>
      <trkpt lat="41.8335" lon="8.8488">
        <ele>418.31</ele>
        <time>2022-04-26T07:29:14Z</time>
      </trkpt>
      <trkpt lat="41.83367" lon="8.84875">
        <ele>419.27</ele>
        <time>2022-04-26T07:29:32Z</time>
      </trkpt>
      <trkpt lat="41.83385" lon="8.84873">
        <ele>420.71</ele>
        <time>2022-04-26T07:29:48Z</time>
      </trkpt>
      <trkpt lat="41.83401" lon="8.84863">
        <ele>423.12</ele>
        <time>2022-04-26T07:30:06Z</time>
      </trkpt>
      <trkpt lat="41.83409" lon="8.8485">
        <ele>425.52</ele>
        <time>2022-04-26T07:30:25Z</time>
      </trkpt>
      <trkpt lat="41.8342" lon="8.84836">
        <ele>426.96</ele>
        <time>2022-04-26T07:30:42Z</time>
      </trkpt>
      <trkpt lat="41.83422" lon="8.84819">
        <ele>430.33</ele>
        <time>2022-04-26T07:30:57Z</time>
      </trkpt>
      <trkpt lat="41.83432" lon="8.84811">
        <ele>431.29</ele>
        <time>2022-04-26T07:31:15Z</time>
      </trkpt>
      <trkpt lat="41.83443" lon="8.84803">
        <ele>434.17</ele>
        <time>2022-04-26T07:31:35Z</time>
      </trkpt>
      <trkpt lat="41.83446" lon="8.84804">
        <ele>435.13</ele>
        <time>2022-04-26T07:31:39Z</time>
      </trkpt>
      <trkpt lat="41.83461" lon="8.84805">
        <ele>437.54</ele>
        <time>2022-04-26T07:31:57Z</time>
      </trkpt>
      <trkpt lat="41.83463" lon="8.84806">
        <ele>438.5</ele>
        <time>2022-04-26T07:32:01Z</time>
      </trkpt>
      <trkpt lat="41.83475" lon="8.84812">
        <ele>441.38</ele>
        <time>2022-04-26T07:32:20Z</time>
      </trkpt>
      <trkpt lat="41.83491" lon="8.84812">
        <ele>443.31</ele>
        <time>2022-04-26T07:32:41Z</time>
      </trkpt>
      <trkpt lat="41.83505" lon="8.84805">
        <ele>445.23</ele>
        <time>2022-04-26T07:32:59Z</time>
      </trkpt>
      <trkpt lat="41.83513" lon="8.84789">
        <ele>448.11</ele>
        <time>2022-04-26T07:33:20Z</time>
      </trkpt>
      <trkpt lat="41.83525" lon="8.84778">
        <ele>451.48</ele>
        <time>2022-04-26T07:33:39Z</time>
      </trkpt>
      <trkpt lat="41.83531" lon="8.84763">
        <ele>453.4</ele>
        <time>2022-04-26T07:33:57Z</time>
      </trkpt>
      <trkpt lat="41.83543" lon="8.84747">
        <ele>456.28</ele>
        <time>2022-04-26T07:34:18Z</time>
      </trkpt>
      <trkpt lat="41.83549" lon="8.84721">
        <ele>459.65</ele>
        <time>2022-04-26T07:34:39Z</time>
      </trkpt>
      <trkpt lat="41.83553" lon="8.84712">
        <ele>463.97</ele>
        <time>2022-04-26T07:34:50Z</time>
      </trkpt>
      <trkpt lat="41.83553" lon="8.84709">
        <ele>461.57</ele>
        <time>2022-04-26T07:34:53Z</time>
      </trkpt>
      <trkpt lat="41.83556" lon="8.84704">
        <ele>462.53</ele>
        <time>2022-04-26T07:34:59Z</time>
      </trkpt>
      <trkpt lat="41.83558" lon="8.84695">
        <ele>463.49</ele>
        <time>2022-04-26T07:35:08Z</time>
      </trkpt>
      <trkpt lat="41.83562" lon="8.84681">
        <ele>466.38</ele>
        <time>2022-04-26T07:35:25Z</time>
      </trkpt>
      <trkpt lat="41.83566" lon="8.84665">
        <ele>468.3</ele>
        <time>2022-04-26T07:35:42Z</time>
      </trkpt>
      <trkpt lat="41.83566" lon="8.84649">
        <ele>470.22</ele>
        <time>2022-04-26T07:35:56Z</time>
      </trkpt>
      <trkpt lat="41.83566" lon="8.84637">
        <ele>473.11</ele>
        <time>2022-04-26T07:36:10Z</time>
      </trkpt>
      <trkpt lat="41.83567" lon="8.84623">
        <ele>475.99</ele>
        <time>2022-04-26T07:36:26Z</time>
      </trkpt>
      <trkpt lat="41.83573" lon="8.8461">
        <ele>477.91</ele>
        <time>2022-04-26T07:36:43Z</time>
      </trkpt>
      <trkpt lat="41.8357" lon="8.84616">
        <ele>476.95</ele>
        <time>2022-04-26T07:37:01Z</time>
      </trkpt>
      <trkpt lat="41.83578" lon="8.84605">
        <ele>478.39</ele>
        <time>2022-04-26T07:37:19Z</time>
      </trkpt>
      <trkpt lat="41.83585" lon="8.84603">
        <ele>479.35</ele>
        <time>2022-04-26T07:37:35Z</time>
      </trkpt>
      <trkpt lat="41.83599" lon="8.84594">
        <ele>480.8</ele>
        <time>2022-04-26T07:37:52Z</time>
      </trkpt>
      <trkpt lat="41.83601" lon="8.84593">
        <ele>481.76</ele>
        <time>2022-04-26T07:37:54Z</time>
      </trkpt>
      <trkpt lat="41.83612" lon="8.84594">
        <ele>482.24</ele>
        <time>2022-04-26T07:38:07Z</time>
      </trkpt>
      <trkpt lat="41.83628" lon="8.84594">
        <ele>484.16</ele>
        <time>2022-04-26T07:38:22Z</time>
      </trkpt>
      <trkpt lat="41.8363" lon="8.8459">
        <ele>485.6</ele>
        <time>2022-04-26T07:38:41Z</time>
      </trkpt>
      <trkpt lat="41.83637" lon="8.84588">
        <ele>487.53</ele>
        <time>2022-04-26T07:38:58Z</time>
      </trkpt>
      <trkpt lat="41.83638" lon="8.84584">
        <ele>488.49</ele>
        <time>2022-04-26T07:39:11Z</time>
      </trkpt>
      <trkpt lat="41.83644" lon="8.8458">
        <ele>489.93</ele>
        <time>2022-04-26T07:39:25Z</time>
      </trkpt>
      <trkpt lat="41.83647" lon="8.84581">
        <ele>490.41</ele>
        <time>2022-04-26T07:39:37Z</time>
      </trkpt>
      <trkpt lat="41.83651" lon="8.84581">
        <ele>490.41</ele>
        <time>2022-04-26T07:39:43Z</time>
      </trkpt>
      <trkpt lat="41.83656" lon="8.84582">
        <ele>491.85</ele>
        <time>2022-04-26T07:39:48Z</time>
      </trkpt>
      <trkpt lat="41.83657" lon="8.84582">
        <ele>491.37</ele>
        <time>2022-04-26T07:39:49Z</time>
      </trkpt>
      <trkpt lat="41.83664" lon="8.84577">
        <ele>492.81</ele>
        <time>2022-04-26T07:40:02Z</time>
      </trkpt>
      <trkpt lat="41.83669" lon="8.84573">
        <ele>493.29</ele>
        <time>2022-04-26T07:40:18Z</time>
      </trkpt>
      <trkpt lat="41.83668" lon="8.84569">
        <ele>493.29</ele>
        <time>2022-04-26T07:40:32Z</time>
      </trkpt>
      <trkpt lat="41.83669" lon="8.84569">
        <ele>493.29</ele>
        <time>2022-04-26T07:40:37Z</time>
      </trkpt>
      <trkpt lat="41.83677" lon="8.84579">
        <ele>492.81</ele>
        <time>2022-04-26T07:40:49Z</time>
      </trkpt>
      <trkpt lat="41.83679" lon="8.8458">
        <ele>491.85</ele>
        <time>2022-04-26T07:41:04Z</time>
      </trkpt>
      <trkpt lat="41.83688" lon="8.84583">
        <ele>491.37</ele>
        <time>2022-04-26T07:41:17Z</time>
      </trkpt>
      <trkpt lat="41.83696" lon="8.84583">
        <ele>489.93</ele>
        <time>2022-04-26T07:41:31Z</time>
      </trkpt>
      <trkpt lat="41.83705" lon="8.84582">
        <ele>490.89</ele>
        <time>2022-04-26T07:41:55Z</time>
      </trkpt>
      <trkpt lat="41.83701" lon="8.84588">
        <ele>490.41</ele>
        <time>2022-04-26T07:42:15Z</time>
      </trkpt>
      <trkpt lat="41.83694" lon="8.84585">
        <ele>490.89</ele>
        <time>2022-04-26T07:42:33Z</time>
      </trkpt>
      <trkpt lat="41.83694" lon="8.84583">
        <ele>490.89</ele>
        <time>2022-04-26T07:42:54Z</time>
      </trkpt>
      <trkpt lat="41.83693" lon="8.84583">
        <ele>490.89</ele>
        <time>2022-04-26T07:42:58Z</time>
      </trkpt>
      <trkpt lat="41.83687" lon="8.84584">
        <ele>490.41</ele>
        <time>2022-04-26T07:43:03Z</time>
      </trkpt>
      <trkpt lat="41.83669" lon="8.84587">
        <ele>490.41</ele>
        <time>2022-04-26T07:43:23Z</time>
      </trkpt>
      <trkpt lat="41.8365" lon="8.84587">
        <ele>489.45</ele>
        <time>2022-04-26T07:43:44Z</time>
      </trkpt>
      <trkpt lat="41.83627" lon="8.8458">
        <ele>488.49</ele>
        <time>2022-04-26T07:44:02Z</time>
      </trkpt>
      <trkpt lat="41.83625" lon="8.8458">
        <ele>488.49</ele>
        <time>2022-04-26T07:44:04Z</time>
      </trkpt>
      <trkpt lat="41.8362" lon="8.8458">
        <ele>488.01</ele>
        <time>2022-04-26T07:44:08Z</time>
      </trkpt>
      <trkpt lat="41.83597" lon="8.84574">
        <ele>487.05</ele>
        <time>2022-04-26T07:44:27Z</time>
      </trkpt>
      <trkpt lat="41.83574" lon="8.8457">
        <ele>486.56</ele>
        <time>2022-04-26T07:44:45Z</time>
      </trkpt>
      <trkpt lat="41.83551" lon="8.84569">
        <ele>485.6</ele>
        <time>2022-04-26T07:45:02Z</time>
      </trkpt>
      <trkpt lat="41.83531" lon="8.84571">
        <ele>485.6</ele>
        <time>2022-04-26T07:45:19Z</time>
      </trkpt>
      <trkpt lat="41.83515" lon="8.84569">
        <ele>485.6</ele>
        <time>2022-04-26T07:45:33Z</time>
      </trkpt>
      <trkpt lat="41.83499" lon="8.84554">
        <ele>483.68</ele>
        <time>2022-04-26T07:45:51Z</time>
      </trkpt>
      <trkpt lat="41.83485" lon="8.84549">
        <ele>483.2</ele>
        <time>2022-04-26T07:46:03Z</time>
      </trkpt>
      <trkpt lat="41.83467" lon="8.84549">
        <ele>482.24</ele>
        <time>2022-04-26T07:46:21Z</time>
      </trkpt>
      <trkpt lat="41.83459" lon="8.84548">
        <ele>482.24</ele>
        <time>2022-04-26T07:46:39Z</time>
      </trkpt>
      <trkpt lat="41.83452" lon="8.84551">
        <ele>481.28</ele>
        <time>2022-04-26T07:46:44Z</time>
      </trkpt>
      <trkpt lat="41.83447" lon="8.84555">
        <ele>479.84</ele>
        <time>2022-04-26T07:46:52Z</time>
      </trkpt>
      <trkpt lat="41.8344" lon="8.8456">
        <ele>479.84</ele>
        <time>2022-04-26T07:46:57Z</time>
      </trkpt>
      <trkpt lat="41.83438" lon="8.84561">
        <ele>479.84</ele>
        <time>2022-04-26T07:46:58Z</time>
      </trkpt>
      <trkpt lat="41.83425" lon="8.84565">
        <ele>479.35</ele>
        <time>2022-04-26T07:47:10Z</time>
      </trkpt>
      <trkpt lat="41.83414" lon="8.84569">
        <ele>478.87</ele>
        <time>2022-04-26T07:47:21Z</time>
      </trkpt>
      <trkpt lat="41.83407" lon="8.84562">
        <ele>479.35</ele>
        <time>2022-04-26T07:47:29Z</time>
      </trkpt>
      <trkpt lat="41.83406" lon="8.8456">
        <ele>479.84</ele>
        <time>2022-04-26T07:47:30Z</time>
      </trkpt>
      <trkpt lat="41.83405" lon="8.84551">
        <ele>481.28</ele>
        <time>2022-04-26T07:47:41Z</time>
      </trkpt>
      <trkpt lat="41.83408" lon="8.84542">
        <ele>484.16</ele>
        <time>2022-04-26T07:47:55Z</time>
      </trkpt>
      <trkpt lat="41.83408" lon="8.8454">
        <ele>485.12</ele>
        <time>2022-04-26T07:47:57Z</time>
      </trkpt>
      <trkpt lat="41.83409" lon="8.84532">
        <ele>488.01</ele>
        <time>2022-04-26T07:48:12Z</time>
      </trkpt>
      <trkpt lat="41.83403" lon="8.84527">
        <ele>490.89</ele>
        <time>2022-04-26T07:48:24Z</time>
      </trkpt>
      <trkpt lat="41.83396" lon="8.84521">
        <ele>494.26</ele>
        <time>2022-04-26T07:48:40Z</time>
      </trkpt>
      <trkpt lat="41.83386" lon="8.84514">
        <ele>497.62</ele>
        <time>2022-04-26T07:48:58Z</time>
      </trkpt>
      <trkpt lat="41.83373" lon="8.84507">
        <ele>500.02</ele>
        <time>2022-04-26T07:49:14Z</time>
      </trkpt>
      <trkpt lat="41.83359" lon="8.84508">
        <ele>502.91</ele>
        <time>2022-04-26T07:49:32Z</time>
      </trkpt>
      <trkpt lat="41.83358" lon="8.84509">
        <ele>503.39</ele>
        <time>2022-04-26T07:49:34Z</time>
      </trkpt>
      <trkpt lat="41.83347" lon="8.84509">
        <ele>504.35</ele>
        <time>2022-04-26T07:49:50Z</time>
      </trkpt>
      <trkpt lat="41.83325" lon="8.84508">
        <ele>506.27</ele>
        <time>2022-04-26T07:50:07Z</time>
      </trkpt>
      <trkpt lat="41.83321" lon="8.84506">
        <ele>507.23</ele>
        <time>2022-04-26T07:50:11Z</time>
      </trkpt>
      <trkpt lat="41.83306" lon="8.84504">
        <ele>508.19</ele>
        <time>2022-04-26T07:50:26Z</time>
      </trkpt>
      <trkpt lat="41.83292" lon="8.84501">
        <ele>509.64</ele>
        <time>2022-04-26T07:50:43Z</time>
      </trkpt>
      <trkpt lat="41.83289" lon="8.84502">
        <ele>509.16</ele>
        <time>2022-04-26T07:50:47Z</time>
      </trkpt>
      <trkpt lat="41.83271" lon="8.84492">
        <ele>512.52</ele>
        <time>2022-04-26T07:51:05Z</time>
      </trkpt>
      <trkpt lat="41.83266" lon="8.8448">
        <ele>515.4</ele>
        <time>2022-04-26T07:51:23Z</time>
      </trkpt>
      <trkpt lat="41.83255" lon="8.84477">
        <ele>518.29</ele>
        <time>2022-04-26T07:51:41Z</time>
      </trkpt>
      <trkpt lat="41.83249" lon="8.84479">
        <ele>521.17</ele>
        <time>2022-04-26T07:51:58Z</time>
      </trkpt>
      <trkpt lat="41.83239" lon="8.84478">
        <ele>523.58</ele>
        <time>2022-04-26T07:52:18Z</time>
      </trkpt>
      <trkpt lat="41.83228" lon="8.84476">
        <ele>526.46</ele>
        <time>2022-04-26T07:52:36Z</time>
      </trkpt>
      <trkpt lat="41.83221" lon="8.84474">
        <ele>528.38</ele>
        <time>2022-04-26T07:52:47Z</time>
      </trkpt>
      <trkpt lat="41.83212" lon="8.84474">
        <ele>531.27</ele>
        <time>2022-04-26T07:53:06Z</time>
      </trkpt>
      <trkpt lat="41.83208" lon="8.8448">
        <ele>535.11</ele>
        <time>2022-04-26T07:53:24Z</time>
      </trkpt>
      <trkpt lat="41.83196" lon="8.84475">
        <ele>537.51</ele>
        <time>2022-04-26T07:53:45Z</time>
      </trkpt>
      <trkpt lat="41.83186" lon="8.84475">
        <ele>540.88</ele>
        <time>2022-04-26T07:54:04Z</time>
      </trkpt>
      <trkpt lat="41.83173" lon="8.84473">
        <ele>541.84</ele>
        <time>2022-04-26T07:54:21Z</time>
      </trkpt>
      <trkpt lat="41.83169" lon="8.84472">
        <ele>541.84</ele>
        <time>2022-04-26T07:54:39Z</time>
      </trkpt>
      <trkpt lat="41.83173" lon="8.84477">
        <ele>541.84</ele>
        <time>2022-04-26T07:55:09Z</time>
      </trkpt>
      <trkpt lat="41.83171" lon="8.84474">
        <ele>542.32</ele>
        <time>2022-04-26T07:55:40Z</time>
      </trkpt>
      <trkpt lat="41.83168" lon="8.84476">
        <ele>541.36</ele>
        <time>2022-04-26T07:56:11Z</time>
      </trkpt>
      <trkpt lat="41.83162" lon="8.84459">
        <ele>541.84</ele>
        <time>2022-04-26T07:56:25Z</time>
      </trkpt>
      <trkpt lat="41.83152" lon="8.84443">
        <ele>543.76</ele>
        <time>2022-04-26T07:56:50Z</time>
      </trkpt>
      <trkpt lat="41.83142" lon="8.84426">
        <ele>547.13</ele>
        <time>2022-04-26T07:57:07Z</time>
      </trkpt>
      <trkpt lat="41.83127" lon="8.84418">
        <ele>548.57</ele>
        <time>2022-04-26T07:57:25Z</time>
      </trkpt>
      <trkpt lat="41.83112" lon="8.84414">
        <ele>550.97</ele>
        <time>2022-04-26T07:57:43Z</time>
      </trkpt>
      <trkpt lat="41.83105" lon="8.84399">
        <ele>552.41</ele>
        <time>2022-04-26T07:57:59Z</time>
      </trkpt>
      <trkpt lat="41.83097" lon="8.84382">
        <ele>553.86</ele>
        <time>2022-04-26T07:58:18Z</time>
      </trkpt>
      <trkpt lat="41.83079" lon="8.84366">
        <ele>556.26</ele>
        <time>2022-04-26T07:58:39Z</time>
      </trkpt>
      <trkpt lat="41.83064" lon="8.84365">
        <ele>557.22</ele>
        <time>2022-04-26T07:58:57Z</time>
      </trkpt>
      <trkpt lat="41.83042" lon="8.84358">
        <ele>560.11</ele>
        <time>2022-04-26T07:59:18Z</time>
      </trkpt>
      <trkpt lat="41.83026" lon="8.84347">
        <ele>562.03</ele>
        <time>2022-04-26T07:59:39Z</time>
      </trkpt>
      <trkpt lat="41.83011" lon="8.84336">
        <ele>562.03</ele>
        <time>2022-04-26T07:59:59Z</time>
      </trkpt>
      <trkpt lat="41.82988" lon="8.84323">
        <ele>562.51</ele>
        <time>2022-04-26T08:00:18Z</time>
      </trkpt>
      <trkpt lat="41.82968" lon="8.84314">
        <ele>562.51</ele>
        <time>2022-04-26T08:00:40Z</time>
      </trkpt>
      <trkpt lat="41.82947" lon="8.84302">
        <ele>562.51</ele>
        <time>2022-04-26T08:01:01Z</time>
      </trkpt>
      <trkpt lat="41.82917" lon="8.84293">
        <ele>562.03</ele>
        <time>2022-04-26T08:01:21Z</time>
      </trkpt>
      <trkpt lat="41.82894" lon="8.8429">
        <ele>562.51</ele>
        <time>2022-04-26T08:01:41Z</time>
      </trkpt>
      <trkpt lat="41.82883" lon="8.84283">
        <ele>562.03</ele>
        <time>2022-04-26T08:01:52Z</time>
      </trkpt>
      <trkpt lat="41.82867" lon="8.84274">
        <ele>564.43</ele>
        <time>2022-04-26T08:02:10Z</time>
      </trkpt>
      <trkpt lat="41.82861" lon="8.84258">
        <ele>565.87</ele>
        <time>2022-04-26T08:02:27Z</time>
      </trkpt>
      <trkpt lat="41.82846" lon="8.84234">
        <ele>567.8</ele>
        <time>2022-04-26T08:02:46Z</time>
      </trkpt>
      <trkpt lat="41.82833" lon="8.84218">
        <ele>569.72</ele>
        <time>2022-04-26T08:03:03Z</time>
      </trkpt>
      <trkpt lat="41.82828" lon="8.84212">
        <ele>570.68</ele>
        <time>2022-04-26T08:03:20Z</time>
      </trkpt>
      <trkpt lat="41.82825" lon="8.84204">
        <ele>573.56</ele>
        <time>2022-04-26T08:03:45Z</time>
      </trkpt>
      <trkpt lat="41.82812" lon="8.84186">
        <ele>575.49</ele>
        <time>2022-04-26T08:04:03Z</time>
      </trkpt>
      <trkpt lat="41.82801" lon="8.84174">
        <ele>576.93</ele>
        <time>2022-04-26T08:04:20Z</time>
      </trkpt>
      <trkpt lat="41.82795" lon="8.84157">
        <ele>578.85</ele>
        <time>2022-04-26T08:04:37Z</time>
      </trkpt>
      <trkpt lat="41.82777" lon="8.84157">
        <ele>578.85</ele>
        <time>2022-04-26T08:04:56Z</time>
      </trkpt>
      <trkpt lat="41.82761" lon="8.84159">
        <ele>579.33</ele>
        <time>2022-04-26T08:05:13Z</time>
      </trkpt>
      <trkpt lat="41.82745" lon="8.84159">
        <ele>580.77</ele>
        <time>2022-04-26T08:05:32Z</time>
      </trkpt>
      <trkpt lat="41.82733" lon="8.84156">
        <ele>580.29</ele>
        <time>2022-04-26T08:05:48Z</time>
      </trkpt>
      <trkpt lat="41.82719" lon="8.84151">
        <ele>579.81</ele>
        <time>2022-04-26T08:06:01Z</time>
      </trkpt>
      <trkpt lat="41.82716" lon="8.84149">
        <ele>579.33</ele>
        <time>2022-04-26T08:06:03Z</time>
      </trkpt>
      <trkpt lat="41.82705" lon="8.84144">
        <ele>579.33</ele>
        <time>2022-04-26T08:06:13Z</time>
      </trkpt>
      <trkpt lat="41.82686" lon="8.84144">
        <ele>576.93</ele>
        <time>2022-04-26T08:06:30Z</time>
      </trkpt>
      <trkpt lat="41.82671" lon="8.84145">
        <ele>575.97</ele>
        <time>2022-04-26T08:06:47Z</time>
      </trkpt>
      <trkpt lat="41.82654" lon="8.84139">
        <ele>574.53</ele>
        <time>2022-04-26T08:07:03Z</time>
      </trkpt>
      <trkpt lat="41.82653" lon="8.84138">
        <ele>574.04</ele>
        <time>2022-04-26T08:07:04Z</time>
      </trkpt>
      <trkpt lat="41.82635" lon="8.84136">
        <ele>572.12</ele>
        <time>2022-04-26T08:07:21Z</time>
      </trkpt>
      <trkpt lat="41.82623" lon="8.84135">
        <ele>568.76</ele>
        <time>2022-04-26T08:07:33Z</time>
      </trkpt>
      <trkpt lat="41.82601" lon="8.84137">
        <ele>567.8</ele>
        <time>2022-04-26T08:07:51Z</time>
      </trkpt>
      <trkpt lat="41.82581" lon="8.8414">
        <ele>567.8</ele>
        <time>2022-04-26T08:08:08Z</time>
      </trkpt>
      <trkpt lat="41.8256" lon="8.84147">
        <ele>569.24</ele>
        <time>2022-04-26T08:08:27Z</time>
      </trkpt>
      <trkpt lat="41.82541" lon="8.8415">
        <ele>572.6</ele>
        <time>2022-04-26T08:08:45Z</time>
      </trkpt>
      <trkpt lat="41.82526" lon="8.84153">
        <ele>575.49</ele>
        <time>2022-04-26T08:09:03Z</time>
      </trkpt>
      <trkpt lat="41.82511" lon="8.84156">
        <ele>578.37</ele>
        <time>2022-04-26T08:09:23Z</time>
      </trkpt>
      <trkpt lat="41.82491" lon="8.84161">
        <ele>577.41</ele>
        <time>2022-04-26T08:09:45Z</time>
      </trkpt>
      <trkpt lat="41.82483" lon="8.84162">
        <ele>576.93</ele>
        <time>2022-04-26T08:09:51Z</time>
      </trkpt>
      <trkpt lat="41.82478" lon="8.84162">
        <ele>576.45</ele>
        <time>2022-04-26T08:09:54Z</time>
      </trkpt>
      <trkpt lat="41.82467" lon="8.84163">
        <ele>575.49</ele>
        <time>2022-04-26T08:10:09Z</time>
      </trkpt>
      <trkpt lat="41.82456" lon="8.84166">
        <ele>573.56</ele>
        <time>2022-04-26T08:10:29Z</time>
      </trkpt>
      <trkpt lat="41.82453" lon="8.84167">
        <ele>572.6</ele>
        <time>2022-04-26T08:10:50Z</time>
      </trkpt>
      <trkpt lat="41.82441" lon="8.84164">
        <ele>569.72</ele>
        <time>2022-04-26T08:11:04Z</time>
      </trkpt>
      <trkpt lat="41.8243" lon="8.84161">
        <ele>566.35</ele>
        <time>2022-04-26T08:11:16Z</time>
      </trkpt>
      <trkpt lat="41.8242" lon="8.84157">
        <ele>563.47</ele>
        <time>2022-04-26T08:11:27Z</time>
      </trkpt>
      <trkpt lat="41.82412" lon="8.84154">
        <ele>560.11</ele>
        <time>2022-04-26T08:11:40Z</time>
      </trkpt>
      <trkpt lat="41.82401" lon="8.84149">
        <ele>556.74</ele>
        <time>2022-04-26T08:11:54Z</time>
      </trkpt>
      <trkpt lat="41.82402" lon="8.8415">
        <ele>556.74</ele>
        <time>2022-04-26T08:12:13Z</time>
      </trkpt>
      <trkpt lat="41.82397" lon="8.84148">
        <ele>555.78</ele>
        <time>2022-04-26T08:12:38Z</time>
      </trkpt>
      <trkpt lat="41.82394" lon="8.84144">
        <ele>554.82</ele>
        <time>2022-04-26T08:12:53Z</time>
      </trkpt>
      <trkpt lat="41.82392" lon="8.84142">
        <ele>554.82</ele>
        <time>2022-04-26T08:13:15Z</time>
      </trkpt>
      <trkpt lat="41.82391" lon="8.8414">
        <ele>554.82</ele>
        <time>2022-04-26T08:13:32Z</time>
      </trkpt>
      <trkpt lat="41.82381" lon="8.84141">
        <ele>552.9</ele>
        <time>2022-04-26T08:13:48Z</time>
      </trkpt>
      <trkpt lat="41.82366" lon="8.84137">
        <ele>549.53</ele>
        <time>2022-04-26T08:14:03Z</time>
      </trkpt>
      <trkpt lat="41.82348" lon="8.84129">
        <ele>547.13</ele>
        <time>2022-04-26T08:14:21Z</time>
      </trkpt>
      <trkpt lat="41.82341" lon="8.84126">
        <ele>545.69</ele>
        <time>2022-04-26T08:14:34Z</time>
      </trkpt>
      <trkpt lat="41.82343" lon="8.84127">
        <ele>546.17</ele>
        <time>2022-04-26T08:14:52Z</time>
      </trkpt>
      <trkpt lat="41.82333" lon="8.84122">
        <ele>546.65</ele>
        <time>2022-04-26T08:15:14Z</time>
      </trkpt>
      <trkpt lat="41.82331" lon="8.84119">
        <ele>542.8</ele>
        <time>2022-04-26T08:15:19Z</time>
      </trkpt>
      <trkpt lat="41.82331" lon="8.84118">
        <ele>544.72</ele>
        <time>2022-04-26T08:15:20Z</time>
      </trkpt>
      <trkpt lat="41.82333" lon="8.84115">
        <ele>543.28</ele>
        <time>2022-04-26T08:15:32Z</time>
      </trkpt>
      <trkpt lat="41.82333" lon="8.84111">
        <ele>543.76</ele>
        <time>2022-04-26T08:15:49Z</time>
      </trkpt>
      <trkpt lat="41.82332" lon="8.84116">
        <ele>543.76</ele>
        <time>2022-04-26T08:16:05Z</time>
      </trkpt>
      <trkpt lat="41.82329" lon="8.84121">
        <ele>544.72</ele>
        <time>2022-04-26T08:16:21Z</time>
      </trkpt>
      <trkpt lat="41.8232" lon="8.84131">
        <ele>545.2</ele>
        <time>2022-04-26T08:16:34Z</time>
      </trkpt>
      <trkpt lat="41.82305" lon="8.84146">
        <ele>543.28</ele>
        <time>2022-04-26T08:16:50Z</time>
      </trkpt>
      <trkpt lat="41.82292" lon="8.84164">
        <ele>542.32</ele>
        <time>2022-04-26T08:17:08Z</time>
      </trkpt>
      <trkpt lat="41.82282" lon="8.8419">
        <ele>541.84</ele>
        <time>2022-04-26T08:17:25Z</time>
      </trkpt>
      <trkpt lat="41.82276" lon="8.84206">
        <ele>542.32</ele>
        <time>2022-04-26T08:17:36Z</time>
      </trkpt>
      <trkpt lat="41.82277" lon="8.84214">
        <ele>542.32</ele>
        <time>2022-04-26T08:17:40Z</time>
      </trkpt>
      <trkpt lat="41.82277" lon="8.84228">
        <ele>542.32</ele>
        <time>2022-04-26T08:17:50Z</time>
      </trkpt>
      <trkpt lat="41.82274" lon="8.84235">
        <ele>542.32</ele>
        <time>2022-04-26T08:17:54Z</time>
      </trkpt>
      <trkpt lat="41.82261" lon="8.84233">
        <ele>542.8</ele>
        <time>2022-04-26T08:18:07Z</time>
      </trkpt>
      <trkpt lat="41.82248" lon="8.84229">
        <ele>544.72</ele>
        <time>2022-04-26T08:18:22Z</time>
      </trkpt>
      <trkpt lat="41.82234" lon="8.84227">
        <ele>547.13</ele>
        <time>2022-04-26T08:18:42Z</time>
      </trkpt>
      <trkpt lat="41.82224" lon="8.84227">
        <ele>548.57</ele>
        <time>2022-04-26T08:18:58Z</time>
      </trkpt>
      <trkpt lat="41.82212" lon="8.84224">
        <ele>549.53</ele>
        <time>2022-04-26T08:19:09Z</time>
      </trkpt>
      <trkpt lat="41.82196" lon="8.84223">
        <ele>550.49</ele>
        <time>2022-04-26T08:19:26Z</time>
      </trkpt>
      <trkpt lat="41.82177" lon="8.84222">
        <ele>551.93</ele>
        <time>2022-04-26T08:19:44Z</time>
      </trkpt>
      <trkpt lat="41.82163" lon="8.84217">
        <ele>555.3</ele>
        <time>2022-04-26T08:20:02Z</time>
      </trkpt>
      <trkpt lat="41.82153" lon="8.84218">
        <ele>557.7</ele>
        <time>2022-04-26T08:20:15Z</time>
      </trkpt>
      <trkpt lat="41.82142" lon="8.84223">
        <ele>559.14</ele>
        <time>2022-04-26T08:20:30Z</time>
      </trkpt>
      <trkpt lat="41.8213" lon="8.84226">
        <ele>560.11</ele>
        <time>2022-04-26T08:20:45Z</time>
      </trkpt>
      <trkpt lat="41.82112" lon="8.84229">
        <ele>561.55</ele>
        <time>2022-04-26T08:21:01Z</time>
      </trkpt>
      <trkpt lat="41.82101" lon="8.84228">
        <ele>561.07</ele>
        <time>2022-04-26T08:21:09Z</time>
      </trkpt>
      <trkpt lat="41.8209" lon="8.84221">
        <ele>560.59</ele>
        <time>2022-04-26T08:21:25Z</time>
      </trkpt>
      <trkpt lat="41.82079" lon="8.84212">
        <ele>560.11</ele>
        <time>2022-04-26T08:21:38Z</time>
      </trkpt>
      <trkpt lat="41.82066" lon="8.84206">
        <ele>561.07</ele>
        <time>2022-04-26T08:21:55Z</time>
      </trkpt>
      <trkpt lat="41.82064" lon="8.84209">
        <ele>561.55</ele>
        <time>2022-04-26T08:22:08Z</time>
      </trkpt>
      <trkpt lat="41.82055" lon="8.84202">
        <ele>559.62</ele>
        <time>2022-04-26T08:22:22Z</time>
      </trkpt>
      <trkpt lat="41.82042" lon="8.84197">
        <ele>557.7</ele>
        <time>2022-04-26T08:22:36Z</time>
      </trkpt>
      <trkpt lat="41.8202" lon="8.84189">
        <ele>554.34</ele>
        <time>2022-04-26T08:22:52Z</time>
      </trkpt>
      <trkpt lat="41.82003" lon="8.84173">
        <ele>553.86</ele>
        <time>2022-04-26T08:23:08Z</time>
      </trkpt>
      <trkpt lat="41.81983" lon="8.84158">
        <ele>553.86</ele>
        <time>2022-04-26T08:23:27Z</time>
      </trkpt>
      <trkpt lat="41.8198" lon="8.84157">
        <ele>554.34</ele>
        <time>2022-04-26T08:23:30Z</time>
      </trkpt>
      <trkpt lat="41.81959" lon="8.84156">
        <ele>554.82</ele>
        <time>2022-04-26T08:23:47Z</time>
      </trkpt>
      <trkpt lat="41.8194" lon="8.8416">
        <ele>555.78</ele>
        <time>2022-04-26T08:24:03Z</time>
      </trkpt>
      <trkpt lat="41.81924" lon="8.84166">
        <ele>556.74</ele>
        <time>2022-04-26T08:24:17Z</time>
      </trkpt>
      <trkpt lat="41.81907" lon="8.84172">
        <ele>555.78</ele>
        <time>2022-04-26T08:24:32Z</time>
      </trkpt>
      <trkpt lat="41.81886" lon="8.8417">
        <ele>555.3</ele>
        <time>2022-04-26T08:24:49Z</time>
      </trkpt>
      <trkpt lat="41.81863" lon="8.84169">
        <ele>554.34</ele>
        <time>2022-04-26T08:25:07Z</time>
      </trkpt>
      <trkpt lat="41.81844" lon="8.84164">
        <ele>551.93</ele>
        <time>2022-04-26T08:25:22Z</time>
      </trkpt>
      <trkpt lat="41.81827" lon="8.84145">
        <ele>550.01</ele>
        <time>2022-04-26T08:25:39Z</time>
      </trkpt>
      <trkpt lat="41.81816" lon="8.84129">
        <ele>548.57</ele>
        <time>2022-04-26T08:25:52Z</time>
      </trkpt>
      <trkpt lat="41.81804" lon="8.84107">
        <ele>548.57</ele>
        <time>2022-04-26T08:26:09Z</time>
      </trkpt>
      <trkpt lat="41.81792" lon="8.84086">
        <ele>549.53</ele>
        <time>2022-04-26T08:26:28Z</time>
      </trkpt>
      <trkpt lat="41.81773" lon="8.84077">
        <ele>551.45</ele>
        <time>2022-04-26T08:26:46Z</time>
      </trkpt>
      <trkpt lat="41.81764" lon="8.84075">
        <ele>554.82</ele>
        <time>2022-04-26T08:26:59Z</time>
      </trkpt>
      <trkpt lat="41.81748" lon="8.84072">
        <ele>556.74</ele>
        <time>2022-04-26T08:27:17Z</time>
      </trkpt>
      <trkpt lat="41.81742" lon="8.84057">
        <ele>558.18</ele>
        <time>2022-04-26T08:27:33Z</time>
      </trkpt>
      <trkpt lat="41.81737" lon="8.84034">
        <ele>559.14</ele>
        <time>2022-04-26T08:27:50Z</time>
      </trkpt>
      <trkpt lat="41.81735" lon="8.84027">
        <ele>559.62</ele>
        <time>2022-04-26T08:28:03Z</time>
      </trkpt>
      <trkpt lat="41.81733" lon="8.84028">
        <ele>559.14</ele>
        <time>2022-04-26T08:28:19Z</time>
      </trkpt>
      <trkpt lat="41.81736" lon="8.84025">
        <ele>559.14</ele>
        <time>2022-04-26T08:28:37Z</time>
      </trkpt>
      <trkpt lat="41.81735" lon="8.84022">
        <ele>559.62</ele>
        <time>2022-04-26T08:29:00Z</time>
      </trkpt>
      <trkpt lat="41.81756" lon="8.84024">
        <ele>559.62</ele>
        <time>2022-04-26T08:29:17Z</time>
      </trkpt>
      <trkpt lat="41.81772" lon="8.84033">
        <ele>556.74</ele>
        <time>2022-04-26T08:29:34Z</time>
      </trkpt>
      <trkpt lat="41.81775" lon="8.84033">
        <ele>556.26</ele>
        <time>2022-04-26T08:29:38Z</time>
      </trkpt>
      <trkpt lat="41.81785" lon="8.84034">
        <ele>552.9</ele>
        <time>2022-04-26T08:29:48Z</time>
      </trkpt>
      <trkpt lat="41.81797" lon="8.84034">
        <ele>549.53</ele>
        <time>2022-04-26T08:30:02Z</time>
      </trkpt>
      <trkpt lat="41.81817" lon="8.84036">
        <ele>548.09</ele>
        <time>2022-04-26T08:30:17Z</time>
      </trkpt>
      <trkpt lat="41.81833" lon="8.84022">
        <ele>546.17</ele>
        <time>2022-04-26T08:30:32Z</time>
      </trkpt>
      <trkpt lat="41.81837" lon="8.84015">
        <ele>546.17</ele>
        <time>2022-04-26T08:30:37Z</time>
      </trkpt>
      <trkpt lat="41.81851" lon="8.83994">
        <ele>544.72</ele>
        <time>2022-04-26T08:30:52Z</time>
      </trkpt>
      <trkpt lat="41.81859" lon="8.83993">
        <ele>543.76</ele>
        <time>2022-04-26T08:31:02Z</time>
      </trkpt>
      <trkpt lat="41.81866" lon="8.83988">
        <ele>543.76</ele>
        <time>2022-04-26T08:31:19Z</time>
      </trkpt>
      <trkpt lat="41.81866" lon="8.83983">
        <ele>543.76</ele>
        <time>2022-04-26T08:31:37Z</time>
      </trkpt>
      <trkpt lat="41.81874" lon="8.83988">
        <ele>541.84</ele>
        <time>2022-04-26T08:31:56Z</time>
      </trkpt>
      <trkpt lat="41.81864" lon="8.83986">
        <ele>508.67</ele>
        <time>2022-04-26T08:58:55Z</time>
      </trkpt>
      <trkpt lat="41.81849" lon="8.84002">
        <ele>508.67</ele>
        <time>2022-04-26T08:58:56Z</time>
      </trkpt>
      <trkpt lat="41.81848" lon="8.84002">
        <ele>511.56</ele>
        <time>2022-04-26T08:59:06Z</time>
      </trkpt>
      <trkpt lat="41.81849" lon="8.84001">
        <ele>515.88</ele>
        <time>2022-04-26T08:59:09Z</time>
      </trkpt>
      <trkpt lat="41.8185" lon="8.84002">
        <ele>519.25</ele>
        <time>2022-04-26T08:59:13Z</time>
      </trkpt>
      <trkpt lat="41.81851" lon="8.84002">
        <ele>523.09</ele>
        <time>2022-04-26T08:59:16Z</time>
      </trkpt>
      <trkpt lat="41.81851" lon="8.84002">
        <ele>527.42</ele>
        <time>2022-04-26T08:59:20Z</time>
      </trkpt>
      <trkpt lat="41.81851" lon="8.84002">
        <ele>528.38</ele>
        <time>2022-04-26T08:59:22Z</time>
      </trkpt>
      <trkpt lat="41.81851" lon="8.84003">
        <ele>531.75</ele>
        <time>2022-04-26T08:59:26Z</time>
      </trkpt>
      <trkpt lat="41.81851" lon="8.84003">
        <ele>532.71</ele>
        <time>2022-04-26T08:59:28Z</time>
      </trkpt>
      <trkpt lat="41.81851" lon="8.84003">
        <ele>536.07</ele>
        <time>2022-04-26T08:59:31Z</time>
      </trkpt>
      <trkpt lat="41.81851" lon="8.84002">
        <ele>538.96</ele>
        <time>2022-04-26T08:59:36Z</time>
      </trkpt>
      <trkpt lat="41.8185" lon="8.84002">
        <ele>542.32</ele>
        <time>2022-04-26T08:59:42Z</time>
      </trkpt>
      <trkpt lat="41.8185" lon="8.84002">
        <ele>545.69</ele>
        <time>2022-04-26T08:59:50Z</time>
      </trkpt>
      <trkpt lat="41.81851" lon="8.84002">
        <ele>548.57</ele>
        <time>2022-04-26T09:00:00Z</time>
      </trkpt>
      <trkpt lat="41.8185" lon="8.84004">
        <ele>551.45</ele>
        <time>2022-04-26T09:00:15Z</time>
      </trkpt>
      <trkpt lat="41.81853" lon="8.84008">
        <ele>552.9</ele>
        <time>2022-04-26T09:00:37Z</time>
      </trkpt>
      <trkpt lat="41.81852" lon="8.84006">
        <ele>553.86</ele>
        <time>2022-04-26T09:00:53Z</time>
      </trkpt>
      <trkpt lat="41.81843" lon="8.84013">
        <ele>554.34</ele>
        <time>2022-04-26T09:01:07Z</time>
      </trkpt>
      <trkpt lat="41.81834" lon="8.84027">
        <ele>555.78</ele>
        <time>2022-04-26T09:01:21Z</time>
      </trkpt>
      <trkpt lat="41.81824" lon="8.84037">
        <ele>555.78</ele>
        <time>2022-04-26T09:01:37Z</time>
      </trkpt>
      <trkpt lat="41.81813" lon="8.84039">
        <ele>556.74</ele>
        <time>2022-04-26T09:01:53Z</time>
      </trkpt>
      <trkpt lat="41.818" lon="8.84038">
        <ele>557.22</ele>
        <time>2022-04-26T09:02:08Z</time>
      </trkpt>
      <trkpt lat="41.81794" lon="8.84036">
        <ele>557.7</ele>
        <time>2022-04-26T09:02:31Z</time>
      </trkpt>
      <trkpt lat="41.81787" lon="8.84035">
        <ele>559.14</ele>
        <time>2022-04-26T09:02:41Z</time>
      </trkpt>
      <trkpt lat="41.81779" lon="8.84033">
        <ele>561.07</ele>
        <time>2022-04-26T09:02:51Z</time>
      </trkpt>
      <trkpt lat="41.81768" lon="8.8403">
        <ele>564.43</ele>
        <time>2022-04-26T09:03:05Z</time>
      </trkpt>
      <trkpt lat="41.81767" lon="8.8403">
        <ele>564.91</ele>
        <time>2022-04-26T09:03:06Z</time>
      </trkpt>
      <trkpt lat="41.81755" lon="8.84028">
        <ele>567.32</ele>
        <time>2022-04-26T09:03:20Z</time>
      </trkpt>
      <trkpt lat="41.81742" lon="8.84025">
        <ele>567.32</ele>
        <time>2022-04-26T09:03:32Z</time>
      </trkpt>
      <trkpt lat="41.81724" lon="8.84026">
        <ele>567.32</ele>
        <time>2022-04-26T09:03:46Z</time>
      </trkpt>
      <trkpt lat="41.81707" lon="8.84034">
        <ele>568.76</ele>
        <time>2022-04-26T09:04:05Z</time>
      </trkpt>
      <trkpt lat="41.81682" lon="8.84038">
        <ele>567.32</ele>
        <time>2022-04-26T09:04:25Z</time>
      </trkpt>
      <trkpt lat="41.81666" lon="8.8405">
        <ele>567.32</ele>
        <time>2022-04-26T09:04:39Z</time>
      </trkpt>
      <trkpt lat="41.81648" lon="8.84066">
        <ele>564.91</ele>
        <time>2022-04-26T09:04:58Z</time>
      </trkpt>
      <trkpt lat="41.81632" lon="8.84074">
        <ele>562.03</ele>
        <time>2022-04-26T09:05:10Z</time>
      </trkpt>
      <trkpt lat="41.81614" lon="8.84082">
        <ele>562.99</ele>
        <time>2022-04-26T09:05:25Z</time>
      </trkpt>
      <trkpt lat="41.816" lon="8.84087">
        <ele>563.47</ele>
        <time>2022-04-26T09:05:37Z</time>
      </trkpt>
      <trkpt lat="41.81599" lon="8.84087">
        <ele>563.95</ele>
        <time>2022-04-26T09:05:39Z</time>
      </trkpt>
      <trkpt lat="41.81581" lon="8.84084">
        <ele>564.91</ele>
        <time>2022-04-26T09:05:54Z</time>
      </trkpt>
      <trkpt lat="41.81581" lon="8.84084">
        <ele>564.91</ele>
        <time>2022-04-26T09:05:55Z</time>
      </trkpt>
      <trkpt lat="41.8156" lon="8.84097">
        <ele>564.91</ele>
        <time>2022-04-26T09:06:14Z</time>
      </trkpt>
      <trkpt lat="41.8154" lon="8.84113">
        <ele>565.39</ele>
        <time>2022-04-26T09:06:32Z</time>
      </trkpt>
      <trkpt lat="41.81521" lon="8.84119">
        <ele>565.39</ele>
        <time>2022-04-26T09:06:49Z</time>
      </trkpt>
      <trkpt lat="41.815" lon="8.84123">
        <ele>566.35</ele>
        <time>2022-04-26T09:07:07Z</time>
      </trkpt>
      <trkpt lat="41.81483" lon="8.84128">
        <ele>567.32</ele>
        <time>2022-04-26T09:07:22Z</time>
      </trkpt>
      <trkpt lat="41.81468" lon="8.84131">
        <ele>568.28</ele>
        <time>2022-04-26T09:07:35Z</time>
      </trkpt>
      <trkpt lat="41.81462" lon="8.84133">
        <ele>567.32</ele>
        <time>2022-04-26T09:07:40Z</time>
      </trkpt>
      <trkpt lat="41.81445" lon="8.84131">
        <ele>570.2</ele>
        <time>2022-04-26T09:07:55Z</time>
      </trkpt>
      <trkpt lat="41.8143" lon="8.84126">
        <ele>572.6</ele>
        <time>2022-04-26T09:08:10Z</time>
      </trkpt>
      <trkpt lat="41.81415" lon="8.8412">
        <ele>575.01</ele>
        <time>2022-04-26T09:08:26Z</time>
      </trkpt>
      <trkpt lat="41.81403" lon="8.84119">
        <ele>578.37</ele>
        <time>2022-04-26T09:08:41Z</time>
      </trkpt>
      <trkpt lat="41.81389" lon="8.84112">
        <ele>580.29</ele>
        <time>2022-04-26T09:08:57Z</time>
      </trkpt>
      <trkpt lat="41.81377" lon="8.84108">
        <ele>582.7</ele>
        <time>2022-04-26T09:09:11Z</time>
      </trkpt>
      <trkpt lat="41.81364" lon="8.84104">
        <ele>584.62</ele>
        <time>2022-04-26T09:09:26Z</time>
      </trkpt>
      <trkpt lat="41.81349" lon="8.84102">
        <ele>586.54</ele>
        <time>2022-04-26T09:09:41Z</time>
      </trkpt>
      <trkpt lat="41.81334" lon="8.841">
        <ele>586.54</ele>
        <time>2022-04-26T09:09:57Z</time>
      </trkpt>
      <trkpt lat="41.81333" lon="8.841">
        <ele>586.06</ele>
        <time>2022-04-26T09:09:58Z</time>
      </trkpt>
      <trkpt lat="41.81332" lon="8.841">
        <ele>592.79</ele>
        <time>2022-04-26T09:09:59Z</time>
      </trkpt>
      <trkpt lat="41.81332" lon="8.841">
        <ele>588.95</ele>
        <time>2022-04-26T09:10:00Z</time>
      </trkpt>
      <trkpt lat="41.81321" lon="8.84099">
        <ele>591.35</ele>
        <time>2022-04-26T09:10:20Z</time>
      </trkpt>
      <trkpt lat="41.81319" lon="8.84098">
        <ele>591.35</ele>
        <time>2022-04-26T09:10:22Z</time>
      </trkpt>
      <trkpt lat="41.813" lon="8.84091">
        <ele>593.27</ele>
        <time>2022-04-26T09:10:41Z</time>
      </trkpt>
      <trkpt lat="41.8128" lon="8.84079">
        <ele>592.79</ele>
        <time>2022-04-26T09:11:01Z</time>
      </trkpt>
      <trkpt lat="41.81259" lon="8.84075">
        <ele>593.27</ele>
        <time>2022-04-26T09:11:19Z</time>
      </trkpt>
      <trkpt lat="41.81242" lon="8.84072">
        <ele>594.23</ele>
        <time>2022-04-26T09:11:35Z</time>
      </trkpt>
      <trkpt lat="41.8123" lon="8.84086">
        <ele>594.71</ele>
        <time>2022-04-26T09:11:49Z</time>
      </trkpt>
      <trkpt lat="41.81217" lon="8.84108">
        <ele>595.19</ele>
        <time>2022-04-26T09:12:07Z</time>
      </trkpt>
      <trkpt lat="41.812" lon="8.84124">
        <ele>594.71</ele>
        <time>2022-04-26T09:12:23Z</time>
      </trkpt>
      <trkpt lat="41.81187" lon="8.84133">
        <ele>592.79</ele>
        <time>2022-04-26T09:12:35Z</time>
      </trkpt>
      <trkpt lat="41.81168" lon="8.84139">
        <ele>590.87</ele>
        <time>2022-04-26T09:12:51Z</time>
      </trkpt>
      <trkpt lat="41.81147" lon="8.84144">
        <ele>590.39</ele>
        <time>2022-04-26T09:13:08Z</time>
      </trkpt>
      <trkpt lat="41.81128" lon="8.84143">
        <ele>588.46</ele>
        <time>2022-04-26T09:13:24Z</time>
      </trkpt>
      <trkpt lat="41.81109" lon="8.84155">
        <ele>587.02</ele>
        <time>2022-04-26T09:13:39Z</time>
      </trkpt>
      <trkpt lat="41.81106" lon="8.84159">
        <ele>587.02</ele>
        <time>2022-04-26T09:13:46Z</time>
      </trkpt>
      <trkpt lat="41.81091" lon="8.84166">
        <ele>587.98</ele>
        <time>2022-04-26T09:13:58Z</time>
      </trkpt>
      <trkpt lat="41.81084" lon="8.84163">
        <ele>589.43</ele>
        <time>2022-04-26T09:14:11Z</time>
      </trkpt>
      <trkpt lat="41.81081" lon="8.8416">
        <ele>592.31</ele>
        <time>2022-04-26T09:14:21Z</time>
      </trkpt>
      <trkpt lat="41.81082" lon="8.8416">
        <ele>591.35</ele>
        <time>2022-04-26T09:14:23Z</time>
      </trkpt>
      <trkpt lat="41.81082" lon="8.84157">
        <ele>592.31</ele>
        <time>2022-04-26T09:14:27Z</time>
      </trkpt>
      <trkpt lat="41.81082" lon="8.84154">
        <ele>593.75</ele>
        <time>2022-04-26T09:14:39Z</time>
      </trkpt>
      <trkpt lat="41.81082" lon="8.84155">
        <ele>593.75</ele>
        <time>2022-04-26T09:14:40Z</time>
      </trkpt>
      <trkpt lat="41.81075" lon="8.84159">
        <ele>594.71</ele>
        <time>2022-04-26T09:14:49Z</time>
      </trkpt>
      <trkpt lat="41.81064" lon="8.84171">
        <ele>598.08</ele>
        <time>2022-04-26T09:15:05Z</time>
      </trkpt>
      <trkpt lat="41.81052" lon="8.84168">
        <ele>601.44</ele>
        <time>2022-04-26T09:15:22Z</time>
      </trkpt>
      <trkpt lat="41.81043" lon="8.84158">
        <ele>604.33</ele>
        <time>2022-04-26T09:15:40Z</time>
      </trkpt>
      <trkpt lat="41.81043" lon="8.84158">
        <ele>604.33</ele>
        <time>2022-04-26T09:15:41Z</time>
      </trkpt>
      <trkpt lat="41.81035" lon="8.84166">
        <ele>606.73</ele>
        <time>2022-04-26T09:15:57Z</time>
      </trkpt>
      <trkpt lat="41.81029" lon="8.84162">
        <ele>609.61</ele>
        <time>2022-04-26T09:16:13Z</time>
      </trkpt>
      <trkpt lat="41.81029" lon="8.84161">
        <ele>610.57</ele>
        <time>2022-04-26T09:16:15Z</time>
      </trkpt>
      <trkpt lat="41.8102" lon="8.84157">
        <ele>612.98</ele>
        <time>2022-04-26T09:16:28Z</time>
      </trkpt>
      <trkpt lat="41.81015" lon="8.8415">
        <ele>614.9</ele>
        <time>2022-04-26T09:16:37Z</time>
      </trkpt>
      <trkpt lat="41.81003" lon="8.84138">
        <ele>617.78</ele>
        <time>2022-04-26T09:16:54Z</time>
      </trkpt>
      <trkpt lat="41.81001" lon="8.84125">
        <ele>618.26</ele>
        <time>2022-04-26T09:17:09Z</time>
      </trkpt>
      <trkpt lat="41.81002" lon="8.84127">
        <ele>617.78</ele>
        <time>2022-04-26T09:17:26Z</time>
      </trkpt>
      <trkpt lat="41.81001" lon="8.84107">
        <ele>619.23</ele>
        <time>2022-04-26T09:17:42Z</time>
      </trkpt>
      <trkpt lat="41.80995" lon="8.84088">
        <ele>620.19</ele>
        <time>2022-04-26T09:17:58Z</time>
      </trkpt>
      <trkpt lat="41.8099" lon="8.84071">
        <ele>623.07</ele>
        <time>2022-04-26T09:18:15Z</time>
      </trkpt>
      <trkpt lat="41.8099" lon="8.84058">
        <ele>624.51</ele>
        <time>2022-04-26T09:18:27Z</time>
      </trkpt>
      <trkpt lat="41.80991" lon="8.84046">
        <ele>626.44</ele>
        <time>2022-04-26T09:18:40Z</time>
      </trkpt>
      <trkpt lat="41.80989" lon="8.84023">
        <ele>626.44</ele>
        <time>2022-04-26T09:18:57Z</time>
      </trkpt>
      <trkpt lat="41.80983" lon="8.84009">
        <ele>626.44</ele>
        <time>2022-04-26T09:19:11Z</time>
      </trkpt>
      <trkpt lat="41.80978" lon="8.83997">
        <ele>629.32</ele>
        <time>2022-04-26T09:19:24Z</time>
      </trkpt>
      <trkpt lat="41.80976" lon="8.83984">
        <ele>632.2</ele>
        <time>2022-04-26T09:19:38Z</time>
      </trkpt>
      <trkpt lat="41.8097" lon="8.83973">
        <ele>633.65</ele>
        <time>2022-04-26T09:19:53Z</time>
      </trkpt>
      <trkpt lat="41.80967" lon="8.83959">
        <ele>635.57</ele>
        <time>2022-04-26T09:20:07Z</time>
      </trkpt>
      <trkpt lat="41.80968" lon="8.83944">
        <ele>638.45</ele>
        <time>2022-04-26T09:20:21Z</time>
      </trkpt>
      <trkpt lat="41.80959" lon="8.83926">
        <ele>638.93</ele>
        <time>2022-04-26T09:20:38Z</time>
      </trkpt>
      <trkpt lat="41.80956" lon="8.83919">
        <ele>639.89</ele>
        <time>2022-04-26T09:20:45Z</time>
      </trkpt>
      <trkpt lat="41.80955" lon="8.839">
        <ele>638.93</ele>
        <time>2022-04-26T09:20:59Z</time>
      </trkpt>
      <trkpt lat="41.80951" lon="8.83878">
        <ele>638.45</ele>
        <time>2022-04-26T09:21:16Z</time>
      </trkpt>
      <trkpt lat="41.80943" lon="8.83861">
        <ele>638.93</ele>
        <time>2022-04-26T09:21:28Z</time>
      </trkpt>
      <trkpt lat="41.80933" lon="8.8385">
        <ele>637.49</ele>
        <time>2022-04-26T09:21:41Z</time>
      </trkpt>
      <trkpt lat="41.80921" lon="8.8383">
        <ele>636.53</ele>
        <time>2022-04-26T09:21:57Z</time>
      </trkpt>
      <trkpt lat="41.80913" lon="8.83814">
        <ele>637.97</ele>
        <time>2022-04-26T09:22:11Z</time>
      </trkpt>
      <trkpt lat="41.80911" lon="8.83811">
        <ele>637.49</ele>
        <time>2022-04-26T09:22:14Z</time>
      </trkpt>
      <trkpt lat="41.80906" lon="8.83797">
        <ele>637.97</ele>
        <time>2022-04-26T09:22:30Z</time>
      </trkpt>
      <trkpt lat="41.80908" lon="8.83796">
        <ele>637.97</ele>
        <time>2022-04-26T09:22:51Z</time>
      </trkpt>
      <trkpt lat="41.80901" lon="8.83795">
        <ele>637.01</ele>
        <time>2022-04-26T09:23:09Z</time>
      </trkpt>
      <trkpt lat="41.80902" lon="8.83793">
        <ele>637.01</ele>
        <time>2022-04-26T09:23:30Z</time>
      </trkpt>
      <trkpt lat="41.80892" lon="8.83791">
        <ele>636.53</ele>
        <time>2022-04-26T09:23:43Z</time>
      </trkpt>
      <trkpt lat="41.80871" lon="8.83784">
        <ele>634.13</ele>
        <time>2022-04-26T09:24:01Z</time>
      </trkpt>
      <trkpt lat="41.80866" lon="8.83784">
        <ele>633.17</ele>
        <time>2022-04-26T09:24:06Z</time>
      </trkpt>
      <trkpt lat="41.80851" lon="8.83778">
        <ele>629.8</ele>
        <time>2022-04-26T09:24:19Z</time>
      </trkpt>
      <trkpt lat="41.80844" lon="8.8377">
        <ele>626.44</ele>
        <time>2022-04-26T09:24:27Z</time>
      </trkpt>
      <trkpt lat="41.80843" lon="8.83769">
        <ele>626.44</ele>
        <time>2022-04-26T09:24:28Z</time>
      </trkpt>
      <trkpt lat="41.80835" lon="8.83759">
        <ele>622.59</ele>
        <time>2022-04-26T09:24:38Z</time>
      </trkpt>
      <trkpt lat="41.80834" lon="8.83757">
        <ele>623.07</ele>
        <time>2022-04-26T09:24:39Z</time>
      </trkpt>
      <trkpt lat="41.80825" lon="8.83748">
        <ele>619.71</ele>
        <time>2022-04-26T09:24:47Z</time>
      </trkpt>
      <trkpt lat="41.80816" lon="8.83734">
        <ele>616.34</ele>
        <time>2022-04-26T09:24:57Z</time>
      </trkpt>
      <trkpt lat="41.80809" lon="8.83713">
        <ele>613.94</ele>
        <time>2022-04-26T09:25:10Z</time>
      </trkpt>
      <trkpt lat="41.80802" lon="8.83685">
        <ele>612.98</ele>
        <time>2022-04-26T09:25:26Z</time>
      </trkpt>
      <trkpt lat="41.80787" lon="8.83669">
        <ele>610.57</ele>
        <time>2022-04-26T09:25:40Z</time>
      </trkpt>
      <trkpt lat="41.80786" lon="8.83668">
        <ele>610.57</ele>
        <time>2022-04-26T09:25:41Z</time>
      </trkpt>
      <trkpt lat="41.80763" lon="8.83655">
        <ele>607.69</ele>
        <time>2022-04-26T09:25:58Z</time>
      </trkpt>
      <trkpt lat="41.80743" lon="8.83641">
        <ele>607.21</ele>
        <time>2022-04-26T09:26:17Z</time>
      </trkpt>
      <trkpt lat="41.80723" lon="8.83638">
        <ele>606.73</ele>
        <time>2022-04-26T09:26:33Z</time>
      </trkpt>
      <trkpt lat="41.807" lon="8.83639">
        <ele>607.69</ele>
        <time>2022-04-26T09:26:53Z</time>
      </trkpt>
      <trkpt lat="41.80686" lon="8.83631">
        <ele>608.17</ele>
        <time>2022-04-26T09:27:08Z</time>
      </trkpt>
      <trkpt lat="41.80673" lon="8.8363">
        <ele>608.17</ele>
        <time>2022-04-26T09:27:27Z</time>
      </trkpt>
      <trkpt lat="41.8067" lon="8.83621">
        <ele>608.65</ele>
        <time>2022-04-26T09:27:48Z</time>
      </trkpt>
      <trkpt lat="41.80675" lon="8.83613">
        <ele>608.17</ele>
        <time>2022-04-26T09:28:01Z</time>
      </trkpt>
      <trkpt lat="41.80677" lon="8.8361">
        <ele>609.13</ele>
        <time>2022-04-26T09:28:30Z</time>
      </trkpt>
      <trkpt lat="41.80674" lon="8.83611">
        <ele>608.17</ele>
        <time>2022-04-26T09:28:56Z</time>
      </trkpt>
      <trkpt lat="41.80655" lon="8.83609">
        <ele>610.09</ele>
        <time>2022-04-26T09:29:14Z</time>
      </trkpt>
      <trkpt lat="41.8064" lon="8.83603">
        <ele>612.02</ele>
        <time>2022-04-26T09:29:30Z</time>
      </trkpt>
      <trkpt lat="41.80623" lon="8.83593">
        <ele>613.94</ele>
        <time>2022-04-26T09:29:49Z</time>
      </trkpt>
      <trkpt lat="41.80613" lon="8.83572">
        <ele>615.86</ele>
        <time>2022-04-26T09:30:09Z</time>
      </trkpt>
      <trkpt lat="41.80605" lon="8.83558">
        <ele>618.26</ele>
        <time>2022-04-26T09:30:25Z</time>
      </trkpt>
      <trkpt lat="41.80597" lon="8.83542">
        <ele>620.67</ele>
        <time>2022-04-26T09:30:43Z</time>
      </trkpt>
      <trkpt lat="41.80589" lon="8.83527">
        <ele>622.59</ele>
        <time>2022-04-26T09:31:01Z</time>
      </trkpt>
      <trkpt lat="41.80579" lon="8.83521">
        <ele>625.96</ele>
        <time>2022-04-26T09:31:20Z</time>
      </trkpt>
      <trkpt lat="41.80572" lon="8.83517">
        <ele>628.36</ele>
        <time>2022-04-26T09:31:35Z</time>
      </trkpt>
      <trkpt lat="41.80569" lon="8.83507">
        <ele>630.76</ele>
        <time>2022-04-26T09:31:51Z</time>
      </trkpt>
      <trkpt lat="41.80558" lon="8.83501">
        <ele>633.65</ele>
        <time>2022-04-26T09:32:08Z</time>
      </trkpt>
      <trkpt lat="41.80545" lon="8.83494">
        <ele>633.65</ele>
        <time>2022-04-26T09:32:24Z</time>
      </trkpt>
      <trkpt lat="41.80534" lon="8.8348">
        <ele>632.2</ele>
        <time>2022-04-26T09:32:40Z</time>
      </trkpt>
      <trkpt lat="41.80518" lon="8.83475">
        <ele>628.84</ele>
        <time>2022-04-26T09:32:55Z</time>
      </trkpt>
      <trkpt lat="41.80493" lon="8.83468">
        <ele>629.8</ele>
        <time>2022-04-26T09:33:15Z</time>
      </trkpt>
      <trkpt lat="41.80473" lon="8.83458">
        <ele>630.76</ele>
        <time>2022-04-26T09:33:34Z</time>
      </trkpt>
      <trkpt lat="41.80453" lon="8.83444">
        <ele>628.84</ele>
        <time>2022-04-26T09:33:53Z</time>
      </trkpt>
      <trkpt lat="41.80434" lon="8.83431">
        <ele>626.92</ele>
        <time>2022-04-26T09:34:11Z</time>
      </trkpt>
      <trkpt lat="41.80416" lon="8.8342">
        <ele>627.88</ele>
        <time>2022-04-26T09:34:29Z</time>
      </trkpt>
      <trkpt lat="41.80398" lon="8.83411">
        <ele>629.8</ele>
        <time>2022-04-26T09:34:47Z</time>
      </trkpt>
      <trkpt lat="41.80379" lon="8.83401">
        <ele>630.28</ele>
        <time>2022-04-26T09:35:05Z</time>
      </trkpt>
      <trkpt lat="41.80359" lon="8.83396">
        <ele>631.72</ele>
        <time>2022-04-26T09:35:23Z</time>
      </trkpt>
      <trkpt lat="41.80343" lon="8.83392">
        <ele>632.2</ele>
        <time>2022-04-26T09:35:39Z</time>
      </trkpt>
      <trkpt lat="41.80319" lon="8.83388">
        <ele>631.24</ele>
        <time>2022-04-26T09:35:59Z</time>
      </trkpt>
      <trkpt lat="41.80311" lon="8.83373">
        <ele>632.68</ele>
        <time>2022-04-26T09:36:12Z</time>
      </trkpt>
      <trkpt lat="41.80306" lon="8.83354">
        <ele>632.2</ele>
        <time>2022-04-26T09:36:27Z</time>
      </trkpt>
      <trkpt lat="41.80302" lon="8.83332">
        <ele>632.2</ele>
        <time>2022-04-26T09:36:43Z</time>
      </trkpt>
      <trkpt lat="41.80301" lon="8.83311">
        <ele>633.17</ele>
        <time>2022-04-26T09:36:57Z</time>
      </trkpt>
      <trkpt lat="41.80297" lon="8.83296">
        <ele>634.13</ele>
        <time>2022-04-26T09:37:09Z</time>
      </trkpt>
      <trkpt lat="41.80299" lon="8.8328">
        <ele>636.05</ele>
        <time>2022-04-26T09:37:22Z</time>
      </trkpt>
      <trkpt lat="41.8029" lon="8.83262">
        <ele>637.01</ele>
        <time>2022-04-26T09:37:39Z</time>
      </trkpt>
      <trkpt lat="41.80285" lon="8.83245">
        <ele>637.97</ele>
        <time>2022-04-26T09:37:54Z</time>
      </trkpt>
      <trkpt lat="41.80279" lon="8.83222">
        <ele>638.45</ele>
        <time>2022-04-26T09:38:10Z</time>
      </trkpt>
      <trkpt lat="41.80274" lon="8.83202">
        <ele>637.01</ele>
        <time>2022-04-26T09:38:26Z</time>
      </trkpt>
      <trkpt lat="41.80273" lon="8.83198">
        <ele>637.01</ele>
        <time>2022-04-26T09:38:29Z</time>
      </trkpt>
      <trkpt lat="41.80268" lon="8.83179">
        <ele>636.05</ele>
        <time>2022-04-26T09:38:46Z</time>
      </trkpt>
      <trkpt lat="41.8027" lon="8.83178">
        <ele>636.05</ele>
        <time>2022-04-26T09:39:06Z</time>
      </trkpt>
      <trkpt lat="41.80267" lon="8.83168">
        <ele>635.09</ele>
        <time>2022-04-26T09:39:20Z</time>
      </trkpt>
      <trkpt lat="41.80269" lon="8.83168">
        <ele>634.61</ele>
        <time>2022-04-26T09:39:31Z</time>
      </trkpt>
      <trkpt lat="41.80269" lon="8.83165">
        <ele>635.09</ele>
        <time>2022-04-26T09:39:34Z</time>
      </trkpt>
      <trkpt lat="41.80264" lon="8.83138">
        <ele>635.09</ele>
        <time>2022-04-26T09:39:53Z</time>
      </trkpt>
      <trkpt lat="41.80261" lon="8.83109">
        <ele>632.68</ele>
        <time>2022-04-26T09:40:10Z</time>
      </trkpt>
      <trkpt lat="41.8026" lon="8.83106">
        <ele>632.2</ele>
        <time>2022-04-26T09:40:12Z</time>
      </trkpt>
      <trkpt lat="41.80251" lon="8.83104">
        <ele>631.72</ele>
        <time>2022-04-26T09:40:22Z</time>
      </trkpt>
      <trkpt lat="41.80244" lon="8.8311">
        <ele>631.24</ele>
        <time>2022-04-26T09:40:37Z</time>
      </trkpt>
      <trkpt lat="41.80245" lon="8.83109">
        <ele>630.76</ele>
        <time>2022-04-26T09:40:58Z</time>
      </trkpt>
      <trkpt lat="41.80236" lon="8.83119">
        <ele>629.8</ele>
        <time>2022-04-26T09:41:23Z</time>
      </trkpt>
      <trkpt lat="41.80231" lon="8.83123">
        <ele>629.32</ele>
        <time>2022-04-26T09:41:29Z</time>
      </trkpt>
      <trkpt lat="41.80215" lon="8.83135">
        <ele>626.92</ele>
        <time>2022-04-26T09:41:45Z</time>
      </trkpt>
      <trkpt lat="41.80206" lon="8.8314">
        <ele>625.96</ele>
        <time>2022-04-26T09:41:52Z</time>
      </trkpt>
      <trkpt lat="41.80199" lon="8.8315">
        <ele>624.03</ele>
        <time>2022-04-26T09:42:02Z</time>
      </trkpt>
      <trkpt lat="41.8019" lon="8.83159">
        <ele>623.55</ele>
        <time>2022-04-26T09:42:09Z</time>
      </trkpt>
      <trkpt lat="41.80187" lon="8.83164">
        <ele>622.59</ele>
        <time>2022-04-26T09:42:13Z</time>
      </trkpt>
      <trkpt lat="41.80186" lon="8.83164">
        <ele>622.59</ele>
        <time>2022-04-26T09:42:14Z</time>
      </trkpt>
      <trkpt lat="41.80182" lon="8.83168">
        <ele>622.59</ele>
        <time>2022-04-26T09:42:16Z</time>
      </trkpt>
      <trkpt lat="41.8018" lon="8.8317">
        <ele>622.11</ele>
        <time>2022-04-26T09:42:17Z</time>
      </trkpt>
      <trkpt lat="41.80179" lon="8.83172">
        <ele>621.63</ele>
        <time>2022-04-26T09:42:18Z</time>
      </trkpt>
      <trkpt lat="41.80177" lon="8.83175">
        <ele>621.63</ele>
        <time>2022-04-26T09:42:19Z</time>
      </trkpt>
      <trkpt lat="41.8017" lon="8.83185">
        <ele>620.19</ele>
        <time>2022-04-26T09:42:31Z</time>
      </trkpt>
      <trkpt lat="41.80168" lon="8.83181">
        <ele>618.75</ele>
        <time>2022-04-26T09:42:39Z</time>
      </trkpt>
      <trkpt lat="41.80168" lon="8.83178">
        <ele>618.75</ele>
        <time>2022-04-26T09:42:40Z</time>
      </trkpt>
      <trkpt lat="41.80168" lon="8.83175">
        <ele>618.75</ele>
        <time>2022-04-26T09:42:41Z</time>
      </trkpt>
      <trkpt lat="41.80167" lon="8.83173">
        <ele>618.75</ele>
        <time>2022-04-26T09:42:42Z</time>
      </trkpt>
      <trkpt lat="41.80167" lon="8.8317">
        <ele>618.75</ele>
        <time>2022-04-26T09:42:43Z</time>
      </trkpt>
      <trkpt lat="41.80166" lon="8.83164">
        <ele>617.78</ele>
        <time>2022-04-26T09:42:48Z</time>
      </trkpt>
      <trkpt lat="41.80165" lon="8.83163">
        <ele>617.3</ele>
        <time>2022-04-26T09:42:49Z</time>
      </trkpt>
      <trkpt lat="41.80165" lon="8.83161">
        <ele>617.78</ele>
        <time>2022-04-26T09:42:50Z</time>
      </trkpt>
      <trkpt lat="41.80164" lon="8.8316">
        <ele>618.26</ele>
        <time>2022-04-26T09:42:51Z</time>
      </trkpt>
      <trkpt lat="41.80164" lon="8.83158">
        <ele>617.78</ele>
        <time>2022-04-26T09:42:52Z</time>
      </trkpt>
      <trkpt lat="41.80163" lon="8.83156">
        <ele>615.38</ele>
        <time>2022-04-26T09:42:53Z</time>
      </trkpt>
      <trkpt lat="41.80157" lon="8.83151">
        <ele>615.38</ele>
        <time>2022-04-26T09:42:59Z</time>
      </trkpt>
      <trkpt lat="41.80156" lon="8.8315">
        <ele>615.38</ele>
        <time>2022-04-26T09:43:00Z</time>
      </trkpt>
      <trkpt lat="41.80152" lon="8.83149">
        <ele>614.42</ele>
        <time>2022-04-26T09:43:03Z</time>
      </trkpt>
      <trkpt lat="41.80145" lon="8.8314">
        <ele>614.42</ele>
        <time>2022-04-26T09:43:18Z</time>
      </trkpt>
      <trkpt lat="41.80136" lon="8.83131">
        <ele>612.98</ele>
        <time>2022-04-26T09:43:30Z</time>
      </trkpt>
      <trkpt lat="41.80121" lon="8.83122">
        <ele>610.09</ele>
        <time>2022-04-26T09:43:45Z</time>
      </trkpt>
      <trkpt lat="41.80104" lon="8.83111">
        <ele>607.21</ele>
        <time>2022-04-26T09:43:59Z</time>
      </trkpt>
      <trkpt lat="41.80084" lon="8.83107">
        <ele>603.85</ele>
        <time>2022-04-26T09:44:12Z</time>
      </trkpt>
      <trkpt lat="41.80062" lon="8.8311">
        <ele>601.44</ele>
        <time>2022-04-26T09:44:29Z</time>
      </trkpt>
      <trkpt lat="41.80042" lon="8.83111">
        <ele>598.08</ele>
        <time>2022-04-26T09:44:44Z</time>
      </trkpt>
      <trkpt lat="41.80027" lon="8.8311">
        <ele>596.15</ele>
        <time>2022-04-26T09:44:56Z</time>
      </trkpt>
      <trkpt lat="41.80026" lon="8.8311">
        <ele>596.15</ele>
        <time>2022-04-26T09:44:57Z</time>
      </trkpt>
      <trkpt lat="41.80025" lon="8.8311">
        <ele>595.67</ele>
        <time>2022-04-26T09:44:58Z</time>
      </trkpt>
      <trkpt lat="41.80008" lon="8.83114">
        <ele>592.79</ele>
        <time>2022-04-26T09:45:10Z</time>
      </trkpt>
      <trkpt lat="41.79991" lon="8.83111">
        <ele>589.43</ele>
        <time>2022-04-26T09:45:22Z</time>
      </trkpt>
      <trkpt lat="41.79983" lon="8.83109">
        <ele>587.98</ele>
        <time>2022-04-26T09:45:28Z</time>
      </trkpt>
      <trkpt lat="41.79981" lon="8.83108">
        <ele>587.98</ele>
        <time>2022-04-26T09:45:29Z</time>
      </trkpt>
      <trkpt lat="41.79966" lon="8.83097">
        <ele>585.1</ele>
        <time>2022-04-26T09:45:43Z</time>
      </trkpt>
      <trkpt lat="41.79966" lon="8.83091">
        <ele>584.62</ele>
        <time>2022-04-26T09:45:48Z</time>
      </trkpt>
      <trkpt lat="41.79967" lon="8.83089">
        <ele>583.66</ele>
        <time>2022-04-26T09:45:49Z</time>
      </trkpt>
      <trkpt lat="41.79967" lon="8.83088">
        <ele>582.22</ele>
        <time>2022-04-26T09:45:50Z</time>
      </trkpt>
      <trkpt lat="41.79968" lon="8.83086">
        <ele>582.22</ele>
        <time>2022-04-26T09:45:51Z</time>
      </trkpt>
      <trkpt lat="41.79968" lon="8.83085">
        <ele>583.18</ele>
        <time>2022-04-26T09:45:52Z</time>
      </trkpt>
      <trkpt lat="41.79972" lon="8.83079">
        <ele>583.66</ele>
        <time>2022-04-26T09:46:07Z</time>
      </trkpt>
      <trkpt lat="41.7997" lon="8.83076">
        <ele>582.7</ele>
        <time>2022-04-26T09:46:31Z</time>
      </trkpt>
      <trkpt lat="41.7997" lon="8.83074">
        <ele>582.7</ele>
        <time>2022-04-26T09:46:47Z</time>
      </trkpt>
      <trkpt lat="41.79971" lon="8.83074">
        <ele>582.7</ele>
        <time>2022-04-26T09:47:14Z</time>
      </trkpt>
      <trkpt lat="41.79973" lon="8.83065">
        <ele>581.73</ele>
        <time>2022-04-26T09:47:33Z</time>
      </trkpt>
      <trkpt lat="41.79973" lon="8.83063">
        <ele>581.25</ele>
        <time>2022-04-26T09:47:34Z</time>
      </trkpt>
      <trkpt lat="41.79973" lon="8.83062">
        <ele>581.73</ele>
        <time>2022-04-26T09:47:35Z</time>
      </trkpt>
      <trkpt lat="41.79972" lon="8.8306">
        <ele>581.73</ele>
        <time>2022-04-26T09:47:36Z</time>
      </trkpt>
      <trkpt lat="41.79972" lon="8.83058">
        <ele>581.73</ele>
        <time>2022-04-26T09:47:37Z</time>
      </trkpt>
      <trkpt lat="41.7997" lon="8.83054">
        <ele>580.77</ele>
        <time>2022-04-26T09:47:40Z</time>
      </trkpt>
      <trkpt lat="41.7997" lon="8.83057">
        <ele>580.29</ele>
        <time>2022-04-26T09:47:55Z</time>
      </trkpt>
      <trkpt lat="41.7997" lon="8.83055">
        <ele>580.29</ele>
        <time>2022-04-26T09:48:20Z</time>
      </trkpt>
      <trkpt lat="41.79968" lon="8.83049">
        <ele>580.77</ele>
        <time>2022-04-26T09:48:38Z</time>
      </trkpt>
      <trkpt lat="41.79961" lon="8.83023">
        <ele>578.85</ele>
        <time>2022-04-26T09:48:55Z</time>
      </trkpt>
      <trkpt lat="41.79956" lon="8.82999">
        <ele>578.37</ele>
        <time>2022-04-26T09:49:10Z</time>
      </trkpt>
      <trkpt lat="41.79955" lon="8.82995">
        <ele>577.89</ele>
        <time>2022-04-26T09:49:13Z</time>
      </trkpt>
      <trkpt lat="41.79954" lon="8.82992">
        <ele>577.89</ele>
        <time>2022-04-26T09:49:14Z</time>
      </trkpt>
      <trkpt lat="41.79953" lon="8.82989">
        <ele>577.41</ele>
        <time>2022-04-26T09:49:15Z</time>
      </trkpt>
      <trkpt lat="41.79953" lon="8.82987">
        <ele>577.41</ele>
        <time>2022-04-26T09:49:16Z</time>
      </trkpt>
      <trkpt lat="41.79953" lon="8.82984">
        <ele>577.89</ele>
        <time>2022-04-26T09:49:17Z</time>
      </trkpt>
      <trkpt lat="41.79953" lon="8.82972">
        <ele>577.41</ele>
        <time>2022-04-26T09:49:27Z</time>
      </trkpt>
      <trkpt lat="41.79954" lon="8.8297">
        <ele>576.93</ele>
        <time>2022-04-26T09:49:28Z</time>
      </trkpt>
      <trkpt lat="41.79954" lon="8.82967">
        <ele>576.93</ele>
        <time>2022-04-26T09:49:29Z</time>
      </trkpt>
      <trkpt lat="41.79954" lon="8.82965">
        <ele>576.93</ele>
        <time>2022-04-26T09:49:30Z</time>
      </trkpt>
      <trkpt lat="41.79954" lon="8.82962">
        <ele>576.45</ele>
        <time>2022-04-26T09:49:31Z</time>
      </trkpt>
      <trkpt lat="41.79954" lon="8.82956">
        <ele>576.45</ele>
        <time>2022-04-26T09:49:35Z</time>
      </trkpt>
      <trkpt lat="41.79954" lon="8.82954">
        <ele>576.45</ele>
        <time>2022-04-26T09:49:36Z</time>
      </trkpt>
      <trkpt lat="41.79954" lon="8.82952">
        <ele>576.45</ele>
        <time>2022-04-26T09:49:37Z</time>
      </trkpt>
      <trkpt lat="41.79954" lon="8.8295">
        <ele>575.97</ele>
        <time>2022-04-26T09:49:38Z</time>
      </trkpt>
      <trkpt lat="41.79953" lon="8.82948">
        <ele>575.49</ele>
        <time>2022-04-26T09:49:39Z</time>
      </trkpt>
      <trkpt lat="41.7995" lon="8.82936">
        <ele>575.01</ele>
        <time>2022-04-26T09:49:50Z</time>
      </trkpt>
      <trkpt lat="41.79949" lon="8.82937">
        <ele>575.97</ele>
        <time>2022-04-26T09:49:57Z</time>
      </trkpt>
      <trkpt lat="41.79934" lon="8.82928">
        <ele>574.53</ele>
        <time>2022-04-26T09:50:10Z</time>
      </trkpt>
      <trkpt lat="41.79911" lon="8.82921">
        <ele>573.08</ele>
        <time>2022-04-26T09:50:28Z</time>
      </trkpt>
      <trkpt lat="41.79888" lon="8.82908">
        <ele>571.16</ele>
        <time>2022-04-26T09:50:47Z</time>
      </trkpt>
      <trkpt lat="41.79864" lon="8.82894">
        <ele>570.2</ele>
        <time>2022-04-26T09:51:09Z</time>
      </trkpt>
      <trkpt lat="41.79858" lon="8.82884">
        <ele>568.28</ele>
        <time>2022-04-26T09:51:17Z</time>
      </trkpt>
      <trkpt lat="41.79858" lon="8.82883">
        <ele>568.28</ele>
        <time>2022-04-26T09:51:18Z</time>
      </trkpt>
      <trkpt lat="41.79857" lon="8.82881">
        <ele>568.28</ele>
        <time>2022-04-26T09:51:19Z</time>
      </trkpt>
      <trkpt lat="41.79856" lon="8.8288">
        <ele>568.28</ele>
        <time>2022-04-26T09:51:20Z</time>
      </trkpt>
      <trkpt lat="41.79854" lon="8.82878">
        <ele>567.8</ele>
        <time>2022-04-26T09:51:21Z</time>
      </trkpt>
      <trkpt lat="41.79841" lon="8.82869">
        <ele>564.91</ele>
        <time>2022-04-26T09:51:31Z</time>
      </trkpt>
      <trkpt lat="41.79835" lon="8.82866">
        <ele>563.95</ele>
        <time>2022-04-26T09:51:38Z</time>
      </trkpt>
      <trkpt lat="41.79834" lon="8.82865">
        <ele>563.47</ele>
        <time>2022-04-26T09:51:39Z</time>
      </trkpt>
      <trkpt lat="41.79829" lon="8.82861">
        <ele>562.03</ele>
        <time>2022-04-26T09:51:44Z</time>
      </trkpt>
      <trkpt lat="41.79829" lon="8.82859">
        <ele>561.55</ele>
        <time>2022-04-26T09:51:45Z</time>
      </trkpt>
      <trkpt lat="41.79828" lon="8.82857">
        <ele>561.07</ele>
        <time>2022-04-26T09:51:46Z</time>
      </trkpt>
      <trkpt lat="41.79819" lon="8.82847">
        <ele>559.14</ele>
        <time>2022-04-26T09:51:56Z</time>
      </trkpt>
      <trkpt lat="41.79803" lon="8.82836">
        <ele>558.18</ele>
        <time>2022-04-26T09:52:06Z</time>
      </trkpt>
      <trkpt lat="41.79809" lon="8.8284">
        <ele>557.7</ele>
        <time>2022-04-26T09:52:19Z</time>
      </trkpt>
      <trkpt lat="41.79807" lon="8.82849">
        <ele>557.7</ele>
        <time>2022-04-26T09:52:31Z</time>
      </trkpt>
      <trkpt lat="41.79808" lon="8.82846">
        <ele>557.7</ele>
        <time>2022-04-26T09:52:59Z</time>
      </trkpt>
      <trkpt lat="41.7981" lon="8.82841">
        <ele>557.7</ele>
        <time>2022-04-26T09:53:17Z</time>
      </trkpt>
      <trkpt lat="41.79808" lon="8.82836">
        <ele>557.7</ele>
        <time>2022-04-26T09:53:32Z</time>
      </trkpt>
      <trkpt lat="41.79807" lon="8.82833">
        <ele>557.22</ele>
        <time>2022-04-26T09:53:58Z</time>
      </trkpt>
      <trkpt lat="41.79799" lon="8.82825">
        <ele>554.82</ele>
        <time>2022-04-26T09:54:11Z</time>
      </trkpt>
      <trkpt lat="41.79789" lon="8.82815">
        <ele>554.34</ele>
        <time>2022-04-26T09:54:21Z</time>
      </trkpt>
      <trkpt lat="41.79788" lon="8.82813">
        <ele>553.86</ele>
        <time>2022-04-26T09:54:22Z</time>
      </trkpt>
      <trkpt lat="41.79787" lon="8.82811">
        <ele>553.86</ele>
        <time>2022-04-26T09:54:23Z</time>
      </trkpt>
      <trkpt lat="41.79787" lon="8.82809">
        <ele>553.86</ele>
        <time>2022-04-26T09:54:24Z</time>
      </trkpt>
      <trkpt lat="41.79781" lon="8.82799">
        <ele>552.9</ele>
        <time>2022-04-26T09:54:34Z</time>
      </trkpt>
      <trkpt lat="41.79778" lon="8.82796">
        <ele>552.9</ele>
        <time>2022-04-26T09:54:38Z</time>
      </trkpt>
      <trkpt lat="41.79776" lon="8.82794">
        <ele>552.9</ele>
        <time>2022-04-26T09:54:39Z</time>
      </trkpt>
      <trkpt lat="41.79768" lon="8.82788">
        <ele>551.93</ele>
        <time>2022-04-26T09:54:48Z</time>
      </trkpt>
      <trkpt lat="41.7976" lon="8.82784">
        <ele>551.93</ele>
        <time>2022-04-26T09:54:52Z</time>
      </trkpt>
      <trkpt lat="41.79757" lon="8.82781">
        <ele>551.93</ele>
        <time>2022-04-26T09:54:54Z</time>
      </trkpt>
      <trkpt lat="41.79756" lon="8.82779">
        <ele>551.45</ele>
        <time>2022-04-26T09:54:55Z</time>
      </trkpt>
      <trkpt lat="41.79755" lon="8.82777">
        <ele>551.93</ele>
        <time>2022-04-26T09:54:56Z</time>
      </trkpt>
      <trkpt lat="41.79755" lon="8.82776">
        <ele>551.45</ele>
        <time>2022-04-26T09:54:57Z</time>
      </trkpt>
      <trkpt lat="41.79755" lon="8.82774">
        <ele>550.97</ele>
        <time>2022-04-26T09:54:58Z</time>
      </trkpt>
      <trkpt lat="41.79755" lon="8.82772">
        <ele>550.97</ele>
        <time>2022-04-26T09:54:59Z</time>
      </trkpt>
      <trkpt lat="41.79755" lon="8.82764">
        <ele>550.01</ele>
        <time>2022-04-26T09:55:08Z</time>
      </trkpt>
      <trkpt lat="41.79753" lon="8.82755">
        <ele>547.61</ele>
        <time>2022-04-26T09:55:16Z</time>
      </trkpt>
      <trkpt lat="41.79746" lon="8.82748">
        <ele>545.69</ele>
        <time>2022-04-26T09:55:26Z</time>
      </trkpt>
      <trkpt lat="41.79745" lon="8.82748">
        <ele>545.69</ele>
        <time>2022-04-26T09:55:27Z</time>
      </trkpt>
      <trkpt lat="41.79738" lon="8.82743">
        <ele>544.24</ele>
        <time>2022-04-26T09:55:38Z</time>
      </trkpt>
      <trkpt lat="41.79736" lon="8.82742">
        <ele>542.8</ele>
        <time>2022-04-26T09:55:40Z</time>
      </trkpt>
      <trkpt lat="41.79734" lon="8.82741">
        <ele>543.28</ele>
        <time>2022-04-26T09:55:41Z</time>
      </trkpt>
      <trkpt lat="41.79718" lon="8.8273">
        <ele>540.88</ele>
        <time>2022-04-26T09:55:54Z</time>
      </trkpt>
      <trkpt lat="41.79706" lon="8.82717">
        <ele>540.4</ele>
        <time>2022-04-26T09:56:07Z</time>
      </trkpt>
      <trkpt lat="41.7969" lon="8.82702">
        <ele>538.96</ele>
        <time>2022-04-26T09:56:23Z</time>
      </trkpt>
      <trkpt lat="41.79676" lon="8.8269">
        <ele>538.96</ele>
        <time>2022-04-26T09:56:39Z</time>
      </trkpt>
      <trkpt lat="41.79671" lon="8.82681">
        <ele>537.99</ele>
        <time>2022-04-26T09:56:47Z</time>
      </trkpt>
      <trkpt lat="41.79657" lon="8.82663">
        <ele>537.99</ele>
        <time>2022-04-26T09:57:04Z</time>
      </trkpt>
      <trkpt lat="41.79639" lon="8.82642">
        <ele>537.51</ele>
        <time>2022-04-26T09:57:23Z</time>
      </trkpt>
      <trkpt lat="41.79622" lon="8.82619">
        <ele>537.03</ele>
        <time>2022-04-26T09:57:44Z</time>
      </trkpt>
      <trkpt lat="41.79612" lon="8.82603">
        <ele>537.51</ele>
        <time>2022-04-26T09:57:57Z</time>
      </trkpt>
      <trkpt lat="41.79606" lon="8.82586">
        <ele>539.44</ele>
        <time>2022-04-26T09:58:13Z</time>
      </trkpt>
      <trkpt lat="41.79599" lon="8.82576">
        <ele>541.36</ele>
        <time>2022-04-26T09:58:26Z</time>
      </trkpt>
      <trkpt lat="41.796" lon="8.8256">
        <ele>542.32</ele>
        <time>2022-04-26T09:58:41Z</time>
      </trkpt>
      <trkpt lat="41.796" lon="8.82557">
        <ele>542.8</ele>
        <time>2022-04-26T09:58:56Z</time>
      </trkpt>
      <trkpt lat="41.79599" lon="8.82554">
        <ele>542.8</ele>
        <time>2022-04-26T09:59:19Z</time>
      </trkpt>
      <trkpt lat="41.79593" lon="8.82547">
        <ele>543.76</ele>
        <time>2022-04-26T09:59:37Z</time>
      </trkpt>
      <trkpt lat="41.79592" lon="8.82546">
        <ele>543.76</ele>
        <time>2022-04-26T09:59:38Z</time>
      </trkpt>
      <trkpt lat="41.79589" lon="8.82543">
        <ele>544.24</ele>
        <time>2022-04-26T09:59:42Z</time>
      </trkpt>
      <trkpt lat="41.79588" lon="8.82542">
        <ele>544.24</ele>
        <time>2022-04-26T09:59:43Z</time>
      </trkpt>
      <trkpt lat="41.79586" lon="8.82542">
        <ele>544.72</ele>
        <time>2022-04-26T09:59:44Z</time>
      </trkpt>
      <trkpt lat="41.79577" lon="8.82541">
        <ele>545.69</ele>
        <time>2022-04-26T09:59:55Z</time>
      </trkpt>
      <trkpt lat="41.79575" lon="8.82541">
        <ele>545.69</ele>
        <time>2022-04-26T09:59:56Z</time>
      </trkpt>
      <trkpt lat="41.79574" lon="8.82541">
        <ele>545.69</ele>
        <time>2022-04-26T09:59:57Z</time>
      </trkpt>
      <trkpt lat="41.79573" lon="8.82541">
        <ele>545.69</ele>
        <time>2022-04-26T09:59:58Z</time>
      </trkpt>
      <trkpt lat="41.7956" lon="8.82542">
        <ele>546.65</ele>
        <time>2022-04-26T10:00:12Z</time>
      </trkpt>
      <trkpt lat="41.79548" lon="8.8253">
        <ele>547.13</ele>
        <time>2022-04-26T10:00:26Z</time>
      </trkpt>
      <trkpt lat="41.7953" lon="8.82535">
        <ele>549.05</ele>
        <time>2022-04-26T10:00:43Z</time>
      </trkpt>
      <trkpt lat="41.79514" lon="8.8253">
        <ele>549.05</ele>
        <time>2022-04-26T10:00:59Z</time>
      </trkpt>
      <trkpt lat="41.795" lon="8.82525">
        <ele>548.09</ele>
        <time>2022-04-26T10:01:10Z</time>
      </trkpt>
      <trkpt lat="41.79482" lon="8.8252">
        <ele>545.2</ele>
        <time>2022-04-26T10:01:26Z</time>
      </trkpt>
      <trkpt lat="41.79469" lon="8.82516">
        <ele>542.32</ele>
        <time>2022-04-26T10:01:39Z</time>
      </trkpt>
      <trkpt lat="41.79466" lon="8.82513">
        <ele>541.84</ele>
        <time>2022-04-26T10:01:42Z</time>
      </trkpt>
      <trkpt lat="41.79462" lon="8.82511">
        <ele>540.88</ele>
        <time>2022-04-26T10:01:45Z</time>
      </trkpt>
      <trkpt lat="41.79461" lon="8.82511">
        <ele>541.36</ele>
        <time>2022-04-26T10:01:46Z</time>
      </trkpt>
      <trkpt lat="41.7946" lon="8.82511">
        <ele>540.88</ele>
        <time>2022-04-26T10:01:47Z</time>
      </trkpt>
      <trkpt lat="41.79459" lon="8.82511">
        <ele>540.88</ele>
        <time>2022-04-26T10:01:48Z</time>
      </trkpt>
      <trkpt lat="41.79457" lon="8.82511">
        <ele>540.88</ele>
        <time>2022-04-26T10:01:49Z</time>
      </trkpt>
      <trkpt lat="41.79456" lon="8.82511">
        <ele>540.4</ele>
        <time>2022-04-26T10:01:50Z</time>
      </trkpt>
      <trkpt lat="41.79455" lon="8.8251">
        <ele>539.92</ele>
        <time>2022-04-26T10:01:51Z</time>
      </trkpt>
      <trkpt lat="41.79454" lon="8.82509">
        <ele>539.44</ele>
        <time>2022-04-26T10:01:52Z</time>
      </trkpt>
      <trkpt lat="41.7944" lon="8.82493">
        <ele>536.55</ele>
        <time>2022-04-26T10:02:08Z</time>
      </trkpt>
      <trkpt lat="41.79432" lon="8.82484">
        <ele>534.63</ele>
        <time>2022-04-26T10:02:17Z</time>
      </trkpt>
      <trkpt lat="41.79431" lon="8.82484">
        <ele>534.63</ele>
        <time>2022-04-26T10:02:18Z</time>
      </trkpt>
      <trkpt lat="41.79426" lon="8.82468">
        <ele>532.23</ele>
        <time>2022-04-26T10:02:30Z</time>
      </trkpt>
      <trkpt lat="41.79413" lon="8.82444">
        <ele>530.79</ele>
        <time>2022-04-26T10:02:49Z</time>
      </trkpt>
      <trkpt lat="41.79402" lon="8.82421">
        <ele>531.75</ele>
        <time>2022-04-26T10:03:06Z</time>
      </trkpt>
      <trkpt lat="41.79394" lon="8.82415">
        <ele>532.71</ele>
        <time>2022-04-26T10:03:14Z</time>
      </trkpt>
      <trkpt lat="41.79392" lon="8.82415">
        <ele>532.23</ele>
        <time>2022-04-26T10:03:15Z</time>
      </trkpt>
      <trkpt lat="41.79387" lon="8.82411">
        <ele>532.23</ele>
        <time>2022-04-26T10:03:20Z</time>
      </trkpt>
      <trkpt lat="41.79386" lon="8.8241">
        <ele>532.23</ele>
        <time>2022-04-26T10:03:21Z</time>
      </trkpt>
      <trkpt lat="41.79375" lon="8.82398">
        <ele>530.79</ele>
        <time>2022-04-26T10:03:33Z</time>
      </trkpt>
      <trkpt lat="41.79361" lon="8.82383">
        <ele>530.3</ele>
        <time>2022-04-26T10:03:49Z</time>
      </trkpt>
      <trkpt lat="41.79357" lon="8.82381">
        <ele>530.3</ele>
        <time>2022-04-26T10:03:52Z</time>
      </trkpt>
      <trkpt lat="41.79337" lon="8.82369">
        <ele>530.3</ele>
        <time>2022-04-26T10:04:10Z</time>
      </trkpt>
      <trkpt lat="41.79323" lon="8.82359">
        <ele>528.86</ele>
        <time>2022-04-26T10:04:25Z</time>
      </trkpt>
      <trkpt lat="41.79311" lon="8.82353">
        <ele>527.9</ele>
        <time>2022-04-26T10:04:35Z</time>
      </trkpt>
      <trkpt lat="41.79305" lon="8.8235">
        <ele>528.86</ele>
        <time>2022-04-26T10:04:40Z</time>
      </trkpt>
      <trkpt lat="41.79292" lon="8.82341">
        <ele>528.38</ele>
        <time>2022-04-26T10:04:51Z</time>
      </trkpt>
      <trkpt lat="41.7929" lon="8.82342">
        <ele>528.86</ele>
        <time>2022-04-26T10:04:53Z</time>
      </trkpt>
      <trkpt lat="41.79289" lon="8.82341">
        <ele>528.86</ele>
        <time>2022-04-26T10:04:54Z</time>
      </trkpt>
      <trkpt lat="41.79288" lon="8.82341">
        <ele>528.86</ele>
        <time>2022-04-26T10:04:55Z</time>
      </trkpt>
      <trkpt lat="41.79271" lon="8.82336">
        <ele>528.38</ele>
        <time>2022-04-26T10:05:09Z</time>
      </trkpt>
      <trkpt lat="41.79268" lon="8.82335">
        <ele>528.38</ele>
        <time>2022-04-26T10:05:13Z</time>
      </trkpt>
      <trkpt lat="41.79263" lon="8.8234">
        <ele>528.38</ele>
        <time>2022-04-26T10:05:24Z</time>
      </trkpt>
      <trkpt lat="41.79266" lon="8.82335">
        <ele>528.86</ele>
        <time>2022-04-26T10:05:34Z</time>
      </trkpt>
      <trkpt lat="41.79274" lon="8.82325">
        <ele>529.34</ele>
        <time>2022-04-26T10:05:46Z</time>
      </trkpt>
      <trkpt lat="41.79281" lon="8.82314">
        <ele>529.34</ele>
        <time>2022-04-26T10:06:00Z</time>
      </trkpt>
      <trkpt lat="41.79279" lon="8.82313">
        <ele>528.86</ele>
        <time>2022-04-26T10:06:07Z</time>
      </trkpt>
      <trkpt lat="41.79281" lon="8.82314">
        <ele>531.27</ele>
        <time>2022-04-26T10:42:16Z</time>
      </trkpt>
      <trkpt lat="41.79271" lon="8.82325">
        <ele>532.23</ele>
        <time>2022-04-26T10:42:18Z</time>
      </trkpt>
      <trkpt lat="41.79268" lon="8.82324">
        <ele>532.23</ele>
        <time>2022-04-26T10:42:37Z</time>
      </trkpt>
      <trkpt lat="41.79266" lon="8.82318">
        <ele>532.23</ele>
        <time>2022-04-26T10:42:54Z</time>
      </trkpt>
      <trkpt lat="41.79268" lon="8.82321">
        <ele>533.19</ele>
        <time>2022-04-26T10:43:09Z</time>
      </trkpt>
      <trkpt lat="41.79268" lon="8.82321">
        <ele>532.71</ele>
        <time>2022-04-26T10:43:27Z</time>
      </trkpt>
      <trkpt lat="41.79262" lon="8.82317">
        <ele>533.19</ele>
        <time>2022-04-26T10:43:45Z</time>
      </trkpt>
      <trkpt lat="41.79253" lon="8.82304">
        <ele>532.71</ele>
        <time>2022-04-26T10:43:59Z</time>
      </trkpt>
      <trkpt lat="41.79251" lon="8.82302">
        <ele>532.71</ele>
        <time>2022-04-26T10:44:02Z</time>
      </trkpt>
      <trkpt lat="41.79242" lon="8.82283">
        <ele>532.71</ele>
        <time>2022-04-26T10:44:19Z</time>
      </trkpt>
      <trkpt lat="41.79231" lon="8.82277">
        <ele>534.15</ele>
        <time>2022-04-26T10:44:33Z</time>
      </trkpt>
      <trkpt lat="41.79224" lon="8.82275">
        <ele>535.11</ele>
        <time>2022-04-26T10:44:41Z</time>
      </trkpt>
      <trkpt lat="41.7922" lon="8.82274">
        <ele>536.55</ele>
        <time>2022-04-26T10:44:47Z</time>
      </trkpt>
      <trkpt lat="41.79214" lon="8.82269">
        <ele>537.99</ele>
        <time>2022-04-26T10:45:05Z</time>
      </trkpt>
      <trkpt lat="41.79204" lon="8.82261">
        <ele>539.44</ele>
        <time>2022-04-26T10:45:22Z</time>
      </trkpt>
      <trkpt lat="41.79187" lon="8.82251">
        <ele>540.4</ele>
        <time>2022-04-26T10:45:40Z</time>
      </trkpt>
      <trkpt lat="41.79172" lon="8.82244">
        <ele>541.84</ele>
        <time>2022-04-26T10:45:58Z</time>
      </trkpt>
      <trkpt lat="41.79164" lon="8.82231">
        <ele>541.84</ele>
        <time>2022-04-26T10:46:13Z</time>
      </trkpt>
      <trkpt lat="41.79158" lon="8.8221">
        <ele>542.8</ele>
        <time>2022-04-26T10:46:30Z</time>
      </trkpt>
      <trkpt lat="41.79157" lon="8.8219">
        <ele>545.2</ele>
        <time>2022-04-26T10:46:46Z</time>
      </trkpt>
      <trkpt lat="41.79148" lon="8.82174">
        <ele>546.65</ele>
        <time>2022-04-26T10:47:02Z</time>
      </trkpt>
      <trkpt lat="41.79138" lon="8.82157">
        <ele>547.61</ele>
        <time>2022-04-26T10:47:18Z</time>
      </trkpt>
      <trkpt lat="41.79128" lon="8.82142">
        <ele>549.53</ele>
        <time>2022-04-26T10:47:35Z</time>
      </trkpt>
      <trkpt lat="41.79114" lon="8.82132">
        <ele>549.53</ele>
        <time>2022-04-26T10:47:50Z</time>
      </trkpt>
      <trkpt lat="41.79101" lon="8.82114">
        <ele>550.49</ele>
        <time>2022-04-26T10:48:09Z</time>
      </trkpt>
      <trkpt lat="41.79099" lon="8.82105">
        <ele>550.01</ele>
        <time>2022-04-26T10:48:15Z</time>
      </trkpt>
      <trkpt lat="41.79093" lon="8.82095">
        <ele>550.97</ele>
        <time>2022-04-26T10:48:29Z</time>
      </trkpt>
      <trkpt lat="41.79088" lon="8.8208">
        <ele>550.49</ele>
        <time>2022-04-26T10:48:49Z</time>
      </trkpt>
      <trkpt lat="41.79084" lon="8.82061">
        <ele>550.97</ele>
        <time>2022-04-26T10:49:04Z</time>
      </trkpt>
      <trkpt lat="41.79072" lon="8.82037">
        <ele>549.53</ele>
        <time>2022-04-26T10:49:23Z</time>
      </trkpt>
      <trkpt lat="41.79068" lon="8.82013">
        <ele>549.05</ele>
        <time>2022-04-26T10:49:41Z</time>
      </trkpt>
      <trkpt lat="41.79062" lon="8.82006">
        <ele>548.57</ele>
        <time>2022-04-26T10:49:58Z</time>
      </trkpt>
      <trkpt lat="41.79062" lon="8.81997">
        <ele>548.09</ele>
        <time>2022-04-26T10:50:12Z</time>
      </trkpt>
      <trkpt lat="41.7906" lon="8.81993">
        <ele>547.13</ele>
        <time>2022-04-26T10:50:42Z</time>
      </trkpt>
      <trkpt lat="41.79056" lon="8.81991">
        <ele>546.65</ele>
        <time>2022-04-26T10:51:10Z</time>
      </trkpt>
      <trkpt lat="41.79045" lon="8.81967">
        <ele>544.24</ele>
        <time>2022-04-26T10:51:32Z</time>
      </trkpt>
      <trkpt lat="41.79038" lon="8.81943">
        <ele>544.24</ele>
        <time>2022-04-26T10:51:49Z</time>
      </trkpt>
      <trkpt lat="41.79031" lon="8.81916">
        <ele>544.24</ele>
        <time>2022-04-26T10:52:06Z</time>
      </trkpt>
      <trkpt lat="41.79027" lon="8.81884">
        <ele>544.72</ele>
        <time>2022-04-26T10:52:24Z</time>
      </trkpt>
      <trkpt lat="41.79026" lon="8.81858">
        <ele>545.2</ele>
        <time>2022-04-26T10:52:43Z</time>
      </trkpt>
      <trkpt lat="41.79023" lon="8.81837">
        <ele>547.61</ele>
        <time>2022-04-26T10:52:59Z</time>
      </trkpt>
      <trkpt lat="41.79015" lon="8.81822">
        <ele>550.97</ele>
        <time>2022-04-26T10:53:12Z</time>
      </trkpt>
      <trkpt lat="41.79009" lon="8.81806">
        <ele>550.97</ele>
        <time>2022-04-26T10:53:29Z</time>
      </trkpt>
      <trkpt lat="41.79004" lon="8.81782">
        <ele>552.9</ele>
        <time>2022-04-26T10:53:46Z</time>
      </trkpt>
      <trkpt lat="41.78991" lon="8.81767">
        <ele>555.3</ele>
        <time>2022-04-26T10:54:05Z</time>
      </trkpt>
      <trkpt lat="41.7898" lon="8.81757">
        <ele>558.66</ele>
        <time>2022-04-26T10:54:22Z</time>
      </trkpt>
      <trkpt lat="41.78969" lon="8.81744">
        <ele>560.59</ele>
        <time>2022-04-26T10:54:42Z</time>
      </trkpt>
      <trkpt lat="41.7896" lon="8.81721">
        <ele>561.07</ele>
        <time>2022-04-26T10:55:00Z</time>
      </trkpt>
      <trkpt lat="41.78949" lon="8.81691">
        <ele>561.55</ele>
        <time>2022-04-26T10:55:21Z</time>
      </trkpt>
      <trkpt lat="41.78939" lon="8.81668">
        <ele>562.51</ele>
        <time>2022-04-26T10:55:37Z</time>
      </trkpt>
      <trkpt lat="41.78935" lon="8.81649">
        <ele>563.95</ele>
        <time>2022-04-26T10:55:54Z</time>
      </trkpt>
      <trkpt lat="41.78934" lon="8.81631">
        <ele>566.35</ele>
        <time>2022-04-26T10:56:11Z</time>
      </trkpt>
      <trkpt lat="41.7893" lon="8.81619">
        <ele>567.8</ele>
        <time>2022-04-26T10:56:24Z</time>
      </trkpt>
      <trkpt lat="41.78926" lon="8.81608">
        <ele>569.72</ele>
        <time>2022-04-26T10:56:37Z</time>
      </trkpt>
      <trkpt lat="41.78925" lon="8.81592">
        <ele>571.64</ele>
        <time>2022-04-26T10:56:53Z</time>
      </trkpt>
      <trkpt lat="41.78928" lon="8.81577">
        <ele>573.56</ele>
        <time>2022-04-26T10:57:08Z</time>
      </trkpt>
      <trkpt lat="41.7893" lon="8.8156">
        <ele>574.53</ele>
        <time>2022-04-26T10:57:23Z</time>
      </trkpt>
      <trkpt lat="41.78931" lon="8.81544">
        <ele>574.53</ele>
        <time>2022-04-26T10:57:38Z</time>
      </trkpt>
      <trkpt lat="41.78927" lon="8.81521">
        <ele>576.45</ele>
        <time>2022-04-26T10:57:55Z</time>
      </trkpt>
      <trkpt lat="41.7893" lon="8.81503">
        <ele>578.85</ele>
        <time>2022-04-26T10:58:11Z</time>
      </trkpt>
      <trkpt lat="41.78936" lon="8.8149">
        <ele>579.33</ele>
        <time>2022-04-26T10:58:25Z</time>
      </trkpt>
      <trkpt lat="41.78937" lon="8.81477">
        <ele>582.22</ele>
        <time>2022-04-26T10:58:40Z</time>
      </trkpt>
      <trkpt lat="41.78926" lon="8.81467">
        <ele>584.14</ele>
        <time>2022-04-26T10:58:57Z</time>
      </trkpt>
      <trkpt lat="41.78916" lon="8.81457">
        <ele>586.06</ele>
        <time>2022-04-26T10:59:13Z</time>
      </trkpt>
      <trkpt lat="41.78909" lon="8.81439">
        <ele>586.06</ele>
        <time>2022-04-26T10:59:29Z</time>
      </trkpt>
      <trkpt lat="41.78902" lon="8.81414">
        <ele>587.02</ele>
        <time>2022-04-26T10:59:47Z</time>
      </trkpt>
      <trkpt lat="41.78894" lon="8.81394">
        <ele>588.46</ele>
        <time>2022-04-26T11:00:09Z</time>
      </trkpt>
      <trkpt lat="41.78876" lon="8.81378">
        <ele>589.91</ele>
        <time>2022-04-26T11:00:29Z</time>
      </trkpt>
      <trkpt lat="41.7886" lon="8.81364">
        <ele>591.83</ele>
        <time>2022-04-26T11:00:45Z</time>
      </trkpt>
      <trkpt lat="41.78847" lon="8.81353">
        <ele>592.79</ele>
        <time>2022-04-26T11:01:02Z</time>
      </trkpt>
      <trkpt lat="41.78835" lon="8.81343">
        <ele>595.67</ele>
        <time>2022-04-26T11:01:17Z</time>
      </trkpt>
      <trkpt lat="41.78833" lon="8.81341">
        <ele>595.19</ele>
        <time>2022-04-26T11:01:19Z</time>
      </trkpt>
      <trkpt lat="41.78822" lon="8.81328">
        <ele>595.67</ele>
        <time>2022-04-26T11:01:34Z</time>
      </trkpt>
      <trkpt lat="41.7881" lon="8.81313">
        <ele>595.19</ele>
        <time>2022-04-26T11:01:51Z</time>
      </trkpt>
      <trkpt lat="41.78798" lon="8.81296">
        <ele>593.75</ele>
        <time>2022-04-26T11:02:09Z</time>
      </trkpt>
      <trkpt lat="41.78788" lon="8.81266">
        <ele>592.79</ele>
        <time>2022-04-26T11:02:27Z</time>
      </trkpt>
      <trkpt lat="41.78777" lon="8.81244">
        <ele>592.79</ele>
        <time>2022-04-26T11:02:45Z</time>
      </trkpt>
      <trkpt lat="41.78767" lon="8.81225">
        <ele>591.35</ele>
        <time>2022-04-26T11:03:04Z</time>
      </trkpt>
      <trkpt lat="41.78758" lon="8.81207">
        <ele>588.95</ele>
        <time>2022-04-26T11:03:17Z</time>
      </trkpt>
      <trkpt lat="41.78745" lon="8.81193">
        <ele>587.02</ele>
        <time>2022-04-26T11:03:32Z</time>
      </trkpt>
      <trkpt lat="41.78732" lon="8.81174">
        <ele>586.54</ele>
        <time>2022-04-26T11:03:48Z</time>
      </trkpt>
      <trkpt lat="41.78718" lon="8.81156">
        <ele>585.58</ele>
        <time>2022-04-26T11:04:04Z</time>
      </trkpt>
      <trkpt lat="41.78702" lon="8.81139">
        <ele>585.1</ele>
        <time>2022-04-26T11:04:22Z</time>
      </trkpt>
      <trkpt lat="41.78688" lon="8.8112">
        <ele>584.14</ele>
        <time>2022-04-26T11:04:43Z</time>
      </trkpt>
      <trkpt lat="41.78676" lon="8.81104">
        <ele>584.14</ele>
        <time>2022-04-26T11:05:04Z</time>
      </trkpt>
      <trkpt lat="41.78662" lon="8.8108">
        <ele>585.1</ele>
        <time>2022-04-26T11:05:25Z</time>
      </trkpt>
      <trkpt lat="41.78651" lon="8.81056">
        <ele>584.62</ele>
        <time>2022-04-26T11:05:41Z</time>
      </trkpt>
      <trkpt lat="41.78642" lon="8.81039">
        <ele>585.58</ele>
        <time>2022-04-26T11:05:57Z</time>
      </trkpt>
      <trkpt lat="41.78636" lon="8.81015">
        <ele>584.62</ele>
        <time>2022-04-26T11:06:14Z</time>
      </trkpt>
      <trkpt lat="41.78625" lon="8.80991">
        <ele>585.58</ele>
        <time>2022-04-26T11:06:31Z</time>
      </trkpt>
      <trkpt lat="41.78609" lon="8.80966">
        <ele>587.02</ele>
        <time>2022-04-26T11:06:52Z</time>
      </trkpt>
      <trkpt lat="41.78595" lon="8.80944">
        <ele>588.95</ele>
        <time>2022-04-26T11:07:09Z</time>
      </trkpt>
      <trkpt lat="41.78583" lon="8.80927">
        <ele>590.39</ele>
        <time>2022-04-26T11:07:26Z</time>
      </trkpt>
      <trkpt lat="41.78568" lon="8.80912">
        <ele>592.31</ele>
        <time>2022-04-26T11:07:43Z</time>
      </trkpt>
      <trkpt lat="41.78556" lon="8.80891">
        <ele>593.75</ele>
        <time>2022-04-26T11:08:04Z</time>
      </trkpt>
      <trkpt lat="41.78543" lon="8.80868">
        <ele>594.71</ele>
        <time>2022-04-26T11:08:24Z</time>
      </trkpt>
      <trkpt lat="41.78535" lon="8.80854">
        <ele>594.23</ele>
        <time>2022-04-26T11:08:38Z</time>
      </trkpt>
      <trkpt lat="41.7853" lon="8.8084">
        <ele>594.71</ele>
        <time>2022-04-26T11:08:49Z</time>
      </trkpt>
      <trkpt lat="41.78524" lon="8.80814">
        <ele>594.23</ele>
        <time>2022-04-26T11:09:07Z</time>
      </trkpt>
      <trkpt lat="41.78513" lon="8.80789">
        <ele>595.67</ele>
        <time>2022-04-26T11:09:25Z</time>
      </trkpt>
      <trkpt lat="41.78504" lon="8.80767">
        <ele>596.64</ele>
        <time>2022-04-26T11:09:39Z</time>
      </trkpt>
      <trkpt lat="41.785" lon="8.80741">
        <ele>597.6</ele>
        <time>2022-04-26T11:09:59Z</time>
      </trkpt>
      <trkpt lat="41.78496" lon="8.8071">
        <ele>598.08</ele>
        <time>2022-04-26T11:10:18Z</time>
      </trkpt>
      <trkpt lat="41.78496" lon="8.807">
        <ele>598.56</ele>
        <time>2022-04-26T11:10:35Z</time>
      </trkpt>
      <trkpt lat="41.78496" lon="8.80697">
        <ele>598.56</ele>
        <time>2022-04-26T11:11:12Z</time>
      </trkpt>
      <trkpt lat="41.7849" lon="8.80688">
        <ele>597.12</ele>
        <time>2022-04-26T11:11:32Z</time>
      </trkpt>
      <trkpt lat="41.7848" lon="8.8067">
        <ele>597.6</ele>
        <time>2022-04-26T11:11:50Z</time>
      </trkpt>
      <trkpt lat="41.78472" lon="8.80649">
        <ele>597.6</ele>
        <time>2022-04-26T11:12:07Z</time>
      </trkpt>
      <trkpt lat="41.78459" lon="8.80633">
        <ele>597.12</ele>
        <time>2022-04-26T11:12:22Z</time>
      </trkpt>
      <trkpt lat="41.78443" lon="8.80616">
        <ele>597.6</ele>
        <time>2022-04-26T11:12:39Z</time>
      </trkpt>
      <trkpt lat="41.78432" lon="8.80593">
        <ele>597.12</ele>
        <time>2022-04-26T11:12:57Z</time>
      </trkpt>
      <trkpt lat="41.78425" lon="8.80568">
        <ele>597.12</ele>
        <time>2022-04-26T11:13:14Z</time>
      </trkpt>
      <trkpt lat="41.78412" lon="8.80543">
        <ele>598.56</ele>
        <time>2022-04-26T11:13:31Z</time>
      </trkpt>
      <trkpt lat="41.78406" lon="8.80522">
        <ele>598.56</ele>
        <time>2022-04-26T11:13:48Z</time>
      </trkpt>
      <trkpt lat="41.78396" lon="8.80501">
        <ele>600.48</ele>
        <time>2022-04-26T11:14:04Z</time>
      </trkpt>
      <trkpt lat="41.78389" lon="8.80482">
        <ele>601.92</ele>
        <time>2022-04-26T11:14:19Z</time>
      </trkpt>
      <trkpt lat="41.78384" lon="8.80461">
        <ele>600.96</ele>
        <time>2022-04-26T11:14:34Z</time>
      </trkpt>
      <trkpt lat="41.78375" lon="8.80435">
        <ele>601.44</ele>
        <time>2022-04-26T11:14:52Z</time>
      </trkpt>
      <trkpt lat="41.78368" lon="8.80401">
        <ele>600.48</ele>
        <time>2022-04-26T11:15:11Z</time>
      </trkpt>
      <trkpt lat="41.78363" lon="8.80381">
        <ele>599.52</ele>
        <time>2022-04-26T11:15:28Z</time>
      </trkpt>
      <trkpt lat="41.78365" lon="8.80374">
        <ele>599.52</ele>
        <time>2022-04-26T11:15:54Z</time>
      </trkpt>
      <trkpt lat="41.78362" lon="8.80369">
        <ele>599.52</ele>
        <time>2022-04-26T11:16:07Z</time>
      </trkpt>
      <trkpt lat="41.78354" lon="8.80355">
        <ele>598.08</ele>
        <time>2022-04-26T11:16:22Z</time>
      </trkpt>
      <trkpt lat="41.78354" lon="8.8035">
        <ele>597.6</ele>
        <time>2022-04-26T11:16:38Z</time>
      </trkpt>
      <trkpt lat="41.7835" lon="8.80348">
        <ele>598.08</ele>
        <time>2022-04-26T11:17:08Z</time>
      </trkpt>
      <trkpt lat="41.7835" lon="8.80344">
        <ele>598.08</ele>
        <time>2022-04-26T11:17:29Z</time>
      </trkpt>
      <trkpt lat="41.78338" lon="8.80331">
        <ele>597.6</ele>
        <time>2022-04-26T11:17:45Z</time>
      </trkpt>
      <trkpt lat="41.78333" lon="8.80328">
        <ele>598.08</ele>
        <time>2022-04-26T11:17:50Z</time>
      </trkpt>
      <trkpt lat="41.78319" lon="8.80315">
        <ele>596.15</ele>
        <time>2022-04-26T11:18:05Z</time>
      </trkpt>
      <trkpt lat="41.78312" lon="8.80302">
        <ele>594.23</ele>
        <time>2022-04-26T11:18:16Z</time>
      </trkpt>
      <trkpt lat="41.78306" lon="8.80289">
        <ele>593.27</ele>
        <time>2022-04-26T11:18:24Z</time>
      </trkpt>
      <trkpt lat="41.78306" lon="8.80285">
        <ele>593.27</ele>
        <time>2022-04-26T11:18:27Z</time>
      </trkpt>
      <trkpt lat="41.783" lon="8.80267">
        <ele>591.83</ele>
        <time>2022-04-26T11:18:40Z</time>
      </trkpt>
      <trkpt lat="41.78287" lon="8.80244">
        <ele>590.39</ele>
        <time>2022-04-26T11:19:00Z</time>
      </trkpt>
      <trkpt lat="41.78277" lon="8.80225">
        <ele>589.91</ele>
        <time>2022-04-26T11:19:18Z</time>
      </trkpt>
      <trkpt lat="41.78264" lon="8.80198">
        <ele>588.95</ele>
        <time>2022-04-26T11:19:36Z</time>
      </trkpt>
      <trkpt lat="41.78252" lon="8.80181">
        <ele>588.95</ele>
        <time>2022-04-26T11:19:52Z</time>
      </trkpt>
      <trkpt lat="41.7824" lon="8.80163">
        <ele>588.46</ele>
        <time>2022-04-26T11:20:09Z</time>
      </trkpt>
      <trkpt lat="41.78227" lon="8.80142">
        <ele>589.43</ele>
        <time>2022-04-26T11:20:25Z</time>
      </trkpt>
      <trkpt lat="41.78226" lon="8.80136">
        <ele>588.46</ele>
        <time>2022-04-26T11:20:30Z</time>
      </trkpt>
      <trkpt lat="41.78226" lon="8.80112">
        <ele>586.06</ele>
        <time>2022-04-26T11:20:45Z</time>
      </trkpt>
      <trkpt lat="41.78225" lon="8.80108">
        <ele>586.06</ele>
        <time>2022-04-26T11:20:47Z</time>
      </trkpt>
      <trkpt lat="41.78222" lon="8.80082">
        <ele>584.62</ele>
        <time>2022-04-26T11:21:03Z</time>
      </trkpt>
      <trkpt lat="41.78221" lon="8.80079">
        <ele>584.14</ele>
        <time>2022-04-26T11:21:05Z</time>
      </trkpt>
      <trkpt lat="41.78208" lon="8.80052">
        <ele>582.22</ele>
        <time>2022-04-26T11:21:24Z</time>
      </trkpt>
      <trkpt lat="41.782" lon="8.8003">
        <ele>581.73</ele>
        <time>2022-04-26T11:21:40Z</time>
      </trkpt>
      <trkpt lat="41.78192" lon="8.80005">
        <ele>581.73</ele>
        <time>2022-04-26T11:21:58Z</time>
      </trkpt>
      <trkpt lat="41.78185" lon="8.79983">
        <ele>581.25</ele>
        <time>2022-04-26T11:22:16Z</time>
      </trkpt>
      <trkpt lat="41.78172" lon="8.7995">
        <ele>581.73</ele>
        <time>2022-04-26T11:22:37Z</time>
      </trkpt>
      <trkpt lat="41.78156" lon="8.79922">
        <ele>582.22</ele>
        <time>2022-04-26T11:22:54Z</time>
      </trkpt>
      <trkpt lat="41.7815" lon="8.79902">
        <ele>580.29</ele>
        <time>2022-04-26T11:23:08Z</time>
      </trkpt>
      <trkpt lat="41.78143" lon="8.79878">
        <ele>577.89</ele>
        <time>2022-04-26T11:23:26Z</time>
      </trkpt>
      <trkpt lat="41.78146" lon="8.7986">
        <ele>577.41</ele>
        <time>2022-04-26T11:23:45Z</time>
      </trkpt>
      <trkpt lat="41.78146" lon="8.79837">
        <ele>577.41</ele>
        <time>2022-04-26T11:24:01Z</time>
      </trkpt>
      <trkpt lat="41.78148" lon="8.79809">
        <ele>577.89</ele>
        <time>2022-04-26T11:24:19Z</time>
      </trkpt>
      <trkpt lat="41.78155" lon="8.79788">
        <ele>576.93</ele>
        <time>2022-04-26T11:24:35Z</time>
      </trkpt>
      <trkpt lat="41.78155" lon="8.79771">
        <ele>575.97</ele>
        <time>2022-04-26T11:24:49Z</time>
      </trkpt>
      <trkpt lat="41.78155" lon="8.79756">
        <ele>575.49</ele>
        <time>2022-04-26T11:25:05Z</time>
      </trkpt>
      <trkpt lat="41.78151" lon="8.79736">
        <ele>575.97</ele>
        <time>2022-04-26T11:25:22Z</time>
      </trkpt>
      <trkpt lat="41.78141" lon="8.79713">
        <ele>575.97</ele>
        <time>2022-04-26T11:25:38Z</time>
      </trkpt>
      <trkpt lat="41.78136" lon="8.79695">
        <ele>574.53</ele>
        <time>2022-04-26T11:25:56Z</time>
      </trkpt>
      <trkpt lat="41.78133" lon="8.79663">
        <ele>574.53</ele>
        <time>2022-04-26T11:26:16Z</time>
      </trkpt>
      <trkpt lat="41.78136" lon="8.79626">
        <ele>574.53</ele>
        <time>2022-04-26T11:26:33Z</time>
      </trkpt>
      <trkpt lat="41.78132" lon="8.796">
        <ele>572.6</ele>
        <time>2022-04-26T11:26:48Z</time>
      </trkpt>
      <trkpt lat="41.78125" lon="8.79593">
        <ele>571.16</ele>
        <time>2022-04-26T11:26:57Z</time>
      </trkpt>
      <trkpt lat="41.78117" lon="8.79572">
        <ele>569.24</ele>
        <time>2022-04-26T11:27:13Z</time>
      </trkpt>
      <trkpt lat="41.7811" lon="8.79554">
        <ele>570.2</ele>
        <time>2022-04-26T11:27:28Z</time>
      </trkpt>
      <trkpt lat="41.78107" lon="8.7953">
        <ele>568.28</ele>
        <time>2022-04-26T11:27:48Z</time>
      </trkpt>
      <trkpt lat="41.78107" lon="8.79505">
        <ele>566.83</ele>
        <time>2022-04-26T11:28:04Z</time>
      </trkpt>
      <trkpt lat="41.78102" lon="8.79472">
        <ele>564.43</ele>
        <time>2022-04-26T11:28:22Z</time>
      </trkpt>
      <trkpt lat="41.78096" lon="8.79443">
        <ele>564.91</ele>
        <time>2022-04-26T11:28:42Z</time>
      </trkpt>
      <trkpt lat="41.78096" lon="8.79416">
        <ele>565.87</ele>
        <time>2022-04-26T11:29:01Z</time>
      </trkpt>
      <trkpt lat="41.78088" lon="8.79381">
        <ele>566.35</ele>
        <time>2022-04-26T11:29:18Z</time>
      </trkpt>
      <trkpt lat="41.7808" lon="8.7936">
        <ele>567.32</ele>
        <time>2022-04-26T11:29:33Z</time>
      </trkpt>
      <trkpt lat="41.7807" lon="8.79339">
        <ele>568.28</ele>
        <time>2022-04-26T11:29:49Z</time>
      </trkpt>
      <trkpt lat="41.78058" lon="8.79317">
        <ele>568.76</ele>
        <time>2022-04-26T11:30:07Z</time>
      </trkpt>
      <trkpt lat="41.78044" lon="8.793">
        <ele>568.76</ele>
        <time>2022-04-26T11:30:24Z</time>
      </trkpt>
      <trkpt lat="41.78024" lon="8.79273">
        <ele>569.24</ele>
        <time>2022-04-26T11:30:41Z</time>
      </trkpt>
      <trkpt lat="41.78005" lon="8.79253">
        <ele>568.28</ele>
        <time>2022-04-26T11:30:57Z</time>
      </trkpt>
      <trkpt lat="41.77986" lon="8.79243">
        <ele>565.87</ele>
        <time>2022-04-26T11:31:16Z</time>
      </trkpt>
      <trkpt lat="41.77974" lon="8.79228">
        <ele>563.95</ele>
        <time>2022-04-26T11:31:31Z</time>
      </trkpt>
      <trkpt lat="41.77971" lon="8.79204">
        <ele>562.99</ele>
        <time>2022-04-26T11:31:50Z</time>
      </trkpt>
      <trkpt lat="41.7797" lon="8.79203">
        <ele>563.47</ele>
        <time>2022-04-26T11:32:04Z</time>
      </trkpt>
      <trkpt lat="41.77962" lon="8.79198">
        <ele>562.51</ele>
        <time>2022-04-26T11:32:15Z</time>
      </trkpt>
      <trkpt lat="41.7796" lon="8.79198">
        <ele>562.03</ele>
        <time>2022-04-26T11:32:17Z</time>
      </trkpt>
      <trkpt lat="41.77955" lon="8.79195">
        <ele>561.07</ele>
        <time>2022-04-26T11:32:38Z</time>
      </trkpt>
      <trkpt lat="41.77955" lon="8.792">
        <ele>561.07</ele>
        <time>2022-04-26T11:32:53Z</time>
      </trkpt>
      <trkpt lat="41.7795" lon="8.79195">
        <ele>561.07</ele>
        <time>2022-04-26T11:33:10Z</time>
      </trkpt>
      <trkpt lat="41.77951" lon="8.79195">
        <ele>561.07</ele>
        <time>2022-04-26T11:33:38Z</time>
      </trkpt>
      <trkpt lat="41.77958" lon="8.79184">
        <ele>561.55</ele>
        <time>2022-04-26T11:33:52Z</time>
      </trkpt>
      <trkpt lat="41.77968" lon="8.79179">
        <ele>562.99</ele>
        <time>2022-04-26T11:34:08Z</time>
      </trkpt>
      <trkpt lat="41.77966" lon="8.79162">
        <ele>562.03</ele>
        <time>2022-04-26T11:34:26Z</time>
      </trkpt>
      <trkpt lat="41.77973" lon="8.79143">
        <ele>561.55</ele>
        <time>2022-04-26T11:34:42Z</time>
      </trkpt>
      <trkpt lat="41.77975" lon="8.79132">
        <ele>560.59</ele>
        <time>2022-04-26T11:35:00Z</time>
      </trkpt>
      <trkpt lat="41.77974" lon="8.79124">
        <ele>560.11</ele>
        <time>2022-04-26T11:35:28Z</time>
      </trkpt>
      <trkpt lat="41.77976" lon="8.79126">
        <ele>560.59</ele>
        <time>2022-04-26T11:36:09Z</time>
      </trkpt>
      <trkpt lat="41.77964" lon="8.7913">
        <ele>561.55</ele>
        <time>2022-04-26T11:36:27Z</time>
      </trkpt>
      <trkpt lat="41.77955" lon="8.79134">
        <ele>562.03</ele>
        <time>2022-04-26T11:36:46Z</time>
      </trkpt>
      <trkpt lat="41.77961" lon="8.79143">
        <ele>562.51</ele>
        <time>2022-04-26T11:37:13Z</time>
      </trkpt>
      <trkpt lat="41.7796" lon="8.79147">
        <ele>562.03</ele>
        <time>2022-04-26T11:37:35Z</time>
      </trkpt>
      <trkpt lat="41.77958" lon="8.79141">
        <ele>562.03</ele>
        <time>2022-04-26T11:38:01Z</time>
      </trkpt>
      <trkpt lat="41.77957" lon="8.79132">
        <ele>561.55</ele>
        <time>2022-04-26T11:38:21Z</time>
      </trkpt>
      <trkpt lat="41.77951" lon="8.79116">
        <ele>561.55</ele>
        <time>2022-04-26T11:38:38Z</time>
      </trkpt>
      <trkpt lat="41.77946" lon="8.79102">
        <ele>562.03</ele>
        <time>2022-04-26T11:38:52Z</time>
      </trkpt>
      <trkpt lat="41.7794" lon="8.79089">
        <ele>562.51</ele>
        <time>2022-04-26T11:39:08Z</time>
      </trkpt>
      <trkpt lat="41.7793" lon="8.7908">
        <ele>562.99</ele>
        <time>2022-04-26T11:39:23Z</time>
      </trkpt>
      <trkpt lat="41.77918" lon="8.79066">
        <ele>565.39</ele>
        <time>2022-04-26T11:39:39Z</time>
      </trkpt>
      <trkpt lat="41.77909" lon="8.79057">
        <ele>567.32</ele>
        <time>2022-04-26T11:39:54Z</time>
      </trkpt>
      <trkpt lat="41.77907" lon="8.79055">
        <ele>567.32</ele>
        <time>2022-04-26T11:40:13Z</time>
      </trkpt>
      <trkpt lat="41.77907" lon="8.79053">
        <ele>567.8</ele>
        <time>2022-04-26T11:40:39Z</time>
      </trkpt>
      <trkpt lat="41.77907" lon="8.79054">
        <ele>568.28</ele>
        <time>2022-04-26T11:41:10Z</time>
      </trkpt>
      <trkpt lat="41.77909" lon="8.79041">
        <ele>568.76</ele>
        <time>2022-04-26T11:41:28Z</time>
      </trkpt>
      <trkpt lat="41.7791" lon="8.79025">
        <ele>570.2</ele>
        <time>2022-04-26T11:41:44Z</time>
      </trkpt>
      <trkpt lat="41.77916" lon="8.79005">
        <ele>572.12</ele>
        <time>2022-04-26T11:42:01Z</time>
      </trkpt>
      <trkpt lat="41.77922" lon="8.78989">
        <ele>574.04</ele>
        <time>2022-04-26T11:42:19Z</time>
      </trkpt>
      <trkpt lat="41.77928" lon="8.78971">
        <ele>575.97</ele>
        <time>2022-04-26T11:42:35Z</time>
      </trkpt>
      <trkpt lat="41.77929" lon="8.78957">
        <ele>578.37</ele>
        <time>2022-04-26T11:42:50Z</time>
      </trkpt>
      <trkpt lat="41.77931" lon="8.78932">
        <ele>579.33</ele>
        <time>2022-04-26T11:43:09Z</time>
      </trkpt>
      <trkpt lat="41.77932" lon="8.78914">
        <ele>581.25</ele>
        <time>2022-04-26T11:43:25Z</time>
      </trkpt>
      <trkpt lat="41.7793" lon="8.78893">
        <ele>583.18</ele>
        <time>2022-04-26T11:43:43Z</time>
      </trkpt>
      <trkpt lat="41.77924" lon="8.78883">
        <ele>585.58</ele>
        <time>2022-04-26T11:44:02Z</time>
      </trkpt>
      <trkpt lat="41.77914" lon="8.78871">
        <ele>587.02</ele>
        <time>2022-04-26T11:44:18Z</time>
      </trkpt>
      <trkpt lat="41.77912" lon="8.78861">
        <ele>587.98</ele>
        <time>2022-04-26T11:44:32Z</time>
      </trkpt>
      <trkpt lat="41.77907" lon="8.78842">
        <ele>588.46</ele>
        <time>2022-04-26T11:44:48Z</time>
      </trkpt>
      <trkpt lat="41.779" lon="8.7882">
        <ele>589.43</ele>
        <time>2022-04-26T11:45:05Z</time>
      </trkpt>
      <trkpt lat="41.77899" lon="8.7881">
        <ele>589.43</ele>
        <time>2022-04-26T11:45:21Z</time>
      </trkpt>
      <trkpt lat="41.779" lon="8.788">
        <ele>589.43</ele>
        <time>2022-04-26T11:45:44Z</time>
      </trkpt>
      <trkpt lat="41.77897" lon="8.78769">
        <ele>591.35</ele>
        <time>2022-04-26T11:46:03Z</time>
      </trkpt>
      <trkpt lat="41.7789" lon="8.78753">
        <ele>592.79</ele>
        <time>2022-04-26T11:46:18Z</time>
      </trkpt>
      <trkpt lat="41.77887" lon="8.78738">
        <ele>591.83</ele>
        <time>2022-04-26T11:46:35Z</time>
      </trkpt>
      <trkpt lat="41.77878" lon="8.78718">
        <ele>591.83</ele>
        <time>2022-04-26T11:46:55Z</time>
      </trkpt>
      <trkpt lat="41.77866" lon="8.78692">
        <ele>590.87</ele>
        <time>2022-04-26T11:47:13Z</time>
      </trkpt>
      <trkpt lat="41.77856" lon="8.7867">
        <ele>590.39</ele>
        <time>2022-04-26T11:47:29Z</time>
      </trkpt>
      <trkpt lat="41.77851" lon="8.78662">
        <ele>591.35</ele>
        <time>2022-04-26T11:47:35Z</time>
      </trkpt>
      <trkpt lat="41.7785" lon="8.78659">
        <ele>590.39</ele>
        <time>2022-04-26T11:47:37Z</time>
      </trkpt>
      <trkpt lat="41.77845" lon="8.78635">
        <ele>590.39</ele>
        <time>2022-04-26T11:47:56Z</time>
      </trkpt>
      <trkpt lat="41.77844" lon="8.78617">
        <ele>589.43</ele>
        <time>2022-04-26T11:48:12Z</time>
      </trkpt>
      <trkpt lat="41.77837" lon="8.78588">
        <ele>588.95</ele>
        <time>2022-04-26T11:48:32Z</time>
      </trkpt>
      <trkpt lat="41.77831" lon="8.78562">
        <ele>587.98</ele>
        <time>2022-04-26T11:48:49Z</time>
      </trkpt>
      <trkpt lat="41.7782" lon="8.78535">
        <ele>586.54</ele>
        <time>2022-04-26T11:49:05Z</time>
      </trkpt>
      <trkpt lat="41.77817" lon="8.78516">
        <ele>585.58</ele>
        <time>2022-04-26T11:49:22Z</time>
      </trkpt>
      <trkpt lat="41.77808" lon="8.78488">
        <ele>584.62</ele>
        <time>2022-04-26T11:49:41Z</time>
      </trkpt>
      <trkpt lat="41.778" lon="8.78463">
        <ele>584.14</ele>
        <time>2022-04-26T11:49:54Z</time>
      </trkpt>
      <trkpt lat="41.77793" lon="8.78446">
        <ele>583.18</ele>
        <time>2022-04-26T11:50:09Z</time>
      </trkpt>
      <trkpt lat="41.77793" lon="8.78435">
        <ele>579.33</ele>
        <time>2022-04-26T11:50:20Z</time>
      </trkpt>
      <trkpt lat="41.77794" lon="8.78423">
        <ele>576.45</ele>
        <time>2022-04-26T11:50:30Z</time>
      </trkpt>
      <trkpt lat="41.77798" lon="8.78399">
        <ele>574.04</ele>
        <time>2022-04-26T11:50:44Z</time>
      </trkpt>
      <trkpt lat="41.77797" lon="8.78384">
        <ele>571.16</ele>
        <time>2022-04-26T11:50:58Z</time>
      </trkpt>
      <trkpt lat="41.77798" lon="8.78384">
        <ele>571.16</ele>
        <time>2022-04-26T11:50:59Z</time>
      </trkpt>
      <trkpt lat="41.77796" lon="8.78369">
        <ele>567.8</ele>
        <time>2022-04-26T11:51:11Z</time>
      </trkpt>
      <trkpt lat="41.77796" lon="8.78364">
        <ele>566.35</ele>
        <time>2022-04-26T11:51:16Z</time>
      </trkpt>
      <trkpt lat="41.77799" lon="8.78348">
        <ele>562.99</ele>
        <time>2022-04-26T11:51:27Z</time>
      </trkpt>
      <trkpt lat="41.77799" lon="8.78337">
        <ele>560.59</ele>
        <time>2022-04-26T11:51:37Z</time>
      </trkpt>
      <trkpt lat="41.77795" lon="8.78316">
        <ele>557.7</ele>
        <time>2022-04-26T11:51:51Z</time>
      </trkpt>
      <trkpt lat="41.77787" lon="8.78293">
        <ele>554.34</ele>
        <time>2022-04-26T11:52:02Z</time>
      </trkpt>
      <trkpt lat="41.77787" lon="8.78292">
        <ele>554.34</ele>
        <time>2022-04-26T11:52:03Z</time>
      </trkpt>
      <trkpt lat="41.77785" lon="8.78278">
        <ele>551.93</ele>
        <time>2022-04-26T11:52:19Z</time>
      </trkpt>
      <trkpt lat="41.77785" lon="8.78257">
        <ele>550.01</ele>
        <time>2022-04-26T11:52:35Z</time>
      </trkpt>
      <trkpt lat="41.77788" lon="8.78232">
        <ele>546.65</ele>
        <time>2022-04-26T11:52:53Z</time>
      </trkpt>
      <trkpt lat="41.77786" lon="8.78214">
        <ele>544.72</ele>
        <time>2022-04-26T11:53:10Z</time>
      </trkpt>
      <trkpt lat="41.77783" lon="8.78198">
        <ele>541.84</ele>
        <time>2022-04-26T11:53:27Z</time>
      </trkpt>
      <trkpt lat="41.77785" lon="8.78176">
        <ele>539.44</ele>
        <time>2022-04-26T11:53:43Z</time>
      </trkpt>
      <trkpt lat="41.77783" lon="8.78151">
        <ele>536.55</ele>
        <time>2022-04-26T11:54:00Z</time>
      </trkpt>
      <trkpt lat="41.77784" lon="8.78126">
        <ele>533.19</ele>
        <time>2022-04-26T11:54:17Z</time>
      </trkpt>
      <trkpt lat="41.77785" lon="8.78098">
        <ele>530.3</ele>
        <time>2022-04-26T11:54:36Z</time>
      </trkpt>
      <trkpt lat="41.77782" lon="8.78072">
        <ele>528.38</ele>
        <time>2022-04-26T11:54:54Z</time>
      </trkpt>
      <trkpt lat="41.77778" lon="8.78047">
        <ele>525.5</ele>
        <time>2022-04-26T11:55:10Z</time>
      </trkpt>
      <trkpt lat="41.77775" lon="8.78028">
        <ele>525.02</ele>
        <time>2022-04-26T11:55:34Z</time>
      </trkpt>
      <trkpt lat="41.77776" lon="8.78016">
        <ele>524.54</ele>
        <time>2022-04-26T11:56:00Z</time>
      </trkpt>
      <trkpt lat="41.77778" lon="8.78015">
        <ele>524.54</ele>
        <time>2022-04-26T11:56:28Z</time>
      </trkpt>
      <trkpt lat="41.77778" lon="8.78015">
        <ele>523.58</ele>
        <time>2022-04-26T11:56:53Z</time>
      </trkpt>
      <trkpt lat="41.77775" lon="8.78013">
        <ele>524.06</ele>
        <time>2022-04-26T11:57:16Z</time>
      </trkpt>
      <trkpt lat="41.77777" lon="8.78019">
        <ele>524.06</ele>
        <time>2022-04-26T11:57:45Z</time>
      </trkpt>
      <trkpt lat="41.77777" lon="8.78019">
        <ele>522.61</ele>
        <time>2022-04-26T11:57:48Z</time>
      </trkpt>
      <trkpt lat="41.77771" lon="8.78006">
        <ele>521.17</ele>
        <time>2022-04-26T11:58:13Z</time>
      </trkpt>
      <trkpt lat="41.77768" lon="8.77979">
        <ele>519.73</ele>
        <time>2022-04-26T11:58:32Z</time>
      </trkpt>
      <trkpt lat="41.77764" lon="8.77949">
        <ele>518.77</ele>
        <time>2022-04-26T11:58:51Z</time>
      </trkpt>
      <trkpt lat="41.77769" lon="8.77912">
        <ele>515.88</ele>
        <time>2022-04-26T11:59:12Z</time>
      </trkpt>
      <trkpt lat="41.7777" lon="8.77886">
        <ele>513</ele>
        <time>2022-04-26T11:59:29Z</time>
      </trkpt>
      <trkpt lat="41.77765" lon="8.7786">
        <ele>511.08</ele>
        <time>2022-04-26T11:59:47Z</time>
      </trkpt>
      <trkpt lat="41.77762" lon="8.77813">
        <ele>508.67</ele>
        <time>2022-04-26T12:00:06Z</time>
      </trkpt>
      <trkpt lat="41.77768" lon="8.77792">
        <ele>505.79</ele>
        <time>2022-04-26T12:00:19Z</time>
      </trkpt>
      <trkpt lat="41.77769" lon="8.77781">
        <ele>505.31</ele>
        <time>2022-04-26T12:00:35Z</time>
      </trkpt>
      <trkpt lat="41.77771" lon="8.77776">
        <ele>504.83</ele>
        <time>2022-04-26T12:00:52Z</time>
      </trkpt>
      <trkpt lat="41.77772" lon="8.77778">
        <ele>504.83</ele>
        <time>2022-04-26T12:01:04Z</time>
      </trkpt>
      <trkpt lat="41.77771" lon="8.77767">
        <ele>504.83</ele>
        <time>2022-04-26T12:01:14Z</time>
      </trkpt>
      <trkpt lat="41.7777" lon="8.77764">
        <ele>504.35</ele>
        <time>2022-04-26T12:01:16Z</time>
      </trkpt>
      <trkpt lat="41.77762" lon="8.7774">
        <ele>503.87</ele>
        <time>2022-04-26T12:01:31Z</time>
      </trkpt>
      <trkpt lat="41.7776" lon="8.77736">
        <ele>503.39</ele>
        <time>2022-04-26T12:01:34Z</time>
      </trkpt>
      <trkpt lat="41.77746" lon="8.77715">
        <ele>502.91</ele>
        <time>2022-04-26T12:01:50Z</time>
      </trkpt>
      <trkpt lat="41.77731" lon="8.77695">
        <ele>502.91</ele>
        <time>2022-04-26T12:02:04Z</time>
      </trkpt>
      <trkpt lat="41.7773" lon="8.77687">
        <ele>502.43</ele>
        <time>2022-04-26T12:02:11Z</time>
      </trkpt>
      <trkpt lat="41.77714" lon="8.77671">
        <ele>501.95</ele>
        <time>2022-04-26T12:02:25Z</time>
      </trkpt>
      <trkpt lat="41.77698" lon="8.7765">
        <ele>501.95</ele>
        <time>2022-04-26T12:02:41Z</time>
      </trkpt>
      <trkpt lat="41.77687" lon="8.77633">
        <ele>500.5</ele>
        <time>2022-04-26T12:02:54Z</time>
      </trkpt>
      <trkpt lat="41.77679" lon="8.77607">
        <ele>500.5</ele>
        <time>2022-04-26T12:03:11Z</time>
      </trkpt>
      <trkpt lat="41.77677" lon="8.77604">
        <ele>500.5</ele>
        <time>2022-04-26T12:03:13Z</time>
      </trkpt>
      <trkpt lat="41.77676" lon="8.77602">
        <ele>500.5</ele>
        <time>2022-04-26T12:03:14Z</time>
      </trkpt>
      <trkpt lat="41.77665" lon="8.77585">
        <ele>500.02</ele>
        <time>2022-04-26T12:03:30Z</time>
      </trkpt>
      <trkpt lat="41.7766" lon="8.77581">
        <ele>499.54</ele>
        <time>2022-04-26T12:03:36Z</time>
      </trkpt>
      <trkpt lat="41.77658" lon="8.7758">
        <ele>499.54</ele>
        <time>2022-04-26T12:03:37Z</time>
      </trkpt>
      <trkpt lat="41.77639" lon="8.77566">
        <ele>499.06</ele>
        <time>2022-04-26T12:03:54Z</time>
      </trkpt>
      <trkpt lat="41.77629" lon="8.77558">
        <ele>498.58</ele>
        <time>2022-04-26T12:04:03Z</time>
      </trkpt>
      <trkpt lat="41.77627" lon="8.77556">
        <ele>498.58</ele>
        <time>2022-04-26T12:04:04Z</time>
      </trkpt>
      <trkpt lat="41.77626" lon="8.77555">
        <ele>498.58</ele>
        <time>2022-04-26T12:04:05Z</time>
      </trkpt>
      <trkpt lat="41.77625" lon="8.77554">
        <ele>499.06</ele>
        <time>2022-04-26T12:04:06Z</time>
      </trkpt>
      <trkpt lat="41.77624" lon="8.77552">
        <ele>498.58</ele>
        <time>2022-04-26T12:04:07Z</time>
      </trkpt>
      <trkpt lat="41.77608" lon="8.7753">
        <ele>498.1</ele>
        <time>2022-04-26T12:04:24Z</time>
      </trkpt>
      <trkpt lat="41.77595" lon="8.77512">
        <ele>497.62</ele>
        <time>2022-04-26T12:04:37Z</time>
      </trkpt>
      <trkpt lat="41.77584" lon="8.775">
        <ele>497.14</ele>
        <time>2022-04-26T12:04:49Z</time>
      </trkpt>
      <trkpt lat="41.77568" lon="8.77489">
        <ele>497.14</ele>
        <time>2022-04-26T12:05:04Z</time>
      </trkpt>
      <trkpt lat="41.77563" lon="8.77481">
        <ele>497.62</ele>
        <time>2022-04-26T12:05:14Z</time>
      </trkpt>
      <trkpt lat="41.77557" lon="8.7748">
        <ele>497.14</ele>
        <time>2022-04-26T12:05:37Z</time>
      </trkpt>
      <trkpt lat="41.77538" lon="8.77476">
        <ele>496.66</ele>
        <time>2022-04-26T12:05:56Z</time>
      </trkpt>
      <trkpt lat="41.77523" lon="8.77469">
        <ele>496.66</ele>
        <time>2022-04-26T12:06:10Z</time>
      </trkpt>
      <trkpt lat="41.77517" lon="8.77469">
        <ele>495.7</ele>
        <time>2022-04-26T12:06:28Z</time>
      </trkpt>
      <trkpt lat="41.77501" lon="8.77467">
        <ele>496.18</ele>
        <time>2022-04-26T12:06:47Z</time>
      </trkpt>
      <trkpt lat="41.77479" lon="8.77456">
        <ele>495.7</ele>
        <time>2022-04-26T12:07:04Z</time>
      </trkpt>
      <trkpt lat="41.77469" lon="8.77451">
        <ele>495.22</ele>
        <time>2022-04-26T12:07:21Z</time>
      </trkpt>
      <trkpt lat="41.77466" lon="8.77446">
        <ele>495.7</ele>
        <time>2022-04-26T12:07:25Z</time>
      </trkpt>
      <trkpt lat="41.77458" lon="8.77422">
        <ele>495.22</ele>
        <time>2022-04-26T12:07:42Z</time>
      </trkpt>
      <trkpt lat="41.77455" lon="8.77401">
        <ele>494.74</ele>
        <time>2022-04-26T12:08:00Z</time>
      </trkpt>
      <trkpt lat="41.77445" lon="8.77389">
        <ele>494.74</ele>
        <time>2022-04-26T12:08:18Z</time>
      </trkpt>
      <trkpt lat="41.77431" lon="8.77378">
        <ele>492.81</ele>
        <time>2022-04-26T12:08:36Z</time>
      </trkpt>
      <trkpt lat="41.77422" lon="8.77359">
        <ele>492.33</ele>
        <time>2022-04-26T12:08:54Z</time>
      </trkpt>
      <trkpt lat="41.7741" lon="8.77332">
        <ele>491.85</ele>
        <time>2022-04-26T12:09:11Z</time>
      </trkpt>
      <trkpt lat="41.77397" lon="8.773">
        <ele>490.41</ele>
        <time>2022-04-26T12:09:31Z</time>
      </trkpt>
      <trkpt lat="41.77378" lon="8.77279">
        <ele>488.49</ele>
        <time>2022-04-26T12:09:50Z</time>
      </trkpt>
      <trkpt lat="41.77364" lon="8.77263">
        <ele>488.01</ele>
        <time>2022-04-26T12:10:06Z</time>
      </trkpt>
      <trkpt lat="41.77355" lon="8.77246">
        <ele>486.56</ele>
        <time>2022-04-26T12:10:24Z</time>
      </trkpt>
      <trkpt lat="41.77352" lon="8.77234">
        <ele>486.08</ele>
        <time>2022-04-26T12:10:40Z</time>
      </trkpt>
      <trkpt lat="41.77353" lon="8.77225">
        <ele>487.05</ele>
        <time>2022-04-26T12:11:01Z</time>
      </trkpt>
      <trkpt lat="41.77347" lon="8.7723">
        <ele>486.56</ele>
        <time>2022-04-26T12:11:20Z</time>
      </trkpt>
      <trkpt lat="41.77334" lon="8.77223">
        <ele>486.56</ele>
        <time>2022-04-26T12:11:39Z</time>
      </trkpt>
      <trkpt lat="41.77327" lon="8.77213">
        <ele>485.6</ele>
        <time>2022-04-26T12:11:57Z</time>
      </trkpt>
      <trkpt lat="41.77319" lon="8.77201">
        <ele>485.12</ele>
        <time>2022-04-26T12:12:12Z</time>
      </trkpt>
      <trkpt lat="41.77318" lon="8.77194">
        <ele>484.64</ele>
        <time>2022-04-26T12:12:26Z</time>
      </trkpt>
      <trkpt lat="41.77319" lon="8.77195">
        <ele>484.16</ele>
        <time>2022-04-26T12:12:53Z</time>
      </trkpt>
      <trkpt lat="41.77317" lon="8.77193">
        <ele>484.64</ele>
        <time>2022-04-26T12:13:18Z</time>
      </trkpt>
      <trkpt lat="41.7732" lon="8.77185">
        <ele>483.68</ele>
        <time>2022-04-26T12:13:28Z</time>
      </trkpt>
      <trkpt lat="41.7732" lon="8.77183">
        <ele>483.68</ele>
        <time>2022-04-26T12:13:29Z</time>
      </trkpt>
      <trkpt lat="41.7732" lon="8.77182">
        <ele>483.68</ele>
        <time>2022-04-26T12:13:30Z</time>
      </trkpt>
      <trkpt lat="41.77317" lon="8.77181">
        <ele>485.12</ele>
        <time>2022-04-26T12:13:45Z</time>
      </trkpt>
      <trkpt lat="41.7731" lon="8.77172">
        <ele>483.68</ele>
        <time>2022-04-26T12:14:00Z</time>
      </trkpt>
      <trkpt lat="41.77297" lon="8.77164">
        <ele>483.68</ele>
        <time>2022-04-26T12:14:18Z</time>
      </trkpt>
      <trkpt lat="41.7728" lon="8.77144">
        <ele>483.2</ele>
        <time>2022-04-26T12:14:37Z</time>
      </trkpt>
      <trkpt lat="41.77267" lon="8.77129">
        <ele>483.68</ele>
        <time>2022-04-26T12:14:54Z</time>
      </trkpt>
      <trkpt lat="41.77261" lon="8.77121">
        <ele>483.2</ele>
        <time>2022-04-26T12:15:00Z</time>
      </trkpt>
      <trkpt lat="41.7726" lon="8.77119">
        <ele>483.2</ele>
        <time>2022-04-26T12:15:01Z</time>
      </trkpt>
      <trkpt lat="41.7726" lon="8.77117">
        <ele>483.2</ele>
        <time>2022-04-26T12:15:02Z</time>
      </trkpt>
      <trkpt lat="41.77259" lon="8.77115">
        <ele>483.2</ele>
        <time>2022-04-26T12:15:03Z</time>
      </trkpt>
      <trkpt lat="41.77258" lon="8.77113">
        <ele>483.2</ele>
        <time>2022-04-26T12:15:04Z</time>
      </trkpt>
      <trkpt lat="41.77257" lon="8.77112">
        <ele>483.68</ele>
        <time>2022-04-26T12:15:05Z</time>
      </trkpt>
      <trkpt lat="41.77245" lon="8.77098">
        <ele>483.2</ele>
        <time>2022-04-26T12:15:17Z</time>
      </trkpt>
      <trkpt lat="41.77234" lon="8.77101">
        <ele>482.72</ele>
        <time>2022-04-26T12:15:27Z</time>
      </trkpt>
      <trkpt lat="41.77218" lon="8.77104">
        <ele>482.72</ele>
        <time>2022-04-26T12:15:43Z</time>
      </trkpt>
      <trkpt lat="41.77202" lon="8.77097">
        <ele>482.24</ele>
        <time>2022-04-26T12:15:58Z</time>
      </trkpt>
      <trkpt lat="41.77182" lon="8.77082">
        <ele>482.24</ele>
        <time>2022-04-26T12:16:16Z</time>
      </trkpt>
      <trkpt lat="41.77166" lon="8.77069">
        <ele>482.24</ele>
        <time>2022-04-26T12:16:32Z</time>
      </trkpt>
      <trkpt lat="41.77151" lon="8.77054">
        <ele>482.24</ele>
        <time>2022-04-26T12:16:47Z</time>
      </trkpt>
      <trkpt lat="41.77139" lon="8.77039">
        <ele>483.68</ele>
        <time>2022-04-26T12:17:00Z</time>
      </trkpt>
      <trkpt lat="41.77131" lon="8.77021">
        <ele>482.72</ele>
        <time>2022-04-26T12:17:13Z</time>
      </trkpt>
      <trkpt lat="41.77125" lon="8.77006">
        <ele>483.68</ele>
        <time>2022-04-26T12:17:24Z</time>
      </trkpt>
      <trkpt lat="41.77115" lon="8.7699">
        <ele>483.68</ele>
        <time>2022-04-26T12:17:37Z</time>
      </trkpt>
      <trkpt lat="41.77101" lon="8.76974">
        <ele>483.68</ele>
        <time>2022-04-26T12:17:52Z</time>
      </trkpt>
      <trkpt lat="41.7709" lon="8.76957">
        <ele>484.16</ele>
        <time>2022-04-26T12:18:07Z</time>
      </trkpt>
      <trkpt lat="41.77087" lon="8.76951">
        <ele>483.68</ele>
        <time>2022-04-26T12:18:12Z</time>
      </trkpt>
      <trkpt lat="41.77087" lon="8.7695">
        <ele>483.68</ele>
        <time>2022-04-26T12:18:23Z</time>
      </trkpt>
      <trkpt lat="41.7709" lon="8.76946">
        <ele>484.64</ele>
        <time>2022-04-26T12:18:38Z</time>
      </trkpt>
      <trkpt lat="41.77091" lon="8.76941">
        <ele>484.64</ele>
        <time>2022-04-26T12:19:03Z</time>
      </trkpt>
      <trkpt lat="41.77095" lon="8.76946">
        <ele>485.12</ele>
        <time>2022-04-26T12:19:22Z</time>
      </trkpt>
      <trkpt lat="41.77089" lon="8.76941">
        <ele>484.64</ele>
        <time>2022-04-26T12:19:43Z</time>
      </trkpt>
      <trkpt lat="41.77084" lon="8.76915">
        <ele>485.12</ele>
        <time>2022-04-26T12:19:58Z</time>
      </trkpt>
      <trkpt lat="41.77084" lon="8.76894">
        <ele>485.12</ele>
        <time>2022-04-26T12:20:13Z</time>
      </trkpt>
      <trkpt lat="41.77082" lon="8.7687">
        <ele>487.05</ele>
        <time>2022-04-26T12:20:28Z</time>
      </trkpt>
      <trkpt lat="41.77088" lon="8.76852">
        <ele>489.45</ele>
        <time>2022-04-26T12:20:44Z</time>
      </trkpt>
      <trkpt lat="41.77092" lon="8.76833">
        <ele>491.37</ele>
        <time>2022-04-26T12:21:00Z</time>
      </trkpt>
      <trkpt lat="41.77088" lon="8.76821">
        <ele>493.77</ele>
        <time>2022-04-26T12:21:11Z</time>
      </trkpt>
      <trkpt lat="41.77075" lon="8.76814">
        <ele>493.29</ele>
        <time>2022-04-26T12:21:25Z</time>
      </trkpt>
      <trkpt lat="41.77062" lon="8.76798">
        <ele>494.26</ele>
        <time>2022-04-26T12:21:41Z</time>
      </trkpt>
      <trkpt lat="41.77057" lon="8.76782">
        <ele>494.26</ele>
        <time>2022-04-26T12:21:51Z</time>
      </trkpt>
      <trkpt lat="41.77056" lon="8.7678">
        <ele>494.26</ele>
        <time>2022-04-26T12:21:52Z</time>
      </trkpt>
      <trkpt lat="41.77055" lon="8.76778">
        <ele>494.26</ele>
        <time>2022-04-26T12:21:54Z</time>
      </trkpt>
      <trkpt lat="41.77055" lon="8.76776">
        <ele>494.26</ele>
        <time>2022-04-26T12:21:55Z</time>
      </trkpt>
      <trkpt lat="41.77055" lon="8.76773">
        <ele>493.77</ele>
        <time>2022-04-26T12:21:57Z</time>
      </trkpt>
      <trkpt lat="41.77055" lon="8.76744">
        <ele>494.26</ele>
        <time>2022-04-26T12:22:15Z</time>
      </trkpt>
      <trkpt lat="41.7706" lon="8.76736">
        <ele>493.77</ele>
        <time>2022-04-26T12:22:32Z</time>
      </trkpt>
      <trkpt lat="41.7706" lon="8.76713">
        <ele>495.22</ele>
        <time>2022-04-26T12:22:47Z</time>
      </trkpt>
      <trkpt lat="41.77066" lon="8.76692">
        <ele>496.18</ele>
        <time>2022-04-26T12:23:01Z</time>
      </trkpt>
      <trkpt lat="41.77069" lon="8.76672">
        <ele>498.1</ele>
        <time>2022-04-26T12:23:15Z</time>
      </trkpt>
      <trkpt lat="41.77073" lon="8.76655">
        <ele>499.54</ele>
        <time>2022-04-26T12:23:28Z</time>
      </trkpt>
      <trkpt lat="41.77073" lon="8.76653">
        <ele>499.54</ele>
        <time>2022-04-26T12:23:29Z</time>
      </trkpt>
      <trkpt lat="41.77077" lon="8.76636">
        <ele>500.5</ele>
        <time>2022-04-26T12:23:42Z</time>
      </trkpt>
      <trkpt lat="41.77078" lon="8.76633">
        <ele>500.98</ele>
        <time>2022-04-26T12:23:45Z</time>
      </trkpt>
      <trkpt lat="41.77082" lon="8.76611">
        <ele>503.39</ele>
        <time>2022-04-26T12:24:02Z</time>
      </trkpt>
      <trkpt lat="41.77081" lon="8.76591">
        <ele>504.83</ele>
        <time>2022-04-26T12:24:17Z</time>
      </trkpt>
      <trkpt lat="41.77074" lon="8.76569">
        <ele>507.23</ele>
        <time>2022-04-26T12:24:33Z</time>
      </trkpt>
      <trkpt lat="41.77066" lon="8.76545">
        <ele>508.67</ele>
        <time>2022-04-26T12:24:51Z</time>
      </trkpt>
      <trkpt lat="41.77058" lon="8.76521">
        <ele>510.6</ele>
        <time>2022-04-26T12:25:07Z</time>
      </trkpt>
      <trkpt lat="41.77049" lon="8.76496">
        <ele>512.04</ele>
        <time>2022-04-26T12:25:26Z</time>
      </trkpt>
      <trkpt lat="41.77048" lon="8.76492">
        <ele>512.52</ele>
        <time>2022-04-26T12:25:29Z</time>
      </trkpt>
      <trkpt lat="41.77042" lon="8.76473">
        <ele>513.48</ele>
        <time>2022-04-26T12:25:43Z</time>
      </trkpt>
      <trkpt lat="41.77033" lon="8.76455">
        <ele>514.44</ele>
        <time>2022-04-26T12:25:59Z</time>
      </trkpt>
      <trkpt lat="41.77022" lon="8.7644">
        <ele>516.37</ele>
        <time>2022-04-26T12:26:15Z</time>
      </trkpt>
      <trkpt lat="41.7702" lon="8.76437">
        <ele>516.85</ele>
        <time>2022-04-26T12:26:18Z</time>
      </trkpt>
      <trkpt lat="41.77007" lon="8.7642">
        <ele>517.81</ele>
        <time>2022-04-26T12:26:33Z</time>
      </trkpt>
      <trkpt lat="41.76994" lon="8.764">
        <ele>519.25</ele>
        <time>2022-04-26T12:26:51Z</time>
      </trkpt>
      <trkpt lat="41.76982" lon="8.76384">
        <ele>521.17</ele>
        <time>2022-04-26T12:27:07Z</time>
      </trkpt>
      <trkpt lat="41.76975" lon="8.76377">
        <ele>521.65</ele>
        <time>2022-04-26T12:27:15Z</time>
      </trkpt>
      <trkpt lat="41.76969" lon="8.76371">
        <ele>522.61</ele>
        <time>2022-04-26T12:27:21Z</time>
      </trkpt>
      <trkpt lat="41.76957" lon="8.76355">
        <ele>524.54</ele>
        <time>2022-04-26T12:27:37Z</time>
      </trkpt>
      <trkpt lat="41.76945" lon="8.76339">
        <ele>526.46</ele>
        <time>2022-04-26T12:27:53Z</time>
      </trkpt>
      <trkpt lat="41.76938" lon="8.76331">
        <ele>527.9</ele>
        <time>2022-04-26T12:28:01Z</time>
      </trkpt>
      <trkpt lat="41.76932" lon="8.76324">
        <ele>527.9</ele>
        <time>2022-04-26T12:28:09Z</time>
      </trkpt>
      <trkpt lat="41.76923" lon="8.76314">
        <ele>528.86</ele>
        <time>2022-04-26T12:28:19Z</time>
      </trkpt>
      <trkpt lat="41.76923" lon="8.76313">
        <ele>529.34</ele>
        <time>2022-04-26T12:28:20Z</time>
      </trkpt>
      <trkpt lat="41.76919" lon="8.76312">
        <ele>529.82</ele>
        <time>2022-04-26T12:28:24Z</time>
      </trkpt>
      <trkpt lat="41.76918" lon="8.76311">
        <ele>529.82</ele>
        <time>2022-04-26T12:28:25Z</time>
      </trkpt>
      <trkpt lat="41.76917" lon="8.76306">
        <ele>530.3</ele>
        <time>2022-04-26T12:28:36Z</time>
      </trkpt>
      <trkpt lat="41.76913" lon="8.76312">
        <ele>529.82</ele>
        <time>2022-04-26T12:28:58Z</time>
      </trkpt>
      <trkpt lat="41.76916" lon="8.76314">
        <ele>529.82</ele>
        <time>2022-04-26T12:29:20Z</time>
      </trkpt>
      <trkpt lat="41.76918" lon="8.76314">
        <ele>529.82</ele>
        <time>2022-04-26T12:29:43Z</time>
      </trkpt>
      <trkpt lat="41.76921" lon="8.7631">
        <ele>529.34</ele>
        <time>2022-04-26T12:30:16Z</time>
      </trkpt>
      <trkpt lat="41.76921" lon="8.76309">
        <ele>530.3</ele>
        <time>2022-04-26T12:30:43Z</time>
      </trkpt>
      <trkpt lat="41.7692" lon="8.76309">
        <ele>530.3</ele>
        <time>2022-04-26T12:30:59Z</time>
      </trkpt>
      <trkpt lat="41.76913" lon="8.76309">
        <ele>530.79</ele>
        <time>2022-04-26T12:31:21Z</time>
      </trkpt>
      <trkpt lat="41.76905" lon="8.76308">
        <ele>530.3</ele>
        <time>2022-04-26T12:31:28Z</time>
      </trkpt>
      <trkpt lat="41.76881" lon="8.76311">
        <ele>530.79</ele>
        <time>2022-04-26T12:31:46Z</time>
      </trkpt>
      <trkpt lat="41.76861" lon="8.7631">
        <ele>531.27</ele>
        <time>2022-04-26T12:32:05Z</time>
      </trkpt>
      <trkpt lat="41.7684" lon="8.76304">
        <ele>532.71</ele>
        <time>2022-04-26T12:32:24Z</time>
      </trkpt>
      <trkpt lat="41.76819" lon="8.76298">
        <ele>533.67</ele>
        <time>2022-04-26T12:32:43Z</time>
      </trkpt>
      <trkpt lat="41.76799" lon="8.7629">
        <ele>534.63</ele>
        <time>2022-04-26T12:33:02Z</time>
      </trkpt>
      <trkpt lat="41.76778" lon="8.76283">
        <ele>535.11</ele>
        <time>2022-04-26T12:33:20Z</time>
      </trkpt>
      <trkpt lat="41.76761" lon="8.76274">
        <ele>534.63</ele>
        <time>2022-04-26T12:33:36Z</time>
      </trkpt>
      <trkpt lat="41.76739" lon="8.7626">
        <ele>533.19</ele>
        <time>2022-04-26T12:33:56Z</time>
      </trkpt>
      <trkpt lat="41.76721" lon="8.76247">
        <ele>532.23</ele>
        <time>2022-04-26T12:34:12Z</time>
      </trkpt>
      <trkpt lat="41.76697" lon="8.76228">
        <ele>531.75</ele>
        <time>2022-04-26T12:34:34Z</time>
      </trkpt>
      <trkpt lat="41.76674" lon="8.76208">
        <ele>531.27</ele>
        <time>2022-04-26T12:34:56Z</time>
      </trkpt>
      <trkpt lat="41.76653" lon="8.76193">
        <ele>528.86</ele>
        <time>2022-04-26T12:35:15Z</time>
      </trkpt>
      <trkpt lat="41.76627" lon="8.76184">
        <ele>528.86</ele>
        <time>2022-04-26T12:35:36Z</time>
      </trkpt>
      <trkpt lat="41.76608" lon="8.76174">
        <ele>529.34</ele>
        <time>2022-04-26T12:35:54Z</time>
      </trkpt>
      <trkpt lat="41.76605" lon="8.76165">
        <ele>530.3</ele>
        <time>2022-04-26T12:36:13Z</time>
      </trkpt>
      <trkpt lat="41.76596" lon="8.76159">
        <ele>530.3</ele>
        <time>2022-04-26T12:36:43Z</time>
      </trkpt>
      <trkpt lat="41.76595" lon="8.76157">
        <ele>530.3</ele>
        <time>2022-04-26T12:36:45Z</time>
      </trkpt>
      <trkpt lat="41.76577" lon="8.76132">
        <ele>529.34</ele>
        <time>2022-04-26T12:37:06Z</time>
      </trkpt>
      <trkpt lat="41.76566" lon="8.76122">
        <ele>531.27</ele>
        <time>2022-04-26T12:37:17Z</time>
      </trkpt>
      <trkpt lat="41.76564" lon="8.7612">
        <ele>528.86</ele>
        <time>2022-04-26T12:37:19Z</time>
      </trkpt>
      <trkpt lat="41.76544" lon="8.76102">
        <ele>527.9</ele>
        <time>2022-04-26T12:37:37Z</time>
      </trkpt>
      <trkpt lat="41.76517" lon="8.76087">
        <ele>527.42</ele>
        <time>2022-04-26T12:37:59Z</time>
      </trkpt>
      <trkpt lat="41.76498" lon="8.76079">
        <ele>525.5</ele>
        <time>2022-04-26T12:38:16Z</time>
      </trkpt>
      <trkpt lat="41.7648" lon="8.76071">
        <ele>523.58</ele>
        <time>2022-04-26T12:38:34Z</time>
      </trkpt>
      <trkpt lat="41.76461" lon="8.76062">
        <ele>522.61</ele>
        <time>2022-04-26T12:38:47Z</time>
      </trkpt>
      <trkpt lat="41.7645" lon="8.76054">
        <ele>521.65</ele>
        <time>2022-04-26T12:38:58Z</time>
      </trkpt>
      <trkpt lat="41.76437" lon="8.76038">
        <ele>519.73</ele>
        <time>2022-04-26T12:39:10Z</time>
      </trkpt>
      <trkpt lat="41.76428" lon="8.76023">
        <ele>519.25</ele>
        <time>2022-04-26T12:39:22Z</time>
      </trkpt>
      <trkpt lat="41.76412" lon="8.76005">
        <ele>517.33</ele>
        <time>2022-04-26T12:39:38Z</time>
      </trkpt>
      <trkpt lat="41.76391" lon="8.75994">
        <ele>514.44</ele>
        <time>2022-04-26T12:39:57Z</time>
      </trkpt>
      <trkpt lat="41.76374" lon="8.75979">
        <ele>511.56</ele>
        <time>2022-04-26T12:40:14Z</time>
      </trkpt>
      <trkpt lat="41.7637" lon="8.7598">
        <ele>511.56</ele>
        <time>2022-04-26T12:40:28Z</time>
      </trkpt>
      <trkpt lat="41.76367" lon="8.75981">
        <ele>511.56</ele>
        <time>2022-04-26T12:41:00Z</time>
      </trkpt>
      <trkpt lat="41.7637" lon="8.75983">
        <ele>512.04</ele>
        <time>2022-04-26T12:41:30Z</time>
      </trkpt>
      <trkpt lat="41.76367" lon="8.75979">
        <ele>512.04</ele>
        <time>2022-04-26T12:41:53Z</time>
      </trkpt>
      <trkpt lat="41.76366" lon="8.75979">
        <ele>512.04</ele>
        <time>2022-04-26T12:42:07Z</time>
      </trkpt>
      <trkpt lat="41.76363" lon="8.75969">
        <ele>511.08</ele>
        <time>2022-04-26T12:42:34Z</time>
      </trkpt>
      <trkpt lat="41.76347" lon="8.75942">
        <ele>509.64</ele>
        <time>2022-04-26T12:42:54Z</time>
      </trkpt>
      <trkpt lat="41.76336" lon="8.75912">
        <ele>507.71</ele>
        <time>2022-04-26T12:43:14Z</time>
      </trkpt>
      <trkpt lat="41.76327" lon="8.75888">
        <ele>509.16</ele>
        <time>2022-04-26T12:43:30Z</time>
      </trkpt>
      <trkpt lat="41.7632" lon="8.75875">
        <ele>505.79</ele>
        <time>2022-04-26T12:43:40Z</time>
      </trkpt>
      <trkpt lat="41.76315" lon="8.75853">
        <ele>505.79</ele>
        <time>2022-04-26T12:43:58Z</time>
      </trkpt>
      <trkpt lat="41.76315" lon="8.75853">
        <ele>506.27</ele>
        <time>2022-04-26T12:44:12Z</time>
      </trkpt>
      <trkpt lat="41.76315" lon="8.75849">
        <ele>506.27</ele>
        <time>2022-04-26T12:44:28Z</time>
      </trkpt>
      <trkpt lat="41.76312" lon="8.75835">
        <ele>506.75</ele>
        <time>2022-04-26T12:44:41Z</time>
      </trkpt>
      <trkpt lat="41.76307" lon="8.75818">
        <ele>506.27</ele>
        <time>2022-04-26T12:44:56Z</time>
      </trkpt>
      <trkpt lat="41.76308" lon="8.75822">
        <ele>506.75</ele>
        <time>2022-04-26T12:45:10Z</time>
      </trkpt>
      <trkpt lat="41.76306" lon="8.75821">
        <ele>505.79</ele>
        <time>2022-04-26T12:45:27Z</time>
      </trkpt>
      <trkpt lat="41.76306" lon="8.75814">
        <ele>506.75</ele>
        <time>2022-04-26T12:45:48Z</time>
      </trkpt>
      <trkpt lat="41.76302" lon="8.75798">
        <ele>508.67</ele>
        <time>2022-04-26T12:46:02Z</time>
      </trkpt>
      <trkpt lat="41.76298" lon="8.75785">
        <ele>510.12</ele>
        <time>2022-04-26T12:46:15Z</time>
      </trkpt>
      <trkpt lat="41.76293" lon="8.75777">
        <ele>508.67</ele>
        <time>2022-04-26T12:46:32Z</time>
      </trkpt>
      <trkpt lat="41.76294" lon="8.75777">
        <ele>507.71</ele>
        <time>2022-04-26T12:46:37Z</time>
      </trkpt>
      <trkpt lat="41.76294" lon="8.75777">
        <ele>507.71</ele>
        <time>2022-04-26T12:46:38Z</time>
      </trkpt>
      <trkpt lat="41.76292" lon="8.75775">
        <ele>513</ele>
        <time>2022-04-26T12:49:16Z</time>
      </trkpt>
      <trkpt lat="41.76279" lon="8.75751">
        <ele>512.52</ele>
        <time>2022-04-26T12:49:17Z</time>
      </trkpt>
      <trkpt lat="41.76276" lon="8.75744">
        <ele>513</ele>
        <time>2022-04-26T12:49:37Z</time>
      </trkpt>
      <trkpt lat="41.76278" lon="8.75744">
        <ele>513</ele>
        <time>2022-04-26T12:49:52Z</time>
      </trkpt>
      <trkpt lat="41.76278" lon="8.75744">
        <ele>513.96</ele>
        <time>2022-04-26T12:49:58Z</time>
      </trkpt>
      <trkpt lat="41.76279" lon="8.75735">
        <ele>512.04</ele>
        <time>2022-04-26T12:50:17Z</time>
      </trkpt>
      <trkpt lat="41.7628" lon="8.75735">
        <ele>511.56</ele>
        <time>2022-04-26T12:50:51Z</time>
      </trkpt>
      <trkpt lat="41.76272" lon="8.75736">
        <ele>513</ele>
        <time>2022-04-26T12:51:09Z</time>
      </trkpt>
      <trkpt lat="41.7627" lon="8.75734">
        <ele>513</ele>
        <time>2022-04-26T12:51:43Z</time>
      </trkpt>
      <trkpt lat="41.76269" lon="8.75735">
        <ele>512.52</ele>
        <time>2022-04-26T12:52:08Z</time>
      </trkpt>
      <trkpt lat="41.76269" lon="8.75737">
        <ele>513</ele>
        <time>2022-04-26T12:52:41Z</time>
      </trkpt>
      <trkpt lat="41.76268" lon="8.75734">
        <ele>513.48</ele>
        <time>2022-04-26T12:53:02Z</time>
      </trkpt>
      <trkpt lat="41.76268" lon="8.75731">
        <ele>512.04</ele>
        <time>2022-04-26T12:53:36Z</time>
      </trkpt>
      <trkpt lat="41.76269" lon="8.75733">
        <ele>512.04</ele>
        <time>2022-04-26T12:53:54Z</time>
      </trkpt>
      <trkpt lat="41.76269" lon="8.75733">
        <ele>512.52</ele>
        <time>2022-04-26T12:53:55Z</time>
      </trkpt>
      <trkpt lat="41.76265" lon="8.7573">
        <ele>512.52</ele>
        <time>2022-04-26T12:54:12Z</time>
      </trkpt>
      <trkpt lat="41.76256" lon="8.75716">
        <ele>512.04</ele>
        <time>2022-04-26T12:54:29Z</time>
      </trkpt>
      <trkpt lat="41.76243" lon="8.75709">
        <ele>513.96</ele>
        <time>2022-04-26T12:54:48Z</time>
      </trkpt>
      <trkpt lat="41.76245" lon="8.75708">
        <ele>513</ele>
        <time>2022-04-26T12:55:03Z</time>
      </trkpt>
      <trkpt lat="41.76245" lon="8.75704">
        <ele>513</ele>
        <time>2022-04-26T12:55:21Z</time>
      </trkpt>
      <trkpt lat="41.76231" lon="8.757">
        <ele>514.92</ele>
        <time>2022-04-26T12:55:37Z</time>
      </trkpt>
      <trkpt lat="41.76224" lon="8.7569">
        <ele>514.92</ele>
        <time>2022-04-26T12:55:58Z</time>
      </trkpt>
      <trkpt lat="41.76225" lon="8.75691">
        <ele>514.44</ele>
        <time>2022-04-26T12:56:25Z</time>
      </trkpt>
      <trkpt lat="41.76224" lon="8.75697">
        <ele>514.92</ele>
        <time>2022-04-26T12:56:54Z</time>
      </trkpt>
      <trkpt lat="41.76224" lon="8.75695">
        <ele>514.44</ele>
        <time>2022-04-26T12:57:29Z</time>
      </trkpt>
      <trkpt lat="41.76223" lon="8.75698">
        <ele>513.96</ele>
        <time>2022-04-26T12:58:07Z</time>
      </trkpt>
      <trkpt lat="41.76225" lon="8.75697">
        <ele>513.48</ele>
        <time>2022-04-26T12:58:45Z</time>
      </trkpt>
      <trkpt lat="41.76217" lon="8.75692">
        <ele>513.48</ele>
        <time>2022-04-26T12:59:24Z</time>
      </trkpt>
      <trkpt lat="41.76197" lon="8.75681">
        <ele>513.96</ele>
        <time>2022-04-26T12:59:42Z</time>
      </trkpt>
      <trkpt lat="41.76182" lon="8.75664">
        <ele>513.96</ele>
        <time>2022-04-26T13:00:01Z</time>
      </trkpt>
      <trkpt lat="41.7617" lon="8.75644">
        <ele>513.96</ele>
        <time>2022-04-26T13:00:19Z</time>
      </trkpt>
      <trkpt lat="41.76168" lon="8.75638">
        <ele>514.44</ele>
        <time>2022-04-26T13:00:34Z</time>
      </trkpt>
      <trkpt lat="41.76165" lon="8.75638">
        <ele>514.44</ele>
        <time>2022-04-26T13:00:50Z</time>
      </trkpt>
      <trkpt lat="41.76154" lon="8.75626">
        <ele>515.4</ele>
        <time>2022-04-26T13:01:07Z</time>
      </trkpt>
      <trkpt lat="41.76139" lon="8.75612">
        <ele>515.4</ele>
        <time>2022-04-26T13:01:25Z</time>
      </trkpt>
      <trkpt lat="41.76124" lon="8.75604">
        <ele>515.4</ele>
        <time>2022-04-26T13:01:42Z</time>
      </trkpt>
      <trkpt lat="41.76106" lon="8.75597">
        <ele>515.88</ele>
        <time>2022-04-26T13:01:59Z</time>
      </trkpt>
      <trkpt lat="41.76086" lon="8.75587">
        <ele>516.37</ele>
        <time>2022-04-26T13:02:18Z</time>
      </trkpt>
      <trkpt lat="41.7607" lon="8.75568">
        <ele>515.88</ele>
        <time>2022-04-26T13:02:37Z</time>
      </trkpt>
      <trkpt lat="41.7605" lon="8.75551">
        <ele>513.96</ele>
        <time>2022-04-26T13:02:57Z</time>
      </trkpt>
      <trkpt lat="41.76029" lon="8.75541">
        <ele>511.08</ele>
        <time>2022-04-26T13:03:17Z</time>
      </trkpt>
      <trkpt lat="41.76008" lon="8.7553">
        <ele>509.16</ele>
        <time>2022-04-26T13:03:35Z</time>
      </trkpt>
      <trkpt lat="41.75995" lon="8.75518">
        <ele>505.79</ele>
        <time>2022-04-26T13:03:50Z</time>
      </trkpt>
      <trkpt lat="41.75976" lon="8.75502">
        <ele>502.91</ele>
        <time>2022-04-26T13:04:10Z</time>
      </trkpt>
      <trkpt lat="41.75958" lon="8.75489">
        <ele>500.02</ele>
        <time>2022-04-26T13:04:30Z</time>
      </trkpt>
      <trkpt lat="41.75957" lon="8.75489">
        <ele>501.46</ele>
        <time>2022-04-26T13:04:31Z</time>
      </trkpt>
      <trkpt lat="41.75939" lon="8.75474">
        <ele>498.58</ele>
        <time>2022-04-26T13:04:47Z</time>
      </trkpt>
      <trkpt lat="41.75936" lon="8.75468">
        <ele>499.54</ele>
        <time>2022-04-26T13:04:52Z</time>
      </trkpt>
      <trkpt lat="41.7593" lon="8.75454">
        <ele>499.06</ele>
        <time>2022-04-26T13:05:03Z</time>
      </trkpt>
      <trkpt lat="41.75923" lon="8.75436">
        <ele>498.1</ele>
        <time>2022-04-26T13:05:13Z</time>
      </trkpt>
      <trkpt lat="41.75909" lon="8.75425">
        <ele>495.22</ele>
        <time>2022-04-26T13:05:28Z</time>
      </trkpt>
      <trkpt lat="41.75906" lon="8.75423">
        <ele>495.7</ele>
        <time>2022-04-26T13:05:31Z</time>
      </trkpt>
      <trkpt lat="41.75896" lon="8.7541">
        <ele>492.81</ele>
        <time>2022-04-26T13:05:40Z</time>
      </trkpt>
      <trkpt lat="41.75886" lon="8.75397">
        <ele>492.33</ele>
        <time>2022-04-26T13:05:51Z</time>
      </trkpt>
      <trkpt lat="41.75885" lon="8.75396">
        <ele>491.85</ele>
        <time>2022-04-26T13:05:52Z</time>
      </trkpt>
      <trkpt lat="41.75882" lon="8.75391">
        <ele>491.37</ele>
        <time>2022-04-26T13:05:56Z</time>
      </trkpt>
      <trkpt lat="41.7588" lon="8.75391">
        <ele>490.89</ele>
        <time>2022-04-26T13:05:57Z</time>
      </trkpt>
      <trkpt lat="41.75874" lon="8.75397">
        <ele>491.37</ele>
        <time>2022-04-26T13:06:04Z</time>
      </trkpt>
      <trkpt lat="41.75873" lon="8.75399">
        <ele>491.37</ele>
        <time>2022-04-26T13:06:05Z</time>
      </trkpt>
      <trkpt lat="41.75864" lon="8.75414">
        <ele>489.93</ele>
        <time>2022-04-26T13:06:17Z</time>
      </trkpt>
      <trkpt lat="41.75851" lon="8.75435">
        <ele>487.05</ele>
        <time>2022-04-26T13:06:29Z</time>
      </trkpt>
      <trkpt lat="41.75841" lon="8.75441">
        <ele>485.6</ele>
        <time>2022-04-26T13:06:42Z</time>
      </trkpt>
      <trkpt lat="41.7583" lon="8.75448">
        <ele>483.2</ele>
        <time>2022-04-26T13:06:51Z</time>
      </trkpt>
      <trkpt lat="41.75828" lon="8.75449">
        <ele>482.72</ele>
        <time>2022-04-26T13:06:52Z</time>
      </trkpt>
      <trkpt lat="41.75827" lon="8.7545">
        <ele>482.72</ele>
        <time>2022-04-26T13:06:53Z</time>
      </trkpt>
      <trkpt lat="41.75825" lon="8.75452">
        <ele>482.72</ele>
        <time>2022-04-26T13:06:54Z</time>
      </trkpt>
      <trkpt lat="41.75824" lon="8.75453">
        <ele>482.72</ele>
        <time>2022-04-26T13:06:55Z</time>
      </trkpt>
      <trkpt lat="41.75813" lon="8.75452">
        <ele>479.35</ele>
        <time>2022-04-26T13:07:07Z</time>
      </trkpt>
      <trkpt lat="41.75795" lon="8.7544">
        <ele>476.47</ele>
        <time>2022-04-26T13:07:21Z</time>
      </trkpt>
      <trkpt lat="41.75786" lon="8.75439">
        <ele>475.03</ele>
        <time>2022-04-26T13:07:32Z</time>
      </trkpt>
      <trkpt lat="41.7577" lon="8.75431">
        <ele>473.11</ele>
        <time>2022-04-26T13:07:45Z</time>
      </trkpt>
      <trkpt lat="41.75758" lon="8.75422">
        <ele>471.66</ele>
        <time>2022-04-26T13:07:54Z</time>
      </trkpt>
      <trkpt lat="41.7575" lon="8.75414">
        <ele>468.78</ele>
        <time>2022-04-26T13:08:04Z</time>
      </trkpt>
      <trkpt lat="41.75747" lon="8.75414">
        <ele>467.82</ele>
        <time>2022-04-26T13:08:07Z</time>
      </trkpt>
      <trkpt lat="41.75746" lon="8.75413">
        <ele>467.82</ele>
        <time>2022-04-26T13:08:08Z</time>
      </trkpt>
      <trkpt lat="41.75744" lon="8.75412">
        <ele>467.34</ele>
        <time>2022-04-26T13:08:09Z</time>
      </trkpt>
      <trkpt lat="41.75743" lon="8.7541">
        <ele>466.86</ele>
        <time>2022-04-26T13:08:10Z</time>
      </trkpt>
      <trkpt lat="41.75741" lon="8.75409">
        <ele>466.38</ele>
        <time>2022-04-26T13:08:11Z</time>
      </trkpt>
      <trkpt lat="41.7574" lon="8.75409">
        <ele>466.38</ele>
        <time>2022-04-26T13:08:12Z</time>
      </trkpt>
      <trkpt lat="41.75739" lon="8.75408">
        <ele>465.9</ele>
        <time>2022-04-26T13:08:13Z</time>
      </trkpt>
      <trkpt lat="41.75738" lon="8.75406">
        <ele>465.9</ele>
        <time>2022-04-26T13:08:14Z</time>
      </trkpt>
      <trkpt lat="41.75737" lon="8.75405">
        <ele>466.38</ele>
        <time>2022-04-26T13:08:15Z</time>
      </trkpt>
      <trkpt lat="41.75736" lon="8.75403">
        <ele>465.9</ele>
        <time>2022-04-26T13:08:16Z</time>
      </trkpt>
      <trkpt lat="41.75735" lon="8.75403">
        <ele>465.42</ele>
        <time>2022-04-26T13:08:17Z</time>
      </trkpt>
      <trkpt lat="41.75733" lon="8.75402">
        <ele>464.93</ele>
        <time>2022-04-26T13:08:18Z</time>
      </trkpt>
      <trkpt lat="41.75732" lon="8.754">
        <ele>464.93</ele>
        <time>2022-04-26T13:08:19Z</time>
      </trkpt>
      <trkpt lat="41.75729" lon="8.75386">
        <ele>462.53</ele>
        <time>2022-04-26T13:08:30Z</time>
      </trkpt>
      <trkpt lat="41.75723" lon="8.75378">
        <ele>459.65</ele>
        <time>2022-04-26T13:08:42Z</time>
      </trkpt>
      <trkpt lat="41.75709" lon="8.75357">
        <ele>456.76</ele>
        <time>2022-04-26T13:08:59Z</time>
      </trkpt>
      <trkpt lat="41.75708" lon="8.75354">
        <ele>456.76</ele>
        <time>2022-04-26T13:09:00Z</time>
      </trkpt>
      <trkpt lat="41.75708" lon="8.75352">
        <ele>456.28</ele>
        <time>2022-04-26T13:09:01Z</time>
      </trkpt>
      <trkpt lat="41.75707" lon="8.7535">
        <ele>456.28</ele>
        <time>2022-04-26T13:09:02Z</time>
      </trkpt>
      <trkpt lat="41.75706" lon="8.75348">
        <ele>456.28</ele>
        <time>2022-04-26T13:09:03Z</time>
      </trkpt>
      <trkpt lat="41.75701" lon="8.75344">
        <ele>454.84</ele>
        <time>2022-04-26T13:09:07Z</time>
      </trkpt>
      <trkpt lat="41.75697" lon="8.75334">
        <ele>453.4</ele>
        <time>2022-04-26T13:09:19Z</time>
      </trkpt>
      <trkpt lat="41.75691" lon="8.75327">
        <ele>450.03</ele>
        <time>2022-04-26T13:09:27Z</time>
      </trkpt>
      <trkpt lat="41.75682" lon="8.7531">
        <ele>448.11</ele>
        <time>2022-04-26T13:09:42Z</time>
      </trkpt>
      <trkpt lat="41.75674" lon="8.75297">
        <ele>446.19</ele>
        <time>2022-04-26T13:09:52Z</time>
      </trkpt>
      <trkpt lat="41.75673" lon="8.75294">
        <ele>446.19</ele>
        <time>2022-04-26T13:09:53Z</time>
      </trkpt>
      <trkpt lat="41.75671" lon="8.75291">
        <ele>445.23</ele>
        <time>2022-04-26T13:09:54Z</time>
      </trkpt>
      <trkpt lat="41.75669" lon="8.75289">
        <ele>445.71</ele>
        <time>2022-04-26T13:09:55Z</time>
      </trkpt>
      <trkpt lat="41.75668" lon="8.75287">
        <ele>444.75</ele>
        <time>2022-04-26T13:09:56Z</time>
      </trkpt>
      <trkpt lat="41.75665" lon="8.75284">
        <ele>444.27</ele>
        <time>2022-04-26T13:09:58Z</time>
      </trkpt>
      <trkpt lat="41.7566" lon="8.7528">
        <ele>442.34</ele>
        <time>2022-04-26T13:10:03Z</time>
      </trkpt>
      <trkpt lat="41.7566" lon="8.75278">
        <ele>441.86</ele>
        <time>2022-04-26T13:10:04Z</time>
      </trkpt>
      <trkpt lat="41.75655" lon="8.75267">
        <ele>438.98</ele>
        <time>2022-04-26T13:10:14Z</time>
      </trkpt>
      <trkpt lat="41.75652" lon="8.75263">
        <ele>438.5</ele>
        <time>2022-04-26T13:10:16Z</time>
      </trkpt>
      <trkpt lat="41.75643" lon="8.75258">
        <ele>436.1</ele>
        <time>2022-04-26T13:10:22Z</time>
      </trkpt>
      <trkpt lat="41.75636" lon="8.7525">
        <ele>432.73</ele>
        <time>2022-04-26T13:10:30Z</time>
      </trkpt>
      <trkpt lat="41.75635" lon="8.7525">
        <ele>432.73</ele>
        <time>2022-04-26T13:10:31Z</time>
      </trkpt>
      <trkpt lat="41.75632" lon="8.75257">
        <ele>429.85</ele>
        <time>2022-04-26T13:10:45Z</time>
      </trkpt>
      <trkpt lat="41.7563" lon="8.75267">
        <ele>428.4</ele>
        <time>2022-04-26T13:10:52Z</time>
      </trkpt>
      <trkpt lat="41.7563" lon="8.75288">
        <ele>425.52</ele>
        <time>2022-04-26T13:11:05Z</time>
      </trkpt>
      <trkpt lat="41.75625" lon="8.75299">
        <ele>422.64</ele>
        <time>2022-04-26T13:11:17Z</time>
      </trkpt>
      <trkpt lat="41.75619" lon="8.75302">
        <ele>419.27</ele>
        <time>2022-04-26T13:11:29Z</time>
      </trkpt>
      <trkpt lat="41.75617" lon="8.75301">
        <ele>418.31</ele>
        <time>2022-04-26T13:11:32Z</time>
      </trkpt>
      <trkpt lat="41.7561" lon="8.75317">
        <ele>414.95</ele>
        <time>2022-04-26T13:11:45Z</time>
      </trkpt>
      <trkpt lat="41.7561" lon="8.7534">
        <ele>412.06</ele>
        <time>2022-04-26T13:12:00Z</time>
      </trkpt>
      <trkpt lat="41.75605" lon="8.75354">
        <ele>409.66</ele>
        <time>2022-04-26T13:12:10Z</time>
      </trkpt>
      <trkpt lat="41.756" lon="8.75354">
        <ele>406.29</ele>
        <time>2022-04-26T13:12:21Z</time>
      </trkpt>
      <trkpt lat="41.75594" lon="8.7537">
        <ele>403.41</ele>
        <time>2022-04-26T13:12:35Z</time>
      </trkpt>
      <trkpt lat="41.75592" lon="8.75388">
        <ele>400.53</ele>
        <time>2022-04-26T13:12:48Z</time>
      </trkpt>
      <trkpt lat="41.75592" lon="8.75391">
        <ele>400.05</ele>
        <time>2022-04-26T13:12:50Z</time>
      </trkpt>
      <trkpt lat="41.75585" lon="8.75392">
        <ele>397.16</ele>
        <time>2022-04-26T13:13:01Z</time>
      </trkpt>
      <trkpt lat="41.75581" lon="8.75399">
        <ele>393.8</ele>
        <time>2022-04-26T13:13:09Z</time>
      </trkpt>
      <trkpt lat="41.75573" lon="8.75399">
        <ele>392.36</ele>
        <time>2022-04-26T13:13:23Z</time>
      </trkpt>
      <trkpt lat="41.75569" lon="8.7539">
        <ele>390.91</ele>
        <time>2022-04-26T13:13:32Z</time>
      </trkpt>
      <trkpt lat="41.75567" lon="8.75387">
        <ele>389.95</ele>
        <time>2022-04-26T13:13:35Z</time>
      </trkpt>
      <trkpt lat="41.75557" lon="8.75388">
        <ele>386.11</ele>
        <time>2022-04-26T13:13:48Z</time>
      </trkpt>
      <trkpt lat="41.7555" lon="8.75404">
        <ele>382.74</ele>
        <time>2022-04-26T13:14:03Z</time>
      </trkpt>
      <trkpt lat="41.7555" lon="8.75406">
        <ele>382.74</ele>
        <time>2022-04-26T13:14:04Z</time>
      </trkpt>
      <trkpt lat="41.75549" lon="8.75408">
        <ele>382.26</ele>
        <time>2022-04-26T13:14:05Z</time>
      </trkpt>
      <trkpt lat="41.75549" lon="8.7541">
        <ele>382.26</ele>
        <time>2022-04-26T13:14:06Z</time>
      </trkpt>
      <trkpt lat="41.75544" lon="8.75418">
        <ele>380.82</ele>
        <time>2022-04-26T13:14:14Z</time>
      </trkpt>
      <trkpt lat="41.75543" lon="8.75418">
        <ele>380.34</ele>
        <time>2022-04-26T13:14:15Z</time>
      </trkpt>
      <trkpt lat="41.75537" lon="8.75417">
        <ele>377.45</ele>
        <time>2022-04-26T13:14:28Z</time>
      </trkpt>
      <trkpt lat="41.75528" lon="8.7543">
        <ele>374.57</ele>
        <time>2022-04-26T13:14:43Z</time>
      </trkpt>
      <trkpt lat="41.7552" lon="8.75434">
        <ele>371.69</ele>
        <time>2022-04-26T13:14:56Z</time>
      </trkpt>
      <trkpt lat="41.75514" lon="8.75444">
        <ele>368.32</ele>
        <time>2022-04-26T13:15:09Z</time>
      </trkpt>
      <trkpt lat="41.75509" lon="8.75444">
        <ele>366.88</ele>
        <time>2022-04-26T13:15:15Z</time>
      </trkpt>
      <trkpt lat="41.75502" lon="8.75452">
        <ele>364.96</ele>
        <time>2022-04-26T13:15:24Z</time>
      </trkpt>
      <trkpt lat="41.75494" lon="8.7546">
        <ele>361.11</ele>
        <time>2022-04-26T13:15:35Z</time>
      </trkpt>
      <trkpt lat="41.75488" lon="8.75459">
        <ele>358.71</ele>
        <time>2022-04-26T13:15:48Z</time>
      </trkpt>
      <trkpt lat="41.75481" lon="8.7547">
        <ele>355.34</ele>
        <time>2022-04-26T13:16:02Z</time>
      </trkpt>
      <trkpt lat="41.75471" lon="8.75467">
        <ele>352.46</ele>
        <time>2022-04-26T13:16:15Z</time>
      </trkpt>
      <trkpt lat="41.75465" lon="8.75469">
        <ele>349.1</ele>
        <time>2022-04-26T13:16:26Z</time>
      </trkpt>
      <trkpt lat="41.75456" lon="8.75482">
        <ele>347.17</ele>
        <time>2022-04-26T13:16:41Z</time>
      </trkpt>
      <trkpt lat="41.75451" lon="8.75497">
        <ele>344.77</ele>
        <time>2022-04-26T13:16:54Z</time>
      </trkpt>
      <trkpt lat="41.75446" lon="8.75502">
        <ele>343.33</ele>
        <time>2022-04-26T13:17:01Z</time>
      </trkpt>
      <trkpt lat="41.75444" lon="8.75497">
        <ele>342.37</ele>
        <time>2022-04-26T13:17:14Z</time>
      </trkpt>
      <trkpt lat="41.75439" lon="8.75503">
        <ele>339</ele>
        <time>2022-04-26T13:17:28Z</time>
      </trkpt>
      <trkpt lat="41.75431" lon="8.75505">
        <ele>337.08</ele>
        <time>2022-04-26T13:17:41Z</time>
      </trkpt>
      <trkpt lat="41.75431" lon="8.75504">
        <ele>337.08</ele>
        <time>2022-04-26T13:17:42Z</time>
      </trkpt>
      <trkpt lat="41.75424" lon="8.75498">
        <ele>334.2</ele>
        <time>2022-04-26T13:17:55Z</time>
      </trkpt>
      <trkpt lat="41.7542" lon="8.7551">
        <ele>331.79</ele>
        <time>2022-04-26T13:18:10Z</time>
      </trkpt>
      <trkpt lat="41.75419" lon="8.75515">
        <ele>331.79</ele>
        <time>2022-04-26T13:18:14Z</time>
      </trkpt>
      <trkpt lat="41.7541" lon="8.75527">
        <ele>329.39</ele>
        <time>2022-04-26T13:18:28Z</time>
      </trkpt>
      <trkpt lat="41.75402" lon="8.75537">
        <ele>326.99</ele>
        <time>2022-04-26T13:18:39Z</time>
      </trkpt>
      <trkpt lat="41.754" lon="8.75535">
        <ele>326.02</ele>
        <time>2022-04-26T13:18:44Z</time>
      </trkpt>
      <trkpt lat="41.75398" lon="8.75533">
        <ele>325.06</ele>
        <time>2022-04-26T13:18:46Z</time>
      </trkpt>
      <trkpt lat="41.75398" lon="8.75532">
        <ele>325.06</ele>
        <time>2022-04-26T13:18:47Z</time>
      </trkpt>
      <trkpt lat="41.75394" lon="8.75535">
        <ele>324.1</ele>
        <time>2022-04-26T13:18:52Z</time>
      </trkpt>
      <trkpt lat="41.75394" lon="8.75537">
        <ele>324.1</ele>
        <time>2022-04-26T13:18:53Z</time>
      </trkpt>
      <trkpt lat="41.7538" lon="8.75536">
        <ele>320.74</ele>
        <time>2022-04-26T13:19:07Z</time>
      </trkpt>
      <trkpt lat="41.7537" lon="8.75541">
        <ele>318.33</ele>
        <time>2022-04-26T13:19:20Z</time>
      </trkpt>
      <trkpt lat="41.75363" lon="8.75556">
        <ele>316.41</ele>
        <time>2022-04-26T13:19:35Z</time>
      </trkpt>
      <trkpt lat="41.75353" lon="8.75571">
        <ele>314.01</ele>
        <time>2022-04-26T13:19:51Z</time>
      </trkpt>
      <trkpt lat="41.75343" lon="8.75578">
        <ele>312.57</ele>
        <time>2022-04-26T13:20:07Z</time>
      </trkpt>
      <trkpt lat="41.75336" lon="8.75586">
        <ele>309.2</ele>
        <time>2022-04-26T13:20:16Z</time>
      </trkpt>
      <trkpt lat="41.75334" lon="8.75592">
        <ele>308.72</ele>
        <time>2022-04-26T13:20:20Z</time>
      </trkpt>
      <trkpt lat="41.75327" lon="8.75606">
        <ele>306.8</ele>
        <time>2022-04-26T13:20:32Z</time>
      </trkpt>
      <trkpt lat="41.75326" lon="8.75608">
        <ele>306.32</ele>
        <time>2022-04-26T13:20:33Z</time>
      </trkpt>
      <trkpt lat="41.75325" lon="8.7561">
        <ele>305.84</ele>
        <time>2022-04-26T13:20:34Z</time>
      </trkpt>
      <trkpt lat="41.75314" lon="8.75625">
        <ele>303.91</ele>
        <time>2022-04-26T13:20:46Z</time>
      </trkpt>
      <trkpt lat="41.75309" lon="8.75637">
        <ele>301.03</ele>
        <time>2022-04-26T13:20:59Z</time>
      </trkpt>
      <trkpt lat="41.75302" lon="8.75652">
        <ele>299.11</ele>
        <time>2022-04-26T13:21:17Z</time>
      </trkpt>
      <trkpt lat="41.75298" lon="8.75659">
        <ele>297.18</ele>
        <time>2022-04-26T13:21:31Z</time>
      </trkpt>
      <trkpt lat="41.75298" lon="8.75663">
        <ele>298.63</ele>
        <time>2022-04-26T13:21:47Z</time>
      </trkpt>
      <trkpt lat="41.75297" lon="8.75668">
        <ele>297.18</ele>
        <time>2022-04-26T13:22:01Z</time>
      </trkpt>
      <trkpt lat="41.75294" lon="8.75669">
        <ele>296.22</ele>
        <time>2022-04-26T13:22:38Z</time>
      </trkpt>
      <trkpt lat="41.75294" lon="8.75671">
        <ele>295.74</ele>
        <time>2022-04-26T13:23:17Z</time>
      </trkpt>
      <trkpt lat="41.75296" lon="8.75669">
        <ele>296.22</ele>
        <time>2022-04-26T13:24:00Z</time>
      </trkpt>
      <trkpt lat="41.75295" lon="8.75669">
        <ele>296.7</ele>
        <time>2022-04-26T13:24:35Z</time>
      </trkpt>
      <trkpt lat="41.75294" lon="8.75671">
        <ele>296.7</ele>
        <time>2022-04-26T13:25:20Z</time>
      </trkpt>
      <trkpt lat="41.75292" lon="8.75666">
        <ele>296.7</ele>
        <time>2022-04-26T13:25:52Z</time>
      </trkpt>
      <trkpt lat="41.75297" lon="8.75671">
        <ele>296.7</ele>
        <time>2022-04-26T13:26:36Z</time>
      </trkpt>
      <trkpt lat="41.75293" lon="8.7567">
        <ele>296.22</ele>
        <time>2022-04-26T13:27:06Z</time>
      </trkpt>
      <trkpt lat="41.75293" lon="8.75671">
        <ele>297.67</ele>
        <time>2022-04-26T13:27:37Z</time>
      </trkpt>
      <trkpt lat="41.75293" lon="8.75672">
        <ele>296.7</ele>
        <time>2022-04-26T13:28:16Z</time>
      </trkpt>
      <trkpt lat="41.75291" lon="8.75672">
        <ele>296.7</ele>
        <time>2022-04-26T13:28:51Z</time>
      </trkpt>
      <trkpt lat="41.75293" lon="8.75672">
        <ele>297.18</ele>
        <time>2022-04-26T13:29:31Z</time>
      </trkpt>
      <trkpt lat="41.7529" lon="8.75666">
        <ele>298.15</ele>
        <time>2022-04-26T13:30:09Z</time>
      </trkpt>
      <trkpt lat="41.7529" lon="8.75666">
        <ele>297.67</ele>
        <time>2022-04-26T13:30:40Z</time>
      </trkpt>
      <trkpt lat="41.75294" lon="8.75675">
        <ele>298.15</ele>
        <time>2022-04-26T13:31:19Z</time>
      </trkpt>
      <trkpt lat="41.75293" lon="8.75674">
        <ele>297.67</ele>
        <time>2022-04-26T13:31:49Z</time>
      </trkpt>
      <trkpt lat="41.75291" lon="8.75671">
        <ele>297.67</ele>
        <time>2022-04-26T13:32:27Z</time>
      </trkpt>
      <trkpt lat="41.7529" lon="8.75673">
        <ele>297.67</ele>
        <time>2022-04-26T13:33:01Z</time>
      </trkpt>
      <trkpt lat="41.75292" lon="8.75672">
        <ele>297.67</ele>
        <time>2022-04-26T13:33:39Z</time>
      </trkpt>
      <trkpt lat="41.75292" lon="8.75672">
        <ele>297.67</ele>
        <time>2022-04-26T13:34:16Z</time>
      </trkpt>
      <trkpt lat="41.75291" lon="8.75669">
        <ele>297.18</ele>
        <time>2022-04-26T13:34:48Z</time>
      </trkpt>
      <trkpt lat="41.75293" lon="8.75669">
        <ele>297.67</ele>
        <time>2022-04-26T13:35:29Z</time>
      </trkpt>
      <trkpt lat="41.75292" lon="8.75666">
        <ele>297.67</ele>
        <time>2022-04-26T13:36:06Z</time>
      </trkpt>
      <trkpt lat="41.75294" lon="8.75673">
        <ele>298.15</ele>
        <time>2022-04-26T13:36:25Z</time>
      </trkpt>
      <trkpt lat="41.7529" lon="8.7568">
        <ele>296.7</ele>
        <time>2022-04-26T13:36:42Z</time>
      </trkpt>
      <trkpt lat="41.75286" lon="8.75691">
        <ele>293.34</ele>
        <time>2022-04-26T13:36:54Z</time>
      </trkpt>
      <trkpt lat="41.75279" lon="8.75706">
        <ele>289.97</ele>
        <time>2022-04-26T13:37:07Z</time>
      </trkpt>
      <trkpt lat="41.75273" lon="8.7572">
        <ele>288.05</ele>
        <time>2022-04-26T13:37:25Z</time>
      </trkpt>
      <trkpt lat="41.75267" lon="8.75733">
        <ele>285.17</ele>
        <time>2022-04-26T13:37:35Z</time>
      </trkpt>
      <trkpt lat="41.75256" lon="8.75754">
        <ele>281.8</ele>
        <time>2022-04-26T13:37:49Z</time>
      </trkpt>
      <trkpt lat="41.75254" lon="8.75762">
        <ele>281.32</ele>
        <time>2022-04-26T13:37:53Z</time>
      </trkpt>
      <trkpt lat="41.75251" lon="8.75772">
        <ele>280.84</ele>
        <time>2022-04-26T13:37:59Z</time>
      </trkpt>
      <trkpt lat="41.75253" lon="8.75777">
        <ele>279.4</ele>
        <time>2022-04-26T13:38:12Z</time>
      </trkpt>
      <trkpt lat="41.75245" lon="8.75792">
        <ele>277</ele>
        <time>2022-04-26T13:38:27Z</time>
      </trkpt>
      <trkpt lat="41.75238" lon="8.758">
        <ele>276.04</ele>
        <time>2022-04-26T13:38:34Z</time>
      </trkpt>
      <trkpt lat="41.75224" lon="8.75815">
        <ele>273.15</ele>
        <time>2022-04-26T13:38:50Z</time>
      </trkpt>
      <trkpt lat="41.75211" lon="8.75826">
        <ele>269.79</ele>
        <time>2022-04-26T13:39:03Z</time>
      </trkpt>
      <trkpt lat="41.75202" lon="8.75833">
        <ele>268.35</ele>
        <time>2022-04-26T13:39:11Z</time>
      </trkpt>
      <trkpt lat="41.752" lon="8.75834">
        <ele>267.86</ele>
        <time>2022-04-26T13:39:12Z</time>
      </trkpt>
      <trkpt lat="41.75198" lon="8.75837">
        <ele>266.9</ele>
        <time>2022-04-26T13:39:14Z</time>
      </trkpt>
      <trkpt lat="41.75185" lon="8.75848">
        <ele>263.54</ele>
        <time>2022-04-26T13:39:26Z</time>
      </trkpt>
      <trkpt lat="41.75174" lon="8.75857">
        <ele>260.65</ele>
        <time>2022-04-26T13:39:38Z</time>
      </trkpt>
      <trkpt lat="41.75169" lon="8.75871">
        <ele>257.77</ele>
        <time>2022-04-26T13:39:49Z</time>
      </trkpt>
      <trkpt lat="41.75169" lon="8.75873">
        <ele>257.29</ele>
        <time>2022-04-26T13:39:50Z</time>
      </trkpt>
      <trkpt lat="41.7516" lon="8.75879">
        <ele>254.89</ele>
        <time>2022-04-26T13:39:58Z</time>
      </trkpt>
      <trkpt lat="41.75158" lon="8.7588">
        <ele>254.41</ele>
        <time>2022-04-26T13:39:59Z</time>
      </trkpt>
      <trkpt lat="41.75146" lon="8.75887">
        <ele>251.52</ele>
        <time>2022-04-26T13:40:08Z</time>
      </trkpt>
      <trkpt lat="41.75138" lon="8.7589">
        <ele>249.6</ele>
        <time>2022-04-26T13:40:14Z</time>
      </trkpt>
      <trkpt lat="41.75133" lon="8.75894">
        <ele>248.16</ele>
        <time>2022-04-26T13:40:18Z</time>
      </trkpt>
      <trkpt lat="41.75131" lon="8.75894">
        <ele>247.68</ele>
        <time>2022-04-26T13:40:19Z</time>
      </trkpt>
      <trkpt lat="41.75127" lon="8.75895">
        <ele>245.75</ele>
        <time>2022-04-26T13:40:22Z</time>
      </trkpt>
      <trkpt lat="41.75124" lon="8.75899">
        <ele>244.31</ele>
        <time>2022-04-26T13:40:25Z</time>
      </trkpt>
      <trkpt lat="41.75114" lon="8.75905">
        <ele>240.95</ele>
        <time>2022-04-26T13:40:34Z</time>
      </trkpt>
      <trkpt lat="41.75108" lon="8.7591">
        <ele>239.02</ele>
        <time>2022-04-26T13:40:40Z</time>
      </trkpt>
      <trkpt lat="41.75094" lon="8.75916">
        <ele>236.14</ele>
        <time>2022-04-26T13:40:55Z</time>
      </trkpt>
      <trkpt lat="41.75083" lon="8.75924">
        <ele>233.26</ele>
        <time>2022-04-26T13:41:06Z</time>
      </trkpt>
      <trkpt lat="41.75081" lon="8.75924">
        <ele>232.3</ele>
        <time>2022-04-26T13:41:08Z</time>
      </trkpt>
      <trkpt lat="41.75079" lon="8.75925">
        <ele>232.3</ele>
        <time>2022-04-26T13:41:09Z</time>
      </trkpt>
      <trkpt lat="41.7507" lon="8.7593">
        <ele>229.41</ele>
        <time>2022-04-26T13:41:15Z</time>
      </trkpt>
      <trkpt lat="41.75068" lon="8.7593">
        <ele>228.93</ele>
        <time>2022-04-26T13:41:16Z</time>
      </trkpt>
      <trkpt lat="41.75059" lon="8.75936">
        <ele>226.53</ele>
        <time>2022-04-26T13:41:24Z</time>
      </trkpt>
      <trkpt lat="41.75046" lon="8.75943">
        <ele>224.12</ele>
        <time>2022-04-26T13:41:34Z</time>
      </trkpt>
      <trkpt lat="41.7504" lon="8.75951">
        <ele>222.68</ele>
        <time>2022-04-26T13:41:44Z</time>
      </trkpt>
      <trkpt lat="41.75039" lon="8.75953">
        <ele>223.16</ele>
        <time>2022-04-26T13:41:45Z</time>
      </trkpt>
      <trkpt lat="41.75039" lon="8.75958">
        <ele>222.68</ele>
        <time>2022-04-26T13:41:47Z</time>
      </trkpt>
      <trkpt lat="41.75039" lon="8.7596">
        <ele>222.68</ele>
        <time>2022-04-26T13:41:48Z</time>
      </trkpt>
      <trkpt lat="41.75039" lon="8.75962">
        <ele>222.68</ele>
        <time>2022-04-26T13:41:49Z</time>
      </trkpt>
      <trkpt lat="41.75039" lon="8.75963">
        <ele>222.2</ele>
        <time>2022-04-26T13:41:50Z</time>
      </trkpt>
      <trkpt lat="41.75039" lon="8.75968">
        <ele>222.68</ele>
        <time>2022-04-26T13:41:55Z</time>
      </trkpt>
      <trkpt lat="41.7504" lon="8.7597">
        <ele>222.2</ele>
        <time>2022-04-26T13:41:56Z</time>
      </trkpt>
      <trkpt lat="41.75041" lon="8.75972">
        <ele>221.24</ele>
        <time>2022-04-26T13:41:57Z</time>
      </trkpt>
      <trkpt lat="41.75042" lon="8.75975">
        <ele>221.24</ele>
        <time>2022-04-26T13:41:58Z</time>
      </trkpt>
      <trkpt lat="41.75043" lon="8.75977">
        <ele>221.72</ele>
        <time>2022-04-26T13:41:59Z</time>
      </trkpt>
      <trkpt lat="41.75049" lon="8.75996">
        <ele>220.28</ele>
        <time>2022-04-26T13:42:09Z</time>
      </trkpt>
      <trkpt lat="41.75048" lon="8.76007">
        <ele>218.84</ele>
        <time>2022-04-26T13:42:19Z</time>
      </trkpt>
      <trkpt lat="41.75048" lon="8.76009">
        <ele>218.84</ele>
        <time>2022-04-26T13:42:20Z</time>
      </trkpt>
      <trkpt lat="41.75048" lon="8.76011">
        <ele>218.84</ele>
        <time>2022-04-26T13:42:21Z</time>
      </trkpt>
      <trkpt lat="41.75048" lon="8.76013">
        <ele>217.88</ele>
        <time>2022-04-26T13:42:22Z</time>
      </trkpt>
      <trkpt lat="41.75048" lon="8.76016">
        <ele>218.36</ele>
        <time>2022-04-26T13:42:23Z</time>
      </trkpt>
      <trkpt lat="41.75051" lon="8.76032">
        <ele>216.91</ele>
        <time>2022-04-26T13:42:34Z</time>
      </trkpt>
      <trkpt lat="41.75052" lon="8.76033">
        <ele>216.91</ele>
        <time>2022-04-26T13:42:35Z</time>
      </trkpt>
      <trkpt lat="41.75054" lon="8.76042">
        <ele>216.91</ele>
        <time>2022-04-26T13:42:47Z</time>
      </trkpt>
      <trkpt lat="41.75054" lon="8.76043">
        <ele>217.4</ele>
        <time>2022-04-26T13:43:06Z</time>
      </trkpt>
      <trkpt lat="41.75055" lon="8.76039">
        <ele>217.4</ele>
        <time>2022-04-26T13:43:36Z</time>
      </trkpt>
      <trkpt lat="41.75052" lon="8.76039">
        <ele>216.91</ele>
        <time>2022-04-26T13:43:51Z</time>
      </trkpt>
      <trkpt lat="41.75053" lon="8.76041">
        <ele>217.4</ele>
        <time>2022-04-26T13:44:22Z</time>
      </trkpt>
      <trkpt lat="41.75054" lon="8.76039">
        <ele>217.4</ele>
        <time>2022-04-26T13:44:50Z</time>
      </trkpt>
      <trkpt lat="41.75054" lon="8.76041">
        <ele>216.91</ele>
        <time>2022-04-26T13:44:51Z</time>
      </trkpt>
      <trkpt lat="41.75057" lon="8.7606">
        <ele>216.43</ele>
        <time>2022-04-26T13:45:03Z</time>
      </trkpt>
      <trkpt lat="41.75058" lon="8.76073">
        <ele>214.99</ele>
        <time>2022-04-26T13:45:16Z</time>
      </trkpt>
      <trkpt lat="41.75057" lon="8.76078">
        <ele>213.55</ele>
        <time>2022-04-26T13:45:28Z</time>
      </trkpt>
      <trkpt lat="41.75059" lon="8.76079">
        <ele>215.47</ele>
        <time>2022-04-26T13:45:52Z</time>
      </trkpt>
      <trkpt lat="41.75053" lon="8.76083">
        <ele>215.95</ele>
        <time>2022-04-26T13:45:58Z</time>
      </trkpt>
      <trkpt lat="41.75048" lon="8.76086">
        <ele>214.99</ele>
        <time>2022-04-26T13:46:02Z</time>
      </trkpt>
      <trkpt lat="41.75031" lon="8.76103">
        <ele>215.47</ele>
        <time>2022-04-26T13:46:19Z</time>
      </trkpt>
      <trkpt lat="41.75015" lon="8.76119">
        <ele>215.95</ele>
        <time>2022-04-26T13:46:35Z</time>
      </trkpt>
      <trkpt lat="41.75013" lon="8.76124">
        <ele>215.95</ele>
        <time>2022-04-26T13:46:39Z</time>
      </trkpt>
      <trkpt lat="41.75012" lon="8.76127">
        <ele>216.43</ele>
        <time>2022-04-26T13:46:41Z</time>
      </trkpt>
      <trkpt lat="41.75015" lon="8.76131">
        <ele>215.47</ele>
        <time>2022-04-26T13:46:45Z</time>
      </trkpt>
      <trkpt lat="41.75035" lon="8.7614">
        <ele>214.99</ele>
        <time>2022-04-26T13:47:02Z</time>
      </trkpt>
      <trkpt lat="41.75053" lon="8.76154">
        <ele>213.55</ele>
        <time>2022-04-26T13:47:19Z</time>
      </trkpt>
      <trkpt lat="41.75074" lon="8.76175">
        <ele>210.19</ele>
        <time>2022-04-26T13:47:38Z</time>
      </trkpt>
      <trkpt lat="41.75075" lon="8.76181">
        <ele>209.22</ele>
        <time>2022-04-26T13:47:41Z</time>
      </trkpt>
      <trkpt lat="41.75069" lon="8.76199">
        <ele>204.9</ele>
        <time>2022-04-26T13:47:50Z</time>
      </trkpt>
      <trkpt lat="41.75068" lon="8.76201">
        <ele>204.9</ele>
        <time>2022-04-26T13:47:51Z</time>
      </trkpt>
      <trkpt lat="41.75064" lon="8.76219">
        <ele>202.49</ele>
        <time>2022-04-26T13:48:00Z</time>
      </trkpt>
      <trkpt lat="41.75069" lon="8.76247">
        <ele>200.09</ele>
        <time>2022-04-26T13:48:16Z</time>
      </trkpt>
      <trkpt lat="41.75074" lon="8.76267">
        <ele>198.17</ele>
        <time>2022-04-26T13:48:25Z</time>
      </trkpt>
      <trkpt lat="41.75074" lon="8.76282">
        <ele>196.73</ele>
        <time>2022-04-26T13:48:38Z</time>
      </trkpt>
      <trkpt lat="41.75077" lon="8.76294">
        <ele>195.28</ele>
        <time>2022-04-26T13:48:46Z</time>
      </trkpt>
      <trkpt lat="41.75078" lon="8.76297">
        <ele>195.28</ele>
        <time>2022-04-26T13:48:47Z</time>
      </trkpt>
      <trkpt lat="41.75079" lon="8.76299">
        <ele>195.77</ele>
        <time>2022-04-26T13:48:48Z</time>
      </trkpt>
      <trkpt lat="41.7508" lon="8.76302">
        <ele>194.8</ele>
        <time>2022-04-26T13:48:49Z</time>
      </trkpt>
      <trkpt lat="41.75081" lon="8.76304">
        <ele>195.28</ele>
        <time>2022-04-26T13:48:50Z</time>
      </trkpt>
      <trkpt lat="41.75082" lon="8.76306">
        <ele>195.28</ele>
        <time>2022-04-26T13:48:51Z</time>
      </trkpt>
      <trkpt lat="41.75087" lon="8.76326">
        <ele>194.8</ele>
        <time>2022-04-26T13:49:00Z</time>
      </trkpt>
      <trkpt lat="41.75087" lon="8.7633">
        <ele>193.84</ele>
        <time>2022-04-26T13:49:04Z</time>
      </trkpt>
      <trkpt lat="41.75089" lon="8.76327">
        <ele>195.28</ele>
        <time>2022-04-26T13:49:20Z</time>
      </trkpt>
      <trkpt lat="41.75092" lon="8.76329">
        <ele>194.32</ele>
        <time>2022-04-26T13:49:41Z</time>
      </trkpt>
      <trkpt lat="41.75095" lon="8.7635">
        <ele>193.84</ele>
        <time>2022-04-26T13:49:54Z</time>
      </trkpt>
      <trkpt lat="41.75097" lon="8.76366">
        <ele>192.4</ele>
        <time>2022-04-26T13:50:07Z</time>
      </trkpt>
      <trkpt lat="41.75098" lon="8.76368">
        <ele>191.92</ele>
        <time>2022-04-26T13:50:08Z</time>
      </trkpt>
      <trkpt lat="41.75098" lon="8.7637">
        <ele>191.92</ele>
        <time>2022-04-26T13:50:09Z</time>
      </trkpt>
      <trkpt lat="41.75099" lon="8.76372">
        <ele>191.44</ele>
        <time>2022-04-26T13:50:10Z</time>
      </trkpt>
      <trkpt lat="41.751" lon="8.76375">
        <ele>191.44</ele>
        <time>2022-04-26T13:50:11Z</time>
      </trkpt>
      <trkpt lat="41.75105" lon="8.76394">
        <ele>190.96</ele>
        <time>2022-04-26T13:50:24Z</time>
      </trkpt>
      <trkpt lat="41.75112" lon="8.7642">
        <ele>189.04</ele>
        <time>2022-04-26T13:50:40Z</time>
      </trkpt>
      <trkpt lat="41.75118" lon="8.76445">
        <ele>188.56</ele>
        <time>2022-04-26T13:50:52Z</time>
      </trkpt>
      <trkpt lat="41.75127" lon="8.76478">
        <ele>187.59</ele>
        <time>2022-04-26T13:51:13Z</time>
      </trkpt>
      <trkpt lat="41.75137" lon="8.76509">
        <ele>188.08</ele>
        <time>2022-04-26T13:51:33Z</time>
      </trkpt>
      <trkpt lat="41.75148" lon="8.76531">
        <ele>187.59</ele>
        <time>2022-04-26T13:51:50Z</time>
      </trkpt>
      <trkpt lat="41.75152" lon="8.76549">
        <ele>185.19</ele>
        <time>2022-04-26T13:52:04Z</time>
      </trkpt>
      <trkpt lat="41.75152" lon="8.76551">
        <ele>185.19</ele>
        <time>2022-04-26T13:52:05Z</time>
      </trkpt>
      <trkpt lat="41.75151" lon="8.76554">
        <ele>185.19</ele>
        <time>2022-04-26T13:52:06Z</time>
      </trkpt>
      <trkpt lat="41.75151" lon="8.76555">
        <ele>185.67</ele>
        <time>2022-04-26T13:52:07Z</time>
      </trkpt>
      <trkpt lat="41.7515" lon="8.76557">
        <ele>185.67</ele>
        <time>2022-04-26T13:52:08Z</time>
      </trkpt>
      <trkpt lat="41.75149" lon="8.76558">
        <ele>185.67</ele>
        <time>2022-04-26T13:52:09Z</time>
      </trkpt>
      <trkpt lat="41.75136" lon="8.76566">
        <ele>186.63</ele>
        <time>2022-04-26T13:52:22Z</time>
      </trkpt>
      <trkpt lat="41.75133" lon="8.76572">
        <ele>185.67</ele>
        <time>2022-04-26T13:52:34Z</time>
      </trkpt>
      <trkpt lat="41.75133" lon="8.76573">
        <ele>185.67</ele>
        <time>2022-04-26T13:52:35Z</time>
      </trkpt>
      <trkpt lat="41.75133" lon="8.76575">
        <ele>185.19</ele>
        <time>2022-04-26T13:52:36Z</time>
      </trkpt>
      <trkpt lat="41.75132" lon="8.76576">
        <ele>184.71</ele>
        <time>2022-04-26T13:52:37Z</time>
      </trkpt>
      <trkpt lat="41.75131" lon="8.76577">
        <ele>184.23</ele>
        <time>2022-04-26T13:52:38Z</time>
      </trkpt>
      <trkpt lat="41.75133" lon="8.76577">
        <ele>184.23</ele>
        <time>2022-04-26T13:52:48Z</time>
      </trkpt>
      <trkpt lat="41.75131" lon="8.76585">
        <ele>183.27</ele>
        <time>2022-04-26T13:53:11Z</time>
      </trkpt>
      <trkpt lat="41.75132" lon="8.76586">
        <ele>183.27</ele>
        <time>2022-04-26T13:53:12Z</time>
      </trkpt>
      <trkpt lat="41.75131" lon="8.76587">
        <ele>183.27</ele>
        <time>2022-04-26T13:53:13Z</time>
      </trkpt>
      <trkpt lat="41.75131" lon="8.76589">
        <ele>183.27</ele>
        <time>2022-04-26T13:53:14Z</time>
      </trkpt>
      <trkpt lat="41.7513" lon="8.76591">
        <ele>182.79</ele>
        <time>2022-04-26T13:53:15Z</time>
      </trkpt>
      <trkpt lat="41.75128" lon="8.76601">
        <ele>180.38</ele>
        <time>2022-04-26T13:53:26Z</time>
      </trkpt>
      <trkpt lat="41.75126" lon="8.76608">
        <ele>178.46</ele>
        <time>2022-04-26T13:53:34Z</time>
      </trkpt>
      <trkpt lat="41.75125" lon="8.76634">
        <ele>175.58</ele>
        <time>2022-04-26T13:53:48Z</time>
      </trkpt>
      <trkpt lat="41.75124" lon="8.76636">
        <ele>175.1</ele>
        <time>2022-04-26T13:53:49Z</time>
      </trkpt>
      <trkpt lat="41.75124" lon="8.76638">
        <ele>174.62</ele>
        <time>2022-04-26T13:53:50Z</time>
      </trkpt>
      <trkpt lat="41.75123" lon="8.7664">
        <ele>174.62</ele>
        <time>2022-04-26T13:53:51Z</time>
      </trkpt>
      <trkpt lat="41.75119" lon="8.76656">
        <ele>171.73</ele>
        <time>2022-04-26T13:54:01Z</time>
      </trkpt>
      <trkpt lat="41.75114" lon="8.76684">
        <ele>169.33</ele>
        <time>2022-04-26T13:54:16Z</time>
      </trkpt>
      <trkpt lat="41.75113" lon="8.76692">
        <ele>168.37</ele>
        <time>2022-04-26T13:54:21Z</time>
      </trkpt>
      <trkpt lat="41.75113" lon="8.76694">
        <ele>168.37</ele>
        <time>2022-04-26T13:54:22Z</time>
      </trkpt>
      <trkpt lat="41.75113" lon="8.76696">
        <ele>168.37</ele>
        <time>2022-04-26T13:54:23Z</time>
      </trkpt>
      <trkpt lat="41.75112" lon="8.76698">
        <ele>168.37</ele>
        <time>2022-04-26T13:54:24Z</time>
      </trkpt>
      <trkpt lat="41.75112" lon="8.767">
        <ele>168.37</ele>
        <time>2022-04-26T13:54:25Z</time>
      </trkpt>
      <trkpt lat="41.75109" lon="8.76725">
        <ele>165.96</ele>
        <time>2022-04-26T13:54:40Z</time>
      </trkpt>
      <trkpt lat="41.75103" lon="8.76742">
        <ele>164.52</ele>
        <time>2022-04-26T13:54:57Z</time>
      </trkpt>
      <trkpt lat="41.75101" lon="8.76744">
        <ele>164.52</ele>
        <time>2022-04-26T13:55:03Z</time>
      </trkpt>
      <trkpt lat="41.751" lon="8.76745">
        <ele>164.52</ele>
        <time>2022-04-26T13:55:04Z</time>
      </trkpt>
      <trkpt lat="41.75095" lon="8.76753">
        <ele>162.12</ele>
        <time>2022-04-26T13:55:17Z</time>
      </trkpt>
      <trkpt lat="41.75099" lon="8.76757">
        <ele>161.16</ele>
        <time>2022-04-26T13:55:35Z</time>
      </trkpt>
      <trkpt lat="41.75102" lon="8.76771">
        <ele>157.79</ele>
        <time>2022-04-26T13:55:47Z</time>
      </trkpt>
      <trkpt lat="41.75099" lon="8.76783">
        <ele>154.91</ele>
        <time>2022-04-26T13:56:02Z</time>
      </trkpt>
      <trkpt lat="41.75102" lon="8.76784">
        <ele>153.95</ele>
        <time>2022-04-26T13:56:18Z</time>
      </trkpt>
      <trkpt lat="41.75098" lon="8.76789">
        <ele>153.95</ele>
        <time>2022-04-26T13:56:32Z</time>
      </trkpt>
      <trkpt lat="41.75095" lon="8.7679">
        <ele>153.95</ele>
        <time>2022-04-26T13:56:44Z</time>
      </trkpt>
      <trkpt lat="41.75097" lon="8.76787">
        <ele>153.47</ele>
        <time>2022-04-26T13:57:02Z</time>
      </trkpt>
      <trkpt lat="41.75096" lon="8.76794">
        <ele>152.99</ele>
        <time>2022-04-26T13:57:23Z</time>
      </trkpt>
      <trkpt lat="41.75095" lon="8.76801">
        <ele>152.03</ele>
        <time>2022-04-26T13:57:28Z</time>
      </trkpt>
      <trkpt lat="41.75095" lon="8.76802">
        <ele>151.54</ele>
        <time>2022-04-26T13:57:29Z</time>
      </trkpt>
      <trkpt lat="41.75094" lon="8.76804">
        <ele>151.54</ele>
        <time>2022-04-26T13:57:30Z</time>
      </trkpt>
      <trkpt lat="41.75092" lon="8.76811">
        <ele>149.14</ele>
        <time>2022-04-26T13:57:36Z</time>
      </trkpt>
      <trkpt lat="41.75086" lon="8.76821">
        <ele>148.18</ele>
        <time>2022-04-26T13:57:44Z</time>
      </trkpt>
      <trkpt lat="41.75087" lon="8.76825">
        <ele>147.22</ele>
        <time>2022-04-26T13:57:46Z</time>
      </trkpt>
      <trkpt lat="41.75087" lon="8.76827">
        <ele>147.22</ele>
        <time>2022-04-26T13:57:47Z</time>
      </trkpt>
      <trkpt lat="41.75086" lon="8.76842">
        <ele>144.34</ele>
        <time>2022-04-26T13:57:58Z</time>
      </trkpt>
      <trkpt lat="41.75083" lon="8.76854">
        <ele>141.45</ele>
        <time>2022-04-26T13:58:08Z</time>
      </trkpt>
      <trkpt lat="41.75079" lon="8.76865">
        <ele>138.09</ele>
        <time>2022-04-26T13:58:17Z</time>
      </trkpt>
      <trkpt lat="41.75077" lon="8.76873">
        <ele>136.16</ele>
        <time>2022-04-26T13:58:23Z</time>
      </trkpt>
      <trkpt lat="41.75072" lon="8.7688">
        <ele>133.76</ele>
        <time>2022-04-26T13:58:32Z</time>
      </trkpt>
      <trkpt lat="41.75065" lon="8.76893">
        <ele>130.4</ele>
        <time>2022-04-26T13:58:44Z</time>
      </trkpt>
      <trkpt lat="41.75059" lon="8.76908">
        <ele>127.03</ele>
        <time>2022-04-26T13:58:57Z</time>
      </trkpt>
      <trkpt lat="41.75052" lon="8.76917">
        <ele>123.67</ele>
        <time>2022-04-26T13:59:09Z</time>
      </trkpt>
      <trkpt lat="41.75043" lon="8.76929">
        <ele>120.78</ele>
        <time>2022-04-26T13:59:21Z</time>
      </trkpt>
      <trkpt lat="41.75041" lon="8.76932">
        <ele>119.34</ele>
        <time>2022-04-26T13:59:24Z</time>
      </trkpt>
      <trkpt lat="41.75031" lon="8.76945">
        <ele>115.98</ele>
        <time>2022-04-26T13:59:35Z</time>
      </trkpt>
      <trkpt lat="41.75022" lon="8.76958">
        <ele>115.01</ele>
        <time>2022-04-26T13:59:48Z</time>
      </trkpt>
      <trkpt lat="41.75022" lon="8.76963">
        <ele>114.05</ele>
        <time>2022-04-26T14:00:02Z</time>
      </trkpt>
      <trkpt lat="41.75021" lon="8.76966">
        <ele>113.57</ele>
        <time>2022-04-26T14:00:32Z</time>
      </trkpt>
      <trkpt lat="41.75023" lon="8.76963">
        <ele>114.53</ele>
        <time>2022-04-26T14:01:01Z</time>
      </trkpt>
      <trkpt lat="41.75015" lon="8.76977">
        <ele>114.05</ele>
        <time>2022-04-26T14:01:29Z</time>
      </trkpt>
      <trkpt lat="41.75007" lon="8.76995">
        <ele>115.01</ele>
        <time>2022-04-26T14:01:42Z</time>
      </trkpt>
      <trkpt lat="41.75006" lon="8.76997">
        <ele>113.09</ele>
        <time>2022-04-26T14:01:44Z</time>
      </trkpt>
      <trkpt lat="41.74993" lon="8.77008">
        <ele>113.57</ele>
        <time>2022-04-26T14:01:58Z</time>
      </trkpt>
      <trkpt lat="41.7498" lon="8.77014">
        <ele>113.09</ele>
        <time>2022-04-26T14:02:11Z</time>
      </trkpt>
      <trkpt lat="41.74975" lon="8.77015">
        <ele>112.61</ele>
        <time>2022-04-26T14:02:21Z</time>
      </trkpt>
      <trkpt lat="41.74967" lon="8.77018">
        <ele>113.09</ele>
        <time>2022-04-26T14:02:27Z</time>
      </trkpt>
      <trkpt lat="41.74953" lon="8.77028">
        <ele>113.09</ele>
        <time>2022-04-26T14:02:38Z</time>
      </trkpt>
      <trkpt lat="41.74948" lon="8.7703">
        <ele>111.65</ele>
        <time>2022-04-26T14:02:43Z</time>
      </trkpt>
      <trkpt lat="41.74942" lon="8.77036">
        <ele>112.13</ele>
        <time>2022-04-26T14:02:48Z</time>
      </trkpt>
      <trkpt lat="41.74939" lon="8.77039">
        <ele>111.65</ele>
        <time>2022-04-26T14:02:51Z</time>
      </trkpt>
      <trkpt lat="41.74937" lon="8.7704">
        <ele>111.17</ele>
        <time>2022-04-26T14:02:52Z</time>
      </trkpt>
      <trkpt lat="41.7493" lon="8.77045">
        <ele>111.17</ele>
        <time>2022-04-26T14:03:01Z</time>
      </trkpt>
      <trkpt lat="41.74927" lon="8.77051">
        <ele>111.17</ele>
        <time>2022-04-26T14:03:05Z</time>
      </trkpt>
      <trkpt lat="41.74916" lon="8.77073">
        <ele>110.69</ele>
        <time>2022-04-26T14:03:20Z</time>
      </trkpt>
      <trkpt lat="41.74908" lon="8.77098">
        <ele>109.73</ele>
        <time>2022-04-26T14:03:35Z</time>
      </trkpt>
      <trkpt lat="41.749" lon="8.77122">
        <ele>109.25</ele>
        <time>2022-04-26T14:03:51Z</time>
      </trkpt>
      <trkpt lat="41.749" lon="8.77126">
        <ele>109.25</ele>
        <time>2022-04-26T14:03:53Z</time>
      </trkpt>
      <trkpt lat="41.74894" lon="8.77142">
        <ele>108.29</ele>
        <time>2022-04-26T14:04:06Z</time>
      </trkpt>
      <trkpt lat="41.74891" lon="8.77163">
        <ele>107.32</ele>
        <time>2022-04-26T14:04:19Z</time>
      </trkpt>
      <trkpt lat="41.74888" lon="8.77184">
        <ele>107.32</ele>
        <time>2022-04-26T14:04:34Z</time>
      </trkpt>
      <trkpt lat="41.74883" lon="8.77208">
        <ele>107.81</ele>
        <time>2022-04-26T14:04:49Z</time>
      </trkpt>
      <trkpt lat="41.74882" lon="8.77216">
        <ele>108.77</ele>
        <time>2022-04-26T14:04:55Z</time>
      </trkpt>
      <trkpt lat="41.74878" lon="8.77235">
        <ele>109.73</ele>
        <time>2022-04-26T14:05:09Z</time>
      </trkpt>
      <trkpt lat="41.74875" lon="8.77255">
        <ele>111.17</ele>
        <time>2022-04-26T14:05:25Z</time>
      </trkpt>
      <trkpt lat="41.74873" lon="8.77271">
        <ele>113.09</ele>
        <time>2022-04-26T14:05:40Z</time>
      </trkpt>
      <trkpt lat="41.74863" lon="8.77286">
        <ele>112.61</ele>
        <time>2022-04-26T14:05:54Z</time>
      </trkpt>
      <trkpt lat="41.7486" lon="8.77286">
        <ele>112.61</ele>
        <time>2022-04-26T14:05:56Z</time>
      </trkpt>
      <trkpt lat="41.74859" lon="8.77287">
        <ele>112.13</ele>
        <time>2022-04-26T14:05:57Z</time>
      </trkpt>
      <trkpt lat="41.74848" lon="8.77298">
        <ele>113.09</ele>
        <time>2022-04-26T14:06:10Z</time>
      </trkpt>
      <trkpt lat="41.74842" lon="8.77305">
        <ele>114.05</ele>
        <time>2022-04-26T14:06:18Z</time>
      </trkpt>
      <trkpt lat="41.74836" lon="8.7732">
        <ele>115.98</ele>
        <time>2022-04-26T14:06:31Z</time>
      </trkpt>
      <trkpt lat="41.7483" lon="8.77329">
        <ele>115.98</ele>
        <time>2022-04-26T14:06:39Z</time>
      </trkpt>
      <trkpt lat="41.74829" lon="8.77331">
        <ele>115.98</ele>
        <time>2022-04-26T14:06:40Z</time>
      </trkpt>
      <trkpt lat="41.74828" lon="8.77339">
        <ele>116.94</ele>
        <time>2022-04-26T14:06:47Z</time>
      </trkpt>
      <trkpt lat="41.74824" lon="8.77342">
        <ele>116.94</ele>
        <time>2022-04-26T14:06:59Z</time>
      </trkpt>
      <trkpt lat="41.74821" lon="8.77342">
        <ele>116.46</ele>
        <time>2022-04-26T14:07:02Z</time>
      </trkpt>
      <trkpt lat="41.74819" lon="8.77343">
        <ele>116.94</ele>
        <time>2022-04-26T14:07:03Z</time>
      </trkpt>
      <trkpt lat="41.74817" lon="8.77343">
        <ele>116.46</ele>
        <time>2022-04-26T14:07:04Z</time>
      </trkpt>
      <trkpt lat="41.74811" lon="8.77346">
        <ele>115.98</ele>
        <time>2022-04-26T14:07:08Z</time>
      </trkpt>
      <trkpt lat="41.74807" lon="8.77351">
        <ele>114.05</ele>
        <time>2022-04-26T14:07:20Z</time>
      </trkpt>
      <trkpt lat="41.74804" lon="8.7735">
        <ele>112.13</ele>
        <time>2022-04-26T14:07:32Z</time>
      </trkpt>
      <trkpt lat="41.74803" lon="8.77352">
        <ele>111.65</ele>
        <time>2022-04-26T14:07:33Z</time>
      </trkpt>
      <trkpt lat="41.74793" lon="8.77359">
        <ele>111.17</ele>
        <time>2022-04-26T14:07:40Z</time>
      </trkpt>
      <trkpt lat="41.74791" lon="8.77364">
        <ele>110.69</ele>
        <time>2022-04-26T14:07:43Z</time>
      </trkpt>
      <trkpt lat="41.74783" lon="8.77388">
        <ele>109.25</ele>
        <time>2022-04-26T14:07:55Z</time>
      </trkpt>
      <trkpt lat="41.74775" lon="8.77411">
        <ele>107.32</ele>
        <time>2022-04-26T14:08:07Z</time>
      </trkpt>
      <trkpt lat="41.74774" lon="8.77414">
        <ele>107.32</ele>
        <time>2022-04-26T14:08:09Z</time>
      </trkpt>
      <trkpt lat="41.74774" lon="8.77416">
        <ele>107.32</ele>
        <time>2022-04-26T14:08:10Z</time>
      </trkpt>
      <trkpt lat="41.74771" lon="8.77421">
        <ele>106.84</ele>
        <time>2022-04-26T14:08:14Z</time>
      </trkpt>
      <trkpt lat="41.7477" lon="8.77433">
        <ele>105.4</ele>
        <time>2022-04-26T14:08:25Z</time>
      </trkpt>
      <trkpt lat="41.74765" lon="8.77433">
        <ele>104.44</ele>
        <time>2022-04-26T14:08:30Z</time>
      </trkpt>
      <trkpt lat="41.74764" lon="8.77433">
        <ele>104.92</ele>
        <time>2022-04-26T14:08:31Z</time>
      </trkpt>
      <trkpt lat="41.74763" lon="8.77432">
        <ele>104.44</ele>
        <time>2022-04-26T14:08:32Z</time>
      </trkpt>
      <trkpt lat="41.74761" lon="8.77432">
        <ele>103.96</ele>
        <time>2022-04-26T14:08:33Z</time>
      </trkpt>
      <trkpt lat="41.7476" lon="8.77433">
        <ele>103.96</ele>
        <time>2022-04-26T14:08:34Z</time>
      </trkpt>
      <trkpt lat="41.74758" lon="8.77434">
        <ele>104.44</ele>
        <time>2022-04-26T14:08:35Z</time>
      </trkpt>
      <trkpt lat="41.74756" lon="8.77435">
        <ele>103.96</ele>
        <time>2022-04-26T14:08:36Z</time>
      </trkpt>
      <trkpt lat="41.74754" lon="8.77436">
        <ele>103.96</ele>
        <time>2022-04-26T14:08:37Z</time>
      </trkpt>
      <trkpt lat="41.74752" lon="8.77437">
        <ele>103.48</ele>
        <time>2022-04-26T14:08:38Z</time>
      </trkpt>
      <trkpt lat="41.74732" lon="8.77443">
        <ele>102.52</ele>
        <time>2022-04-26T14:08:48Z</time>
      </trkpt>
      <trkpt lat="41.74731" lon="8.77444">
        <ele>101.56</ele>
        <time>2022-04-26T14:08:49Z</time>
      </trkpt>
      <trkpt lat="41.7473" lon="8.77448">
        <ele>101.56</ele>
        <time>2022-04-26T14:08:55Z</time>
      </trkpt>
      <trkpt lat="41.74729" lon="8.7745">
        <ele>101.56</ele>
        <time>2022-04-26T14:08:56Z</time>
      </trkpt>
      <trkpt lat="41.74729" lon="8.77453">
        <ele>102.04</ele>
        <time>2022-04-26T14:08:57Z</time>
      </trkpt>
      <trkpt lat="41.74729" lon="8.77455">
        <ele>101.56</ele>
        <time>2022-04-26T14:08:58Z</time>
      </trkpt>
      <trkpt lat="41.74729" lon="8.77458">
        <ele>101.56</ele>
        <time>2022-04-26T14:08:59Z</time>
      </trkpt>
      <trkpt lat="41.74728" lon="8.7746">
        <ele>101.56</ele>
        <time>2022-04-26T14:09:00Z</time>
      </trkpt>
      <trkpt lat="41.74723" lon="8.77461">
        <ele>101.08</ele>
        <time>2022-04-26T14:09:07Z</time>
      </trkpt>
      <trkpt lat="41.74721" lon="8.77465">
        <ele>101.08</ele>
        <time>2022-04-26T14:09:10Z</time>
      </trkpt>
      <trkpt lat="41.74717" lon="8.77475">
        <ele>99.15</ele>
        <time>2022-04-26T14:09:21Z</time>
      </trkpt>
      <trkpt lat="41.74713" lon="8.77483">
        <ele>98.67</ele>
        <time>2022-04-26T14:09:27Z</time>
      </trkpt>
      <trkpt lat="41.74705" lon="8.77501">
        <ele>99.63</ele>
        <time>2022-04-26T14:09:39Z</time>
      </trkpt>
      <trkpt lat="41.74691" lon="8.77521">
        <ele>98.67</ele>
        <time>2022-04-26T14:09:56Z</time>
      </trkpt>
      <trkpt lat="41.74679" lon="8.7753">
        <ele>97.23</ele>
        <time>2022-04-26T14:10:10Z</time>
      </trkpt>
      <trkpt lat="41.74677" lon="8.7753">
        <ele>96.75</ele>
        <time>2022-04-26T14:10:12Z</time>
      </trkpt>
      <trkpt lat="41.74668" lon="8.77521">
        <ele>94.35</ele>
        <time>2022-04-26T14:10:26Z</time>
      </trkpt>
      <trkpt lat="41.74662" lon="8.7752">
        <ele>92.42</ele>
        <time>2022-04-26T14:10:33Z</time>
      </trkpt>
      <trkpt lat="41.7465" lon="8.77515">
        <ele>90.98</ele>
        <time>2022-04-26T14:10:43Z</time>
      </trkpt>
      <trkpt lat="41.74636" lon="8.77499">
        <ele>89.06</ele>
        <time>2022-04-26T14:10:55Z</time>
      </trkpt>
      <trkpt lat="41.74633" lon="8.77499">
        <ele>88.1</ele>
        <time>2022-04-26T14:11:00Z</time>
      </trkpt>
      <trkpt lat="41.74621" lon="8.775">
        <ele>85.21</ele>
        <time>2022-04-26T14:11:12Z</time>
      </trkpt>
      <trkpt lat="41.7462" lon="8.77497">
        <ele>84.73</ele>
        <time>2022-04-26T14:11:15Z</time>
      </trkpt>
      <trkpt lat="41.74616" lon="8.77495">
        <ele>82.33</ele>
        <time>2022-04-26T14:11:19Z</time>
      </trkpt>
      <trkpt lat="41.74614" lon="8.77491">
        <ele>81.85</ele>
        <time>2022-04-26T14:11:23Z</time>
      </trkpt>
      <trkpt lat="41.74613" lon="8.77488">
        <ele>81.85</ele>
        <time>2022-04-26T14:11:25Z</time>
      </trkpt>
      <trkpt lat="41.7461" lon="8.77486">
        <ele>80.89</ele>
        <time>2022-04-26T14:11:27Z</time>
      </trkpt>
      <trkpt lat="41.74608" lon="8.77485">
        <ele>81.37</ele>
        <time>2022-04-26T14:11:28Z</time>
      </trkpt>
      <trkpt lat="41.74607" lon="8.77485">
        <ele>81.37</ele>
        <time>2022-04-26T14:11:29Z</time>
      </trkpt>
      <trkpt lat="41.74595" lon="8.77487">
        <ele>79.45</ele>
        <time>2022-04-26T14:11:41Z</time>
      </trkpt>
      <trkpt lat="41.74592" lon="8.7749">
        <ele>78.97</ele>
        <time>2022-04-26T14:11:44Z</time>
      </trkpt>
      <trkpt lat="41.7459" lon="8.7749">
        <ele>78.97</ele>
        <time>2022-04-26T14:11:45Z</time>
      </trkpt>
      <trkpt lat="41.74588" lon="8.77491">
        <ele>78.97</ele>
        <time>2022-04-26T14:11:46Z</time>
      </trkpt>
      <trkpt lat="41.74587" lon="8.77492">
        <ele>78.97</ele>
        <time>2022-04-26T14:11:47Z</time>
      </trkpt>
      <trkpt lat="41.74585" lon="8.77493">
        <ele>78.97</ele>
        <time>2022-04-26T14:11:48Z</time>
      </trkpt>
      <trkpt lat="41.74575" lon="8.77501">
        <ele>78</ele>
        <time>2022-04-26T14:12:00Z</time>
      </trkpt>
      <trkpt lat="41.74573" lon="8.77507">
        <ele>78</ele>
        <time>2022-04-26T14:12:05Z</time>
      </trkpt>
      <trkpt lat="41.74572" lon="8.77516">
        <ele>77.52</ele>
        <time>2022-04-26T14:12:12Z</time>
      </trkpt>
      <trkpt lat="41.74566" lon="8.77539">
        <ele>77.52</ele>
        <time>2022-04-26T14:12:28Z</time>
      </trkpt>
      <trkpt lat="41.74557" lon="8.77555">
        <ele>78.48</ele>
        <time>2022-04-26T14:12:43Z</time>
      </trkpt>
      <trkpt lat="41.74557" lon="8.77556">
        <ele>78.48</ele>
        <time>2022-04-26T14:12:44Z</time>
      </trkpt>
      <trkpt lat="41.74552" lon="8.77572">
        <ele>80.89</ele>
        <time>2022-04-26T14:12:58Z</time>
      </trkpt>
      <trkpt lat="41.74547" lon="8.77591">
        <ele>83.29</ele>
        <time>2022-04-26T14:13:14Z</time>
      </trkpt>
      <trkpt lat="41.74542" lon="8.77609">
        <ele>85.21</ele>
        <time>2022-04-26T14:13:30Z</time>
      </trkpt>
      <trkpt lat="41.74537" lon="8.77629">
        <ele>86.66</ele>
        <time>2022-04-26T14:13:48Z</time>
      </trkpt>
      <trkpt lat="41.74531" lon="8.77644">
        <ele>87.14</ele>
        <time>2022-04-26T14:14:02Z</time>
      </trkpt>
      <trkpt lat="41.74519" lon="8.77663">
        <ele>87.62</ele>
        <time>2022-04-26T14:14:17Z</time>
      </trkpt>
      <trkpt lat="41.74508" lon="8.77682">
        <ele>86.66</ele>
        <time>2022-04-26T14:14:35Z</time>
      </trkpt>
      <trkpt lat="41.74505" lon="8.77686">
        <ele>85.21</ele>
        <time>2022-04-26T14:14:48Z</time>
      </trkpt>
      <trkpt lat="41.745" lon="8.77695">
        <ele>85.21</ele>
        <time>2022-04-26T14:15:01Z</time>
      </trkpt>
      <trkpt lat="41.74498" lon="8.777">
        <ele>82.81</ele>
        <time>2022-04-26T14:15:14Z</time>
      </trkpt>
      <trkpt lat="41.745" lon="8.77696">
        <ele>82.33</ele>
        <time>2022-04-26T14:15:29Z</time>
      </trkpt>
      <trkpt lat="41.74501" lon="8.77699">
        <ele>81.85</ele>
        <time>2022-04-26T14:15:50Z</time>
      </trkpt>
      <trkpt lat="41.74499" lon="8.77701">
        <ele>82.33</ele>
        <time>2022-04-26T14:16:23Z</time>
      </trkpt>
      <trkpt lat="41.74499" lon="8.77701">
        <ele>82.33</ele>
        <time>2022-04-26T14:16:49Z</time>
      </trkpt>
      <trkpt lat="41.745" lon="8.777">
        <ele>82.81</ele>
        <time>2022-04-26T14:17:19Z</time>
      </trkpt>
      <trkpt lat="41.745" lon="8.77705">
        <ele>82.81</ele>
        <time>2022-04-26T14:17:49Z</time>
      </trkpt>
      <trkpt lat="41.74503" lon="8.77704">
        <ele>83.29</ele>
        <time>2022-04-26T14:18:18Z</time>
      </trkpt>
      <trkpt lat="41.74507" lon="8.77701">
        <ele>81.37</ele>
        <time>2022-04-26T14:18:34Z</time>
      </trkpt>
      <trkpt lat="41.74503" lon="8.77712">
        <ele>78</ele>
        <time>2022-04-26T14:18:51Z</time>
      </trkpt>
      <trkpt lat="41.74498" lon="8.77713">
        <ele>76.56</ele>
        <time>2022-04-26T14:19:00Z</time>
      </trkpt>
      <trkpt lat="41.74499" lon="8.77709">
        <ele>75.6</ele>
        <time>2022-04-26T14:19:13Z</time>
      </trkpt>
      <trkpt lat="41.74497" lon="8.77717">
        <ele>74.64</ele>
        <time>2022-04-26T14:19:30Z</time>
      </trkpt>
      <trkpt lat="41.74499" lon="8.77718">
        <ele>72.72</ele>
        <time>2022-04-26T14:19:42Z</time>
      </trkpt>
      <trkpt lat="41.74505" lon="8.7773">
        <ele>69.83</ele>
        <time>2022-04-26T14:19:54Z</time>
      </trkpt>
      <trkpt lat="41.74501" lon="8.77744">
        <ele>66.47</ele>
        <time>2022-04-26T14:20:06Z</time>
      </trkpt>
      <trkpt lat="41.74494" lon="8.77763">
        <ele>65.03</ele>
        <time>2022-04-26T14:20:23Z</time>
      </trkpt>
      <trkpt lat="41.74492" lon="8.77766">
        <ele>64.55</ele>
        <time>2022-04-26T14:20:50Z</time>
      </trkpt>
      <trkpt lat="41.74484" lon="8.77777">
        <ele>63.1</ele>
        <time>2022-04-26T14:21:03Z</time>
      </trkpt>
      <trkpt lat="41.74474" lon="8.77795">
        <ele>61.18</ele>
        <time>2022-04-26T14:21:18Z</time>
      </trkpt>
      <trkpt lat="41.74472" lon="8.77802">
        <ele>59.26</ele>
        <time>2022-04-26T14:21:22Z</time>
      </trkpt>
      <trkpt lat="41.7447" lon="8.77807">
        <ele>59.26</ele>
        <time>2022-04-26T14:21:25Z</time>
      </trkpt>
      <trkpt lat="41.74469" lon="8.77808">
        <ele>57.82</ele>
        <time>2022-04-26T14:21:26Z</time>
      </trkpt>
      <trkpt lat="41.74461" lon="8.77826">
        <ele>55.41</ele>
        <time>2022-04-26T14:21:38Z</time>
      </trkpt>
      <trkpt lat="41.74453" lon="8.7784">
        <ele>53.49</ele>
        <time>2022-04-26T14:21:47Z</time>
      </trkpt>
      <trkpt lat="41.74451" lon="8.77842">
        <ele>52.53</ele>
        <time>2022-04-26T14:21:48Z</time>
      </trkpt>
      <trkpt lat="41.74446" lon="8.77851">
        <ele>52.53</ele>
        <time>2022-04-26T14:21:53Z</time>
      </trkpt>
      <trkpt lat="41.74444" lon="8.77865">
        <ele>51.09</ele>
        <time>2022-04-26T14:22:02Z</time>
      </trkpt>
      <trkpt lat="41.74441" lon="8.77883">
        <ele>49.65</ele>
        <time>2022-04-26T14:22:17Z</time>
      </trkpt>
      <trkpt lat="41.74436" lon="8.77893">
        <ele>48.2</ele>
        <time>2022-04-26T14:22:26Z</time>
      </trkpt>
      <trkpt lat="41.74434" lon="8.77894">
        <ele>48.2</ele>
        <time>2022-04-26T14:22:27Z</time>
      </trkpt>
      <trkpt lat="41.7442" lon="8.77909">
        <ele>44.84</ele>
        <time>2022-04-26T14:22:40Z</time>
      </trkpt>
      <trkpt lat="41.74407" lon="8.77923">
        <ele>43.4</ele>
        <time>2022-04-26T14:22:52Z</time>
      </trkpt>
      <trkpt lat="41.74407" lon="8.77924">
        <ele>43.4</ele>
        <time>2022-04-26T14:22:53Z</time>
      </trkpt>
      <trkpt lat="41.74406" lon="8.77926">
        <ele>45.8</ele>
        <time>2022-04-26T14:22:54Z</time>
      </trkpt>
      <trkpt lat="41.74404" lon="8.77928">
        <ele>42.92</ele>
        <time>2022-04-26T14:22:56Z</time>
      </trkpt>
      <trkpt lat="41.74397" lon="8.77934">
        <ele>41.47</ele>
        <time>2022-04-26T14:23:02Z</time>
      </trkpt>
      <trkpt lat="41.74394" lon="8.7794">
        <ele>40.51</ele>
        <time>2022-04-26T14:23:08Z</time>
      </trkpt>
      <trkpt lat="41.74393" lon="8.77945">
        <ele>39.55</ele>
        <time>2022-04-26T14:23:12Z</time>
      </trkpt>
      <trkpt lat="41.74393" lon="8.77946">
        <ele>40.03</ele>
        <time>2022-04-26T14:23:13Z</time>
      </trkpt>
      <trkpt lat="41.74393" lon="8.77948">
        <ele>39.55</ele>
        <time>2022-04-26T14:23:14Z</time>
      </trkpt>
      <trkpt lat="41.74394" lon="8.7795">
        <ele>40.03</ele>
        <time>2022-04-26T14:23:15Z</time>
      </trkpt>
      <trkpt lat="41.74394" lon="8.77951">
        <ele>40.03</ele>
        <time>2022-04-26T14:23:16Z</time>
      </trkpt>
      <trkpt lat="41.74395" lon="8.77952">
        <ele>39.55</ele>
        <time>2022-04-26T14:23:17Z</time>
      </trkpt>
      <trkpt lat="41.74396" lon="8.77954">
        <ele>39.55</ele>
        <time>2022-04-26T14:23:18Z</time>
      </trkpt>
      <trkpt lat="41.74402" lon="8.7796">
        <ele>39.07</ele>
        <time>2022-04-26T14:23:22Z</time>
      </trkpt>
      <trkpt lat="41.74405" lon="8.77964">
        <ele>39.07</ele>
        <time>2022-04-26T14:23:26Z</time>
      </trkpt>
      <trkpt lat="41.74407" lon="8.7797">
        <ele>38.11</ele>
        <time>2022-04-26T14:23:32Z</time>
      </trkpt>
      <trkpt lat="41.74408" lon="8.77971">
        <ele>38.59</ele>
        <time>2022-04-26T14:23:33Z</time>
      </trkpt>
      <trkpt lat="41.74408" lon="8.77973">
        <ele>38.59</ele>
        <time>2022-04-26T14:23:34Z</time>
      </trkpt>
      <trkpt lat="41.74409" lon="8.77975">
        <ele>38.11</ele>
        <time>2022-04-26T14:23:35Z</time>
      </trkpt>
      <trkpt lat="41.74409" lon="8.77977">
        <ele>38.11</ele>
        <time>2022-04-26T14:23:36Z</time>
      </trkpt>
      <trkpt lat="41.7441" lon="8.77979">
        <ele>37.63</ele>
        <time>2022-04-26T14:23:37Z</time>
      </trkpt>
      <trkpt lat="41.74409" lon="8.77981">
        <ele>37.63</ele>
        <time>2022-04-26T14:23:38Z</time>
      </trkpt>
      <trkpt lat="41.74408" lon="8.77983">
        <ele>38.11</ele>
        <time>2022-04-26T14:23:39Z</time>
      </trkpt>
      <trkpt lat="41.74408" lon="8.77985">
        <ele>38.11</ele>
        <time>2022-04-26T14:23:40Z</time>
      </trkpt>
      <trkpt lat="41.74407" lon="8.77987">
        <ele>38.11</ele>
        <time>2022-04-26T14:23:41Z</time>
      </trkpt>
      <trkpt lat="41.74407" lon="8.77989">
        <ele>37.63</ele>
        <time>2022-04-26T14:23:42Z</time>
      </trkpt>
      <trkpt lat="41.744" lon="8.78005">
        <ele>36.19</ele>
        <time>2022-04-26T14:23:55Z</time>
      </trkpt>
      <trkpt lat="41.74399" lon="8.78006">
        <ele>36.19</ele>
        <time>2022-04-26T14:23:56Z</time>
      </trkpt>
      <trkpt lat="41.74396" lon="8.78016">
        <ele>35.71</ele>
        <time>2022-04-26T14:24:02Z</time>
      </trkpt>
      <trkpt lat="41.74389" lon="8.78034">
        <ele>35.23</ele>
        <time>2022-04-26T14:24:14Z</time>
      </trkpt>
      <trkpt lat="41.74382" lon="8.78037">
        <ele>35.71</ele>
        <time>2022-04-26T14:24:22Z</time>
      </trkpt>
      <trkpt lat="41.7438" lon="8.78037">
        <ele>35.71</ele>
        <time>2022-04-26T14:24:23Z</time>
      </trkpt>
      <trkpt lat="41.74378" lon="8.78037">
        <ele>35.71</ele>
        <time>2022-04-26T14:24:24Z</time>
      </trkpt>
      <trkpt lat="41.74377" lon="8.78037">
        <ele>35.71</ele>
        <time>2022-04-26T14:24:25Z</time>
      </trkpt>
      <trkpt lat="41.74374" lon="8.78036">
        <ele>36.19</ele>
        <time>2022-04-26T14:24:28Z</time>
      </trkpt>
      <trkpt lat="41.74372" lon="8.78037">
        <ele>35.71</ele>
        <time>2022-04-26T14:24:29Z</time>
      </trkpt>
      <trkpt lat="41.74366" lon="8.78037">
        <ele>36.67</ele>
        <time>2022-04-26T14:24:33Z</time>
      </trkpt>
      <trkpt lat="41.74349" lon="8.78038">
        <ele>39.07</ele>
        <time>2022-04-26T14:24:49Z</time>
      </trkpt>
      <trkpt lat="41.74334" lon="8.78037">
        <ele>40.99</ele>
        <time>2022-04-26T14:25:05Z</time>
      </trkpt>
      <trkpt lat="41.7433" lon="8.78035">
        <ele>41.47</ele>
        <time>2022-04-26T14:25:09Z</time>
      </trkpt>
      <trkpt lat="41.74317" lon="8.78034">
        <ele>41.95</ele>
        <time>2022-04-26T14:25:21Z</time>
      </trkpt>
      <trkpt lat="41.74316" lon="8.78035">
        <ele>41.95</ele>
        <time>2022-04-26T14:25:22Z</time>
      </trkpt>
      <trkpt lat="41.74314" lon="8.78035">
        <ele>41.47</ele>
        <time>2022-04-26T14:25:23Z</time>
      </trkpt>
      <trkpt lat="41.74312" lon="8.78035">
        <ele>42.44</ele>
        <time>2022-04-26T14:25:24Z</time>
      </trkpt>
      <trkpt lat="41.74302" lon="8.78038">
        <ele>42.44</ele>
        <time>2022-04-26T14:25:35Z</time>
      </trkpt>
      <trkpt lat="41.74292" lon="8.78051">
        <ele>42.92</ele>
        <time>2022-04-26T14:25:49Z</time>
      </trkpt>
      <trkpt lat="41.74282" lon="8.78059">
        <ele>44.84</ele>
        <time>2022-04-26T14:26:02Z</time>
      </trkpt>
      <trkpt lat="41.74269" lon="8.78067">
        <ele>46.28</ele>
        <time>2022-04-26T14:26:16Z</time>
      </trkpt>
      <trkpt lat="41.74258" lon="8.78069">
        <ele>48.68</ele>
        <time>2022-04-26T14:26:28Z</time>
      </trkpt>
      <trkpt lat="41.74257" lon="8.78067">
        <ele>49.16</ele>
        <time>2022-04-26T14:26:30Z</time>
      </trkpt>
      <trkpt lat="41.74243" lon="8.78055">
        <ele>49.65</ele>
        <time>2022-04-26T14:26:45Z</time>
      </trkpt>
      <trkpt lat="41.74241" lon="8.78054">
        <ele>49.65</ele>
        <time>2022-04-26T14:26:46Z</time>
      </trkpt>
      <trkpt lat="41.74233" lon="8.78055">
        <ele>50.13</ele>
        <time>2022-04-26T14:26:55Z</time>
      </trkpt>
      <trkpt lat="41.74224" lon="8.78056">
        <ele>51.57</ele>
        <time>2022-04-26T14:27:04Z</time>
      </trkpt>
      <trkpt lat="41.74222" lon="8.78056">
        <ele>51.57</ele>
        <time>2022-04-26T14:27:05Z</time>
      </trkpt>
      <trkpt lat="41.74206" lon="8.78042">
        <ele>49.65</ele>
        <time>2022-04-26T14:27:20Z</time>
      </trkpt>
      <trkpt lat="41.74188" lon="8.78045">
        <ele>49.65</ele>
        <time>2022-04-26T14:27:36Z</time>
      </trkpt>
      <trkpt lat="41.74176" lon="8.78051">
        <ele>49.16</ele>
        <time>2022-04-26T14:27:49Z</time>
      </trkpt>
      <trkpt lat="41.74167" lon="8.78056">
        <ele>49.16</ele>
        <time>2022-04-26T14:27:56Z</time>
      </trkpt>
      <trkpt lat="41.74144" lon="8.7805">
        <ele>47.24</ele>
        <time>2022-04-26T14:28:14Z</time>
      </trkpt>
      <trkpt lat="41.74132" lon="8.7805">
        <ele>45.8</ele>
        <time>2022-04-26T14:28:23Z</time>
      </trkpt>
      <trkpt lat="41.7413" lon="8.7805">
        <ele>46.28</ele>
        <time>2022-04-26T14:28:24Z</time>
      </trkpt>
      <trkpt lat="41.74115" lon="8.78053">
        <ele>42.92</ele>
        <time>2022-04-26T14:28:39Z</time>
      </trkpt>
      <trkpt lat="41.74114" lon="8.78053">
        <ele>42.92</ele>
        <time>2022-04-26T14:28:40Z</time>
      </trkpt>
      <trkpt lat="41.74101" lon="8.7806">
        <ele>40.03</ele>
        <time>2022-04-26T14:28:53Z</time>
      </trkpt>
      <trkpt lat="41.74095" lon="8.78062">
        <ele>38.59</ele>
        <time>2022-04-26T14:28:57Z</time>
      </trkpt>
      <trkpt lat="41.74094" lon="8.78063">
        <ele>38.59</ele>
        <time>2022-04-26T14:28:58Z</time>
      </trkpt>
      <trkpt lat="41.74092" lon="8.78064">
        <ele>38.11</ele>
        <time>2022-04-26T14:28:59Z</time>
      </trkpt>
      <trkpt lat="41.74091" lon="8.78064">
        <ele>38.11</ele>
        <time>2022-04-26T14:29:00Z</time>
      </trkpt>
      <trkpt lat="41.74089" lon="8.78064">
        <ele>37.63</ele>
        <time>2022-04-26T14:29:01Z</time>
      </trkpt>
      <trkpt lat="41.74088" lon="8.78065">
        <ele>37.63</ele>
        <time>2022-04-26T14:29:02Z</time>
      </trkpt>
      <trkpt lat="41.74087" lon="8.78066">
        <ele>37.63</ele>
        <time>2022-04-26T14:29:03Z</time>
      </trkpt>
      <trkpt lat="41.74086" lon="8.78067">
        <ele>37.15</ele>
        <time>2022-04-26T14:29:04Z</time>
      </trkpt>
      <trkpt lat="41.74085" lon="8.78068">
        <ele>37.15</ele>
        <time>2022-04-26T14:29:05Z</time>
      </trkpt>
      <trkpt lat="41.74084" lon="8.78069">
        <ele>36.67</ele>
        <time>2022-04-26T14:29:06Z</time>
      </trkpt>
      <trkpt lat="41.74074" lon="8.78078">
        <ele>35.23</ele>
        <time>2022-04-26T14:29:16Z</time>
      </trkpt>
      <trkpt lat="41.74073" lon="8.78078">
        <ele>33.78</ele>
        <time>2022-04-26T14:29:17Z</time>
      </trkpt>
      <trkpt lat="41.74071" lon="8.78079">
        <ele>34.74</ele>
        <time>2022-04-26T14:29:18Z</time>
      </trkpt>
      <trkpt lat="41.74069" lon="8.78079">
        <ele>36.19</ele>
        <time>2022-04-26T14:29:19Z</time>
      </trkpt>
      <trkpt lat="41.74068" lon="8.7808">
        <ele>35.23</ele>
        <time>2022-04-26T14:29:20Z</time>
      </trkpt>
      <trkpt lat="41.74066" lon="8.78081">
        <ele>34.74</ele>
        <time>2022-04-26T14:29:21Z</time>
      </trkpt>
      <trkpt lat="41.74065" lon="8.78081">
        <ele>34.74</ele>
        <time>2022-04-26T14:29:22Z</time>
      </trkpt>
      <trkpt lat="41.74047" lon="8.78092">
        <ele>33.78</ele>
        <time>2022-04-26T14:29:35Z</time>
      </trkpt>
      <trkpt lat="41.74029" lon="8.78103">
        <ele>35.71</ele>
        <time>2022-04-26T14:29:54Z</time>
      </trkpt>
      <trkpt lat="41.74013" lon="8.7811">
        <ele>36.67</ele>
        <time>2022-04-26T14:30:10Z</time>
      </trkpt>
      <trkpt lat="41.74001" lon="8.78119">
        <ele>35.71</ele>
        <time>2022-04-26T14:30:24Z</time>
      </trkpt>
      <trkpt lat="41.73994" lon="8.78121">
        <ele>35.71</ele>
        <time>2022-04-26T14:30:41Z</time>
      </trkpt>
      <trkpt lat="41.73989" lon="8.78128">
        <ele>33.78</ele>
        <time>2022-04-26T14:31:05Z</time>
      </trkpt>
      <trkpt lat="41.73982" lon="8.78141">
        <ele>31.86</ele>
        <time>2022-04-26T14:31:19Z</time>
      </trkpt>
      <trkpt lat="41.73979" lon="8.78147">
        <ele>30.9</ele>
        <time>2022-04-26T14:31:34Z</time>
      </trkpt>
      <trkpt lat="41.73977" lon="8.78146">
        <ele>31.38</ele>
        <time>2022-04-26T14:31:58Z</time>
      </trkpt>
      <trkpt lat="41.73973" lon="8.78156">
        <ele>28.98</ele>
        <time>2022-04-26T14:32:16Z</time>
      </trkpt>
      <trkpt lat="41.73968" lon="8.78166">
        <ele>27.05</ele>
        <time>2022-04-26T14:32:25Z</time>
      </trkpt>
      <trkpt lat="41.73966" lon="8.78168">
        <ele>28.02</ele>
        <time>2022-04-26T14:32:38Z</time>
      </trkpt>
      <trkpt lat="41.73962" lon="8.78173">
        <ele>27.05</ele>
        <time>2022-04-26T14:32:54Z</time>
      </trkpt>
      <trkpt lat="41.73959" lon="8.78177">
        <ele>26.57</ele>
        <time>2022-04-26T14:32:59Z</time>
      </trkpt>
      <trkpt lat="41.73959" lon="8.78179">
        <ele>26.09</ele>
        <time>2022-04-26T14:33:00Z</time>
      </trkpt>
      <trkpt lat="41.73958" lon="8.78181">
        <ele>25.13</ele>
        <time>2022-04-26T14:33:01Z</time>
      </trkpt>
      <trkpt lat="41.73958" lon="8.78182">
        <ele>25.61</ele>
        <time>2022-04-26T14:33:02Z</time>
      </trkpt>
      <trkpt lat="41.73957" lon="8.78184">
        <ele>24.65</ele>
        <time>2022-04-26T14:33:03Z</time>
      </trkpt>
      <trkpt lat="41.73956" lon="8.78185">
        <ele>24.65</ele>
        <time>2022-04-26T14:33:04Z</time>
      </trkpt>
      <trkpt lat="41.73954" lon="8.78191">
        <ele>22.73</ele>
        <time>2022-04-26T14:33:09Z</time>
      </trkpt>
      <trkpt lat="41.7395" lon="8.78203">
        <ele>21.77</ele>
        <time>2022-04-26T14:33:17Z</time>
      </trkpt>
      <trkpt lat="41.73949" lon="8.78204">
        <ele>20.81</ele>
        <time>2022-04-26T14:33:18Z</time>
      </trkpt>
      <trkpt lat="41.73948" lon="8.78205">
        <ele>21.29</ele>
        <time>2022-04-26T14:33:19Z</time>
      </trkpt>
      <trkpt lat="41.73944" lon="8.78219">
        <ele>18.88</ele>
        <time>2022-04-26T14:33:30Z</time>
      </trkpt>
      <trkpt lat="41.73942" lon="8.78221">
        <ele>18.88</ele>
        <time>2022-04-26T14:33:31Z</time>
      </trkpt>
      <trkpt lat="41.73941" lon="8.78222">
        <ele>18.88</ele>
        <time>2022-04-26T14:33:32Z</time>
      </trkpt>
      <trkpt lat="41.73931" lon="8.78234">
        <ele>17.92</ele>
        <time>2022-04-26T14:33:45Z</time>
      </trkpt>
      <trkpt lat="41.73929" lon="8.78236">
        <ele>17.44</ele>
        <time>2022-04-26T14:33:47Z</time>
      </trkpt>
      <trkpt lat="41.73918" lon="8.7824">
        <ele>18.4</ele>
        <time>2022-04-26T14:34:00Z</time>
      </trkpt>
      <trkpt lat="41.73909" lon="8.78239">
        <ele>18.4</ele>
        <time>2022-04-26T14:34:12Z</time>
      </trkpt>
      <trkpt lat="41.73906" lon="8.78242">
        <ele>19.36</ele>
        <time>2022-04-26T14:34:29Z</time>
      </trkpt>
      <trkpt lat="41.7391" lon="8.78243">
        <ele>19.36</ele>
        <time>2022-04-26T14:34:44Z</time>
      </trkpt>
      <trkpt lat="41.73904" lon="8.78242">
        <ele>18.4</ele>
        <time>2022-04-26T14:35:05Z</time>
      </trkpt>
      <trkpt lat="41.73883" lon="8.78232">
        <ele>15.04</ele>
        <time>2022-04-26T14:35:23Z</time>
      </trkpt>
      <trkpt lat="41.73871" lon="8.78228">
        <ele>15.04</ele>
        <time>2022-04-26T14:35:39Z</time>
      </trkpt>
      <trkpt lat="41.73858" lon="8.7823">
        <ele>15.04</ele>
        <time>2022-04-26T14:35:56Z</time>
      </trkpt>
      <trkpt lat="41.73843" lon="8.78237">
        <ele>15.04</ele>
        <time>2022-04-26T14:36:14Z</time>
      </trkpt>
      <trkpt lat="41.73827" lon="8.78235">
        <ele>13.6</ele>
        <time>2022-04-26T14:36:32Z</time>
      </trkpt>
      <trkpt lat="41.73815" lon="8.78222">
        <ele>12.15</ele>
        <time>2022-04-26T14:36:49Z</time>
      </trkpt>
      <trkpt lat="41.73812" lon="8.78212">
        <ele>12.15</ele>
        <time>2022-04-26T14:37:03Z</time>
      </trkpt>
      <trkpt lat="41.73809" lon="8.78214">
        <ele>11.19</ele>
        <time>2022-04-26T14:37:33Z</time>
      </trkpt>
      <trkpt lat="41.73802" lon="8.78218">
        <ele>10.71</ele>
        <time>2022-04-26T14:37:44Z</time>
      </trkpt>
      <trkpt lat="41.73789" lon="8.78225">
        <ele>10.71</ele>
        <time>2022-04-26T14:38:02Z</time>
      </trkpt>
      <trkpt lat="41.7378" lon="8.78234">
        <ele>10.71</ele>
        <time>2022-04-26T14:38:17Z</time>
      </trkpt>
      <trkpt lat="41.73777" lon="8.78232">
        <ele>10.23</ele>
        <time>2022-04-26T14:38:33Z</time>
      </trkpt>
      <trkpt lat="41.73778" lon="8.78235">
        <ele>10.71</ele>
        <time>2022-04-26T14:38:56Z</time>
      </trkpt>
      <trkpt lat="41.73783" lon="8.78235">
        <ele>10.23</ele>
        <time>2022-04-26T14:39:10Z</time>
      </trkpt>
      <trkpt lat="41.73782" lon="8.78234">
        <ele>10.71</ele>
        <time>2022-04-26T14:39:24Z</time>
      </trkpt>
      <trkpt lat="41.73785" lon="8.78242">
        <ele>11.19</ele>
        <time>2022-04-26T14:39:42Z</time>
      </trkpt>
      <trkpt lat="41.73787" lon="8.78247">
        <ele>12.15</ele>
        <time>2022-04-26T14:39:56Z</time>
      </trkpt>
      <trkpt lat="41.73788" lon="8.78247">
        <ele>10.71</ele>
        <time>2022-04-26T14:40:12Z</time>
      </trkpt>
      <trkpt lat="41.73788" lon="8.78246">
        <ele>10.23</ele>
        <time>2022-04-26T14:40:15Z</time>
      </trkpt>
      <trkpt lat="41.73788" lon="8.78247">
        <ele>20.32</ele>
        <time>2022-04-26T14:55:10Z</time>
      </trkpt>
      <trkpt lat="41.73788" lon="8.78251">
        <ele>22.25</ele>
        <time>2022-04-26T14:55:13Z</time>
      </trkpt>
      <trkpt lat="41.73787" lon="8.78251">
        <ele>17.44</ele>
        <time>2022-04-26T14:55:22Z</time>
      </trkpt>
      <trkpt lat="41.73791" lon="8.78256">
        <ele>14.08</ele>
        <time>2022-04-26T14:55:30Z</time>
      </trkpt>
      <trkpt lat="41.73792" lon="8.78258">
        <ele>13.12</ele>
        <time>2022-04-26T14:55:32Z</time>
      </trkpt>
      <trkpt lat="41.73794" lon="8.7826">
        <ele>11.67</ele>
        <time>2022-04-26T14:55:35Z</time>
      </trkpt>
      <trkpt lat="41.73801" lon="8.78266">
        <ele>8.79</ele>
        <time>2022-04-26T14:55:45Z</time>
      </trkpt>
      <trkpt lat="41.73809" lon="8.78272">
        <ele>5.42</ele>
        <time>2022-04-26T14:55:58Z</time>
      </trkpt>
      <trkpt lat="41.73819" lon="8.7828">
        <ele>3.02</ele>
        <time>2022-04-26T14:56:11Z</time>
      </trkpt>
      <trkpt lat="41.7382" lon="8.78281">
        <ele>2.54</ele>
        <time>2022-04-26T14:56:13Z</time>
      </trkpt>
      <trkpt lat="41.73824" lon="8.78285">
        <ele>3.02</ele>
        <time>2022-04-26T14:56:19Z</time>
      </trkpt>
      <trkpt lat="41.73828" lon="8.783">
        <ele>2.54</ele>
        <time>2022-04-26T14:56:31Z</time>
      </trkpt>
      <trkpt lat="41.73829" lon="8.78319">
        <ele>2.54</ele>
        <time>2022-04-26T14:56:46Z</time>
      </trkpt>
      <trkpt lat="41.73831" lon="8.78338">
        <ele>2.06</ele>
        <time>2022-04-26T14:57:02Z</time>
      </trkpt>
      <trkpt lat="41.73834" lon="8.78346">
        <ele>1.1</ele>
        <time>2022-04-26T14:57:09Z</time>
      </trkpt>
      <trkpt lat="41.7384" lon="8.78362">
        <ele>1.58</ele>
        <time>2022-04-26T14:57:23Z</time>
      </trkpt>
      <trkpt lat="41.73849" lon="8.78376">
        <ele>2.06</ele>
        <time>2022-04-26T14:57:38Z</time>
      </trkpt>
      <trkpt lat="41.7386" lon="8.7839">
        <ele>2.06</ele>
        <time>2022-04-26T14:57:54Z</time>
      </trkpt>
      <trkpt lat="41.7386" lon="8.78403">
        <ele>2.06</ele>
        <time>2022-04-26T14:58:08Z</time>
      </trkpt>
      <trkpt lat="41.73855" lon="8.78408">
        <ele>2.54</ele>
        <time>2022-04-26T14:58:22Z</time>
      </trkpt>
      <trkpt lat="41.73854" lon="8.78407">
        <ele>2.54</ele>
        <time>2022-04-26T14:58:34Z</time>
      </trkpt>
      <trkpt lat="41.7385" lon="8.78413">
        <ele>2.06</ele>
        <time>2022-04-26T14:58:39Z</time>
      </trkpt>
      <trkpt lat="41.73839" lon="8.78424">
        <ele>2.54</ele>
        <time>2022-04-26T14:58:53Z</time>
      </trkpt>
      <trkpt lat="41.73832" lon="8.78438">
        <ele>2.54</ele>
        <time>2022-04-26T14:59:04Z</time>
      </trkpt>
      <trkpt lat="41.73823" lon="8.78461">
        <ele>2.54</ele>
        <time>2022-04-26T14:59:20Z</time>
      </trkpt>
      <trkpt lat="41.73816" lon="8.78486">
        <ele>3.5</ele>
        <time>2022-04-26T14:59:37Z</time>
      </trkpt>
      <trkpt lat="41.7381" lon="8.78509">
        <ele>4.46</ele>
        <time>2022-04-26T14:59:53Z</time>
      </trkpt>
      <trkpt lat="41.73809" lon="8.78535">
        <ele>4.46</ele>
        <time>2022-04-26T15:00:10Z</time>
      </trkpt>
      <trkpt lat="41.7381" lon="8.78561">
        <ele>5.42</ele>
        <time>2022-04-26T15:00:28Z</time>
      </trkpt>
      <trkpt lat="41.7381" lon="8.78587">
        <ele>5.42</ele>
        <time>2022-04-26T15:00:44Z</time>
      </trkpt>
      <trkpt lat="41.73803" lon="8.78609">
        <ele>5.91</ele>
        <time>2022-04-26T15:00:59Z</time>
      </trkpt>
      <trkpt lat="41.73794" lon="8.78634">
        <ele>5.91</ele>
        <time>2022-04-26T15:01:16Z</time>
      </trkpt>
      <trkpt lat="41.73789" lon="8.78656">
        <ele>5.91</ele>
        <time>2022-04-26T15:01:30Z</time>
      </trkpt>
      <trkpt lat="41.73789" lon="8.78685">
        <ele>6.87</ele>
        <time>2022-04-26T15:01:47Z</time>
      </trkpt>
      <trkpt lat="41.73791" lon="8.78701">
        <ele>6.87</ele>
        <time>2022-04-26T15:01:57Z</time>
      </trkpt>
      <trkpt lat="41.73793" lon="8.78706">
        <ele>6.87</ele>
        <time>2022-04-26T15:02:01Z</time>
      </trkpt>
      <trkpt lat="41.738" lon="8.78737">
        <ele>7.35</ele>
        <time>2022-04-26T15:02:21Z</time>
      </trkpt>
      <trkpt lat="41.73808" lon="8.78761">
        <ele>7.35</ele>
        <time>2022-04-26T15:02:38Z</time>
      </trkpt>
      <trkpt lat="41.73808" lon="8.78777">
        <ele>7.83</ele>
        <time>2022-04-26T15:02:50Z</time>
      </trkpt>
      <trkpt lat="41.73793" lon="8.78783">
        <ele>6.39</ele>
        <time>2022-04-26T15:03:03Z</time>
      </trkpt>
      <trkpt lat="41.73777" lon="8.7879">
        <ele>6.39</ele>
        <time>2022-04-26T15:03:18Z</time>
      </trkpt>
      <trkpt lat="41.73767" lon="8.78784">
        <ele>6.39</ele>
        <time>2022-04-26T15:03:27Z</time>
      </trkpt>
      <trkpt lat="41.73765" lon="8.78783">
        <ele>5.91</ele>
        <time>2022-04-26T15:03:29Z</time>
      </trkpt>
      <trkpt lat="41.73751" lon="8.78776">
        <ele>8.79</ele>
        <time>2022-04-26T15:03:41Z</time>
      </trkpt>
      <trkpt lat="41.73746" lon="8.78775">
        <ele>5.42</ele>
        <time>2022-04-26T15:03:45Z</time>
      </trkpt>
      <trkpt lat="41.73741" lon="8.78773">
        <ele>3.98</ele>
        <time>2022-04-26T15:03:50Z</time>
      </trkpt>
      <trkpt lat="41.73732" lon="8.78769">
        <ele>4.46</ele>
        <time>2022-04-26T15:03:59Z</time>
      </trkpt>
      <trkpt lat="41.73731" lon="8.78768">
        <ele>7.83</ele>
        <time>2022-04-26T15:04:00Z</time>
      </trkpt>
      <trkpt lat="41.73725" lon="8.78767">
        <ele>6.87</ele>
        <time>2022-04-26T15:04:06Z</time>
      </trkpt>
      <trkpt lat="41.73707" lon="8.78764">
        <ele>5.91</ele>
        <time>2022-04-26T15:04:20Z</time>
      </trkpt>
      <trkpt lat="41.73691" lon="8.78762">
        <ele>6.87</ele>
        <time>2022-04-26T15:04:36Z</time>
      </trkpt>
      <trkpt lat="41.73685" lon="8.78761">
        <ele>7.35</ele>
        <time>2022-04-26T15:04:42Z</time>
      </trkpt>
      <trkpt lat="41.73675" lon="8.78769">
        <ele>6.87</ele>
        <time>2022-04-26T15:04:56Z</time>
      </trkpt>
      <trkpt lat="41.73674" lon="8.78772">
        <ele>9.27</ele>
        <time>2022-04-26T15:04:59Z</time>
      </trkpt>
      <trkpt lat="41.73667" lon="8.78783">
        <ele>11.67</ele>
        <time>2022-04-26T15:05:15Z</time>
      </trkpt>
      <trkpt lat="41.73661" lon="8.78797">
        <ele>14.56</ele>
        <time>2022-04-26T15:05:32Z</time>
      </trkpt>
      <trkpt lat="41.7366" lon="8.78801">
        <ele>15.52</ele>
        <time>2022-04-26T15:05:37Z</time>
      </trkpt>
      <trkpt lat="41.73655" lon="8.78813">
        <ele>16.96</ele>
        <time>2022-04-26T15:05:53Z</time>
      </trkpt>
      <trkpt lat="41.73648" lon="8.7882">
        <ele>19.84</ele>
        <time>2022-04-26T15:06:08Z</time>
      </trkpt>
      <trkpt lat="41.73633" lon="8.7883">
        <ele>21.77</ele>
        <time>2022-04-26T15:06:25Z</time>
      </trkpt>
      <trkpt lat="41.73621" lon="8.78835">
        <ele>23.21</ele>
        <time>2022-04-26T15:06:39Z</time>
      </trkpt>
      <trkpt lat="41.73612" lon="8.78837">
        <ele>24.17</ele>
        <time>2022-04-26T15:06:51Z</time>
      </trkpt>
      <trkpt lat="41.73602" lon="8.78847">
        <ele>26.09</ele>
        <time>2022-04-26T15:07:07Z</time>
      </trkpt>
      <trkpt lat="41.73595" lon="8.78858">
        <ele>27.53</ele>
        <time>2022-04-26T15:07:21Z</time>
      </trkpt>
      <trkpt lat="41.73591" lon="8.78869">
        <ele>29.46</ele>
        <time>2022-04-26T15:07:34Z</time>
      </trkpt>
      <trkpt lat="41.73587" lon="8.78881">
        <ele>30.9</ele>
        <time>2022-04-26T15:07:47Z</time>
      </trkpt>
      <trkpt lat="41.73582" lon="8.78894">
        <ele>31.38</ele>
        <time>2022-04-26T15:08:03Z</time>
      </trkpt>
      <trkpt lat="41.73574" lon="8.78906">
        <ele>33.3</ele>
        <time>2022-04-26T15:08:19Z</time>
      </trkpt>
      <trkpt lat="41.73565" lon="8.78912">
        <ele>34.26</ele>
        <time>2022-04-26T15:08:34Z</time>
      </trkpt>
      <trkpt lat="41.73552" lon="8.78919">
        <ele>36.67</ele>
        <time>2022-04-26T15:08:52Z</time>
      </trkpt>
      <trkpt lat="41.73539" lon="8.78927">
        <ele>37.63</ele>
        <time>2022-04-26T15:09:07Z</time>
      </trkpt>
      <trkpt lat="41.73529" lon="8.78932">
        <ele>38.59</ele>
        <time>2022-04-26T15:09:20Z</time>
      </trkpt>
      <trkpt lat="41.73519" lon="8.78938">
        <ele>39.55</ele>
        <time>2022-04-26T15:09:31Z</time>
      </trkpt>
      <trkpt lat="41.73507" lon="8.78952">
        <ele>40.99</ele>
        <time>2022-04-26T15:09:48Z</time>
      </trkpt>
      <trkpt lat="41.73504" lon="8.78955">
        <ele>41.47</ele>
        <time>2022-04-26T15:09:52Z</time>
      </trkpt>
      <trkpt lat="41.73494" lon="8.78962">
        <ele>42.92</ele>
        <time>2022-04-26T15:10:06Z</time>
      </trkpt>
      <trkpt lat="41.73487" lon="8.78973">
        <ele>43.88</ele>
        <time>2022-04-26T15:10:20Z</time>
      </trkpt>
      <trkpt lat="41.73476" lon="8.78986">
        <ele>45.8</ele>
        <time>2022-04-26T15:10:36Z</time>
      </trkpt>
      <trkpt lat="41.73469" lon="8.78998">
        <ele>48.2</ele>
        <time>2022-04-26T15:10:51Z</time>
      </trkpt>
      <trkpt lat="41.73464" lon="8.79007">
        <ele>50.13</ele>
        <time>2022-04-26T15:11:06Z</time>
      </trkpt>
      <trkpt lat="41.73455" lon="8.79014">
        <ele>52.53</ele>
        <time>2022-04-26T15:11:21Z</time>
      </trkpt>
      <trkpt lat="41.7345" lon="8.7902">
        <ele>54.45</ele>
        <time>2022-04-26T15:11:33Z</time>
      </trkpt>
      <trkpt lat="41.73445" lon="8.79027">
        <ele>56.86</ele>
        <time>2022-04-26T15:11:46Z</time>
      </trkpt>
      <trkpt lat="41.73439" lon="8.79033">
        <ele>59.26</ele>
        <time>2022-04-26T15:11:58Z</time>
      </trkpt>
      <trkpt lat="41.73434" lon="8.7904">
        <ele>60.7</ele>
        <time>2022-04-26T15:12:12Z</time>
      </trkpt>
      <trkpt lat="41.73427" lon="8.79046">
        <ele>64.07</ele>
        <time>2022-04-26T15:12:26Z</time>
      </trkpt>
      <trkpt lat="41.73419" lon="8.79055">
        <ele>65.99</ele>
        <time>2022-04-26T15:12:39Z</time>
      </trkpt>
      <trkpt lat="41.73413" lon="8.79065">
        <ele>67.91</ele>
        <time>2022-04-26T15:12:53Z</time>
      </trkpt>
      <trkpt lat="41.73411" lon="8.79078">
        <ele>68.39</ele>
        <time>2022-04-26T15:13:06Z</time>
      </trkpt>
      <trkpt lat="41.73408" lon="8.79083">
        <ele>70.31</ele>
        <time>2022-04-26T15:13:13Z</time>
      </trkpt>
      <trkpt lat="41.73406" lon="8.79083">
        <ele>70.31</ele>
        <time>2022-04-26T15:13:29Z</time>
      </trkpt>
      <trkpt lat="41.73402" lon="8.79097">
        <ele>70.31</ele>
        <time>2022-04-26T15:13:46Z</time>
      </trkpt>
      <trkpt lat="41.73397" lon="8.79113">
        <ele>72.24</ele>
        <time>2022-04-26T15:14:02Z</time>
      </trkpt>
      <trkpt lat="41.73392" lon="8.79123">
        <ele>73.2</ele>
        <time>2022-04-26T15:14:13Z</time>
      </trkpt>
      <trkpt lat="41.73386" lon="8.7914">
        <ele>74.64</ele>
        <time>2022-04-26T15:14:27Z</time>
      </trkpt>
      <trkpt lat="41.73382" lon="8.79153">
        <ele>76.56</ele>
        <time>2022-04-26T15:14:41Z</time>
      </trkpt>
      <trkpt lat="41.73377" lon="8.79169">
        <ele>78.48</ele>
        <time>2022-04-26T15:14:56Z</time>
      </trkpt>
      <trkpt lat="41.73371" lon="8.79182">
        <ele>79.93</ele>
        <time>2022-04-26T15:15:10Z</time>
      </trkpt>
      <trkpt lat="41.73367" lon="8.79197">
        <ele>81.37</ele>
        <time>2022-04-26T15:15:23Z</time>
      </trkpt>
      <trkpt lat="41.73362" lon="8.79211">
        <ele>84.25</ele>
        <time>2022-04-26T15:15:38Z</time>
      </trkpt>
      <trkpt lat="41.73355" lon="8.79225">
        <ele>84.73</ele>
        <time>2022-04-26T15:15:52Z</time>
      </trkpt>
      <trkpt lat="41.73353" lon="8.79232">
        <ele>85.69</ele>
        <time>2022-04-26T15:15:58Z</time>
      </trkpt>
      <trkpt lat="41.73352" lon="8.79233">
        <ele>85.69</ele>
        <time>2022-04-26T15:16:13Z</time>
      </trkpt>
      <trkpt lat="41.73355" lon="8.7923">
        <ele>85.69</ele>
        <time>2022-04-26T15:16:33Z</time>
      </trkpt>
      <trkpt lat="41.73354" lon="8.79234">
        <ele>86.18</ele>
        <time>2022-04-26T15:16:52Z</time>
      </trkpt>
      <trkpt lat="41.7335" lon="8.7924">
        <ele>86.18</ele>
        <time>2022-04-26T15:17:04Z</time>
      </trkpt>
      <trkpt lat="41.73338" lon="8.7925">
        <ele>87.62</ele>
        <time>2022-04-26T15:17:19Z</time>
      </trkpt>
      <trkpt lat="41.73326" lon="8.79254">
        <ele>89.54</ele>
        <time>2022-04-26T15:17:33Z</time>
      </trkpt>
      <trkpt lat="41.73312" lon="8.79258">
        <ele>91.94</ele>
        <time>2022-04-26T15:17:49Z</time>
      </trkpt>
      <trkpt lat="41.733" lon="8.79262">
        <ele>93.39</ele>
        <time>2022-04-26T15:18:03Z</time>
      </trkpt>
      <trkpt lat="41.73299" lon="8.79262">
        <ele>92.9</ele>
        <time>2022-04-26T15:18:04Z</time>
      </trkpt>
      <trkpt lat="41.73294" lon="8.79263">
        <ele>92.9</ele>
        <time>2022-04-26T15:18:08Z</time>
      </trkpt>
      <trkpt lat="41.73289" lon="8.79271">
        <ele>91.46</ele>
        <time>2022-04-26T15:18:24Z</time>
      </trkpt>
      <trkpt lat="41.73289" lon="8.79273">
        <ele>91.46</ele>
        <time>2022-04-26T15:18:46Z</time>
      </trkpt>
      <trkpt lat="41.73286" lon="8.79274">
        <ele>90.5</ele>
        <time>2022-04-26T15:19:11Z</time>
      </trkpt>
      <trkpt lat="41.73275" lon="8.79284">
        <ele>88.1</ele>
        <time>2022-04-26T15:19:26Z</time>
      </trkpt>
      <trkpt lat="41.7326" lon="8.79298">
        <ele>86.66</ele>
        <time>2022-04-26T15:19:42Z</time>
      </trkpt>
      <trkpt lat="41.73241" lon="8.79307">
        <ele>85.69</ele>
        <time>2022-04-26T15:19:58Z</time>
      </trkpt>
      <trkpt lat="41.73234" lon="8.7931">
        <ele>86.18</ele>
        <time>2022-04-26T15:20:04Z</time>
      </trkpt>
      <trkpt lat="41.73218" lon="8.79315">
        <ele>86.18</ele>
        <time>2022-04-26T15:20:19Z</time>
      </trkpt>
      <trkpt lat="41.73197" lon="8.79311">
        <ele>87.14</ele>
        <time>2022-04-26T15:20:38Z</time>
      </trkpt>
      <trkpt lat="41.73195" lon="8.79311">
        <ele>90.02</ele>
        <time>2022-04-26T15:20:40Z</time>
      </trkpt>
      <trkpt lat="41.73193" lon="8.79311">
        <ele>87.62</ele>
        <time>2022-04-26T15:20:42Z</time>
      </trkpt>
      <trkpt lat="41.7318" lon="8.79313">
        <ele>89.54</ele>
        <time>2022-04-26T15:20:55Z</time>
      </trkpt>
      <trkpt lat="41.73169" lon="8.79318">
        <ele>88.1</ele>
        <time>2022-04-26T15:21:07Z</time>
      </trkpt>
      <trkpt lat="41.73163" lon="8.79324">
        <ele>87.14</ele>
        <time>2022-04-26T15:21:12Z</time>
      </trkpt>
      <trkpt lat="41.73151" lon="8.79338">
        <ele>86.66</ele>
        <time>2022-04-26T15:21:23Z</time>
      </trkpt>
      <trkpt lat="41.73138" lon="8.79349">
        <ele>86.18</ele>
        <time>2022-04-26T15:21:35Z</time>
      </trkpt>
      <trkpt lat="41.73127" lon="8.79364">
        <ele>87.14</ele>
        <time>2022-04-26T15:21:48Z</time>
      </trkpt>
      <trkpt lat="41.7312" lon="8.79367">
        <ele>84.73</ele>
        <time>2022-04-26T15:21:54Z</time>
      </trkpt>
      <trkpt lat="41.73111" lon="8.79376">
        <ele>84.25</ele>
        <time>2022-04-26T15:22:08Z</time>
      </trkpt>
      <trkpt lat="41.73102" lon="8.79384">
        <ele>80.89</ele>
        <time>2022-04-26T15:22:18Z</time>
      </trkpt>
      <trkpt lat="41.73087" lon="8.794">
        <ele>82.33</ele>
        <time>2022-04-26T15:22:34Z</time>
      </trkpt>
      <trkpt lat="41.7308" lon="8.79407">
        <ele>84.25</ele>
        <time>2022-04-26T15:22:47Z</time>
      </trkpt>
      <trkpt lat="41.73071" lon="8.79415">
        <ele>87.14</ele>
        <time>2022-04-26T15:23:03Z</time>
      </trkpt>
      <trkpt lat="41.73064" lon="8.79421">
        <ele>90.5</ele>
        <time>2022-04-26T15:23:18Z</time>
      </trkpt>
      <trkpt lat="41.73057" lon="8.79427">
        <ele>92.42</ele>
        <time>2022-04-26T15:23:32Z</time>
      </trkpt>
      <trkpt lat="41.7305" lon="8.79434">
        <ele>95.31</ele>
        <time>2022-04-26T15:23:48Z</time>
      </trkpt>
      <trkpt lat="41.73042" lon="8.79439">
        <ele>97.71</ele>
        <time>2022-04-26T15:24:01Z</time>
      </trkpt>
      <trkpt lat="41.73036" lon="8.79445">
        <ele>100.11</ele>
        <time>2022-04-26T15:24:14Z</time>
      </trkpt>
      <trkpt lat="41.73029" lon="8.79452">
        <ele>102.04</ele>
        <time>2022-04-26T15:24:28Z</time>
      </trkpt>
      <trkpt lat="41.73023" lon="8.79459">
        <ele>104.44</ele>
        <time>2022-04-26T15:24:42Z</time>
      </trkpt>
      <trkpt lat="41.73013" lon="8.79467">
        <ele>106.36</ele>
        <time>2022-04-26T15:24:58Z</time>
      </trkpt>
      <trkpt lat="41.73006" lon="8.79473">
        <ele>109.25</ele>
        <time>2022-04-26T15:25:11Z</time>
      </trkpt>
      <trkpt lat="41.72996" lon="8.79478">
        <ele>111.17</ele>
        <time>2022-04-26T15:25:25Z</time>
      </trkpt>
      <trkpt lat="41.72985" lon="8.79485">
        <ele>113.57</ele>
        <time>2022-04-26T15:25:39Z</time>
      </trkpt>
      <trkpt lat="41.72974" lon="8.79494">
        <ele>115.5</ele>
        <time>2022-04-26T15:25:53Z</time>
      </trkpt>
      <trkpt lat="41.72963" lon="8.79506">
        <ele>117.9</ele>
        <time>2022-04-26T15:26:09Z</time>
      </trkpt>
      <trkpt lat="41.72951" lon="8.79516">
        <ele>119.82</ele>
        <time>2022-04-26T15:26:24Z</time>
      </trkpt>
      <trkpt lat="41.7294" lon="8.79527">
        <ele>120.78</ele>
        <time>2022-04-26T15:26:39Z</time>
      </trkpt>
      <trkpt lat="41.72927" lon="8.79537">
        <ele>122.22</ele>
        <time>2022-04-26T15:26:55Z</time>
      </trkpt>
      <trkpt lat="41.72915" lon="8.79546">
        <ele>124.63</ele>
        <time>2022-04-26T15:27:11Z</time>
      </trkpt>
      <trkpt lat="41.72902" lon="8.7956">
        <ele>125.59</ele>
        <time>2022-04-26T15:27:27Z</time>
      </trkpt>
      <trkpt lat="41.72891" lon="8.79574">
        <ele>126.55</ele>
        <time>2022-04-26T15:27:42Z</time>
      </trkpt>
      <trkpt lat="41.7288" lon="8.79592">
        <ele>127.99</ele>
        <time>2022-04-26T15:27:58Z</time>
      </trkpt>
      <trkpt lat="41.72869" lon="8.79611">
        <ele>128.95</ele>
        <time>2022-04-26T15:28:13Z</time>
      </trkpt>
      <trkpt lat="41.72863" lon="8.7962">
        <ele>129.92</ele>
        <time>2022-04-26T15:28:27Z</time>
      </trkpt>
      <trkpt lat="41.7286" lon="8.79628">
        <ele>129.92</ele>
        <time>2022-04-26T15:28:42Z</time>
      </trkpt>
      <trkpt lat="41.7285" lon="8.79648">
        <ele>131.84</ele>
        <time>2022-04-26T15:28:59Z</time>
      </trkpt>
      <trkpt lat="41.72839" lon="8.79663">
        <ele>131.36</ele>
        <time>2022-04-26T15:29:11Z</time>
      </trkpt>
      <trkpt lat="41.72833" lon="8.79676">
        <ele>131.36</ele>
        <time>2022-04-26T15:29:20Z</time>
      </trkpt>
      <trkpt lat="41.72838" lon="8.79689">
        <ele>131.36</ele>
        <time>2022-04-26T15:29:29Z</time>
      </trkpt>
      <trkpt lat="41.72829" lon="8.79709">
        <ele>131.36</ele>
        <time>2022-04-26T15:29:44Z</time>
      </trkpt>
      <trkpt lat="41.72823" lon="8.7972">
        <ele>130.88</ele>
        <time>2022-04-26T15:29:52Z</time>
      </trkpt>
      <trkpt lat="41.72823" lon="8.79722">
        <ele>130.4</ele>
        <time>2022-04-26T15:29:54Z</time>
      </trkpt>
      <trkpt lat="41.72823" lon="8.79727">
        <ele>130.4</ele>
        <time>2022-04-26T15:30:08Z</time>
      </trkpt>
      <trkpt lat="41.72822" lon="8.79722">
        <ele>130.4</ele>
        <time>2022-04-26T15:30:31Z</time>
      </trkpt>
      <trkpt lat="41.72822" lon="8.79726">
        <ele>131.36</ele>
        <time>2022-04-26T15:31:09Z</time>
      </trkpt>
      <trkpt lat="41.72823" lon="8.79727">
        <ele>130.88</ele>
        <time>2022-04-26T15:31:34Z</time>
      </trkpt>
      <trkpt lat="41.72819" lon="8.79731">
        <ele>130.88</ele>
        <time>2022-04-26T15:31:48Z</time>
      </trkpt>
      <trkpt lat="41.72817" lon="8.79729">
        <ele>130.88</ele>
        <time>2022-04-26T15:32:10Z</time>
      </trkpt>
      <trkpt lat="41.72816" lon="8.79734">
        <ele>130.88</ele>
        <time>2022-04-26T15:32:25Z</time>
      </trkpt>
      <trkpt lat="41.72819" lon="8.79728">
        <ele>130.88</ele>
        <time>2022-04-26T15:32:44Z</time>
      </trkpt>
      <trkpt lat="41.72819" lon="8.79732">
        <ele>132.8</ele>
        <time>2022-04-26T15:33:08Z</time>
      </trkpt>
      <trkpt lat="41.72814" lon="8.79741">
        <ele>130.88</ele>
        <time>2022-04-26T15:33:18Z</time>
      </trkpt>
      <trkpt lat="41.72807" lon="8.79735">
        <ele>130.88</ele>
        <time>2022-04-26T15:33:25Z</time>
      </trkpt>
      <trkpt lat="41.72805" lon="8.79734">
        <ele>130.88</ele>
        <time>2022-04-26T15:33:27Z</time>
      </trkpt>
      <trkpt lat="41.7279" lon="8.79725">
        <ele>130.88</ele>
        <time>2022-04-26T15:33:41Z</time>
      </trkpt>
      <trkpt lat="41.72771" lon="8.79711">
        <ele>131.84</ele>
        <time>2022-04-26T15:33:59Z</time>
      </trkpt>
      <trkpt lat="41.72772" lon="8.7971">
        <ele>131.36</ele>
        <time>2022-04-26T15:34:15Z</time>
      </trkpt>
      <trkpt lat="41.72768" lon="8.79708">
        <ele>131.36</ele>
        <time>2022-04-26T15:34:28Z</time>
      </trkpt>
      <trkpt lat="41.72764" lon="8.79704">
        <ele>131.84</ele>
        <time>2022-04-26T15:34:32Z</time>
      </trkpt>
      <trkpt lat="41.72756" lon="8.79698">
        <ele>132.32</ele>
        <time>2022-04-26T15:34:39Z</time>
      </trkpt>
      <trkpt lat="41.72738" lon="8.79682">
        <ele>132.8</ele>
        <time>2022-04-26T15:34:59Z</time>
      </trkpt>
      <trkpt lat="41.72722" lon="8.79669">
        <ele>133.28</ele>
        <time>2022-04-26T15:35:16Z</time>
      </trkpt>
      <trkpt lat="41.72705" lon="8.79655">
        <ele>135.68</ele>
        <time>2022-04-26T15:35:33Z</time>
      </trkpt>
      <trkpt lat="41.72689" lon="8.7964">
        <ele>135.68</ele>
        <time>2022-04-26T15:35:49Z</time>
      </trkpt>
      <trkpt lat="41.72681" lon="8.79637">
        <ele>137.13</ele>
        <time>2022-04-26T15:36:02Z</time>
      </trkpt>
      <trkpt lat="41.72675" lon="8.79631">
        <ele>138.09</ele>
        <time>2022-04-26T15:36:09Z</time>
      </trkpt>
      <trkpt lat="41.72664" lon="8.79624">
        <ele>138.57</ele>
        <time>2022-04-26T15:36:20Z</time>
      </trkpt>
      <trkpt lat="41.7265" lon="8.79614">
        <ele>139.53</ele>
        <time>2022-04-26T15:36:35Z</time>
      </trkpt>
      <trkpt lat="41.72637" lon="8.79606">
        <ele>141.45</ele>
        <time>2022-04-26T15:36:49Z</time>
      </trkpt>
      <trkpt lat="41.72621" lon="8.79596">
        <ele>142.89</ele>
        <time>2022-04-26T15:37:06Z</time>
      </trkpt>
      <trkpt lat="41.72618" lon="8.79594">
        <ele>143.85</ele>
        <time>2022-04-26T15:37:09Z</time>
      </trkpt>
      <trkpt lat="41.72615" lon="8.79593">
        <ele>144.82</ele>
        <time>2022-04-26T15:37:18Z</time>
      </trkpt>
      <trkpt lat="41.72604" lon="8.79583">
        <ele>146.26</ele>
        <time>2022-04-26T15:37:31Z</time>
      </trkpt>
      <trkpt lat="41.72586" lon="8.79571">
        <ele>149.14</ele>
        <time>2022-04-26T15:37:49Z</time>
      </trkpt>
      <trkpt lat="41.72582" lon="8.79567">
        <ele>150.58</ele>
        <time>2022-04-26T15:38:03Z</time>
      </trkpt>
      <trkpt lat="41.72568" lon="8.79555">
        <ele>151.06</ele>
        <time>2022-04-26T15:38:19Z</time>
      </trkpt>
      <trkpt lat="41.72565" lon="8.79544">
        <ele>151.54</ele>
        <time>2022-04-26T15:38:26Z</time>
      </trkpt>
      <trkpt lat="41.7257" lon="8.79516">
        <ele>151.06</ele>
        <time>2022-04-26T15:38:43Z</time>
      </trkpt>
      <trkpt lat="41.72563" lon="8.79496">
        <ele>151.54</ele>
        <time>2022-04-26T15:38:58Z</time>
      </trkpt>
      <trkpt lat="41.72561" lon="8.79494">
        <ele>151.54</ele>
        <time>2022-04-26T15:39:00Z</time>
      </trkpt>
      <trkpt lat="41.72558" lon="8.79493">
        <ele>152.03</ele>
        <time>2022-04-26T15:39:03Z</time>
      </trkpt>
      <trkpt lat="41.72546" lon="8.79486">
        <ele>152.99</ele>
        <time>2022-04-26T15:39:15Z</time>
      </trkpt>
      <trkpt lat="41.72536" lon="8.79482">
        <ele>154.43</ele>
        <time>2022-04-26T15:39:30Z</time>
      </trkpt>
      <trkpt lat="41.72529" lon="8.79476">
        <ele>155.87</ele>
        <time>2022-04-26T15:39:43Z</time>
      </trkpt>
      <trkpt lat="41.72514" lon="8.79466">
        <ele>157.31</ele>
        <time>2022-04-26T15:39:58Z</time>
      </trkpt>
      <trkpt lat="41.72502" lon="8.79455">
        <ele>160.2</ele>
        <time>2022-04-26T15:40:13Z</time>
      </trkpt>
      <trkpt lat="41.72492" lon="8.79447">
        <ele>162.12</ele>
        <time>2022-04-26T15:40:25Z</time>
      </trkpt>
      <trkpt lat="41.72479" lon="8.79437">
        <ele>163.56</ele>
        <time>2022-04-26T15:40:41Z</time>
      </trkpt>
      <trkpt lat="41.72476" lon="8.79435">
        <ele>164.52</ele>
        <time>2022-04-26T15:40:44Z</time>
      </trkpt>
      <trkpt lat="41.72456" lon="8.79421">
        <ele>166.45</ele>
        <time>2022-04-26T15:41:03Z</time>
      </trkpt>
      <trkpt lat="41.7244" lon="8.79412">
        <ele>167.89</ele>
        <time>2022-04-26T15:41:19Z</time>
      </trkpt>
      <trkpt lat="41.72428" lon="8.794">
        <ele>169.33</ele>
        <time>2022-04-26T15:41:34Z</time>
      </trkpt>
      <trkpt lat="41.72413" lon="8.79387">
        <ele>172.69</ele>
        <time>2022-04-26T15:41:52Z</time>
      </trkpt>
      <trkpt lat="41.72407" lon="8.79384">
        <ele>173.17</ele>
        <time>2022-04-26T15:41:59Z</time>
      </trkpt>
      <trkpt lat="41.72405" lon="8.79381">
        <ele>173.66</ele>
        <time>2022-04-26T15:42:04Z</time>
      </trkpt>
      <trkpt lat="41.72394" lon="8.79372">
        <ele>175.1</ele>
        <time>2022-04-26T15:42:16Z</time>
      </trkpt>
      <trkpt lat="41.72394" lon="8.7937">
        <ele>175.58</ele>
        <time>2022-04-26T15:42:17Z</time>
      </trkpt>
      <trkpt lat="41.72383" lon="8.79354">
        <ele>175.1</ele>
        <time>2022-04-26T15:42:33Z</time>
      </trkpt>
      <trkpt lat="41.72382" lon="8.79353">
        <ele>174.62</ele>
        <time>2022-04-26T15:42:34Z</time>
      </trkpt>
      <trkpt lat="41.72372" lon="8.79341">
        <ele>176.54</ele>
        <time>2022-04-26T15:42:48Z</time>
      </trkpt>
      <trkpt lat="41.72363" lon="8.7933">
        <ele>177.5</ele>
        <time>2022-04-26T15:43:02Z</time>
      </trkpt>
      <trkpt lat="41.72357" lon="8.79322">
        <ele>179.9</ele>
        <time>2022-04-26T15:43:15Z</time>
      </trkpt>
      <trkpt lat="41.72347" lon="8.79314">
        <ele>181.83</ele>
        <time>2022-04-26T15:43:30Z</time>
      </trkpt>
      <trkpt lat="41.72337" lon="8.79304">
        <ele>182.79</ele>
        <time>2022-04-26T15:43:43Z</time>
      </trkpt>
      <trkpt lat="41.72329" lon="8.79293">
        <ele>184.71</ele>
        <time>2022-04-26T15:43:57Z</time>
      </trkpt>
      <trkpt lat="41.72324" lon="8.79289">
        <ele>185.67</ele>
        <time>2022-04-26T15:44:12Z</time>
      </trkpt>
      <trkpt lat="41.72316" lon="8.7928">
        <ele>188.56</ele>
        <time>2022-04-26T15:44:29Z</time>
      </trkpt>
      <trkpt lat="41.72303" lon="8.79267">
        <ele>189.04</ele>
        <time>2022-04-26T15:44:45Z</time>
      </trkpt>
      <trkpt lat="41.72289" lon="8.7927">
        <ele>189.04</ele>
        <time>2022-04-26T15:44:59Z</time>
      </trkpt>
      <trkpt lat="41.72274" lon="8.79268">
        <ele>189.04</ele>
        <time>2022-04-26T15:45:16Z</time>
      </trkpt>
      <trkpt lat="41.72271" lon="8.79266">
        <ele>189.04</ele>
        <time>2022-04-26T15:45:20Z</time>
      </trkpt>
      <trkpt lat="41.72254" lon="8.79256">
        <ele>189.52</ele>
        <time>2022-04-26T15:45:37Z</time>
      </trkpt>
      <trkpt lat="41.72239" lon="8.79244">
        <ele>190.48</ele>
        <time>2022-04-26T15:45:53Z</time>
      </trkpt>
      <trkpt lat="41.72221" lon="8.79234">
        <ele>188.56</ele>
        <time>2022-04-26T15:46:05Z</time>
      </trkpt>
      <trkpt lat="41.72214" lon="8.79229">
        <ele>188.56</ele>
        <time>2022-04-26T15:46:13Z</time>
      </trkpt>
      <trkpt lat="41.72204" lon="8.79218">
        <ele>188.08</ele>
        <time>2022-04-26T15:46:26Z</time>
      </trkpt>
      <trkpt lat="41.72203" lon="8.79223">
        <ele>188.56</ele>
        <time>2022-04-26T15:46:44Z</time>
      </trkpt>
      <trkpt lat="41.722" lon="8.79205">
        <ele>186.63</ele>
        <time>2022-04-26T15:46:57Z</time>
      </trkpt>
      <trkpt lat="41.722" lon="8.79203">
        <ele>186.63</ele>
        <time>2022-04-26T15:46:58Z</time>
      </trkpt>
      <trkpt lat="41.72195" lon="8.79185">
        <ele>186.15</ele>
        <time>2022-04-26T15:47:13Z</time>
      </trkpt>
      <trkpt lat="41.72191" lon="8.79169">
        <ele>185.19</ele>
        <time>2022-04-26T15:47:23Z</time>
      </trkpt>
      <trkpt lat="41.72183" lon="8.79157">
        <ele>185.19</ele>
        <time>2022-04-26T15:47:33Z</time>
      </trkpt>
      <trkpt lat="41.72172" lon="8.79152">
        <ele>186.63</ele>
        <time>2022-04-26T15:47:46Z</time>
      </trkpt>
      <trkpt lat="41.72173" lon="8.7915">
        <ele>186.15</ele>
        <time>2022-04-26T15:48:05Z</time>
      </trkpt>
      <trkpt lat="41.72162" lon="8.7914">
        <ele>187.11</ele>
        <time>2022-04-26T15:48:17Z</time>
      </trkpt>
      <trkpt lat="41.72162" lon="8.79138">
        <ele>186.63</ele>
        <time>2022-04-26T15:48:18Z</time>
      </trkpt>
      <trkpt lat="41.72153" lon="8.79131">
        <ele>188.56</ele>
        <time>2022-04-26T15:48:30Z</time>
      </trkpt>
      <trkpt lat="41.72143" lon="8.7912">
        <ele>189.52</ele>
        <time>2022-04-26T15:48:44Z</time>
      </trkpt>
      <trkpt lat="41.72137" lon="8.79112">
        <ele>192.4</ele>
        <time>2022-04-26T15:48:58Z</time>
      </trkpt>
      <trkpt lat="41.72132" lon="8.79098">
        <ele>194.32</ele>
        <time>2022-04-26T15:49:13Z</time>
      </trkpt>
      <trkpt lat="41.72128" lon="8.79088">
        <ele>196.73</ele>
        <time>2022-04-26T15:49:25Z</time>
      </trkpt>
      <trkpt lat="41.72118" lon="8.7908">
        <ele>199.13</ele>
        <time>2022-04-26T15:49:41Z</time>
      </trkpt>
      <trkpt lat="41.72108" lon="8.79078">
        <ele>201.53</ele>
        <time>2022-04-26T15:49:56Z</time>
      </trkpt>
      <trkpt lat="41.72104" lon="8.79073">
        <ele>202.98</ele>
        <time>2022-04-26T15:50:09Z</time>
      </trkpt>
      <trkpt lat="41.72104" lon="8.79073">
        <ele>202.98</ele>
        <time>2022-04-26T15:50:34Z</time>
      </trkpt>
      <trkpt lat="41.72103" lon="8.79072">
        <ele>203.46</ele>
        <time>2022-04-26T15:51:00Z</time>
      </trkpt>
      <trkpt lat="41.72102" lon="8.79069">
        <ele>202.98</ele>
        <time>2022-04-26T15:51:16Z</time>
      </trkpt>
      <trkpt lat="41.72096" lon="8.79069">
        <ele>203.46</ele>
        <time>2022-04-26T15:51:37Z</time>
      </trkpt>
      <trkpt lat="41.72086" lon="8.79064">
        <ele>203.94</ele>
        <time>2022-04-26T15:51:48Z</time>
      </trkpt>
      <trkpt lat="41.72083" lon="8.79062">
        <ele>203.46</ele>
        <time>2022-04-26T15:51:51Z</time>
      </trkpt>
      <trkpt lat="41.72079" lon="8.79058">
        <ele>203.46</ele>
        <time>2022-04-26T15:51:56Z</time>
      </trkpt>
      <trkpt lat="41.72069" lon="8.79044">
        <ele>201.53</ele>
        <time>2022-04-26T15:52:09Z</time>
      </trkpt>
      <trkpt lat="41.72068" lon="8.79043">
        <ele>201.05</ele>
        <time>2022-04-26T15:52:10Z</time>
      </trkpt>
      <trkpt lat="41.72067" lon="8.79042">
        <ele>201.53</ele>
        <time>2022-04-26T15:52:11Z</time>
      </trkpt>
      <trkpt lat="41.72066" lon="8.79041">
        <ele>201.53</ele>
        <time>2022-04-26T15:52:12Z</time>
      </trkpt>
      <trkpt lat="41.72065" lon="8.7904">
        <ele>201.53</ele>
        <time>2022-04-26T15:52:13Z</time>
      </trkpt>
      <trkpt lat="41.72055" lon="8.7903">
        <ele>200.57</ele>
        <time>2022-04-26T15:52:25Z</time>
      </trkpt>
      <trkpt lat="41.72044" lon="8.79024">
        <ele>200.09</ele>
        <time>2022-04-26T15:52:36Z</time>
      </trkpt>
      <trkpt lat="41.72036" lon="8.79025">
        <ele>199.13</ele>
        <time>2022-04-26T15:52:44Z</time>
      </trkpt>
      <trkpt lat="41.72034" lon="8.79027">
        <ele>199.13</ele>
        <time>2022-04-26T15:52:46Z</time>
      </trkpt>
      <trkpt lat="41.72033" lon="8.79027">
        <ele>198.65</ele>
        <time>2022-04-26T15:52:47Z</time>
      </trkpt>
      <trkpt lat="41.72032" lon="8.79028">
        <ele>198.17</ele>
        <time>2022-04-26T15:52:48Z</time>
      </trkpt>
      <trkpt lat="41.72015" lon="8.79045">
        <ele>196.25</ele>
        <time>2022-04-26T15:53:02Z</time>
      </trkpt>
      <trkpt lat="41.72014" lon="8.79051">
        <ele>196.73</ele>
        <time>2022-04-26T15:53:14Z</time>
      </trkpt>
      <trkpt lat="41.7201" lon="8.79058">
        <ele>200.09</ele>
        <time>2022-04-26T15:53:23Z</time>
      </trkpt>
      <trkpt lat="41.72011" lon="8.79054">
        <ele>196.73</ele>
        <time>2022-04-26T15:53:35Z</time>
      </trkpt>
      <trkpt lat="41.72013" lon="8.79052">
        <ele>196.73</ele>
        <time>2022-04-26T15:53:51Z</time>
      </trkpt>
      <trkpt lat="41.72011" lon="8.79056">
        <ele>197.21</ele>
        <time>2022-04-26T15:53:54Z</time>
      </trkpt>
      <trkpt lat="41.72011" lon="8.79068">
        <ele>198.17</ele>
        <time>2022-04-26T15:54:06Z</time>
      </trkpt>
      <trkpt lat="41.7201" lon="8.79077">
        <ele>197.69</ele>
        <time>2022-04-26T15:54:17Z</time>
      </trkpt>
      <trkpt lat="41.7201" lon="8.79082">
        <ele>197.21</ele>
        <time>2022-04-26T15:54:22Z</time>
      </trkpt>
      <trkpt lat="41.72007" lon="8.79085">
        <ele>199.13</ele>
        <time>2022-04-26T15:54:40Z</time>
      </trkpt>
      <trkpt lat="41.7201" lon="8.79089">
        <ele>198.65</ele>
        <time>2022-04-26T15:54:58Z</time>
      </trkpt>
      <trkpt lat="41.72008" lon="8.79103">
        <ele>197.21</ele>
        <time>2022-04-26T15:55:15Z</time>
      </trkpt>
      <trkpt lat="41.72008" lon="8.79107">
        <ele>197.21</ele>
        <time>2022-04-26T15:55:18Z</time>
      </trkpt>
      <trkpt lat="41.72007" lon="8.79114">
        <ele>196.25</ele>
        <time>2022-04-26T15:55:30Z</time>
      </trkpt>
      <trkpt lat="41.72008" lon="8.79122">
        <ele>196.73</ele>
        <time>2022-04-26T15:55:35Z</time>
      </trkpt>
      <trkpt lat="41.72008" lon="8.79124">
        <ele>196.25</ele>
        <time>2022-04-26T15:55:36Z</time>
      </trkpt>
      <trkpt lat="41.72008" lon="8.79126">
        <ele>196.25</ele>
        <time>2022-04-26T15:55:37Z</time>
      </trkpt>
      <trkpt lat="41.72008" lon="8.79131">
        <ele>196.25</ele>
        <time>2022-04-26T15:55:40Z</time>
      </trkpt>
      <trkpt lat="41.72008" lon="8.79132">
        <ele>195.77</ele>
        <time>2022-04-26T15:55:41Z</time>
      </trkpt>
      <trkpt lat="41.72008" lon="8.79134">
        <ele>195.77</ele>
        <time>2022-04-26T15:55:42Z</time>
      </trkpt>
      <trkpt lat="41.72008" lon="8.79143">
        <ele>195.28</ele>
        <time>2022-04-26T15:55:49Z</time>
      </trkpt>
      <trkpt lat="41.72007" lon="8.79145">
        <ele>195.28</ele>
        <time>2022-04-26T15:55:50Z</time>
      </trkpt>
      <trkpt lat="41.72006" lon="8.79147">
        <ele>195.77</ele>
        <time>2022-04-26T15:55:51Z</time>
      </trkpt>
      <trkpt lat="41.72002" lon="8.79169">
        <ele>195.77</ele>
        <time>2022-04-26T15:56:06Z</time>
      </trkpt>
      <trkpt lat="41.72" lon="8.79176">
        <ele>195.77</ele>
        <time>2022-04-26T15:56:10Z</time>
      </trkpt>
      <trkpt lat="41.72" lon="8.79178">
        <ele>196.25</ele>
        <time>2022-04-26T15:56:11Z</time>
      </trkpt>
      <trkpt lat="41.72" lon="8.7918">
        <ele>195.77</ele>
        <time>2022-04-26T15:56:12Z</time>
      </trkpt>
      <trkpt lat="41.71998" lon="8.79189">
        <ele>194.8</ele>
        <time>2022-04-26T15:56:17Z</time>
      </trkpt>
      <trkpt lat="41.71999" lon="8.79215">
        <ele>193.36</ele>
        <time>2022-04-26T15:56:34Z</time>
      </trkpt>
      <trkpt lat="41.71998" lon="8.79216">
        <ele>193.36</ele>
        <time>2022-04-26T15:56:35Z</time>
      </trkpt>
      <trkpt lat="41.71998" lon="8.79217">
        <ele>192.88</ele>
        <time>2022-04-26T15:56:36Z</time>
      </trkpt>
      <trkpt lat="41.71997" lon="8.79218">
        <ele>192.88</ele>
        <time>2022-04-26T15:56:37Z</time>
      </trkpt>
      <trkpt lat="41.71995" lon="8.79219">
        <ele>191.92</ele>
        <time>2022-04-26T15:56:38Z</time>
      </trkpt>
      <trkpt lat="41.71986" lon="8.79235">
        <ele>190</ele>
        <time>2022-04-26T15:56:52Z</time>
      </trkpt>
      <trkpt lat="41.7197" lon="8.79252">
        <ele>188.08</ele>
        <time>2022-04-26T15:57:09Z</time>
      </trkpt>
      <trkpt lat="41.71955" lon="8.79267">
        <ele>185.67</ele>
        <time>2022-04-26T15:57:25Z</time>
      </trkpt>
      <trkpt lat="41.71944" lon="8.7928">
        <ele>184.23</ele>
        <time>2022-04-26T15:57:40Z</time>
      </trkpt>
      <trkpt lat="41.71938" lon="8.79286">
        <ele>182.79</ele>
        <time>2022-04-26T15:57:45Z</time>
      </trkpt>
      <trkpt lat="41.71937" lon="8.79287">
        <ele>182.31</ele>
        <time>2022-04-26T15:57:46Z</time>
      </trkpt>
      <trkpt lat="41.71923" lon="8.79303">
        <ele>180.38</ele>
        <time>2022-04-26T15:58:02Z</time>
      </trkpt>
      <trkpt lat="41.71914" lon="8.79315">
        <ele>178.46</ele>
        <time>2022-04-26T15:58:16Z</time>
      </trkpt>
      <trkpt lat="41.7191" lon="8.79319">
        <ele>177.5</ele>
        <time>2022-04-26T15:58:20Z</time>
      </trkpt>
      <trkpt lat="41.71903" lon="8.79329">
        <ele>176.54</ele>
        <time>2022-04-26T15:58:29Z</time>
      </trkpt>
      <trkpt lat="41.71902" lon="8.7933">
        <ele>176.06</ele>
        <time>2022-04-26T15:58:30Z</time>
      </trkpt>
      <trkpt lat="41.71901" lon="8.79331">
        <ele>175.1</ele>
        <time>2022-04-26T15:58:31Z</time>
      </trkpt>
      <trkpt lat="41.71901" lon="8.79332">
        <ele>175.1</ele>
        <time>2022-04-26T15:58:32Z</time>
      </trkpt>
      <trkpt lat="41.71888" lon="8.79346">
        <ele>172.69</ele>
        <time>2022-04-26T15:58:49Z</time>
      </trkpt>
      <trkpt lat="41.71882" lon="8.79357">
        <ele>171.25</ele>
        <time>2022-04-26T15:59:01Z</time>
      </trkpt>
      <trkpt lat="41.71869" lon="8.79373">
        <ele>169.33</ele>
        <time>2022-04-26T15:59:16Z</time>
      </trkpt>
      <trkpt lat="41.71865" lon="8.79389">
        <ele>167.41</ele>
        <time>2022-04-26T15:59:31Z</time>
      </trkpt>
      <trkpt lat="41.71855" lon="8.794">
        <ele>164.04</ele>
        <time>2022-04-26T15:59:46Z</time>
      </trkpt>
      <trkpt lat="41.71849" lon="8.79412">
        <ele>160.68</ele>
        <time>2022-04-26T16:00:02Z</time>
      </trkpt>
      <trkpt lat="41.71841" lon="8.79421">
        <ele>158.75</ele>
        <time>2022-04-26T16:00:13Z</time>
      </trkpt>
      <trkpt lat="41.71835" lon="8.79433">
        <ele>155.87</ele>
        <time>2022-04-26T16:00:26Z</time>
      </trkpt>
      <trkpt lat="41.71837" lon="8.79446">
        <ele>152.99</ele>
        <time>2022-04-26T16:00:40Z</time>
      </trkpt>
      <trkpt lat="41.7183" lon="8.79451">
        <ele>149.62</ele>
        <time>2022-04-26T16:00:53Z</time>
      </trkpt>
      <trkpt lat="41.71828" lon="8.7946">
        <ele>147.7</ele>
        <time>2022-04-26T16:01:05Z</time>
      </trkpt>
      <trkpt lat="41.71826" lon="8.7947">
        <ele>145.3</ele>
        <time>2022-04-26T16:01:19Z</time>
      </trkpt>
      <trkpt lat="41.7182" lon="8.79484">
        <ele>142.89</ele>
        <time>2022-04-26T16:01:34Z</time>
      </trkpt>
      <trkpt lat="41.71816" lon="8.79493">
        <ele>139.53</ele>
        <time>2022-04-26T16:01:48Z</time>
      </trkpt>
      <trkpt lat="41.71813" lon="8.795">
        <ele>136.16</ele>
        <time>2022-04-26T16:02:03Z</time>
      </trkpt>
      <trkpt lat="41.7181" lon="8.79501">
        <ele>134.72</ele>
        <time>2022-04-26T16:02:06Z</time>
      </trkpt>
      <trkpt lat="41.71815" lon="8.79511">
        <ele>134.24</ele>
        <time>2022-04-26T16:02:16Z</time>
      </trkpt>
      <trkpt lat="41.71819" lon="8.79524">
        <ele>133.76</ele>
        <time>2022-04-26T16:02:32Z</time>
      </trkpt>
      <trkpt lat="41.71819" lon="8.79524">
        <ele>134.72</ele>
        <time>2022-04-26T16:03:02Z</time>
      </trkpt>
      <trkpt lat="41.71825" lon="8.79541">
        <ele>134.24</ele>
        <time>2022-04-26T16:03:20Z</time>
      </trkpt>
      <trkpt lat="41.71827" lon="8.79551">
        <ele>133.76</ele>
        <time>2022-04-26T16:03:36Z</time>
      </trkpt>
      <trkpt lat="41.71817" lon="8.79561">
        <ele>130.88</ele>
        <time>2022-04-26T16:03:49Z</time>
      </trkpt>
      <trkpt lat="41.71799" lon="8.79576">
        <ele>129.92</ele>
        <time>2022-04-26T16:04:08Z</time>
      </trkpt>
      <trkpt lat="41.71795" lon="8.79576">
        <ele>128.95</ele>
        <time>2022-04-26T16:04:23Z</time>
      </trkpt>
      <trkpt lat="41.71791" lon="8.7958">
        <ele>128.47</ele>
        <time>2022-04-26T16:04:38Z</time>
      </trkpt>
      <trkpt lat="41.71789" lon="8.79577">
        <ele>128.47</ele>
        <time>2022-04-26T16:05:08Z</time>
      </trkpt>
      <trkpt lat="41.71787" lon="8.79577">
        <ele>128.47</ele>
        <time>2022-04-26T16:05:42Z</time>
      </trkpt>
      <trkpt lat="41.71787" lon="8.79578">
        <ele>128.95</ele>
        <time>2022-04-26T16:06:25Z</time>
      </trkpt>
      <trkpt lat="41.71786" lon="8.79575">
        <ele>128.47</ele>
        <time>2022-04-26T16:07:01Z</time>
      </trkpt>
      <trkpt lat="41.71783" lon="8.79588">
        <ele>127.99</ele>
        <time>2022-04-26T16:07:26Z</time>
      </trkpt>
      <trkpt lat="41.71772" lon="8.79602">
        <ele>126.07</ele>
        <time>2022-04-26T16:07:43Z</time>
      </trkpt>
      <trkpt lat="41.71767" lon="8.7961">
        <ele>123.19</ele>
        <time>2022-04-26T16:07:56Z</time>
      </trkpt>
      <trkpt lat="41.71756" lon="8.79617">
        <ele>121.26</ele>
        <time>2022-04-26T16:08:09Z</time>
      </trkpt>
      <trkpt lat="41.71747" lon="8.79627">
        <ele>118.38</ele>
        <time>2022-04-26T16:08:23Z</time>
      </trkpt>
      <trkpt lat="41.71738" lon="8.79633">
        <ele>115.01</ele>
        <time>2022-04-26T16:08:36Z</time>
      </trkpt>
      <trkpt lat="41.71727" lon="8.79641">
        <ele>112.61</ele>
        <time>2022-04-26T16:08:50Z</time>
      </trkpt>
      <trkpt lat="41.71713" lon="8.7965">
        <ele>111.65</ele>
        <time>2022-04-26T16:09:05Z</time>
      </trkpt>
      <trkpt lat="41.71711" lon="8.79651">
        <ele>110.69</ele>
        <time>2022-04-26T16:09:07Z</time>
      </trkpt>
      <trkpt lat="41.71709" lon="8.79652">
        <ele>110.69</ele>
        <time>2022-04-26T16:09:10Z</time>
      </trkpt>
      <trkpt lat="41.71694" lon="8.79662">
        <ele>110.69</ele>
        <time>2022-04-26T16:09:25Z</time>
      </trkpt>
      <trkpt lat="41.71681" lon="8.79672">
        <ele>111.65</ele>
        <time>2022-04-26T16:09:38Z</time>
      </trkpt>
      <trkpt lat="41.71674" lon="8.79678">
        <ele>111.65</ele>
        <time>2022-04-26T16:09:54Z</time>
      </trkpt>
      <trkpt lat="41.71665" lon="8.79686">
        <ele>110.69</ele>
        <time>2022-04-26T16:10:09Z</time>
      </trkpt>
      <trkpt lat="41.71654" lon="8.79691">
        <ele>108.77</ele>
        <time>2022-04-26T16:10:20Z</time>
      </trkpt>
      <trkpt lat="41.71649" lon="8.79694">
        <ele>107.81</ele>
        <time>2022-04-26T16:10:25Z</time>
      </trkpt>
      <trkpt lat="41.71644" lon="8.79702">
        <ele>105.88</ele>
        <time>2022-04-26T16:10:31Z</time>
      </trkpt>
      <trkpt lat="41.71642" lon="8.79705">
        <ele>106.84</ele>
        <time>2022-04-26T16:10:33Z</time>
      </trkpt>
      <trkpt lat="41.7164" lon="8.79706">
        <ele>105.88</ele>
        <time>2022-04-26T16:10:35Z</time>
      </trkpt>
      <trkpt lat="41.71634" lon="8.79714">
        <ele>103.96</ele>
        <time>2022-04-26T16:10:44Z</time>
      </trkpt>
      <trkpt lat="41.71627" lon="8.79719">
        <ele>100.6</ele>
        <time>2022-04-26T16:10:56Z</time>
      </trkpt>
      <trkpt lat="41.71618" lon="8.7973">
        <ele>97.71</ele>
        <time>2022-04-26T16:11:11Z</time>
      </trkpt>
      <trkpt lat="41.71611" lon="8.79737">
        <ele>94.83</ele>
        <time>2022-04-26T16:11:22Z</time>
      </trkpt>
      <trkpt lat="41.71602" lon="8.79747">
        <ele>91.46</ele>
        <time>2022-04-26T16:11:36Z</time>
      </trkpt>
      <trkpt lat="41.71583" lon="8.79759">
        <ele>90.5</ele>
        <time>2022-04-26T16:11:53Z</time>
      </trkpt>
      <trkpt lat="41.71583" lon="8.79759">
        <ele>90.5</ele>
        <time>2022-04-26T16:12:27Z</time>
      </trkpt>
      <trkpt lat="41.7157" lon="8.79762">
        <ele>91.46</ele>
        <time>2022-04-26T16:12:48Z</time>
      </trkpt>
      <trkpt lat="41.71556" lon="8.79766">
        <ele>92.9</ele>
        <time>2022-04-26T16:13:06Z</time>
      </trkpt>
      <trkpt lat="41.71539" lon="8.79768">
        <ele>94.83</ele>
        <time>2022-04-26T16:13:23Z</time>
      </trkpt>
      <trkpt lat="41.71537" lon="8.79768">
        <ele>95.31</ele>
        <time>2022-04-26T16:13:25Z</time>
      </trkpt>
      <trkpt lat="41.71521" lon="8.79774">
        <ele>96.27</ele>
        <time>2022-04-26T16:13:44Z</time>
      </trkpt>
      <trkpt lat="41.71511" lon="8.79777">
        <ele>93.39</ele>
        <time>2022-04-26T16:13:58Z</time>
      </trkpt>
      <trkpt lat="41.71499" lon="8.79781">
        <ele>90.5</ele>
        <time>2022-04-26T16:14:13Z</time>
      </trkpt>
      <trkpt lat="41.71491" lon="8.79787">
        <ele>88.1</ele>
        <time>2022-04-26T16:14:23Z</time>
      </trkpt>
      <trkpt lat="41.71485" lon="8.7979">
        <ele>87.14</ele>
        <time>2022-04-26T16:14:36Z</time>
      </trkpt>
      <trkpt lat="41.71476" lon="8.79794">
        <ele>84.25</ele>
        <time>2022-04-26T16:14:48Z</time>
      </trkpt>
      <trkpt lat="41.71469" lon="8.79795">
        <ele>81.37</ele>
        <time>2022-04-26T16:14:58Z</time>
      </trkpt>
      <trkpt lat="41.71458" lon="8.79799">
        <ele>78</ele>
        <time>2022-04-26T16:15:10Z</time>
      </trkpt>
      <trkpt lat="41.71449" lon="8.79801">
        <ele>75.12</ele>
        <time>2022-04-26T16:15:24Z</time>
      </trkpt>
      <trkpt lat="41.71443" lon="8.79801">
        <ele>72.24</ele>
        <time>2022-04-26T16:15:36Z</time>
      </trkpt>
      <trkpt lat="41.71432" lon="8.79804">
        <ele>69.83</ele>
        <time>2022-04-26T16:15:51Z</time>
      </trkpt>
      <trkpt lat="41.71416" lon="8.79809">
        <ele>67.91</ele>
        <time>2022-04-26T16:16:07Z</time>
      </trkpt>
      <trkpt lat="41.714" lon="8.79811">
        <ele>70.79</ele>
        <time>2022-04-26T16:16:24Z</time>
      </trkpt>
      <trkpt lat="41.71384" lon="8.79803">
        <ele>70.31</ele>
        <time>2022-04-26T16:16:45Z</time>
      </trkpt>
      <trkpt lat="41.7137" lon="8.79801">
        <ele>68.39</ele>
        <time>2022-04-26T16:16:56Z</time>
      </trkpt>
      <trkpt lat="41.71352" lon="8.79804">
        <ele>65.51</ele>
        <time>2022-04-26T16:17:13Z</time>
      </trkpt>
      <trkpt lat="41.71336" lon="8.79812">
        <ele>63.58</ele>
        <time>2022-04-26T16:17:29Z</time>
      </trkpt>
      <trkpt lat="41.71326" lon="8.7981">
        <ele>61.18</ele>
        <time>2022-04-26T16:17:42Z</time>
      </trkpt>
      <trkpt lat="41.71323" lon="8.79809">
        <ele>60.22</ele>
        <time>2022-04-26T16:17:46Z</time>
      </trkpt>
      <trkpt lat="41.71318" lon="8.7981">
        <ele>58.78</ele>
        <time>2022-04-26T16:17:50Z</time>
      </trkpt>
      <trkpt lat="41.71309" lon="8.79812">
        <ele>56.37</ele>
        <time>2022-04-26T16:18:02Z</time>
      </trkpt>
      <trkpt lat="41.71306" lon="8.79811">
        <ele>55.89</ele>
        <time>2022-04-26T16:18:05Z</time>
      </trkpt>
      <trkpt lat="41.71294" lon="8.79812">
        <ele>52.05</ele>
        <time>2022-04-26T16:18:18Z</time>
      </trkpt>
      <trkpt lat="41.71292" lon="8.79812">
        <ele>51.57</ele>
        <time>2022-04-26T16:18:20Z</time>
      </trkpt>
      <trkpt lat="41.71286" lon="8.79815">
        <ele>48.68</ele>
        <time>2022-04-26T16:18:31Z</time>
      </trkpt>
      <trkpt lat="41.71277" lon="8.79811">
        <ele>46.28</ele>
        <time>2022-04-26T16:18:44Z</time>
      </trkpt>
      <trkpt lat="41.71269" lon="8.79809">
        <ele>42.92</ele>
        <time>2022-04-26T16:18:54Z</time>
      </trkpt>
      <trkpt lat="41.71256" lon="8.79806">
        <ele>40.51</ele>
        <time>2022-04-26T16:19:07Z</time>
      </trkpt>
      <trkpt lat="41.71252" lon="8.79806">
        <ele>39.55</ele>
        <time>2022-04-26T16:19:13Z</time>
      </trkpt>
      <trkpt lat="41.71242" lon="8.79808">
        <ele>36.67</ele>
        <time>2022-04-26T16:19:25Z</time>
      </trkpt>
      <trkpt lat="41.71238" lon="8.79812">
        <ele>34.26</ele>
        <time>2022-04-26T16:19:32Z</time>
      </trkpt>
      <trkpt lat="41.71235" lon="8.79814">
        <ele>33.78</ele>
        <time>2022-04-26T16:19:36Z</time>
      </trkpt>
      <trkpt lat="41.71228" lon="8.79819">
        <ele>31.38</ele>
        <time>2022-04-26T16:19:47Z</time>
      </trkpt>
      <trkpt lat="41.71222" lon="8.79818">
        <ele>28.5</ele>
        <time>2022-04-26T16:19:56Z</time>
      </trkpt>
      <trkpt lat="41.71218" lon="8.79818">
        <ele>27.53</ele>
        <time>2022-04-26T16:20:00Z</time>
      </trkpt>
      <trkpt lat="41.71216" lon="8.79818">
        <ele>26.09</ele>
        <time>2022-04-26T16:20:02Z</time>
      </trkpt>
      <trkpt lat="41.71215" lon="8.79814">
        <ele>25.13</ele>
        <time>2022-04-26T16:20:07Z</time>
      </trkpt>
      <trkpt lat="41.71204" lon="8.79815">
        <ele>23.21</ele>
        <time>2022-04-26T16:20:22Z</time>
      </trkpt>
      <trkpt lat="41.71195" lon="8.79817">
        <ele>19.84</ele>
        <time>2022-04-26T16:20:34Z</time>
      </trkpt>
      <trkpt lat="41.71181" lon="8.79816">
        <ele>16.48</ele>
        <time>2022-04-26T16:20:47Z</time>
      </trkpt>
      <trkpt lat="41.7116" lon="8.79821">
        <ele>14.08</ele>
        <time>2022-04-26T16:21:04Z</time>
      </trkpt>
      <trkpt lat="41.71144" lon="8.79823">
        <ele>13.12</ele>
        <time>2022-04-26T16:21:20Z</time>
      </trkpt>
      <trkpt lat="41.71134" lon="8.7983">
        <ele>10.71</ele>
        <time>2022-04-26T16:21:34Z</time>
      </trkpt>
      <trkpt lat="41.71136" lon="8.79832">
        <ele>10.23</ele>
        <time>2022-04-26T16:21:49Z</time>
      </trkpt>
      <trkpt lat="41.71135" lon="8.79831">
        <ele>10.23</ele>
        <time>2022-04-26T16:22:10Z</time>
      </trkpt>
      <trkpt lat="41.71135" lon="8.7983">
        <ele>10.23</ele>
        <time>2022-04-26T16:22:40Z</time>
      </trkpt>
      <trkpt lat="41.71136" lon="8.79834">
        <ele>10.23</ele>
        <time>2022-04-26T16:23:06Z</time>
      </trkpt>
      <trkpt lat="41.71132" lon="8.79828">
        <ele>9.75</ele>
        <time>2022-04-26T16:23:32Z</time>
      </trkpt>
      <trkpt lat="41.71132" lon="8.79826">
        <ele>10.71</ele>
        <time>2022-04-26T16:23:53Z</time>
      </trkpt>
      <trkpt lat="41.71128" lon="8.7983">
        <ele>9.75</ele>
        <time>2022-04-26T16:24:18Z</time>
      </trkpt>
      <trkpt lat="41.71127" lon="8.79826">
        <ele>9.75</ele>
        <time>2022-04-26T16:24:22Z</time>
      </trkpt>
      <trkpt lat="41.71122" lon="8.79827">
        <ele>10.23</ele>
        <time>2022-04-26T16:24:28Z</time>
      </trkpt>
      <trkpt lat="41.71117" lon="8.79826">
        <ele>9.27</ele>
        <time>2022-04-26T16:24:32Z</time>
      </trkpt>
      <trkpt lat="41.71101" lon="8.79828">
        <ele>5.91</ele>
        <time>2022-04-26T16:24:45Z</time>
      </trkpt>
      <trkpt lat="41.71098" lon="8.79826">
        <ele>4.94</ele>
        <time>2022-04-26T16:24:59Z</time>
      </trkpt>
      <trkpt lat="41.71111" lon="8.79825">
        <ele>7.35</ele>
        <time>2022-04-26T16:25:14Z</time>
      </trkpt>
      <trkpt lat="41.71117" lon="8.79824">
        <ele>8.31</ele>
        <time>2022-04-26T16:25:20Z</time>
      </trkpt>
      <trkpt lat="41.71122" lon="8.79828">
        <ele>9.75</ele>
        <time>2022-04-26T16:25:36Z</time>
      </trkpt>
      <trkpt lat="41.71131" lon="8.79827">
        <ele>10.23</ele>
        <time>2022-04-26T16:25:51Z</time>
      </trkpt>
      <trkpt lat="41.71134" lon="8.79831">
        <ele>10.23</ele>
        <time>2022-04-26T16:26:13Z</time>
      </trkpt>
      <trkpt lat="41.71135" lon="8.7983">
        <ele>9.75</ele>
        <time>2022-04-26T16:26:53Z</time>
      </trkpt>
      <trkpt lat="41.71133" lon="8.79831">
        <ele>9.27</ele>
        <time>2022-04-26T16:27:25Z</time>
      </trkpt>
      <trkpt lat="41.71132" lon="8.79829">
        <ele>10.23</ele>
        <time>2022-04-26T16:28:03Z</time>
      </trkpt>
      <trkpt lat="41.71133" lon="8.79828">
        <ele>10.23</ele>
        <time>2022-04-26T16:28:37Z</time>
      </trkpt>
      <trkpt lat="41.71133" lon="8.79829">
        <ele>9.75</ele>
        <time>2022-04-26T16:28:53Z</time>
      </trkpt>
      <trkpt lat="41.71134" lon="8.79829">
        <ele>9.75</ele>
        <time>2022-04-26T16:29:18Z</time>
      </trkpt>
      <trkpt lat="41.71132" lon="8.79824">
        <ele>9.27</ele>
        <time>2022-04-26T16:29:38Z</time>
      </trkpt>
      <trkpt lat="41.71133" lon="8.79827">
        <ele>9.75</ele>
        <time>2022-04-26T16:30:00Z</time>
      </trkpt>
      <trkpt lat="41.71133" lon="8.79825">
        <ele>9.75</ele>
        <time>2022-04-26T16:30:31Z</time>
      </trkpt>
      <trkpt lat="41.71126" lon="8.79815">
        <ele>8.79</ele>
        <time>2022-04-26T16:30:54Z</time>
      </trkpt>
      <trkpt lat="41.71113" lon="8.79789">
        <ele>8.31</ele>
        <time>2022-04-26T16:31:14Z</time>
      </trkpt>
      <trkpt lat="41.71101" lon="8.79775">
        <ele>6.39</ele>
        <time>2022-04-26T16:31:33Z</time>
      </trkpt>
      <trkpt lat="41.71103" lon="8.79776">
        <ele>6.39</ele>
        <time>2022-04-26T16:31:35Z</time>
      </trkpt>
      <trkpt lat="41.71108" lon="8.79781">
        <ele>6.39</ele>
        <time>2022-04-26T16:31:40Z</time>
      </trkpt>
      <trkpt lat="41.71112" lon="8.79783">
        <ele>6.39</ele>
        <time>2022-04-26T16:31:43Z</time>
      </trkpt>
      <trkpt lat="41.71115" lon="8.79789">
        <ele>8.79</ele>
        <time>2022-04-26T16:31:58Z</time>
      </trkpt>
      <trkpt lat="41.71121" lon="8.79783">
        <ele>8.79</ele>
        <time>2022-04-26T16:32:09Z</time>
      </trkpt>
      <trkpt lat="41.71121" lon="8.79775">
        <ele>9.27</ele>
        <time>2022-04-26T16:32:25Z</time>
      </trkpt>
      <trkpt lat="41.7112" lon="8.79769">
        <ele>9.27</ele>
        <time>2022-04-26T16:32:33Z</time>
      </trkpt>
      <trkpt lat="41.7112" lon="8.79738">
        <ele>8.79</ele>
        <time>2022-04-26T16:32:51Z</time>
      </trkpt>
      <trkpt lat="41.71116" lon="8.79708">
        <ele>8.79</ele>
        <time>2022-04-26T16:33:09Z</time>
      </trkpt>
      <trkpt lat="41.71116" lon="8.79703">
        <ele>8.79</ele>
        <time>2022-04-26T16:33:12Z</time>
      </trkpt>
      <trkpt lat="41.71116" lon="8.79695">
        <ele>8.31</ele>
        <time>2022-04-26T16:33:18Z</time>
      </trkpt>
      <trkpt lat="41.71112" lon="8.79679">
        <ele>8.79</ele>
        <time>2022-04-26T16:33:34Z</time>
      </trkpt>
      <trkpt lat="41.71112" lon="8.7968">
        <ele>8.31</ele>
        <time>2022-04-26T16:33:38Z</time>
      </trkpt>
      <trkpt lat="41.7111" lon="8.79688">
        <ele>9.27</ele>
        <time>2022-04-26T16:33:50Z</time>
      </trkpt>
      <trkpt lat="41.7111" lon="8.7969">
        <ele>9.27</ele>
        <time>2022-04-26T16:34:11Z</time>
      </trkpt>
      <trkpt lat="41.7111" lon="8.79678">
        <ele>8.31</ele>
        <time>2022-04-26T16:34:34Z</time>
      </trkpt>
      <trkpt lat="41.7111" lon="8.79665">
        <ele>8.31</ele>
        <time>2022-04-26T16:34:43Z</time>
      </trkpt>
      <trkpt lat="41.71106" lon="8.79639">
        <ele>8.79</ele>
        <time>2022-04-26T16:35:02Z</time>
      </trkpt>
      <trkpt lat="41.71103" lon="8.79635">
        <ele>7.83</ele>
        <time>2022-04-26T16:35:07Z</time>
      </trkpt>
      <trkpt lat="41.71094" lon="8.79626">
        <ele>8.31</ele>
        <time>2022-04-26T16:35:16Z</time>
      </trkpt>
      <trkpt lat="41.71079" lon="8.7962">
        <ele>8.31</ele>
        <time>2022-04-26T16:35:30Z</time>
      </trkpt>
      <trkpt lat="41.71074" lon="8.79617">
        <ele>8.31</ele>
        <time>2022-04-26T16:35:33Z</time>
      </trkpt>
      <trkpt lat="41.71068" lon="8.79607">
        <ele>8.79</ele>
        <time>2022-04-26T16:35:39Z</time>
      </trkpt>
      <trkpt lat="41.71064" lon="8.79593">
        <ele>7.83</ele>
        <time>2022-04-26T16:35:47Z</time>
      </trkpt>
      <trkpt lat="41.71056" lon="8.79569">
        <ele>7.83</ele>
        <time>2022-04-26T16:36:04Z</time>
      </trkpt>
      <trkpt lat="41.7105" lon="8.79554">
        <ele>8.79</ele>
        <time>2022-04-26T16:36:20Z</time>
      </trkpt>
    </trkseg>
  </trk>
</gpx>